<?xml version="1.0" encoding="UTF-8" standalone="no" ?>
<gpx xmlns="http://www.topografix.com/GPX/1/1" xmlns:xsi="http://www.w3.org/2001/XMLSchema-instance" xsi:schemaLocation="http://www.topografix.com/GPX/1/1 http://www.topografix.com/GPX/1/1/gpx.xsd" version="1.1" creator="VisuGPX - https://www.visugpx.com">
  <metadata>
    <name>2018-01-14 Bike ride-Amberieux-Savigneux O 33</name>
    <desc><![CDATA[2018-01-14 Bike ride-Amberieux-Savigneux O 33]]></desc>
  </metadata>
  <wpt lat="45.92455" lon="4.73708">
    <ele>174</ele>
    <name><![CDATA[2018-01-14 11:08 (Start)]]></name>
  </wpt>
  <wpt lat="45.92463" lon="4.73711">
    <ele>174</ele>
    <name><![CDATA[2018-01-14 11:08 (End)]]></name>
    <desc><![CDATA[Created by Google My Tracks on Android  Name: 2018-01-14 11:08 Activity type: biking Description: - Total distance: 32.90 km (20.4 mi) Total time: 1:48:06 Moving time: 1:38:39 Average speed: 18.26 km/h (11.3 mi/h) Average moving speed: 20.01 km/h (12.4 mi/h) Max speed: 42.26 km/h (26.3 mi/h) Average pace: 3:17 min/km (5:17 min/mi) Average moving pace: 2:60 min/km (4:50 min/mi) Fastest pace: 1:25 min/km (2:17 min/mi) Max elevation: 330 m (1084 ft) Min elevation: 210 m (690 ft) Elevation gain: 374 m (1228 ft) Max grade: 32 % Min grade: -28 % Recorded: 14/01/2018 11:08]]></desc>
  </wpt>
  <trk>
    <name><![CDATA[2018-01-14 11:08]]></name>
    <trkseg>
      <trkpt lat="45.92455" lon="4.73708">
        <ele>174</ele>
        <time>2018-01-14T10:08:25.108Z</time>
      </trkpt>
      <trkpt lat="45.92455" lon="4.73709">
        <ele>174</ele>
        <time>2018-01-14T10:08:26.778Z</time>
      </trkpt>
      <trkpt lat="45.92454" lon="4.73709">
        <ele>174</ele>
        <time>2018-01-14T10:08:27.778Z</time>
      </trkpt>
      <trkpt lat="45.92458" lon="4.7371">
        <ele>174</ele>
        <time>2018-01-14T10:08:28.778Z</time>
      </trkpt>
      <trkpt lat="45.92459" lon="4.73708">
        <ele>174</ele>
        <time>2018-01-14T10:08:29.778Z</time>
      </trkpt>
      <trkpt lat="45.92466" lon="4.7371">
        <ele>174</ele>
        <time>2018-01-14T10:08:30.777Z</time>
      </trkpt>
      <trkpt lat="45.92466" lon="4.73709">
        <ele>174</ele>
        <time>2018-01-14T10:08:43Z</time>
      </trkpt>
      <trkpt lat="45.92466" lon="4.73709">
        <ele>174</ele>
        <time>2018-01-14T10:08:44Z</time>
      </trkpt>
      <trkpt lat="45.92471" lon="4.73702">
        <ele>174</ele>
        <time>2018-01-14T10:08:51Z</time>
      </trkpt>
      <trkpt lat="45.92471" lon="4.73698">
        <ele>174</ele>
        <time>2018-01-14T10:08:52Z</time>
      </trkpt>
      <trkpt lat="45.92473" lon="4.73687">
        <ele>174</ele>
        <time>2018-01-14T10:08:55Z</time>
      </trkpt>
      <trkpt lat="45.92473" lon="4.73684">
        <ele>174</ele>
        <time>2018-01-14T10:08:56Z</time>
      </trkpt>
      <trkpt lat="45.92473" lon="4.73673">
        <ele>174</ele>
        <time>2018-01-14T10:08:59Z</time>
      </trkpt>
      <trkpt lat="45.92474" lon="4.7367">
        <ele>174</ele>
        <time>2018-01-14T10:09:00Z</time>
      </trkpt>
      <trkpt lat="45.92474" lon="4.73661">
        <ele>174</ele>
        <time>2018-01-14T10:09:02Z</time>
      </trkpt>
      <trkpt lat="45.92474" lon="4.73657">
        <ele>174</ele>
        <time>2018-01-14T10:09:03Z</time>
      </trkpt>
      <trkpt lat="45.92475" lon="4.73647">
        <ele>174</ele>
        <time>2018-01-14T10:09:05Z</time>
      </trkpt>
      <trkpt lat="45.92476" lon="4.73643">
        <ele>174</ele>
        <time>2018-01-14T10:09:06Z</time>
      </trkpt>
      <trkpt lat="45.92482" lon="4.73639">
        <ele>174</ele>
        <time>2018-01-14T10:09:08Z</time>
      </trkpt>
      <trkpt lat="45.92486" lon="4.73639">
        <ele>174</ele>
        <time>2018-01-14T10:09:09Z</time>
      </trkpt>
      <trkpt lat="45.92494" lon="4.7364">
        <ele>174</ele>
        <time>2018-01-14T10:09:11Z</time>
      </trkpt>
      <trkpt lat="45.92498" lon="4.7364">
        <ele>174</ele>
        <time>2018-01-14T10:09:12Z</time>
      </trkpt>
      <trkpt lat="45.92502" lon="4.73641">
        <ele>174</ele>
        <time>2018-01-14T10:09:13Z</time>
      </trkpt>
      <trkpt lat="45.92507" lon="4.73642">
        <ele>174</ele>
        <time>2018-01-14T10:09:14Z</time>
      </trkpt>
      <trkpt lat="45.92512" lon="4.73642">
        <ele>174</ele>
        <time>2018-01-14T10:09:15Z</time>
      </trkpt>
      <trkpt lat="45.92517" lon="4.73642">
        <ele>174</ele>
        <time>2018-01-14T10:09:16Z</time>
      </trkpt>
      <trkpt lat="45.92522" lon="4.73642">
        <ele>173</ele>
        <time>2018-01-14T10:09:17Z</time>
      </trkpt>
      <trkpt lat="45.92527" lon="4.73643">
        <ele>173</ele>
        <time>2018-01-14T10:09:18Z</time>
      </trkpt>
      <trkpt lat="45.92532" lon="4.73642">
        <ele>173</ele>
        <time>2018-01-14T10:09:19Z</time>
      </trkpt>
      <trkpt lat="45.92537" lon="4.73642">
        <ele>173</ele>
        <time>2018-01-14T10:09:20Z</time>
      </trkpt>
      <trkpt lat="45.92542" lon="4.73641">
        <ele>173</ele>
        <time>2018-01-14T10:09:21Z</time>
      </trkpt>
      <trkpt lat="45.92547" lon="4.73639">
        <ele>173</ele>
        <time>2018-01-14T10:09:22Z</time>
      </trkpt>
      <trkpt lat="45.92552" lon="4.73638">
        <ele>173</ele>
        <time>2018-01-14T10:09:23Z</time>
      </trkpt>
      <trkpt lat="45.92558" lon="4.73637">
        <ele>173</ele>
        <time>2018-01-14T10:09:24Z</time>
      </trkpt>
      <trkpt lat="45.92562" lon="4.73637">
        <ele>173</ele>
        <time>2018-01-14T10:09:25Z</time>
      </trkpt>
      <trkpt lat="45.92567" lon="4.73635">
        <ele>173</ele>
        <time>2018-01-14T10:09:26Z</time>
      </trkpt>
      <trkpt lat="45.92572" lon="4.73635">
        <ele>173</ele>
        <time>2018-01-14T10:09:27Z</time>
      </trkpt>
      <trkpt lat="45.92578" lon="4.73634">
        <ele>172</ele>
        <time>2018-01-14T10:09:28Z</time>
      </trkpt>
      <trkpt lat="45.92582" lon="4.73634">
        <ele>172</ele>
        <time>2018-01-14T10:09:29Z</time>
      </trkpt>
      <trkpt lat="45.92588" lon="4.73633">
        <ele>172</ele>
        <time>2018-01-14T10:09:30Z</time>
      </trkpt>
      <trkpt lat="45.92594" lon="4.73632">
        <ele>172</ele>
        <time>2018-01-14T10:09:31Z</time>
      </trkpt>
      <trkpt lat="45.92601" lon="4.73631">
        <ele>172</ele>
        <time>2018-01-14T10:09:32Z</time>
      </trkpt>
      <trkpt lat="45.92607" lon="4.73631">
        <ele>173</ele>
        <time>2018-01-14T10:09:33Z</time>
      </trkpt>
      <trkpt lat="45.92612" lon="4.7363">
        <ele>173</ele>
        <time>2018-01-14T10:09:34Z</time>
      </trkpt>
      <trkpt lat="45.92617" lon="4.73633">
        <ele>173</ele>
        <time>2018-01-14T10:09:35Z</time>
      </trkpt>
      <trkpt lat="45.92621" lon="4.73636">
        <ele>173</ele>
        <time>2018-01-14T10:09:36Z</time>
      </trkpt>
      <trkpt lat="45.92625" lon="4.73641">
        <ele>173</ele>
        <time>2018-01-14T10:09:37Z</time>
      </trkpt>
      <trkpt lat="45.92627" lon="4.73647">
        <ele>173</ele>
        <time>2018-01-14T10:09:38Z</time>
      </trkpt>
      <trkpt lat="45.9263" lon="4.73656">
        <ele>173</ele>
        <time>2018-01-14T10:09:39Z</time>
      </trkpt>
      <trkpt lat="45.92633" lon="4.73662">
        <ele>173</ele>
        <time>2018-01-14T10:09:40Z</time>
      </trkpt>
      <trkpt lat="45.92636" lon="4.73668">
        <ele>173</ele>
        <time>2018-01-14T10:09:41Z</time>
      </trkpt>
      <trkpt lat="45.92638" lon="4.73675">
        <ele>173</ele>
        <time>2018-01-14T10:09:42Z</time>
      </trkpt>
      <trkpt lat="45.92643" lon="4.73681">
        <ele>173</ele>
        <time>2018-01-14T10:09:43Z</time>
      </trkpt>
      <trkpt lat="45.92648" lon="4.73686">
        <ele>173</ele>
        <time>2018-01-14T10:09:44Z</time>
      </trkpt>
      <trkpt lat="45.92652" lon="4.73691">
        <ele>173</ele>
        <time>2018-01-14T10:09:45Z</time>
      </trkpt>
      <trkpt lat="45.92655" lon="4.73697">
        <ele>173</ele>
        <time>2018-01-14T10:09:46Z</time>
      </trkpt>
      <trkpt lat="45.92659" lon="4.73701">
        <ele>173</ele>
        <time>2018-01-14T10:09:47Z</time>
      </trkpt>
      <trkpt lat="45.92664" lon="4.73705">
        <ele>173</ele>
        <time>2018-01-14T10:09:48Z</time>
      </trkpt>
      <trkpt lat="45.92668" lon="4.7371">
        <ele>174</ele>
        <time>2018-01-14T10:09:49Z</time>
      </trkpt>
      <trkpt lat="45.92673" lon="4.73713">
        <ele>174</ele>
        <time>2018-01-14T10:09:50Z</time>
      </trkpt>
      <trkpt lat="45.92679" lon="4.73717">
        <ele>174</ele>
        <time>2018-01-14T10:09:51Z</time>
      </trkpt>
      <trkpt lat="45.92685" lon="4.73719">
        <ele>173</ele>
        <time>2018-01-14T10:09:52Z</time>
      </trkpt>
      <trkpt lat="45.9269" lon="4.73721">
        <ele>173</ele>
        <time>2018-01-14T10:09:53Z</time>
      </trkpt>
      <trkpt lat="45.92696" lon="4.73723">
        <ele>173</ele>
        <time>2018-01-14T10:09:54Z</time>
      </trkpt>
      <trkpt lat="45.92701" lon="4.73724">
        <ele>173</ele>
        <time>2018-01-14T10:09:55Z</time>
      </trkpt>
      <trkpt lat="45.92706" lon="4.73725">
        <ele>173</ele>
        <time>2018-01-14T10:09:56Z</time>
      </trkpt>
      <trkpt lat="45.92711" lon="4.73725">
        <ele>173</ele>
        <time>2018-01-14T10:09:57Z</time>
      </trkpt>
      <trkpt lat="45.92716" lon="4.73726">
        <ele>173</ele>
        <time>2018-01-14T10:09:58Z</time>
      </trkpt>
      <trkpt lat="45.92721" lon="4.73726">
        <ele>173</ele>
        <time>2018-01-14T10:09:59Z</time>
      </trkpt>
      <trkpt lat="45.92726" lon="4.73726">
        <ele>173</ele>
        <time>2018-01-14T10:10:00Z</time>
      </trkpt>
      <trkpt lat="45.92732" lon="4.73726">
        <ele>173</ele>
        <time>2018-01-14T10:10:01Z</time>
      </trkpt>
      <trkpt lat="45.92736" lon="4.73727">
        <ele>173</ele>
        <time>2018-01-14T10:10:02Z</time>
      </trkpt>
      <trkpt lat="45.92742" lon="4.73728">
        <ele>173</ele>
        <time>2018-01-14T10:10:03Z</time>
      </trkpt>
      <trkpt lat="45.92747" lon="4.73729">
        <ele>173</ele>
        <time>2018-01-14T10:10:04Z</time>
      </trkpt>
      <trkpt lat="45.92753" lon="4.7373">
        <ele>172</ele>
        <time>2018-01-14T10:10:05Z</time>
      </trkpt>
      <trkpt lat="45.92758" lon="4.73731">
        <ele>172</ele>
        <time>2018-01-14T10:10:06Z</time>
      </trkpt>
      <trkpt lat="45.92763" lon="4.73733">
        <ele>172</ele>
        <time>2018-01-14T10:10:07Z</time>
      </trkpt>
      <trkpt lat="45.92768" lon="4.73736">
        <ele>172</ele>
        <time>2018-01-14T10:10:08Z</time>
      </trkpt>
      <trkpt lat="45.92773" lon="4.73737">
        <ele>172</ele>
        <time>2018-01-14T10:10:09Z</time>
      </trkpt>
      <trkpt lat="45.92777" lon="4.73739">
        <ele>172</ele>
        <time>2018-01-14T10:10:10Z</time>
      </trkpt>
      <trkpt lat="45.92783" lon="4.73744">
        <ele>172</ele>
        <time>2018-01-14T10:10:13Z</time>
      </trkpt>
      <trkpt lat="45.92786" lon="4.73748">
        <ele>172</ele>
        <time>2018-01-14T10:10:14Z</time>
      </trkpt>
      <trkpt lat="45.92791" lon="4.73756">
        <ele>173</ele>
        <time>2018-01-14T10:10:16Z</time>
      </trkpt>
      <trkpt lat="45.92795" lon="4.73758">
        <ele>173</ele>
        <time>2018-01-14T10:10:17Z</time>
      </trkpt>
      <trkpt lat="45.92799" lon="4.7376">
        <ele>173</ele>
        <time>2018-01-14T10:10:18Z</time>
      </trkpt>
      <trkpt lat="45.92803" lon="4.73762">
        <ele>173</ele>
        <time>2018-01-14T10:10:19Z</time>
      </trkpt>
      <trkpt lat="45.92808" lon="4.73765">
        <ele>173</ele>
        <time>2018-01-14T10:10:20Z</time>
      </trkpt>
      <trkpt lat="45.92813" lon="4.73767">
        <ele>173</ele>
        <time>2018-01-14T10:10:21Z</time>
      </trkpt>
      <trkpt lat="45.92818" lon="4.7377">
        <ele>173</ele>
        <time>2018-01-14T10:10:22Z</time>
      </trkpt>
      <trkpt lat="45.92823" lon="4.73774">
        <ele>173</ele>
        <time>2018-01-14T10:10:23Z</time>
      </trkpt>
      <trkpt lat="45.92828" lon="4.73777">
        <ele>173</ele>
        <time>2018-01-14T10:10:24Z</time>
      </trkpt>
      <trkpt lat="45.92832" lon="4.73782">
        <ele>173</ele>
        <time>2018-01-14T10:10:25Z</time>
      </trkpt>
      <trkpt lat="45.92837" lon="4.73787">
        <ele>173</ele>
        <time>2018-01-14T10:10:26Z</time>
      </trkpt>
      <trkpt lat="45.92842" lon="4.7379">
        <ele>173</ele>
        <time>2018-01-14T10:10:27Z</time>
      </trkpt>
      <trkpt lat="45.92847" lon="4.73795">
        <ele>173</ele>
        <time>2018-01-14T10:10:28Z</time>
      </trkpt>
      <trkpt lat="45.92852" lon="4.73799">
        <ele>173</ele>
        <time>2018-01-14T10:10:29Z</time>
      </trkpt>
      <trkpt lat="45.92855" lon="4.73804">
        <ele>173</ele>
        <time>2018-01-14T10:10:30Z</time>
      </trkpt>
      <trkpt lat="45.92858" lon="4.7381">
        <ele>173</ele>
        <time>2018-01-14T10:10:31Z</time>
      </trkpt>
      <trkpt lat="45.9286" lon="4.73818">
        <ele>173</ele>
        <time>2018-01-14T10:10:32Z</time>
      </trkpt>
      <trkpt lat="45.92862" lon="4.73825">
        <ele>173</ele>
        <time>2018-01-14T10:10:33Z</time>
      </trkpt>
      <trkpt lat="45.92863" lon="4.73833">
        <ele>173</ele>
        <time>2018-01-14T10:10:34Z</time>
      </trkpt>
      <trkpt lat="45.92865" lon="4.7384">
        <ele>173</ele>
        <time>2018-01-14T10:10:35Z</time>
      </trkpt>
      <trkpt lat="45.92868" lon="4.73847">
        <ele>173</ele>
        <time>2018-01-14T10:10:36Z</time>
      </trkpt>
      <trkpt lat="45.92869" lon="4.73854">
        <ele>173</ele>
        <time>2018-01-14T10:10:37Z</time>
      </trkpt>
      <trkpt lat="45.92872" lon="4.73861">
        <ele>173</ele>
        <time>2018-01-14T10:10:38Z</time>
      </trkpt>
      <trkpt lat="45.92875" lon="4.73869">
        <ele>173</ele>
        <time>2018-01-14T10:10:39Z</time>
      </trkpt>
      <trkpt lat="45.92878" lon="4.73877">
        <ele>173</ele>
        <time>2018-01-14T10:10:40Z</time>
      </trkpt>
      <trkpt lat="45.9288" lon="4.73885">
        <ele>173</ele>
        <time>2018-01-14T10:10:41Z</time>
      </trkpt>
      <trkpt lat="45.92884" lon="4.73892">
        <ele>173</ele>
        <time>2018-01-14T10:10:42Z</time>
      </trkpt>
      <trkpt lat="45.92886" lon="4.73899">
        <ele>173</ele>
        <time>2018-01-14T10:10:43Z</time>
      </trkpt>
      <trkpt lat="45.92886" lon="4.73909">
        <ele>173</ele>
        <time>2018-01-14T10:10:44Z</time>
      </trkpt>
      <trkpt lat="45.92889" lon="4.73917">
        <ele>172</ele>
        <time>2018-01-14T10:10:45Z</time>
      </trkpt>
      <trkpt lat="45.92889" lon="4.73926">
        <ele>172</ele>
        <time>2018-01-14T10:10:46Z</time>
      </trkpt>
      <trkpt lat="45.92888" lon="4.73933">
        <ele>172</ele>
        <time>2018-01-14T10:10:47Z</time>
      </trkpt>
      <trkpt lat="45.92888" lon="4.7394">
        <ele>172</ele>
        <time>2018-01-14T10:10:48Z</time>
      </trkpt>
      <trkpt lat="45.92888" lon="4.73946">
        <ele>172</ele>
        <time>2018-01-14T10:10:49Z</time>
      </trkpt>
      <trkpt lat="45.92887" lon="4.73954">
        <ele>172</ele>
        <time>2018-01-14T10:10:50Z</time>
      </trkpt>
      <trkpt lat="45.92885" lon="4.73964">
        <ele>172</ele>
        <time>2018-01-14T10:10:51Z</time>
      </trkpt>
      <trkpt lat="45.92885" lon="4.73971">
        <ele>172</ele>
        <time>2018-01-14T10:10:52Z</time>
      </trkpt>
      <trkpt lat="45.92883" lon="4.73981">
        <ele>172</ele>
        <time>2018-01-14T10:10:53Z</time>
      </trkpt>
      <trkpt lat="45.92883" lon="4.73987">
        <ele>172</ele>
        <time>2018-01-14T10:10:54Z</time>
      </trkpt>
      <trkpt lat="45.92884" lon="4.73995">
        <ele>172</ele>
        <time>2018-01-14T10:10:55Z</time>
      </trkpt>
      <trkpt lat="45.92881" lon="4.74002">
        <ele>172</ele>
        <time>2018-01-14T10:10:56Z</time>
      </trkpt>
      <trkpt lat="45.92879" lon="4.74009">
        <ele>172</ele>
        <time>2018-01-14T10:10:57Z</time>
      </trkpt>
      <trkpt lat="45.92878" lon="4.74015">
        <ele>172</ele>
        <time>2018-01-14T10:10:58Z</time>
      </trkpt>
      <trkpt lat="45.92876" lon="4.74021">
        <ele>172</ele>
        <time>2018-01-14T10:10:59Z</time>
      </trkpt>
      <trkpt lat="45.92875" lon="4.74029">
        <ele>172</ele>
        <time>2018-01-14T10:11:00Z</time>
      </trkpt>
      <trkpt lat="45.92872" lon="4.74036">
        <ele>172</ele>
        <time>2018-01-14T10:11:01Z</time>
      </trkpt>
      <trkpt lat="45.92869" lon="4.74042">
        <ele>172</ele>
        <time>2018-01-14T10:11:02Z</time>
      </trkpt>
      <trkpt lat="45.92866" lon="4.74049">
        <ele>172</ele>
        <time>2018-01-14T10:11:03Z</time>
      </trkpt>
      <trkpt lat="45.92862" lon="4.74056">
        <ele>172</ele>
        <time>2018-01-14T10:11:04Z</time>
      </trkpt>
      <trkpt lat="45.92858" lon="4.74061">
        <ele>172</ele>
        <time>2018-01-14T10:11:05Z</time>
      </trkpt>
      <trkpt lat="45.92855" lon="4.74068">
        <ele>172</ele>
        <time>2018-01-14T10:11:06Z</time>
      </trkpt>
      <trkpt lat="45.92849" lon="4.74074">
        <ele>172</ele>
        <time>2018-01-14T10:11:07Z</time>
      </trkpt>
      <trkpt lat="45.92844" lon="4.7408">
        <ele>171</ele>
        <time>2018-01-14T10:11:08Z</time>
      </trkpt>
      <trkpt lat="45.92839" lon="4.74085">
        <ele>171</ele>
        <time>2018-01-14T10:11:09Z</time>
      </trkpt>
      <trkpt lat="45.92835" lon="4.7409">
        <ele>171</ele>
        <time>2018-01-14T10:11:10Z</time>
      </trkpt>
      <trkpt lat="45.9283" lon="4.74094">
        <ele>171</ele>
        <time>2018-01-14T10:11:11Z</time>
      </trkpt>
      <trkpt lat="45.92825" lon="4.74099">
        <ele>171</ele>
        <time>2018-01-14T10:11:12Z</time>
      </trkpt>
      <trkpt lat="45.92819" lon="4.74103">
        <ele>171</ele>
        <time>2018-01-14T10:11:13Z</time>
      </trkpt>
      <trkpt lat="45.92815" lon="4.74108">
        <ele>172</ele>
        <time>2018-01-14T10:11:14Z</time>
      </trkpt>
      <trkpt lat="45.9281" lon="4.74112">
        <ele>172</ele>
        <time>2018-01-14T10:11:15Z</time>
      </trkpt>
      <trkpt lat="45.92805" lon="4.74117">
        <ele>172</ele>
        <time>2018-01-14T10:11:16Z</time>
      </trkpt>
      <trkpt lat="45.928" lon="4.74122">
        <ele>172</ele>
        <time>2018-01-14T10:11:17Z</time>
      </trkpt>
      <trkpt lat="45.92795" lon="4.74126">
        <ele>172</ele>
        <time>2018-01-14T10:11:18Z</time>
      </trkpt>
      <trkpt lat="45.9279" lon="4.74131">
        <ele>172</ele>
        <time>2018-01-14T10:11:19Z</time>
      </trkpt>
      <trkpt lat="45.92787" lon="4.74136">
        <ele>172</ele>
        <time>2018-01-14T10:11:20Z</time>
      </trkpt>
      <trkpt lat="45.92782" lon="4.74141">
        <ele>172</ele>
        <time>2018-01-14T10:11:21Z</time>
      </trkpt>
      <trkpt lat="45.92778" lon="4.74145">
        <ele>172</ele>
        <time>2018-01-14T10:11:22Z</time>
      </trkpt>
      <trkpt lat="45.92773" lon="4.7415">
        <ele>172</ele>
        <time>2018-01-14T10:11:23Z</time>
      </trkpt>
      <trkpt lat="45.92769" lon="4.74156">
        <ele>172</ele>
        <time>2018-01-14T10:11:24Z</time>
      </trkpt>
      <trkpt lat="45.92763" lon="4.74161">
        <ele>172</ele>
        <time>2018-01-14T10:11:25Z</time>
      </trkpt>
      <trkpt lat="45.92758" lon="4.74166">
        <ele>172</ele>
        <time>2018-01-14T10:11:26Z</time>
      </trkpt>
      <trkpt lat="45.92753" lon="4.74171">
        <ele>172</ele>
        <time>2018-01-14T10:11:27Z</time>
      </trkpt>
      <trkpt lat="45.92748" lon="4.74175">
        <ele>172</ele>
        <time>2018-01-14T10:11:28Z</time>
      </trkpt>
      <trkpt lat="45.92744" lon="4.74182">
        <ele>172</ele>
        <time>2018-01-14T10:11:29Z</time>
      </trkpt>
      <trkpt lat="45.9274" lon="4.74188">
        <ele>172</ele>
        <time>2018-01-14T10:11:30Z</time>
      </trkpt>
      <trkpt lat="45.92736" lon="4.74194">
        <ele>171</ele>
        <time>2018-01-14T10:11:31Z</time>
      </trkpt>
      <trkpt lat="45.92732" lon="4.742">
        <ele>171</ele>
        <time>2018-01-14T10:11:32Z</time>
      </trkpt>
      <trkpt lat="45.92727" lon="4.74206">
        <ele>171</ele>
        <time>2018-01-14T10:11:33Z</time>
      </trkpt>
      <trkpt lat="45.92723" lon="4.74212">
        <ele>171</ele>
        <time>2018-01-14T10:11:34Z</time>
      </trkpt>
      <trkpt lat="45.92719" lon="4.74218">
        <ele>171</ele>
        <time>2018-01-14T10:11:35Z</time>
      </trkpt>
      <trkpt lat="45.92714" lon="4.74224">
        <ele>171</ele>
        <time>2018-01-14T10:11:36Z</time>
      </trkpt>
      <trkpt lat="45.9271" lon="4.7423">
        <ele>171</ele>
        <time>2018-01-14T10:11:37Z</time>
      </trkpt>
      <trkpt lat="45.92707" lon="4.74238">
        <ele>171</ele>
        <time>2018-01-14T10:11:38Z</time>
      </trkpt>
      <trkpt lat="45.92703" lon="4.74244">
        <ele>171</ele>
        <time>2018-01-14T10:11:39Z</time>
      </trkpt>
      <trkpt lat="45.92699" lon="4.7425">
        <ele>171</ele>
        <time>2018-01-14T10:11:40Z</time>
      </trkpt>
      <trkpt lat="45.92696" lon="4.74255">
        <ele>171</ele>
        <time>2018-01-14T10:11:41Z</time>
      </trkpt>
      <trkpt lat="45.9269" lon="4.74262">
        <ele>171</ele>
        <time>2018-01-14T10:11:42Z</time>
      </trkpt>
      <trkpt lat="45.92685" lon="4.74269">
        <ele>171</ele>
        <time>2018-01-14T10:11:43Z</time>
      </trkpt>
      <trkpt lat="45.92682" lon="4.74275">
        <ele>171</ele>
        <time>2018-01-14T10:11:44Z</time>
      </trkpt>
      <trkpt lat="45.92676" lon="4.74282">
        <ele>171</ele>
        <time>2018-01-14T10:11:45Z</time>
      </trkpt>
      <trkpt lat="45.92673" lon="4.74289">
        <ele>171</ele>
        <time>2018-01-14T10:11:46Z</time>
      </trkpt>
      <trkpt lat="45.9267" lon="4.74297">
        <ele>171</ele>
        <time>2018-01-14T10:11:47Z</time>
      </trkpt>
      <trkpt lat="45.92666" lon="4.74305">
        <ele>171</ele>
        <time>2018-01-14T10:11:48Z</time>
      </trkpt>
      <trkpt lat="45.92662" lon="4.74312">
        <ele>171</ele>
        <time>2018-01-14T10:11:49Z</time>
      </trkpt>
      <trkpt lat="45.92658" lon="4.74319">
        <ele>171</ele>
        <time>2018-01-14T10:11:50Z</time>
      </trkpt>
      <trkpt lat="45.92655" lon="4.74326">
        <ele>171</ele>
        <time>2018-01-14T10:11:51Z</time>
      </trkpt>
      <trkpt lat="45.92652" lon="4.74333">
        <ele>171</ele>
        <time>2018-01-14T10:11:52Z</time>
      </trkpt>
      <trkpt lat="45.92647" lon="4.7434">
        <ele>171</ele>
        <time>2018-01-14T10:11:53Z</time>
      </trkpt>
      <trkpt lat="45.92644" lon="4.74347">
        <ele>171</ele>
        <time>2018-01-14T10:11:54Z</time>
      </trkpt>
      <trkpt lat="45.9264" lon="4.74355">
        <ele>171</ele>
        <time>2018-01-14T10:11:55Z</time>
      </trkpt>
      <trkpt lat="45.92636" lon="4.74362">
        <ele>171</ele>
        <time>2018-01-14T10:11:56Z</time>
      </trkpt>
      <trkpt lat="45.92631" lon="4.7437">
        <ele>171</ele>
        <time>2018-01-14T10:11:57Z</time>
      </trkpt>
      <trkpt lat="45.92627" lon="4.74377">
        <ele>170</ele>
        <time>2018-01-14T10:11:58Z</time>
      </trkpt>
      <trkpt lat="45.92624" lon="4.74383">
        <ele>170</ele>
        <time>2018-01-14T10:11:59Z</time>
      </trkpt>
      <trkpt lat="45.92618" lon="4.74389">
        <ele>170</ele>
        <time>2018-01-14T10:12:00Z</time>
      </trkpt>
      <trkpt lat="45.92614" lon="4.74396">
        <ele>170</ele>
        <time>2018-01-14T10:12:01Z</time>
      </trkpt>
      <trkpt lat="45.92611" lon="4.74402">
        <ele>170</ele>
        <time>2018-01-14T10:12:02Z</time>
      </trkpt>
      <trkpt lat="45.92607" lon="4.74409">
        <ele>170</ele>
        <time>2018-01-14T10:12:03Z</time>
      </trkpt>
      <trkpt lat="45.92603" lon="4.74416">
        <ele>170</ele>
        <time>2018-01-14T10:12:04Z</time>
      </trkpt>
      <trkpt lat="45.926" lon="4.74424">
        <ele>170</ele>
        <time>2018-01-14T10:12:05Z</time>
      </trkpt>
      <trkpt lat="45.92596" lon="4.74432">
        <ele>170</ele>
        <time>2018-01-14T10:12:06Z</time>
      </trkpt>
      <trkpt lat="45.92592" lon="4.74439">
        <ele>170</ele>
        <time>2018-01-14T10:12:07Z</time>
      </trkpt>
      <trkpt lat="45.92589" lon="4.74446">
        <ele>170</ele>
        <time>2018-01-14T10:12:08Z</time>
      </trkpt>
      <trkpt lat="45.92585" lon="4.74453">
        <ele>170</ele>
        <time>2018-01-14T10:12:09Z</time>
      </trkpt>
      <trkpt lat="45.92582" lon="4.7446">
        <ele>170</ele>
        <time>2018-01-14T10:12:10Z</time>
      </trkpt>
      <trkpt lat="45.92577" lon="4.74466">
        <ele>170</ele>
        <time>2018-01-14T10:12:11Z</time>
      </trkpt>
      <trkpt lat="45.92574" lon="4.74474">
        <ele>170</ele>
        <time>2018-01-14T10:12:12Z</time>
      </trkpt>
      <trkpt lat="45.9257" lon="4.74482">
        <ele>170</ele>
        <time>2018-01-14T10:12:13Z</time>
      </trkpt>
      <trkpt lat="45.92566" lon="4.74489">
        <ele>170</ele>
        <time>2018-01-14T10:12:14Z</time>
      </trkpt>
      <trkpt lat="45.92563" lon="4.74496">
        <ele>170</ele>
        <time>2018-01-14T10:12:15Z</time>
      </trkpt>
      <trkpt lat="45.92559" lon="4.74503">
        <ele>170</ele>
        <time>2018-01-14T10:12:16Z</time>
      </trkpt>
      <trkpt lat="45.92555" lon="4.7451">
        <ele>170</ele>
        <time>2018-01-14T10:12:17Z</time>
      </trkpt>
      <trkpt lat="45.92551" lon="4.74518">
        <ele>170</ele>
        <time>2018-01-14T10:12:18Z</time>
      </trkpt>
      <trkpt lat="45.92547" lon="4.74526">
        <ele>170</ele>
        <time>2018-01-14T10:12:19Z</time>
      </trkpt>
      <trkpt lat="45.92543" lon="4.74532">
        <ele>170</ele>
        <time>2018-01-14T10:12:20Z</time>
      </trkpt>
      <trkpt lat="45.92539" lon="4.7454">
        <ele>171</ele>
        <time>2018-01-14T10:12:21Z</time>
      </trkpt>
      <trkpt lat="45.92535" lon="4.74547">
        <ele>171</ele>
        <time>2018-01-14T10:12:22Z</time>
      </trkpt>
      <trkpt lat="45.92529" lon="4.74554">
        <ele>171</ele>
        <time>2018-01-14T10:12:23Z</time>
      </trkpt>
      <trkpt lat="45.92525" lon="4.74562">
        <ele>171</ele>
        <time>2018-01-14T10:12:24Z</time>
      </trkpt>
      <trkpt lat="45.9252" lon="4.74567">
        <ele>171</ele>
        <time>2018-01-14T10:12:25Z</time>
      </trkpt>
      <trkpt lat="45.92516" lon="4.74574">
        <ele>171</ele>
        <time>2018-01-14T10:12:26Z</time>
      </trkpt>
      <trkpt lat="45.9251" lon="4.74579">
        <ele>171</ele>
        <time>2018-01-14T10:12:27Z</time>
      </trkpt>
      <trkpt lat="45.92504" lon="4.74586">
        <ele>171</ele>
        <time>2018-01-14T10:12:28Z</time>
      </trkpt>
      <trkpt lat="45.92501" lon="4.74593">
        <ele>171</ele>
        <time>2018-01-14T10:12:29Z</time>
      </trkpt>
      <trkpt lat="45.92496" lon="4.74598">
        <ele>171</ele>
        <time>2018-01-14T10:12:30Z</time>
      </trkpt>
      <trkpt lat="45.92492" lon="4.74605">
        <ele>171</ele>
        <time>2018-01-14T10:12:31Z</time>
      </trkpt>
      <trkpt lat="45.92487" lon="4.7461">
        <ele>171</ele>
        <time>2018-01-14T10:12:32Z</time>
      </trkpt>
      <trkpt lat="45.92482" lon="4.74616">
        <ele>171</ele>
        <time>2018-01-14T10:12:33Z</time>
      </trkpt>
      <trkpt lat="45.92478" lon="4.74621">
        <ele>171</ele>
        <time>2018-01-14T10:12:34Z</time>
      </trkpt>
      <trkpt lat="45.92474" lon="4.74628">
        <ele>171</ele>
        <time>2018-01-14T10:12:35Z</time>
      </trkpt>
      <trkpt lat="45.9247" lon="4.74634">
        <ele>171</ele>
        <time>2018-01-14T10:12:36Z</time>
      </trkpt>
      <trkpt lat="45.92466" lon="4.74641">
        <ele>171</ele>
        <time>2018-01-14T10:12:37Z</time>
      </trkpt>
      <trkpt lat="45.92462" lon="4.74647">
        <ele>171</ele>
        <time>2018-01-14T10:12:38Z</time>
      </trkpt>
      <trkpt lat="45.92458" lon="4.74654">
        <ele>171</ele>
        <time>2018-01-14T10:12:39Z</time>
      </trkpt>
      <trkpt lat="45.92454" lon="4.74659">
        <ele>171</ele>
        <time>2018-01-14T10:12:40Z</time>
      </trkpt>
      <trkpt lat="45.92451" lon="4.74666">
        <ele>171</ele>
        <time>2018-01-14T10:12:41Z</time>
      </trkpt>
      <trkpt lat="45.92445" lon="4.74671">
        <ele>171</ele>
        <time>2018-01-14T10:12:42Z</time>
      </trkpt>
      <trkpt lat="45.92444" lon="4.7468">
        <ele>171</ele>
        <time>2018-01-14T10:12:43Z</time>
      </trkpt>
      <trkpt lat="45.92441" lon="4.74688">
        <ele>171</ele>
        <time>2018-01-14T10:12:44Z</time>
      </trkpt>
      <trkpt lat="45.92435" lon="4.74696">
        <ele>171</ele>
        <time>2018-01-14T10:12:45Z</time>
      </trkpt>
      <trkpt lat="45.92432" lon="4.74703">
        <ele>171</ele>
        <time>2018-01-14T10:12:46Z</time>
      </trkpt>
      <trkpt lat="45.92429" lon="4.74712">
        <ele>171</ele>
        <time>2018-01-14T10:12:47Z</time>
      </trkpt>
      <trkpt lat="45.92425" lon="4.74719">
        <ele>171</ele>
        <time>2018-01-14T10:12:48Z</time>
      </trkpt>
      <trkpt lat="45.92423" lon="4.74727">
        <ele>171</ele>
        <time>2018-01-14T10:12:49Z</time>
      </trkpt>
      <trkpt lat="45.9242" lon="4.74738">
        <ele>172</ele>
        <time>2018-01-14T10:12:50Z</time>
      </trkpt>
      <trkpt lat="45.92417" lon="4.74745">
        <ele>172</ele>
        <time>2018-01-14T10:12:51Z</time>
      </trkpt>
      <trkpt lat="45.92415" lon="4.74754">
        <ele>172</ele>
        <time>2018-01-14T10:12:52Z</time>
      </trkpt>
      <trkpt lat="45.92413" lon="4.74762">
        <ele>172</ele>
        <time>2018-01-14T10:12:53Z</time>
      </trkpt>
      <trkpt lat="45.92411" lon="4.74771">
        <ele>172</ele>
        <time>2018-01-14T10:12:54Z</time>
      </trkpt>
      <trkpt lat="45.92409" lon="4.7478">
        <ele>171</ele>
        <time>2018-01-14T10:12:55Z</time>
      </trkpt>
      <trkpt lat="45.92407" lon="4.74788">
        <ele>171</ele>
        <time>2018-01-14T10:12:56Z</time>
      </trkpt>
      <trkpt lat="45.92404" lon="4.74797">
        <ele>171</ele>
        <time>2018-01-14T10:12:57Z</time>
      </trkpt>
      <trkpt lat="45.92402" lon="4.74808">
        <ele>171</ele>
        <time>2018-01-14T10:12:58Z</time>
      </trkpt>
      <trkpt lat="45.924" lon="4.74815">
        <ele>171</ele>
        <time>2018-01-14T10:12:59Z</time>
      </trkpt>
      <trkpt lat="45.92398" lon="4.74825">
        <ele>171</ele>
        <time>2018-01-14T10:13:00Z</time>
      </trkpt>
      <trkpt lat="45.92396" lon="4.74834">
        <ele>171</ele>
        <time>2018-01-14T10:13:01Z</time>
      </trkpt>
      <trkpt lat="45.92394" lon="4.74843">
        <ele>171</ele>
        <time>2018-01-14T10:13:02Z</time>
      </trkpt>
      <trkpt lat="45.9239" lon="4.74853">
        <ele>171</ele>
        <time>2018-01-14T10:13:03Z</time>
      </trkpt>
      <trkpt lat="45.92387" lon="4.74861">
        <ele>171</ele>
        <time>2018-01-14T10:13:04Z</time>
      </trkpt>
      <trkpt lat="45.92384" lon="4.74871">
        <ele>171</ele>
        <time>2018-01-14T10:13:05Z</time>
      </trkpt>
      <trkpt lat="45.92381" lon="4.74882">
        <ele>171</ele>
        <time>2018-01-14T10:13:06Z</time>
      </trkpt>
      <trkpt lat="45.92378" lon="4.7489">
        <ele>171</ele>
        <time>2018-01-14T10:13:07Z</time>
      </trkpt>
      <trkpt lat="45.92375" lon="4.74901">
        <ele>171</ele>
        <time>2018-01-14T10:13:08Z</time>
      </trkpt>
      <trkpt lat="45.92372" lon="4.7491">
        <ele>171</ele>
        <time>2018-01-14T10:13:09Z</time>
      </trkpt>
      <trkpt lat="45.92369" lon="4.74918">
        <ele>170</ele>
        <time>2018-01-14T10:13:10Z</time>
      </trkpt>
      <trkpt lat="45.92366" lon="4.74926">
        <ele>170</ele>
        <time>2018-01-14T10:13:11Z</time>
      </trkpt>
      <trkpt lat="45.92363" lon="4.74934">
        <ele>170</ele>
        <time>2018-01-14T10:13:12Z</time>
      </trkpt>
      <trkpt lat="45.9236" lon="4.74941">
        <ele>170</ele>
        <time>2018-01-14T10:13:13Z</time>
      </trkpt>
      <trkpt lat="45.92357" lon="4.7495">
        <ele>170</ele>
        <time>2018-01-14T10:13:14Z</time>
      </trkpt>
      <trkpt lat="45.92354" lon="4.74959">
        <ele>170</ele>
        <time>2018-01-14T10:13:15Z</time>
      </trkpt>
      <trkpt lat="45.92351" lon="4.74967">
        <ele>170</ele>
        <time>2018-01-14T10:13:16Z</time>
      </trkpt>
      <trkpt lat="45.92348" lon="4.74974">
        <ele>170</ele>
        <time>2018-01-14T10:13:17Z</time>
      </trkpt>
      <trkpt lat="45.92344" lon="4.74982">
        <ele>170</ele>
        <time>2018-01-14T10:13:18Z</time>
      </trkpt>
      <trkpt lat="45.92341" lon="4.74989">
        <ele>170</ele>
        <time>2018-01-14T10:13:19Z</time>
      </trkpt>
      <trkpt lat="45.92339" lon="4.74997">
        <ele>170</ele>
        <time>2018-01-14T10:13:20Z</time>
      </trkpt>
      <trkpt lat="45.92336" lon="4.75005">
        <ele>170</ele>
        <time>2018-01-14T10:13:21Z</time>
      </trkpt>
      <trkpt lat="45.92333" lon="4.75012">
        <ele>171</ele>
        <time>2018-01-14T10:13:22Z</time>
      </trkpt>
      <trkpt lat="45.9233" lon="4.75019">
        <ele>171</ele>
        <time>2018-01-14T10:13:23Z</time>
      </trkpt>
      <trkpt lat="45.92327" lon="4.75027">
        <ele>171</ele>
        <time>2018-01-14T10:13:24Z</time>
      </trkpt>
      <trkpt lat="45.92324" lon="4.75034">
        <ele>171</ele>
        <time>2018-01-14T10:13:25Z</time>
      </trkpt>
      <trkpt lat="45.92319" lon="4.7504">
        <ele>172</ele>
        <time>2018-01-14T10:13:26Z</time>
      </trkpt>
      <trkpt lat="45.92315" lon="4.75046">
        <ele>172</ele>
        <time>2018-01-14T10:13:27Z</time>
      </trkpt>
      <trkpt lat="45.92311" lon="4.75053">
        <ele>172</ele>
        <time>2018-01-14T10:13:28Z</time>
      </trkpt>
      <trkpt lat="45.92307" lon="4.7506">
        <ele>172</ele>
        <time>2018-01-14T10:13:29Z</time>
      </trkpt>
      <trkpt lat="45.92302" lon="4.75066">
        <ele>172</ele>
        <time>2018-01-14T10:13:30Z</time>
      </trkpt>
      <trkpt lat="45.92297" lon="4.7507">
        <ele>172</ele>
        <time>2018-01-14T10:13:31Z</time>
      </trkpt>
      <trkpt lat="45.92292" lon="4.75076">
        <ele>172</ele>
        <time>2018-01-14T10:13:32Z</time>
      </trkpt>
      <trkpt lat="45.92288" lon="4.75081">
        <ele>172</ele>
        <time>2018-01-14T10:13:33Z</time>
      </trkpt>
      <trkpt lat="45.92284" lon="4.75086">
        <ele>173</ele>
        <time>2018-01-14T10:13:34Z</time>
      </trkpt>
      <trkpt lat="45.92279" lon="4.75092">
        <ele>173</ele>
        <time>2018-01-14T10:13:35Z</time>
      </trkpt>
      <trkpt lat="45.92274" lon="4.75098">
        <ele>173</ele>
        <time>2018-01-14T10:13:36Z</time>
      </trkpt>
      <trkpt lat="45.92269" lon="4.75103">
        <ele>173</ele>
        <time>2018-01-14T10:13:37Z</time>
      </trkpt>
      <trkpt lat="45.92264" lon="4.75108">
        <ele>174</ele>
        <time>2018-01-14T10:13:38Z</time>
      </trkpt>
      <trkpt lat="45.92259" lon="4.75114">
        <ele>174</ele>
        <time>2018-01-14T10:13:39Z</time>
      </trkpt>
      <trkpt lat="45.92254" lon="4.75117">
        <ele>174</ele>
        <time>2018-01-14T10:13:40Z</time>
      </trkpt>
      <trkpt lat="45.92249" lon="4.75123">
        <ele>174</ele>
        <time>2018-01-14T10:13:41Z</time>
      </trkpt>
      <trkpt lat="45.92245" lon="4.75129">
        <ele>174</ele>
        <time>2018-01-14T10:13:42Z</time>
      </trkpt>
      <trkpt lat="45.9224" lon="4.75133">
        <ele>174</ele>
        <time>2018-01-14T10:13:43Z</time>
      </trkpt>
      <trkpt lat="45.92236" lon="4.75139">
        <ele>174</ele>
        <time>2018-01-14T10:13:44Z</time>
      </trkpt>
      <trkpt lat="45.92232" lon="4.75146">
        <ele>174</ele>
        <time>2018-01-14T10:13:45Z</time>
      </trkpt>
      <trkpt lat="45.92229" lon="4.75152">
        <ele>174</ele>
        <time>2018-01-14T10:13:46Z</time>
      </trkpt>
      <trkpt lat="45.92227" lon="4.7516">
        <ele>174</ele>
        <time>2018-01-14T10:13:47Z</time>
      </trkpt>
      <trkpt lat="45.92225" lon="4.75166">
        <ele>174</ele>
        <time>2018-01-14T10:13:48Z</time>
      </trkpt>
      <trkpt lat="45.92222" lon="4.75172">
        <ele>175</ele>
        <time>2018-01-14T10:13:49Z</time>
      </trkpt>
      <trkpt lat="45.92221" lon="4.7518">
        <ele>175</ele>
        <time>2018-01-14T10:13:50Z</time>
      </trkpt>
      <trkpt lat="45.9222" lon="4.75189">
        <ele>175</ele>
        <time>2018-01-14T10:13:51Z</time>
      </trkpt>
      <trkpt lat="45.92217" lon="4.75196">
        <ele>175</ele>
        <time>2018-01-14T10:13:52Z</time>
      </trkpt>
      <trkpt lat="45.92215" lon="4.75204">
        <ele>175</ele>
        <time>2018-01-14T10:13:53Z</time>
      </trkpt>
      <trkpt lat="45.92214" lon="4.75212">
        <ele>175</ele>
        <time>2018-01-14T10:13:54Z</time>
      </trkpt>
      <trkpt lat="45.92213" lon="4.75219">
        <ele>175</ele>
        <time>2018-01-14T10:13:55Z</time>
      </trkpt>
      <trkpt lat="45.92213" lon="4.75227">
        <ele>175</ele>
        <time>2018-01-14T10:13:56Z</time>
      </trkpt>
      <trkpt lat="45.92212" lon="4.75235">
        <ele>175</ele>
        <time>2018-01-14T10:13:57Z</time>
      </trkpt>
      <trkpt lat="45.92213" lon="4.75243">
        <ele>175</ele>
        <time>2018-01-14T10:13:58Z</time>
      </trkpt>
      <trkpt lat="45.92212" lon="4.7525">
        <ele>175</ele>
        <time>2018-01-14T10:13:59Z</time>
      </trkpt>
      <trkpt lat="45.92212" lon="4.75258">
        <ele>175</ele>
        <time>2018-01-14T10:14:00Z</time>
      </trkpt>
      <trkpt lat="45.92211" lon="4.75266">
        <ele>176</ele>
        <time>2018-01-14T10:14:01Z</time>
      </trkpt>
      <trkpt lat="45.92211" lon="4.75273">
        <ele>176</ele>
        <time>2018-01-14T10:14:02Z</time>
      </trkpt>
      <trkpt lat="45.92211" lon="4.7528">
        <ele>176</ele>
        <time>2018-01-14T10:14:03Z</time>
      </trkpt>
      <trkpt lat="45.92211" lon="4.75288">
        <ele>176</ele>
        <time>2018-01-14T10:14:04Z</time>
      </trkpt>
      <trkpt lat="45.9221" lon="4.75296">
        <ele>176</ele>
        <time>2018-01-14T10:14:05Z</time>
      </trkpt>
      <trkpt lat="45.92209" lon="4.75303">
        <ele>176</ele>
        <time>2018-01-14T10:14:06Z</time>
      </trkpt>
      <trkpt lat="45.92209" lon="4.75311">
        <ele>176</ele>
        <time>2018-01-14T10:14:07Z</time>
      </trkpt>
      <trkpt lat="45.92208" lon="4.7532">
        <ele>176</ele>
        <time>2018-01-14T10:14:08Z</time>
      </trkpt>
      <trkpt lat="45.92207" lon="4.75328">
        <ele>176</ele>
        <time>2018-01-14T10:14:09Z</time>
      </trkpt>
      <trkpt lat="45.92205" lon="4.75335">
        <ele>177</ele>
        <time>2018-01-14T10:14:10Z</time>
      </trkpt>
      <trkpt lat="45.92202" lon="4.75343">
        <ele>177</ele>
        <time>2018-01-14T10:14:11Z</time>
      </trkpt>
      <trkpt lat="45.92201" lon="4.75351">
        <ele>177</ele>
        <time>2018-01-14T10:14:12Z</time>
      </trkpt>
      <trkpt lat="45.92199" lon="4.75359">
        <ele>177</ele>
        <time>2018-01-14T10:14:13Z</time>
      </trkpt>
      <trkpt lat="45.92197" lon="4.75366">
        <ele>177</ele>
        <time>2018-01-14T10:14:14Z</time>
      </trkpt>
      <trkpt lat="45.92195" lon="4.75374">
        <ele>177</ele>
        <time>2018-01-14T10:14:15Z</time>
      </trkpt>
      <trkpt lat="45.92191" lon="4.75382">
        <ele>177</ele>
        <time>2018-01-14T10:14:16Z</time>
      </trkpt>
      <trkpt lat="45.92188" lon="4.75389">
        <ele>177</ele>
        <time>2018-01-14T10:14:17Z</time>
      </trkpt>
      <trkpt lat="45.92185" lon="4.75397">
        <ele>177</ele>
        <time>2018-01-14T10:14:18Z</time>
      </trkpt>
      <trkpt lat="45.92183" lon="4.75404">
        <ele>177</ele>
        <time>2018-01-14T10:14:19Z</time>
      </trkpt>
      <trkpt lat="45.9218" lon="4.75412">
        <ele>177</ele>
        <time>2018-01-14T10:14:20Z</time>
      </trkpt>
      <trkpt lat="45.92177" lon="4.75419">
        <ele>177</ele>
        <time>2018-01-14T10:14:21Z</time>
      </trkpt>
      <trkpt lat="45.92173" lon="4.75426">
        <ele>177</ele>
        <time>2018-01-14T10:14:22Z</time>
      </trkpt>
      <trkpt lat="45.9217" lon="4.75432">
        <ele>177</ele>
        <time>2018-01-14T10:14:23Z</time>
      </trkpt>
      <trkpt lat="45.92168" lon="4.7544">
        <ele>177</ele>
        <time>2018-01-14T10:14:24Z</time>
      </trkpt>
      <trkpt lat="45.92165" lon="4.75447">
        <ele>177</ele>
        <time>2018-01-14T10:14:25Z</time>
      </trkpt>
      <trkpt lat="45.92161" lon="4.75455">
        <ele>176</ele>
        <time>2018-01-14T10:14:26Z</time>
      </trkpt>
      <trkpt lat="45.92159" lon="4.75462">
        <ele>176</ele>
        <time>2018-01-14T10:14:27Z</time>
      </trkpt>
      <trkpt lat="45.92156" lon="4.7547">
        <ele>176</ele>
        <time>2018-01-14T10:14:28Z</time>
      </trkpt>
      <trkpt lat="45.92152" lon="4.75477">
        <ele>176</ele>
        <time>2018-01-14T10:14:29Z</time>
      </trkpt>
      <trkpt lat="45.92148" lon="4.75484">
        <ele>176</ele>
        <time>2018-01-14T10:14:30Z</time>
      </trkpt>
      <trkpt lat="45.92145" lon="4.75491">
        <ele>176</ele>
        <time>2018-01-14T10:14:31Z</time>
      </trkpt>
      <trkpt lat="45.92141" lon="4.75498">
        <ele>175</ele>
        <time>2018-01-14T10:14:32Z</time>
      </trkpt>
      <trkpt lat="45.92138" lon="4.75504">
        <ele>174</ele>
        <time>2018-01-14T10:14:33Z</time>
      </trkpt>
      <trkpt lat="45.92134" lon="4.75511">
        <ele>174</ele>
        <time>2018-01-14T10:14:34Z</time>
      </trkpt>
      <trkpt lat="45.9213" lon="4.75517">
        <ele>174</ele>
        <time>2018-01-14T10:14:35Z</time>
      </trkpt>
      <trkpt lat="45.92126" lon="4.75524">
        <ele>174</ele>
        <time>2018-01-14T10:14:36Z</time>
      </trkpt>
      <trkpt lat="45.92122" lon="4.75533">
        <ele>174</ele>
        <time>2018-01-14T10:14:37Z</time>
      </trkpt>
      <trkpt lat="45.9212" lon="4.7554">
        <ele>174</ele>
        <time>2018-01-14T10:14:38Z</time>
      </trkpt>
      <trkpt lat="45.92116" lon="4.75547">
        <ele>174</ele>
        <time>2018-01-14T10:14:39Z</time>
      </trkpt>
      <trkpt lat="45.92113" lon="4.75554">
        <ele>174</ele>
        <time>2018-01-14T10:14:40Z</time>
      </trkpt>
      <trkpt lat="45.9211" lon="4.75561">
        <ele>174</ele>
        <time>2018-01-14T10:14:41Z</time>
      </trkpt>
      <trkpt lat="45.92108" lon="4.75569">
        <ele>174</ele>
        <time>2018-01-14T10:14:42Z</time>
      </trkpt>
      <trkpt lat="45.9211" lon="4.75577">
        <ele>174</ele>
        <time>2018-01-14T10:14:43Z</time>
      </trkpt>
      <trkpt lat="45.92113" lon="4.75584">
        <ele>174</ele>
        <time>2018-01-14T10:14:44Z</time>
      </trkpt>
      <trkpt lat="45.92116" lon="4.7559">
        <ele>174</ele>
        <time>2018-01-14T10:14:45Z</time>
      </trkpt>
      <trkpt lat="45.92121" lon="4.75594">
        <ele>174</ele>
        <time>2018-01-14T10:14:46Z</time>
      </trkpt>
      <trkpt lat="45.92126" lon="4.75599">
        <ele>174</ele>
        <time>2018-01-14T10:14:47Z</time>
      </trkpt>
      <trkpt lat="45.92131" lon="4.75605">
        <ele>174</ele>
        <time>2018-01-14T10:14:48Z</time>
      </trkpt>
      <trkpt lat="45.92135" lon="4.7561">
        <ele>174</ele>
        <time>2018-01-14T10:14:49Z</time>
      </trkpt>
      <trkpt lat="45.9214" lon="4.75616">
        <ele>174</ele>
        <time>2018-01-14T10:14:50Z</time>
      </trkpt>
      <trkpt lat="45.92145" lon="4.7562">
        <ele>174</ele>
        <time>2018-01-14T10:14:51Z</time>
      </trkpt>
      <trkpt lat="45.9215" lon="4.75625">
        <ele>174</ele>
        <time>2018-01-14T10:14:52Z</time>
      </trkpt>
      <trkpt lat="45.92155" lon="4.75629">
        <ele>174</ele>
        <time>2018-01-14T10:14:53Z</time>
      </trkpt>
      <trkpt lat="45.92159" lon="4.75633">
        <ele>174</ele>
        <time>2018-01-14T10:14:54Z</time>
      </trkpt>
      <trkpt lat="45.92164" lon="4.75639">
        <ele>174</ele>
        <time>2018-01-14T10:14:55Z</time>
      </trkpt>
      <trkpt lat="45.92169" lon="4.75644">
        <ele>174</ele>
        <time>2018-01-14T10:14:56Z</time>
      </trkpt>
      <trkpt lat="45.92174" lon="4.7565">
        <ele>174</ele>
        <time>2018-01-14T10:14:57Z</time>
      </trkpt>
      <trkpt lat="45.9218" lon="4.75655">
        <ele>174</ele>
        <time>2018-01-14T10:14:58Z</time>
      </trkpt>
      <trkpt lat="45.92185" lon="4.75659">
        <ele>174</ele>
        <time>2018-01-14T10:14:59Z</time>
      </trkpt>
      <trkpt lat="45.9219" lon="4.75664">
        <ele>174</ele>
        <time>2018-01-14T10:15:00Z</time>
      </trkpt>
      <trkpt lat="45.92195" lon="4.75669">
        <ele>174</ele>
        <time>2018-01-14T10:15:01Z</time>
      </trkpt>
      <trkpt lat="45.922" lon="4.75673">
        <ele>174</ele>
        <time>2018-01-14T10:15:02Z</time>
      </trkpt>
      <trkpt lat="45.92205" lon="4.75678">
        <ele>174</ele>
        <time>2018-01-14T10:15:03Z</time>
      </trkpt>
      <trkpt lat="45.9221" lon="4.75684">
        <ele>174</ele>
        <time>2018-01-14T10:15:04Z</time>
      </trkpt>
      <trkpt lat="45.92214" lon="4.75688">
        <ele>174</ele>
        <time>2018-01-14T10:15:05Z</time>
      </trkpt>
      <trkpt lat="45.92219" lon="4.75693">
        <ele>174</ele>
        <time>2018-01-14T10:15:06Z</time>
      </trkpt>
      <trkpt lat="45.92224" lon="4.75696">
        <ele>174</ele>
        <time>2018-01-14T10:15:07Z</time>
      </trkpt>
      <trkpt lat="45.92229" lon="4.75701">
        <ele>174</ele>
        <time>2018-01-14T10:15:08Z</time>
      </trkpt>
      <trkpt lat="45.92233" lon="4.75707">
        <ele>174</ele>
        <time>2018-01-14T10:15:09Z</time>
      </trkpt>
      <trkpt lat="45.92237" lon="4.75713">
        <ele>174</ele>
        <time>2018-01-14T10:15:10Z</time>
      </trkpt>
      <trkpt lat="45.9224" lon="4.75718">
        <ele>174</ele>
        <time>2018-01-14T10:15:11Z</time>
      </trkpt>
      <trkpt lat="45.92243" lon="4.75726">
        <ele>174</ele>
        <time>2018-01-14T10:15:12Z</time>
      </trkpt>
      <trkpt lat="45.92245" lon="4.75734">
        <ele>174</ele>
        <time>2018-01-14T10:15:13Z</time>
      </trkpt>
      <trkpt lat="45.92247" lon="4.75741">
        <ele>174</ele>
        <time>2018-01-14T10:15:14Z</time>
      </trkpt>
      <trkpt lat="45.92248" lon="4.75748">
        <ele>174</ele>
        <time>2018-01-14T10:15:15Z</time>
      </trkpt>
      <trkpt lat="45.9225" lon="4.75754">
        <ele>174</ele>
        <time>2018-01-14T10:15:16Z</time>
      </trkpt>
      <trkpt lat="45.92252" lon="4.75761">
        <ele>174</ele>
        <time>2018-01-14T10:15:17Z</time>
      </trkpt>
      <trkpt lat="45.92253" lon="4.75767">
        <ele>174</ele>
        <time>2018-01-14T10:15:18Z</time>
      </trkpt>
      <trkpt lat="45.92254" lon="4.75775">
        <ele>174</ele>
        <time>2018-01-14T10:15:19Z</time>
      </trkpt>
      <trkpt lat="45.92256" lon="4.75783">
        <ele>174</ele>
        <time>2018-01-14T10:15:20Z</time>
      </trkpt>
      <trkpt lat="45.92258" lon="4.75791">
        <ele>174</ele>
        <time>2018-01-14T10:15:21Z</time>
      </trkpt>
      <trkpt lat="45.92258" lon="4.75797">
        <ele>174</ele>
        <time>2018-01-14T10:15:22Z</time>
      </trkpt>
      <trkpt lat="45.9226" lon="4.75805">
        <ele>174</ele>
        <time>2018-01-14T10:15:23Z</time>
      </trkpt>
      <trkpt lat="45.92263" lon="4.75813">
        <ele>174</ele>
        <time>2018-01-14T10:15:24Z</time>
      </trkpt>
      <trkpt lat="45.92266" lon="4.75819">
        <ele>174</ele>
        <time>2018-01-14T10:15:25Z</time>
      </trkpt>
      <trkpt lat="45.92272" lon="4.75825">
        <ele>174</ele>
        <time>2018-01-14T10:15:27Z</time>
      </trkpt>
      <trkpt lat="45.92277" lon="4.7583">
        <ele>174</ele>
        <time>2018-01-14T10:15:28Z</time>
      </trkpt>
      <trkpt lat="45.92282" lon="4.75835">
        <ele>173</ele>
        <time>2018-01-14T10:15:29Z</time>
      </trkpt>
      <trkpt lat="45.92288" lon="4.75839">
        <ele>173</ele>
        <time>2018-01-14T10:15:30Z</time>
      </trkpt>
      <trkpt lat="45.92294" lon="4.75842">
        <ele>173</ele>
        <time>2018-01-14T10:15:31Z</time>
      </trkpt>
      <trkpt lat="45.92299" lon="4.75846">
        <ele>173</ele>
        <time>2018-01-14T10:15:32Z</time>
      </trkpt>
      <trkpt lat="45.92307" lon="4.75849">
        <ele>173</ele>
        <time>2018-01-14T10:15:33Z</time>
      </trkpt>
      <trkpt lat="45.92313" lon="4.75854">
        <ele>173</ele>
        <time>2018-01-14T10:15:34Z</time>
      </trkpt>
      <trkpt lat="45.92319" lon="4.75858">
        <ele>173</ele>
        <time>2018-01-14T10:15:35Z</time>
      </trkpt>
      <trkpt lat="45.92324" lon="4.75862">
        <ele>173</ele>
        <time>2018-01-14T10:15:36Z</time>
      </trkpt>
      <trkpt lat="45.92329" lon="4.75865">
        <ele>173</ele>
        <time>2018-01-14T10:15:37Z</time>
      </trkpt>
      <trkpt lat="45.92335" lon="4.75868">
        <ele>173</ele>
        <time>2018-01-14T10:15:38Z</time>
      </trkpt>
      <trkpt lat="45.9234" lon="4.75872">
        <ele>173</ele>
        <time>2018-01-14T10:15:39Z</time>
      </trkpt>
      <trkpt lat="45.92345" lon="4.75876">
        <ele>173</ele>
        <time>2018-01-14T10:15:40Z</time>
      </trkpt>
      <trkpt lat="45.9235" lon="4.75879">
        <ele>173</ele>
        <time>2018-01-14T10:15:41Z</time>
      </trkpt>
      <trkpt lat="45.92355" lon="4.75882">
        <ele>173</ele>
        <time>2018-01-14T10:15:42Z</time>
      </trkpt>
      <trkpt lat="45.9236" lon="4.75886">
        <ele>173</ele>
        <time>2018-01-14T10:15:43Z</time>
      </trkpt>
      <trkpt lat="45.92365" lon="4.75889">
        <ele>173</ele>
        <time>2018-01-14T10:15:44Z</time>
      </trkpt>
      <trkpt lat="45.9237" lon="4.75893">
        <ele>173</ele>
        <time>2018-01-14T10:15:45Z</time>
      </trkpt>
      <trkpt lat="45.92374" lon="4.75896">
        <ele>173</ele>
        <time>2018-01-14T10:15:46Z</time>
      </trkpt>
      <trkpt lat="45.9238" lon="4.75899">
        <ele>173</ele>
        <time>2018-01-14T10:15:47Z</time>
      </trkpt>
      <trkpt lat="45.92386" lon="4.75902">
        <ele>173</ele>
        <time>2018-01-14T10:15:48Z</time>
      </trkpt>
      <trkpt lat="45.92392" lon="4.75905">
        <ele>173</ele>
        <time>2018-01-14T10:15:49Z</time>
      </trkpt>
      <trkpt lat="45.92397" lon="4.75909">
        <ele>173</ele>
        <time>2018-01-14T10:15:50Z</time>
      </trkpt>
      <trkpt lat="45.92402" lon="4.75913">
        <ele>172</ele>
        <time>2018-01-14T10:15:51Z</time>
      </trkpt>
      <trkpt lat="45.92407" lon="4.75916">
        <ele>172</ele>
        <time>2018-01-14T10:15:52Z</time>
      </trkpt>
      <trkpt lat="45.92412" lon="4.75919">
        <ele>172</ele>
        <time>2018-01-14T10:15:53Z</time>
      </trkpt>
      <trkpt lat="45.92417" lon="4.75923">
        <ele>172</ele>
        <time>2018-01-14T10:15:54Z</time>
      </trkpt>
      <trkpt lat="45.92422" lon="4.75927">
        <ele>172</ele>
        <time>2018-01-14T10:15:55Z</time>
      </trkpt>
      <trkpt lat="45.92427" lon="4.75931">
        <ele>172</ele>
        <time>2018-01-14T10:15:56Z</time>
      </trkpt>
      <trkpt lat="45.92432" lon="4.75935">
        <ele>172</ele>
        <time>2018-01-14T10:15:57Z</time>
      </trkpt>
      <trkpt lat="45.92437" lon="4.75939">
        <ele>172</ele>
        <time>2018-01-14T10:15:58Z</time>
      </trkpt>
      <trkpt lat="45.92442" lon="4.75942">
        <ele>172</ele>
        <time>2018-01-14T10:15:59Z</time>
      </trkpt>
      <trkpt lat="45.92447" lon="4.75946">
        <ele>172</ele>
        <time>2018-01-14T10:16:00Z</time>
      </trkpt>
      <trkpt lat="45.92452" lon="4.75949">
        <ele>172</ele>
        <time>2018-01-14T10:16:01Z</time>
      </trkpt>
      <trkpt lat="45.92456" lon="4.75952">
        <ele>172</ele>
        <time>2018-01-14T10:16:02Z</time>
      </trkpt>
      <trkpt lat="45.92461" lon="4.75958">
        <ele>172</ele>
        <time>2018-01-14T10:16:03Z</time>
      </trkpt>
      <trkpt lat="45.92465" lon="4.75962">
        <ele>172</ele>
        <time>2018-01-14T10:16:04Z</time>
      </trkpt>
      <trkpt lat="45.9247" lon="4.75965">
        <ele>172</ele>
        <time>2018-01-14T10:16:05Z</time>
      </trkpt>
      <trkpt lat="45.92474" lon="4.75969">
        <ele>172</ele>
        <time>2018-01-14T10:16:06Z</time>
      </trkpt>
      <trkpt lat="45.92478" lon="4.75972">
        <ele>172</ele>
        <time>2018-01-14T10:16:07Z</time>
      </trkpt>
      <trkpt lat="45.92482" lon="4.75975">
        <ele>172</ele>
        <time>2018-01-14T10:16:08Z</time>
      </trkpt>
      <trkpt lat="45.92487" lon="4.75978">
        <ele>172</ele>
        <time>2018-01-14T10:16:09Z</time>
      </trkpt>
      <trkpt lat="45.92491" lon="4.75983">
        <ele>172</ele>
        <time>2018-01-14T10:16:10Z</time>
      </trkpt>
      <trkpt lat="45.92495" lon="4.75986">
        <ele>172</ele>
        <time>2018-01-14T10:16:11Z</time>
      </trkpt>
      <trkpt lat="45.92499" lon="4.75989">
        <ele>172</ele>
        <time>2018-01-14T10:16:12Z</time>
      </trkpt>
      <trkpt lat="45.92503" lon="4.75992">
        <ele>172</ele>
        <time>2018-01-14T10:16:13Z</time>
      </trkpt>
      <trkpt lat="45.92507" lon="4.75996">
        <ele>172</ele>
        <time>2018-01-14T10:16:14Z</time>
      </trkpt>
      <trkpt lat="45.92511" lon="4.75999">
        <ele>172</ele>
        <time>2018-01-14T10:16:15Z</time>
      </trkpt>
      <trkpt lat="45.92516" lon="4.76004">
        <ele>172</ele>
        <time>2018-01-14T10:16:16Z</time>
      </trkpt>
      <trkpt lat="45.9252" lon="4.76007">
        <ele>172</ele>
        <time>2018-01-14T10:16:17Z</time>
      </trkpt>
      <trkpt lat="45.92525" lon="4.76011">
        <ele>172</ele>
        <time>2018-01-14T10:16:18Z</time>
      </trkpt>
      <trkpt lat="45.9253" lon="4.76014">
        <ele>172</ele>
        <time>2018-01-14T10:16:19Z</time>
      </trkpt>
      <trkpt lat="45.92534" lon="4.76016">
        <ele>172</ele>
        <time>2018-01-14T10:16:20Z</time>
      </trkpt>
      <trkpt lat="45.92537" lon="4.7602">
        <ele>172</ele>
        <time>2018-01-14T10:16:21Z</time>
      </trkpt>
      <trkpt lat="45.92542" lon="4.76024">
        <ele>172</ele>
        <time>2018-01-14T10:16:22Z</time>
      </trkpt>
      <trkpt lat="45.92546" lon="4.76027">
        <ele>172</ele>
        <time>2018-01-14T10:16:23Z</time>
      </trkpt>
      <trkpt lat="45.9255" lon="4.76032">
        <ele>172</ele>
        <time>2018-01-14T10:16:24Z</time>
      </trkpt>
      <trkpt lat="45.92555" lon="4.76034">
        <ele>172</ele>
        <time>2018-01-14T10:16:25Z</time>
      </trkpt>
      <trkpt lat="45.92559" lon="4.76036">
        <ele>172</ele>
        <time>2018-01-14T10:16:26Z</time>
      </trkpt>
      <trkpt lat="45.92564" lon="4.7604">
        <ele>172</ele>
        <time>2018-01-14T10:16:27Z</time>
      </trkpt>
      <trkpt lat="45.92569" lon="4.76044">
        <ele>171</ele>
        <time>2018-01-14T10:16:28Z</time>
      </trkpt>
      <trkpt lat="45.92575" lon="4.76046">
        <ele>171</ele>
        <time>2018-01-14T10:16:29Z</time>
      </trkpt>
      <trkpt lat="45.92579" lon="4.7605">
        <ele>171</ele>
        <time>2018-01-14T10:16:30Z</time>
      </trkpt>
      <trkpt lat="45.92584" lon="4.76053">
        <ele>171</ele>
        <time>2018-01-14T10:16:31Z</time>
      </trkpt>
      <trkpt lat="45.92589" lon="4.76055">
        <ele>171</ele>
        <time>2018-01-14T10:16:32Z</time>
      </trkpt>
      <trkpt lat="45.92595" lon="4.76058">
        <ele>171</ele>
        <time>2018-01-14T10:16:33Z</time>
      </trkpt>
      <trkpt lat="45.92601" lon="4.76064">
        <ele>171</ele>
        <time>2018-01-14T10:16:34Z</time>
      </trkpt>
      <trkpt lat="45.92606" lon="4.76068">
        <ele>171</ele>
        <time>2018-01-14T10:16:35Z</time>
      </trkpt>
      <trkpt lat="45.92613" lon="4.76072">
        <ele>171</ele>
        <time>2018-01-14T10:16:36Z</time>
      </trkpt>
      <trkpt lat="45.92618" lon="4.76076">
        <ele>171</ele>
        <time>2018-01-14T10:16:37Z</time>
      </trkpt>
      <trkpt lat="45.92623" lon="4.7608">
        <ele>171</ele>
        <time>2018-01-14T10:16:38Z</time>
      </trkpt>
      <trkpt lat="45.92629" lon="4.76083">
        <ele>170</ele>
        <time>2018-01-14T10:16:39Z</time>
      </trkpt>
      <trkpt lat="45.92634" lon="4.76088">
        <ele>170</ele>
        <time>2018-01-14T10:16:40Z</time>
      </trkpt>
      <trkpt lat="45.9264" lon="4.76092">
        <ele>170</ele>
        <time>2018-01-14T10:16:41Z</time>
      </trkpt>
      <trkpt lat="45.92646" lon="4.76097">
        <ele>170</ele>
        <time>2018-01-14T10:16:42Z</time>
      </trkpt>
      <trkpt lat="45.92652" lon="4.76101">
        <ele>170</ele>
        <time>2018-01-14T10:16:43Z</time>
      </trkpt>
      <trkpt lat="45.92659" lon="4.76104">
        <ele>170</ele>
        <time>2018-01-14T10:16:44Z</time>
      </trkpt>
      <trkpt lat="45.92665" lon="4.76108">
        <ele>170</ele>
        <time>2018-01-14T10:16:45Z</time>
      </trkpt>
      <trkpt lat="45.92672" lon="4.76111">
        <ele>169</ele>
        <time>2018-01-14T10:16:46Z</time>
      </trkpt>
      <trkpt lat="45.92678" lon="4.76115">
        <ele>169</ele>
        <time>2018-01-14T10:16:47Z</time>
      </trkpt>
      <trkpt lat="45.92685" lon="4.76119">
        <ele>169</ele>
        <time>2018-01-14T10:16:48Z</time>
      </trkpt>
      <trkpt lat="45.92691" lon="4.76126">
        <ele>169</ele>
        <time>2018-01-14T10:16:49Z</time>
      </trkpt>
      <trkpt lat="45.92697" lon="4.7613">
        <ele>169</ele>
        <time>2018-01-14T10:16:50Z</time>
      </trkpt>
      <trkpt lat="45.92705" lon="4.76135">
        <ele>169</ele>
        <time>2018-01-14T10:16:51Z</time>
      </trkpt>
      <trkpt lat="45.92711" lon="4.76139">
        <ele>168</ele>
        <time>2018-01-14T10:16:52Z</time>
      </trkpt>
      <trkpt lat="45.92718" lon="4.76143">
        <ele>168</ele>
        <time>2018-01-14T10:16:53Z</time>
      </trkpt>
      <trkpt lat="45.92725" lon="4.76148">
        <ele>168</ele>
        <time>2018-01-14T10:16:54Z</time>
      </trkpt>
      <trkpt lat="45.92732" lon="4.76152">
        <ele>168</ele>
        <time>2018-01-14T10:16:55Z</time>
      </trkpt>
      <trkpt lat="45.92738" lon="4.76157">
        <ele>168</ele>
        <time>2018-01-14T10:16:56Z</time>
      </trkpt>
      <trkpt lat="45.92744" lon="4.76161">
        <ele>167</ele>
        <time>2018-01-14T10:16:57Z</time>
      </trkpt>
      <trkpt lat="45.9275" lon="4.76167">
        <ele>167</ele>
        <time>2018-01-14T10:16:58Z</time>
      </trkpt>
      <trkpt lat="45.92755" lon="4.76172">
        <ele>167</ele>
        <time>2018-01-14T10:16:59Z</time>
      </trkpt>
      <trkpt lat="45.92761" lon="4.76176">
        <ele>167</ele>
        <time>2018-01-14T10:17:00Z</time>
      </trkpt>
      <trkpt lat="45.92766" lon="4.7618">
        <ele>167</ele>
        <time>2018-01-14T10:17:01Z</time>
      </trkpt>
      <trkpt lat="45.92772" lon="4.76185">
        <ele>167</ele>
        <time>2018-01-14T10:17:02Z</time>
      </trkpt>
      <trkpt lat="45.92778" lon="4.7619">
        <ele>168</ele>
        <time>2018-01-14T10:17:03Z</time>
      </trkpt>
      <trkpt lat="45.92783" lon="4.76194">
        <ele>168</ele>
        <time>2018-01-14T10:17:04Z</time>
      </trkpt>
      <trkpt lat="45.92788" lon="4.762">
        <ele>168</ele>
        <time>2018-01-14T10:17:05Z</time>
      </trkpt>
      <trkpt lat="45.92793" lon="4.76205">
        <ele>168</ele>
        <time>2018-01-14T10:17:06Z</time>
      </trkpt>
      <trkpt lat="45.928" lon="4.76211">
        <ele>168</ele>
        <time>2018-01-14T10:17:07Z</time>
      </trkpt>
      <trkpt lat="45.92805" lon="4.76216">
        <ele>168</ele>
        <time>2018-01-14T10:17:08Z</time>
      </trkpt>
      <trkpt lat="45.9281" lon="4.7622">
        <ele>168</ele>
        <time>2018-01-14T10:17:09Z</time>
      </trkpt>
      <trkpt lat="45.92816" lon="4.76224">
        <ele>168</ele>
        <time>2018-01-14T10:17:10Z</time>
      </trkpt>
      <trkpt lat="45.92822" lon="4.76229">
        <ele>168</ele>
        <time>2018-01-14T10:17:11Z</time>
      </trkpt>
      <trkpt lat="45.92827" lon="4.76235">
        <ele>168</ele>
        <time>2018-01-14T10:17:12Z</time>
      </trkpt>
      <trkpt lat="45.92832" lon="4.76241">
        <ele>169</ele>
        <time>2018-01-14T10:17:13Z</time>
      </trkpt>
      <trkpt lat="45.92837" lon="4.76246">
        <ele>169</ele>
        <time>2018-01-14T10:17:14Z</time>
      </trkpt>
      <trkpt lat="45.92842" lon="4.76251">
        <ele>169</ele>
        <time>2018-01-14T10:17:15Z</time>
      </trkpt>
      <trkpt lat="45.92848" lon="4.76255">
        <ele>169</ele>
        <time>2018-01-14T10:17:16Z</time>
      </trkpt>
      <trkpt lat="45.92853" lon="4.7626">
        <ele>169</ele>
        <time>2018-01-14T10:17:17Z</time>
      </trkpt>
      <trkpt lat="45.92857" lon="4.76264">
        <ele>169</ele>
        <time>2018-01-14T10:17:18Z</time>
      </trkpt>
      <trkpt lat="45.92861" lon="4.7627">
        <ele>169</ele>
        <time>2018-01-14T10:17:19Z</time>
      </trkpt>
      <trkpt lat="45.92865" lon="4.76275">
        <ele>169</ele>
        <time>2018-01-14T10:17:20Z</time>
      </trkpt>
      <trkpt lat="45.9287" lon="4.76279">
        <ele>169</ele>
        <time>2018-01-14T10:17:21Z</time>
      </trkpt>
      <trkpt lat="45.92875" lon="4.76286">
        <ele>169</ele>
        <time>2018-01-14T10:17:22Z</time>
      </trkpt>
      <trkpt lat="45.92879" lon="4.76291">
        <ele>169</ele>
        <time>2018-01-14T10:17:23Z</time>
      </trkpt>
      <trkpt lat="45.92884" lon="4.76295">
        <ele>169</ele>
        <time>2018-01-14T10:17:24Z</time>
      </trkpt>
      <trkpt lat="45.92889" lon="4.763">
        <ele>169</ele>
        <time>2018-01-14T10:17:25Z</time>
      </trkpt>
      <trkpt lat="45.92894" lon="4.76304">
        <ele>169</ele>
        <time>2018-01-14T10:17:26Z</time>
      </trkpt>
      <trkpt lat="45.92899" lon="4.76309">
        <ele>169</ele>
        <time>2018-01-14T10:17:27Z</time>
      </trkpt>
      <trkpt lat="45.92904" lon="4.76313">
        <ele>169</ele>
        <time>2018-01-14T10:17:28Z</time>
      </trkpt>
      <trkpt lat="45.92909" lon="4.76317">
        <ele>169</ele>
        <time>2018-01-14T10:17:29Z</time>
      </trkpt>
      <trkpt lat="45.92913" lon="4.76321">
        <ele>169</ele>
        <time>2018-01-14T10:17:30Z</time>
      </trkpt>
      <trkpt lat="45.92918" lon="4.76326">
        <ele>169</ele>
        <time>2018-01-14T10:17:31Z</time>
      </trkpt>
      <trkpt lat="45.92924" lon="4.76331">
        <ele>169</ele>
        <time>2018-01-14T10:17:32Z</time>
      </trkpt>
      <trkpt lat="45.92929" lon="4.76335">
        <ele>169</ele>
        <time>2018-01-14T10:17:33Z</time>
      </trkpt>
      <trkpt lat="45.92934" lon="4.76342">
        <ele>169</ele>
        <time>2018-01-14T10:17:34Z</time>
      </trkpt>
      <trkpt lat="45.92939" lon="4.76346">
        <ele>169</ele>
        <time>2018-01-14T10:17:35Z</time>
      </trkpt>
      <trkpt lat="45.92942" lon="4.76351">
        <ele>169</ele>
        <time>2018-01-14T10:17:36Z</time>
      </trkpt>
      <trkpt lat="45.92947" lon="4.76356">
        <ele>169</ele>
        <time>2018-01-14T10:17:37Z</time>
      </trkpt>
      <trkpt lat="45.92952" lon="4.76361">
        <ele>169</ele>
        <time>2018-01-14T10:17:38Z</time>
      </trkpt>
      <trkpt lat="45.92956" lon="4.76366">
        <ele>169</ele>
        <time>2018-01-14T10:17:39Z</time>
      </trkpt>
      <trkpt lat="45.92961" lon="4.76371">
        <ele>169</ele>
        <time>2018-01-14T10:17:40Z</time>
      </trkpt>
      <trkpt lat="45.92966" lon="4.76375">
        <ele>169</ele>
        <time>2018-01-14T10:17:41Z</time>
      </trkpt>
      <trkpt lat="45.9297" lon="4.76379">
        <ele>169</ele>
        <time>2018-01-14T10:17:42Z</time>
      </trkpt>
      <trkpt lat="45.92975" lon="4.76383">
        <ele>169</ele>
        <time>2018-01-14T10:17:43Z</time>
      </trkpt>
      <trkpt lat="45.92979" lon="4.76388">
        <ele>169</ele>
        <time>2018-01-14T10:17:44Z</time>
      </trkpt>
      <trkpt lat="45.92984" lon="4.76393">
        <ele>169</ele>
        <time>2018-01-14T10:17:45Z</time>
      </trkpt>
      <trkpt lat="45.92989" lon="4.76397">
        <ele>169</ele>
        <time>2018-01-14T10:17:46Z</time>
      </trkpt>
      <trkpt lat="45.92993" lon="4.76401">
        <ele>169</ele>
        <time>2018-01-14T10:17:47Z</time>
      </trkpt>
      <trkpt lat="45.93" lon="4.76405">
        <ele>169</ele>
        <time>2018-01-14T10:17:48Z</time>
      </trkpt>
      <trkpt lat="45.93005" lon="4.7641">
        <ele>169</ele>
        <time>2018-01-14T10:17:49Z</time>
      </trkpt>
      <trkpt lat="45.93011" lon="4.76416">
        <ele>169</ele>
        <time>2018-01-14T10:17:50Z</time>
      </trkpt>
      <trkpt lat="45.93015" lon="4.7642">
        <ele>169</ele>
        <time>2018-01-14T10:17:51Z</time>
      </trkpt>
      <trkpt lat="45.9302" lon="4.76425">
        <ele>169</ele>
        <time>2018-01-14T10:17:52Z</time>
      </trkpt>
      <trkpt lat="45.93025" lon="4.7643">
        <ele>169</ele>
        <time>2018-01-14T10:17:53Z</time>
      </trkpt>
      <trkpt lat="45.93029" lon="4.76435">
        <ele>169</ele>
        <time>2018-01-14T10:17:54Z</time>
      </trkpt>
      <trkpt lat="45.93034" lon="4.7644">
        <ele>169</ele>
        <time>2018-01-14T10:17:55Z</time>
      </trkpt>
      <trkpt lat="45.93039" lon="4.76446">
        <ele>169</ele>
        <time>2018-01-14T10:17:56Z</time>
      </trkpt>
      <trkpt lat="45.93044" lon="4.76451">
        <ele>169</ele>
        <time>2018-01-14T10:17:57Z</time>
      </trkpt>
      <trkpt lat="45.93048" lon="4.76456">
        <ele>169</ele>
        <time>2018-01-14T10:17:58Z</time>
      </trkpt>
      <trkpt lat="45.93054" lon="4.76458">
        <ele>169</ele>
        <time>2018-01-14T10:17:59Z</time>
      </trkpt>
      <trkpt lat="45.93059" lon="4.76462">
        <ele>169</ele>
        <time>2018-01-14T10:18:00Z</time>
      </trkpt>
      <trkpt lat="45.93064" lon="4.76467">
        <ele>169</ele>
        <time>2018-01-14T10:18:01Z</time>
      </trkpt>
      <trkpt lat="45.9307" lon="4.76473">
        <ele>169</ele>
        <time>2018-01-14T10:18:02Z</time>
      </trkpt>
      <trkpt lat="45.93075" lon="4.76478">
        <ele>169</ele>
        <time>2018-01-14T10:18:03Z</time>
      </trkpt>
      <trkpt lat="45.93079" lon="4.76482">
        <ele>169</ele>
        <time>2018-01-14T10:18:04Z</time>
      </trkpt>
      <trkpt lat="45.93084" lon="4.76487">
        <ele>170</ele>
        <time>2018-01-14T10:18:05Z</time>
      </trkpt>
      <trkpt lat="45.9309" lon="4.76493">
        <ele>170</ele>
        <time>2018-01-14T10:18:06Z</time>
      </trkpt>
      <trkpt lat="45.93095" lon="4.76497">
        <ele>170</ele>
        <time>2018-01-14T10:18:07Z</time>
      </trkpt>
      <trkpt lat="45.93099" lon="4.765">
        <ele>170</ele>
        <time>2018-01-14T10:18:08Z</time>
      </trkpt>
      <trkpt lat="45.93104" lon="4.76504">
        <ele>170</ele>
        <time>2018-01-14T10:18:09Z</time>
      </trkpt>
      <trkpt lat="45.93108" lon="4.76509">
        <ele>170</ele>
        <time>2018-01-14T10:18:10Z</time>
      </trkpt>
      <trkpt lat="45.93112" lon="4.76514">
        <ele>170</ele>
        <time>2018-01-14T10:18:11Z</time>
      </trkpt>
      <trkpt lat="45.93118" lon="4.76519">
        <ele>170</ele>
        <time>2018-01-14T10:18:12Z</time>
      </trkpt>
      <trkpt lat="45.93123" lon="4.76524">
        <ele>170</ele>
        <time>2018-01-14T10:18:13Z</time>
      </trkpt>
      <trkpt lat="45.93127" lon="4.7653">
        <ele>170</ele>
        <time>2018-01-14T10:18:14Z</time>
      </trkpt>
      <trkpt lat="45.93133" lon="4.76534">
        <ele>170</ele>
        <time>2018-01-14T10:18:15Z</time>
      </trkpt>
      <trkpt lat="45.93137" lon="4.7654">
        <ele>170</ele>
        <time>2018-01-14T10:18:16Z</time>
      </trkpt>
      <trkpt lat="45.93141" lon="4.76543">
        <ele>170</ele>
        <time>2018-01-14T10:18:17Z</time>
      </trkpt>
      <trkpt lat="45.93145" lon="4.76547">
        <ele>170</ele>
        <time>2018-01-14T10:18:18Z</time>
      </trkpt>
      <trkpt lat="45.9315" lon="4.76553">
        <ele>170</ele>
        <time>2018-01-14T10:18:19Z</time>
      </trkpt>
      <trkpt lat="45.93153" lon="4.76557">
        <ele>170</ele>
        <time>2018-01-14T10:18:20Z</time>
      </trkpt>
      <trkpt lat="45.93157" lon="4.76561">
        <ele>170</ele>
        <time>2018-01-14T10:18:21Z</time>
      </trkpt>
      <trkpt lat="45.93162" lon="4.76564">
        <ele>170</ele>
        <time>2018-01-14T10:18:22Z</time>
      </trkpt>
      <trkpt lat="45.93166" lon="4.76569">
        <ele>170</ele>
        <time>2018-01-14T10:18:23Z</time>
      </trkpt>
      <trkpt lat="45.93169" lon="4.76575">
        <ele>170</ele>
        <time>2018-01-14T10:18:24Z</time>
      </trkpt>
      <trkpt lat="45.93173" lon="4.76579">
        <ele>170</ele>
        <time>2018-01-14T10:18:25Z</time>
      </trkpt>
      <trkpt lat="45.93178" lon="4.76584">
        <ele>171</ele>
        <time>2018-01-14T10:18:26Z</time>
      </trkpt>
      <trkpt lat="45.93184" lon="4.76589">
        <ele>171</ele>
        <time>2018-01-14T10:18:27Z</time>
      </trkpt>
      <trkpt lat="45.93189" lon="4.76594">
        <ele>170</ele>
        <time>2018-01-14T10:18:28Z</time>
      </trkpt>
      <trkpt lat="45.93194" lon="4.76598">
        <ele>170</ele>
        <time>2018-01-14T10:18:29Z</time>
      </trkpt>
      <trkpt lat="45.93199" lon="4.76603">
        <ele>170</ele>
        <time>2018-01-14T10:18:30Z</time>
      </trkpt>
      <trkpt lat="45.93204" lon="4.76609">
        <ele>170</ele>
        <time>2018-01-14T10:18:31Z</time>
      </trkpt>
      <trkpt lat="45.93208" lon="4.76615">
        <ele>170</ele>
        <time>2018-01-14T10:18:32Z</time>
      </trkpt>
      <trkpt lat="45.93213" lon="4.76619">
        <ele>170</ele>
        <time>2018-01-14T10:18:33Z</time>
      </trkpt>
      <trkpt lat="45.93217" lon="4.76623">
        <ele>170</ele>
        <time>2018-01-14T10:18:34Z</time>
      </trkpt>
      <trkpt lat="45.93221" lon="4.76629">
        <ele>170</ele>
        <time>2018-01-14T10:18:35Z</time>
      </trkpt>
      <trkpt lat="45.93225" lon="4.76633">
        <ele>171</ele>
        <time>2018-01-14T10:18:36Z</time>
      </trkpt>
      <trkpt lat="45.9323" lon="4.76637">
        <ele>171</ele>
        <time>2018-01-14T10:18:37Z</time>
      </trkpt>
      <trkpt lat="45.93234" lon="4.76642">
        <ele>171</ele>
        <time>2018-01-14T10:18:38Z</time>
      </trkpt>
      <trkpt lat="45.93238" lon="4.76646">
        <ele>171</ele>
        <time>2018-01-14T10:18:39Z</time>
      </trkpt>
      <trkpt lat="45.93241" lon="4.76651">
        <ele>171</ele>
        <time>2018-01-14T10:18:40Z</time>
      </trkpt>
      <trkpt lat="45.93245" lon="4.76655">
        <ele>171</ele>
        <time>2018-01-14T10:18:41Z</time>
      </trkpt>
      <trkpt lat="45.9325" lon="4.76659">
        <ele>172</ele>
        <time>2018-01-14T10:18:42Z</time>
      </trkpt>
      <trkpt lat="45.93254" lon="4.76663">
        <ele>171</ele>
        <time>2018-01-14T10:18:43Z</time>
      </trkpt>
      <trkpt lat="45.93261" lon="4.76667">
        <ele>171</ele>
        <time>2018-01-14T10:18:44Z</time>
      </trkpt>
      <trkpt lat="45.93266" lon="4.76671">
        <ele>172</ele>
        <time>2018-01-14T10:18:45Z</time>
      </trkpt>
      <trkpt lat="45.93269" lon="4.76676">
        <ele>172</ele>
        <time>2018-01-14T10:18:46Z</time>
      </trkpt>
      <trkpt lat="45.93273" lon="4.76681">
        <ele>172</ele>
        <time>2018-01-14T10:18:47Z</time>
      </trkpt>
      <trkpt lat="45.93276" lon="4.76686">
        <ele>172</ele>
        <time>2018-01-14T10:18:48Z</time>
      </trkpt>
      <trkpt lat="45.93281" lon="4.7669">
        <ele>172</ele>
        <time>2018-01-14T10:18:49Z</time>
      </trkpt>
      <trkpt lat="45.93285" lon="4.76695">
        <ele>172</ele>
        <time>2018-01-14T10:18:50Z</time>
      </trkpt>
      <trkpt lat="45.9329" lon="4.76699">
        <ele>172</ele>
        <time>2018-01-14T10:18:51Z</time>
      </trkpt>
      <trkpt lat="45.93295" lon="4.76703">
        <ele>172</ele>
        <time>2018-01-14T10:18:52Z</time>
      </trkpt>
      <trkpt lat="45.933" lon="4.76707">
        <ele>172</ele>
        <time>2018-01-14T10:18:53Z</time>
      </trkpt>
      <trkpt lat="45.93305" lon="4.76714">
        <ele>172</ele>
        <time>2018-01-14T10:18:54Z</time>
      </trkpt>
      <trkpt lat="45.9331" lon="4.7672">
        <ele>172</ele>
        <time>2018-01-14T10:18:55Z</time>
      </trkpt>
      <trkpt lat="45.93316" lon="4.76725">
        <ele>172</ele>
        <time>2018-01-14T10:18:56Z</time>
      </trkpt>
      <trkpt lat="45.9332" lon="4.76729">
        <ele>172</ele>
        <time>2018-01-14T10:18:57Z</time>
      </trkpt>
      <trkpt lat="45.93325" lon="4.76733">
        <ele>172</ele>
        <time>2018-01-14T10:18:58Z</time>
      </trkpt>
      <trkpt lat="45.93329" lon="4.76737">
        <ele>172</ele>
        <time>2018-01-14T10:18:59Z</time>
      </trkpt>
      <trkpt lat="45.93334" lon="4.76741">
        <ele>173</ele>
        <time>2018-01-14T10:19:00Z</time>
      </trkpt>
      <trkpt lat="45.93338" lon="4.76745">
        <ele>173</ele>
        <time>2018-01-14T10:19:01Z</time>
      </trkpt>
      <trkpt lat="45.93343" lon="4.7675">
        <ele>173</ele>
        <time>2018-01-14T10:19:02Z</time>
      </trkpt>
      <trkpt lat="45.93348" lon="4.76755">
        <ele>172</ele>
        <time>2018-01-14T10:19:03Z</time>
      </trkpt>
      <trkpt lat="45.93352" lon="4.76759">
        <ele>172</ele>
        <time>2018-01-14T10:19:04Z</time>
      </trkpt>
      <trkpt lat="45.93357" lon="4.76764">
        <ele>172</ele>
        <time>2018-01-14T10:19:05Z</time>
      </trkpt>
      <trkpt lat="45.93362" lon="4.76769">
        <ele>172</ele>
        <time>2018-01-14T10:19:06Z</time>
      </trkpt>
      <trkpt lat="45.93367" lon="4.76772">
        <ele>172</ele>
        <time>2018-01-14T10:19:07Z</time>
      </trkpt>
      <trkpt lat="45.93373" lon="4.76778">
        <ele>172</ele>
        <time>2018-01-14T10:19:08Z</time>
      </trkpt>
      <trkpt lat="45.93377" lon="4.76782">
        <ele>172</ele>
        <time>2018-01-14T10:19:09Z</time>
      </trkpt>
      <trkpt lat="45.93382" lon="4.76787">
        <ele>172</ele>
        <time>2018-01-14T10:19:10Z</time>
      </trkpt>
      <trkpt lat="45.93386" lon="4.76791">
        <ele>172</ele>
        <time>2018-01-14T10:19:11Z</time>
      </trkpt>
      <trkpt lat="45.93391" lon="4.76797">
        <ele>172</ele>
        <time>2018-01-14T10:19:12Z</time>
      </trkpt>
      <trkpt lat="45.93394" lon="4.76803">
        <ele>172</ele>
        <time>2018-01-14T10:19:13Z</time>
      </trkpt>
      <trkpt lat="45.93399" lon="4.7681">
        <ele>172</ele>
        <time>2018-01-14T10:19:14Z</time>
      </trkpt>
      <trkpt lat="45.93403" lon="4.76816">
        <ele>172</ele>
        <time>2018-01-14T10:19:15Z</time>
      </trkpt>
      <trkpt lat="45.93407" lon="4.76822">
        <ele>172</ele>
        <time>2018-01-14T10:19:16Z</time>
      </trkpt>
      <trkpt lat="45.93411" lon="4.7683">
        <ele>172</ele>
        <time>2018-01-14T10:19:17Z</time>
      </trkpt>
      <trkpt lat="45.93415" lon="4.76836">
        <ele>172</ele>
        <time>2018-01-14T10:19:18Z</time>
      </trkpt>
      <trkpt lat="45.93419" lon="4.76843">
        <ele>171</ele>
        <time>2018-01-14T10:19:19Z</time>
      </trkpt>
      <trkpt lat="45.93422" lon="4.76848">
        <ele>171</ele>
        <time>2018-01-14T10:19:20Z</time>
      </trkpt>
      <trkpt lat="45.93425" lon="4.76855">
        <ele>171</ele>
        <time>2018-01-14T10:19:21Z</time>
      </trkpt>
      <trkpt lat="45.93429" lon="4.76861">
        <ele>171</ele>
        <time>2018-01-14T10:19:22Z</time>
      </trkpt>
      <trkpt lat="45.93432" lon="4.76869">
        <ele>171</ele>
        <time>2018-01-14T10:19:23Z</time>
      </trkpt>
      <trkpt lat="45.93435" lon="4.76877">
        <ele>171</ele>
        <time>2018-01-14T10:19:24Z</time>
      </trkpt>
      <trkpt lat="45.93437" lon="4.76884">
        <ele>171</ele>
        <time>2018-01-14T10:19:25Z</time>
      </trkpt>
      <trkpt lat="45.93439" lon="4.76892">
        <ele>170</ele>
        <time>2018-01-14T10:19:26Z</time>
      </trkpt>
      <trkpt lat="45.93441" lon="4.76898">
        <ele>170</ele>
        <time>2018-01-14T10:19:27Z</time>
      </trkpt>
      <trkpt lat="45.93443" lon="4.76905">
        <ele>170</ele>
        <time>2018-01-14T10:19:28Z</time>
      </trkpt>
      <trkpt lat="45.93445" lon="4.76912">
        <ele>170</ele>
        <time>2018-01-14T10:19:29Z</time>
      </trkpt>
      <trkpt lat="45.93447" lon="4.76919">
        <ele>170</ele>
        <time>2018-01-14T10:19:30Z</time>
      </trkpt>
      <trkpt lat="45.93448" lon="4.76926">
        <ele>170</ele>
        <time>2018-01-14T10:19:31Z</time>
      </trkpt>
      <trkpt lat="45.93451" lon="4.76935">
        <ele>170</ele>
        <time>2018-01-14T10:19:32Z</time>
      </trkpt>
      <trkpt lat="45.93452" lon="4.76943">
        <ele>170</ele>
        <time>2018-01-14T10:19:33Z</time>
      </trkpt>
      <trkpt lat="45.93453" lon="4.7695">
        <ele>170</ele>
        <time>2018-01-14T10:19:34Z</time>
      </trkpt>
      <trkpt lat="45.93454" lon="4.76959">
        <ele>170</ele>
        <time>2018-01-14T10:19:35Z</time>
      </trkpt>
      <trkpt lat="45.93455" lon="4.76968">
        <ele>170</ele>
        <time>2018-01-14T10:19:36Z</time>
      </trkpt>
      <trkpt lat="45.93458" lon="4.76977">
        <ele>170</ele>
        <time>2018-01-14T10:19:37Z</time>
      </trkpt>
      <trkpt lat="45.93459" lon="4.76985">
        <ele>170</ele>
        <time>2018-01-14T10:19:38Z</time>
      </trkpt>
      <trkpt lat="45.93461" lon="4.76993">
        <ele>170</ele>
        <time>2018-01-14T10:19:39Z</time>
      </trkpt>
      <trkpt lat="45.93462" lon="4.77002">
        <ele>170</ele>
        <time>2018-01-14T10:19:40Z</time>
      </trkpt>
      <trkpt lat="45.93463" lon="4.77009">
        <ele>170</ele>
        <time>2018-01-14T10:19:41Z</time>
      </trkpt>
      <trkpt lat="45.93465" lon="4.77017">
        <ele>170</ele>
        <time>2018-01-14T10:19:42Z</time>
      </trkpt>
      <trkpt lat="45.93466" lon="4.77025">
        <ele>170</ele>
        <time>2018-01-14T10:19:43Z</time>
      </trkpt>
      <trkpt lat="45.93467" lon="4.77033">
        <ele>170</ele>
        <time>2018-01-14T10:19:44Z</time>
      </trkpt>
      <trkpt lat="45.93468" lon="4.77041">
        <ele>170</ele>
        <time>2018-01-14T10:19:45Z</time>
      </trkpt>
      <trkpt lat="45.93469" lon="4.77048">
        <ele>170</ele>
        <time>2018-01-14T10:19:46Z</time>
      </trkpt>
      <trkpt lat="45.9347" lon="4.77056">
        <ele>170</ele>
        <time>2018-01-14T10:19:47Z</time>
      </trkpt>
      <trkpt lat="45.93471" lon="4.77063">
        <ele>170</ele>
        <time>2018-01-14T10:19:48Z</time>
      </trkpt>
      <trkpt lat="45.93473" lon="4.77072">
        <ele>170</ele>
        <time>2018-01-14T10:19:49Z</time>
      </trkpt>
      <trkpt lat="45.93475" lon="4.77079">
        <ele>170</ele>
        <time>2018-01-14T10:19:50Z</time>
      </trkpt>
      <trkpt lat="45.93477" lon="4.77086">
        <ele>169</ele>
        <time>2018-01-14T10:19:51Z</time>
      </trkpt>
      <trkpt lat="45.93478" lon="4.77094">
        <ele>169</ele>
        <time>2018-01-14T10:19:52Z</time>
      </trkpt>
      <trkpt lat="45.9348" lon="4.77101">
        <ele>169</ele>
        <time>2018-01-14T10:19:53Z</time>
      </trkpt>
      <trkpt lat="45.93482" lon="4.77109">
        <ele>169</ele>
        <time>2018-01-14T10:19:54Z</time>
      </trkpt>
      <trkpt lat="45.93483" lon="4.77117">
        <ele>169</ele>
        <time>2018-01-14T10:19:55Z</time>
      </trkpt>
      <trkpt lat="45.93484" lon="4.77125">
        <ele>169</ele>
        <time>2018-01-14T10:19:56Z</time>
      </trkpt>
      <trkpt lat="45.93486" lon="4.77133">
        <ele>169</ele>
        <time>2018-01-14T10:19:57Z</time>
      </trkpt>
      <trkpt lat="45.93488" lon="4.77141">
        <ele>169</ele>
        <time>2018-01-14T10:19:58Z</time>
      </trkpt>
      <trkpt lat="45.93489" lon="4.7715">
        <ele>169</ele>
        <time>2018-01-14T10:19:59Z</time>
      </trkpt>
      <trkpt lat="45.93491" lon="4.77157">
        <ele>169</ele>
        <time>2018-01-14T10:20:00Z</time>
      </trkpt>
      <trkpt lat="45.93492" lon="4.77165">
        <ele>169</ele>
        <time>2018-01-14T10:20:01Z</time>
      </trkpt>
      <trkpt lat="45.93495" lon="4.77173">
        <ele>169</ele>
        <time>2018-01-14T10:20:02Z</time>
      </trkpt>
      <trkpt lat="45.93496" lon="4.7718">
        <ele>169</ele>
        <time>2018-01-14T10:20:03Z</time>
      </trkpt>
      <trkpt lat="45.93497" lon="4.77187">
        <ele>169</ele>
        <time>2018-01-14T10:20:04Z</time>
      </trkpt>
      <trkpt lat="45.93499" lon="4.77195">
        <ele>169</ele>
        <time>2018-01-14T10:20:05Z</time>
      </trkpt>
      <trkpt lat="45.93501" lon="4.77202">
        <ele>169</ele>
        <time>2018-01-14T10:20:06Z</time>
      </trkpt>
      <trkpt lat="45.93502" lon="4.7721">
        <ele>169</ele>
        <time>2018-01-14T10:20:07Z</time>
      </trkpt>
      <trkpt lat="45.93504" lon="4.77218">
        <ele>169</ele>
        <time>2018-01-14T10:20:08Z</time>
      </trkpt>
      <trkpt lat="45.93506" lon="4.77225">
        <ele>169</ele>
        <time>2018-01-14T10:20:09Z</time>
      </trkpt>
      <trkpt lat="45.93507" lon="4.77233">
        <ele>169</ele>
        <time>2018-01-14T10:20:10Z</time>
      </trkpt>
      <trkpt lat="45.93508" lon="4.7724">
        <ele>169</ele>
        <time>2018-01-14T10:20:11Z</time>
      </trkpt>
      <trkpt lat="45.93508" lon="4.77248">
        <ele>170</ele>
        <time>2018-01-14T10:20:12Z</time>
      </trkpt>
      <trkpt lat="45.9351" lon="4.77255">
        <ele>170</ele>
        <time>2018-01-14T10:20:13Z</time>
      </trkpt>
      <trkpt lat="45.93512" lon="4.77262">
        <ele>170</ele>
        <time>2018-01-14T10:20:14Z</time>
      </trkpt>
      <trkpt lat="45.93514" lon="4.77269">
        <ele>170</ele>
        <time>2018-01-14T10:20:15Z</time>
      </trkpt>
      <trkpt lat="45.93515" lon="4.77276">
        <ele>170</ele>
        <time>2018-01-14T10:20:16Z</time>
      </trkpt>
      <trkpt lat="45.93517" lon="4.77283">
        <ele>170</ele>
        <time>2018-01-14T10:20:17Z</time>
      </trkpt>
      <trkpt lat="45.93519" lon="4.77289">
        <ele>170</ele>
        <time>2018-01-14T10:20:18Z</time>
      </trkpt>
      <trkpt lat="45.93521" lon="4.77295">
        <ele>170</ele>
        <time>2018-01-14T10:20:19Z</time>
      </trkpt>
      <trkpt lat="45.93522" lon="4.77303">
        <ele>170</ele>
        <time>2018-01-14T10:20:20Z</time>
      </trkpt>
      <trkpt lat="45.93523" lon="4.7731">
        <ele>170</ele>
        <time>2018-01-14T10:20:21Z</time>
      </trkpt>
      <trkpt lat="45.93524" lon="4.77317">
        <ele>170</ele>
        <time>2018-01-14T10:20:22Z</time>
      </trkpt>
      <trkpt lat="45.93526" lon="4.77326">
        <ele>170</ele>
        <time>2018-01-14T10:20:23Z</time>
      </trkpt>
      <trkpt lat="45.93527" lon="4.77333">
        <ele>170</ele>
        <time>2018-01-14T10:20:24Z</time>
      </trkpt>
      <trkpt lat="45.9353" lon="4.7734">
        <ele>170</ele>
        <time>2018-01-14T10:20:25Z</time>
      </trkpt>
      <trkpt lat="45.93532" lon="4.77348">
        <ele>170</ele>
        <time>2018-01-14T10:20:26Z</time>
      </trkpt>
      <trkpt lat="45.93534" lon="4.77355">
        <ele>170</ele>
        <time>2018-01-14T10:20:27Z</time>
      </trkpt>
      <trkpt lat="45.93536" lon="4.77363">
        <ele>170</ele>
        <time>2018-01-14T10:20:28Z</time>
      </trkpt>
      <trkpt lat="45.93537" lon="4.7737">
        <ele>170</ele>
        <time>2018-01-14T10:20:29Z</time>
      </trkpt>
      <trkpt lat="45.93539" lon="4.77378">
        <ele>170</ele>
        <time>2018-01-14T10:20:30Z</time>
      </trkpt>
      <trkpt lat="45.9354" lon="4.77386">
        <ele>170</ele>
        <time>2018-01-14T10:20:31Z</time>
      </trkpt>
      <trkpt lat="45.93542" lon="4.77395">
        <ele>170</ele>
        <time>2018-01-14T10:20:32Z</time>
      </trkpt>
      <trkpt lat="45.93545" lon="4.77402">
        <ele>170</ele>
        <time>2018-01-14T10:20:33Z</time>
      </trkpt>
      <trkpt lat="45.93547" lon="4.7741">
        <ele>170</ele>
        <time>2018-01-14T10:20:34Z</time>
      </trkpt>
      <trkpt lat="45.93548" lon="4.77419">
        <ele>170</ele>
        <time>2018-01-14T10:20:35Z</time>
      </trkpt>
      <trkpt lat="45.93551" lon="4.7743">
        <ele>170</ele>
        <time>2018-01-14T10:20:36Z</time>
      </trkpt>
      <trkpt lat="45.93552" lon="4.77437">
        <ele>169</ele>
        <time>2018-01-14T10:20:37Z</time>
      </trkpt>
      <trkpt lat="45.93553" lon="4.77445">
        <ele>169</ele>
        <time>2018-01-14T10:20:38Z</time>
      </trkpt>
      <trkpt lat="45.93555" lon="4.77453">
        <ele>169</ele>
        <time>2018-01-14T10:20:39Z</time>
      </trkpt>
      <trkpt lat="45.93558" lon="4.77461">
        <ele>169</ele>
        <time>2018-01-14T10:20:40Z</time>
      </trkpt>
      <trkpt lat="45.9356" lon="4.77468">
        <ele>169</ele>
        <time>2018-01-14T10:20:41Z</time>
      </trkpt>
      <trkpt lat="45.93561" lon="4.77475">
        <ele>169</ele>
        <time>2018-01-14T10:20:42Z</time>
      </trkpt>
      <trkpt lat="45.93562" lon="4.7748">
        <ele>169</ele>
        <time>2018-01-14T10:20:43Z</time>
      </trkpt>
      <trkpt lat="45.93564" lon="4.77487">
        <ele>169</ele>
        <time>2018-01-14T10:20:44Z</time>
      </trkpt>
      <trkpt lat="45.93566" lon="4.77494">
        <ele>169</ele>
        <time>2018-01-14T10:20:45Z</time>
      </trkpt>
      <trkpt lat="45.93567" lon="4.775">
        <ele>169</ele>
        <time>2018-01-14T10:20:46Z</time>
      </trkpt>
      <trkpt lat="45.93569" lon="4.77509">
        <ele>169</ele>
        <time>2018-01-14T10:20:47Z</time>
      </trkpt>
      <trkpt lat="45.93571" lon="4.77517">
        <ele>169</ele>
        <time>2018-01-14T10:20:48Z</time>
      </trkpt>
      <trkpt lat="45.93573" lon="4.77524">
        <ele>169</ele>
        <time>2018-01-14T10:20:49Z</time>
      </trkpt>
      <trkpt lat="45.93574" lon="4.7753">
        <ele>169</ele>
        <time>2018-01-14T10:20:50Z</time>
      </trkpt>
      <trkpt lat="45.93576" lon="4.77537">
        <ele>169</ele>
        <time>2018-01-14T10:20:51Z</time>
      </trkpt>
      <trkpt lat="45.93578" lon="4.77545">
        <ele>169</ele>
        <time>2018-01-14T10:20:52Z</time>
      </trkpt>
      <trkpt lat="45.9358" lon="4.77551">
        <ele>169</ele>
        <time>2018-01-14T10:20:53Z</time>
      </trkpt>
      <trkpt lat="45.93582" lon="4.77558">
        <ele>169</ele>
        <time>2018-01-14T10:20:54Z</time>
      </trkpt>
      <trkpt lat="45.93583" lon="4.77565">
        <ele>170</ele>
        <time>2018-01-14T10:20:55Z</time>
      </trkpt>
      <trkpt lat="45.93584" lon="4.77573">
        <ele>170</ele>
        <time>2018-01-14T10:20:56Z</time>
      </trkpt>
      <trkpt lat="45.93586" lon="4.7758">
        <ele>170</ele>
        <time>2018-01-14T10:20:57Z</time>
      </trkpt>
      <trkpt lat="45.93588" lon="4.77587">
        <ele>170</ele>
        <time>2018-01-14T10:20:58Z</time>
      </trkpt>
      <trkpt lat="45.9359" lon="4.77594">
        <ele>170</ele>
        <time>2018-01-14T10:20:59Z</time>
      </trkpt>
      <trkpt lat="45.93592" lon="4.776">
        <ele>170</ele>
        <time>2018-01-14T10:21:00Z</time>
      </trkpt>
      <trkpt lat="45.93594" lon="4.77607">
        <ele>170</ele>
        <time>2018-01-14T10:21:01Z</time>
      </trkpt>
      <trkpt lat="45.93597" lon="4.77615">
        <ele>170</ele>
        <time>2018-01-14T10:21:02Z</time>
      </trkpt>
      <trkpt lat="45.936" lon="4.77621">
        <ele>170</ele>
        <time>2018-01-14T10:21:03Z</time>
      </trkpt>
      <trkpt lat="45.93603" lon="4.77629">
        <ele>169</ele>
        <time>2018-01-14T10:21:04Z</time>
      </trkpt>
      <trkpt lat="45.93606" lon="4.77636">
        <ele>169</ele>
        <time>2018-01-14T10:21:05Z</time>
      </trkpt>
      <trkpt lat="45.93608" lon="4.77643">
        <ele>169</ele>
        <time>2018-01-14T10:21:06Z</time>
      </trkpt>
      <trkpt lat="45.93611" lon="4.7765">
        <ele>169</ele>
        <time>2018-01-14T10:21:07Z</time>
      </trkpt>
      <trkpt lat="45.93615" lon="4.77657">
        <ele>169</ele>
        <time>2018-01-14T10:21:08Z</time>
      </trkpt>
      <trkpt lat="45.93618" lon="4.77663">
        <ele>169</ele>
        <time>2018-01-14T10:21:09Z</time>
      </trkpt>
      <trkpt lat="45.9362" lon="4.7767">
        <ele>169</ele>
        <time>2018-01-14T10:21:10Z</time>
      </trkpt>
      <trkpt lat="45.93623" lon="4.77676">
        <ele>169</ele>
        <time>2018-01-14T10:21:11Z</time>
      </trkpt>
      <trkpt lat="45.93625" lon="4.77682">
        <ele>169</ele>
        <time>2018-01-14T10:21:12Z</time>
      </trkpt>
      <trkpt lat="45.93628" lon="4.77688">
        <ele>169</ele>
        <time>2018-01-14T10:21:13Z</time>
      </trkpt>
      <trkpt lat="45.9363" lon="4.77695">
        <ele>169</ele>
        <time>2018-01-14T10:21:14Z</time>
      </trkpt>
      <trkpt lat="45.93633" lon="4.77701">
        <ele>169</ele>
        <time>2018-01-14T10:21:15Z</time>
      </trkpt>
      <trkpt lat="45.93636" lon="4.77709">
        <ele>170</ele>
        <time>2018-01-14T10:21:16Z</time>
      </trkpt>
      <trkpt lat="45.93639" lon="4.77714">
        <ele>170</ele>
        <time>2018-01-14T10:21:17Z</time>
      </trkpt>
      <trkpt lat="45.93642" lon="4.77719">
        <ele>170</ele>
        <time>2018-01-14T10:21:18Z</time>
      </trkpt>
      <trkpt lat="45.93645" lon="4.77725">
        <ele>170</ele>
        <time>2018-01-14T10:21:19Z</time>
      </trkpt>
      <trkpt lat="45.93649" lon="4.7773">
        <ele>170</ele>
        <time>2018-01-14T10:21:20Z</time>
      </trkpt>
      <trkpt lat="45.93652" lon="4.77735">
        <ele>170</ele>
        <time>2018-01-14T10:21:21Z</time>
      </trkpt>
      <trkpt lat="45.93655" lon="4.7774">
        <ele>170</ele>
        <time>2018-01-14T10:21:22Z</time>
      </trkpt>
      <trkpt lat="45.9366" lon="4.77749">
        <ele>171</ele>
        <time>2018-01-14T10:21:24Z</time>
      </trkpt>
      <trkpt lat="45.93662" lon="4.77752">
        <ele>171</ele>
        <time>2018-01-14T10:21:25Z</time>
      </trkpt>
      <trkpt lat="45.93667" lon="4.7776">
        <ele>170</ele>
        <time>2018-01-14T10:21:27Z</time>
      </trkpt>
      <trkpt lat="45.9367" lon="4.77763">
        <ele>170</ele>
        <time>2018-01-14T10:21:28Z</time>
      </trkpt>
      <trkpt lat="45.93676" lon="4.77771">
        <ele>170</ele>
        <time>2018-01-14T10:21:30Z</time>
      </trkpt>
      <trkpt lat="45.93678" lon="4.77775">
        <ele>170</ele>
        <time>2018-01-14T10:21:31Z</time>
      </trkpt>
      <trkpt lat="45.93683" lon="4.77783">
        <ele>170</ele>
        <time>2018-01-14T10:21:33Z</time>
      </trkpt>
      <trkpt lat="45.93686" lon="4.77787">
        <ele>170</ele>
        <time>2018-01-14T10:21:34Z</time>
      </trkpt>
      <trkpt lat="45.93692" lon="4.77795">
        <ele>169</ele>
        <time>2018-01-14T10:21:36Z</time>
      </trkpt>
      <trkpt lat="45.93695" lon="4.77798">
        <ele>169</ele>
        <time>2018-01-14T10:21:37Z</time>
      </trkpt>
      <trkpt lat="45.93701" lon="4.77805">
        <ele>169</ele>
        <time>2018-01-14T10:21:39Z</time>
      </trkpt>
      <trkpt lat="45.93703" lon="4.77809">
        <ele>169</ele>
        <time>2018-01-14T10:21:40Z</time>
      </trkpt>
      <trkpt lat="45.93708" lon="4.77817">
        <ele>169</ele>
        <time>2018-01-14T10:21:42Z</time>
      </trkpt>
      <trkpt lat="45.93711" lon="4.7782">
        <ele>169</ele>
        <time>2018-01-14T10:21:43Z</time>
      </trkpt>
      <trkpt lat="45.93717" lon="4.77827">
        <ele>169</ele>
        <time>2018-01-14T10:21:45Z</time>
      </trkpt>
      <trkpt lat="45.93719" lon="4.77831">
        <ele>168</ele>
        <time>2018-01-14T10:21:46Z</time>
      </trkpt>
      <trkpt lat="45.93725" lon="4.77838">
        <ele>167</ele>
        <time>2018-01-14T10:21:48Z</time>
      </trkpt>
      <trkpt lat="45.93728" lon="4.77842">
        <ele>167</ele>
        <time>2018-01-14T10:21:49Z</time>
      </trkpt>
      <trkpt lat="45.93734" lon="4.7785">
        <ele>167</ele>
        <time>2018-01-14T10:21:51Z</time>
      </trkpt>
      <trkpt lat="45.93738" lon="4.77855">
        <ele>167</ele>
        <time>2018-01-14T10:21:52Z</time>
      </trkpt>
      <trkpt lat="45.93744" lon="4.77863">
        <ele>167</ele>
        <time>2018-01-14T10:21:54Z</time>
      </trkpt>
      <trkpt lat="45.93747" lon="4.77867">
        <ele>167</ele>
        <time>2018-01-14T10:21:55Z</time>
      </trkpt>
      <trkpt lat="45.93752" lon="4.77875">
        <ele>166</ele>
        <time>2018-01-14T10:21:57Z</time>
      </trkpt>
      <trkpt lat="45.93756" lon="4.77879">
        <ele>166</ele>
        <time>2018-01-14T10:21:58Z</time>
      </trkpt>
      <trkpt lat="45.93762" lon="4.77888">
        <ele>166</ele>
        <time>2018-01-14T10:22:00Z</time>
      </trkpt>
      <trkpt lat="45.93766" lon="4.77892">
        <ele>166</ele>
        <time>2018-01-14T10:22:01Z</time>
      </trkpt>
      <trkpt lat="45.93772" lon="4.779">
        <ele>166</ele>
        <time>2018-01-14T10:22:03Z</time>
      </trkpt>
      <trkpt lat="45.93776" lon="4.77905">
        <ele>166</ele>
        <time>2018-01-14T10:22:04Z</time>
      </trkpt>
      <trkpt lat="45.93781" lon="4.77912">
        <ele>166</ele>
        <time>2018-01-14T10:22:06Z</time>
      </trkpt>
      <trkpt lat="45.93784" lon="4.77915">
        <ele>166</ele>
        <time>2018-01-14T10:22:07Z</time>
      </trkpt>
      <trkpt lat="45.93787" lon="4.77918">
        <ele>168</ele>
        <time>2018-01-14T10:22:08Z</time>
      </trkpt>
      <trkpt lat="45.93791" lon="4.77924">
        <ele>168</ele>
        <time>2018-01-14T10:22:09Z</time>
      </trkpt>
      <trkpt lat="45.93794" lon="4.77928">
        <ele>168</ele>
        <time>2018-01-14T10:22:10Z</time>
      </trkpt>
      <trkpt lat="45.93798" lon="4.77932">
        <ele>168</ele>
        <time>2018-01-14T10:22:11Z</time>
      </trkpt>
      <trkpt lat="45.93802" lon="4.77937">
        <ele>169</ele>
        <time>2018-01-14T10:22:12Z</time>
      </trkpt>
      <trkpt lat="45.93805" lon="4.77943">
        <ele>169</ele>
        <time>2018-01-14T10:22:13Z</time>
      </trkpt>
      <trkpt lat="45.93809" lon="4.77948">
        <ele>169</ele>
        <time>2018-01-14T10:22:14Z</time>
      </trkpt>
      <trkpt lat="45.93813" lon="4.77952">
        <ele>170</ele>
        <time>2018-01-14T10:22:15Z</time>
      </trkpt>
      <trkpt lat="45.93817" lon="4.77957">
        <ele>170</ele>
        <time>2018-01-14T10:22:16Z</time>
      </trkpt>
      <trkpt lat="45.9382" lon="4.77962">
        <ele>171</ele>
        <time>2018-01-14T10:22:17Z</time>
      </trkpt>
      <trkpt lat="45.93824" lon="4.77967">
        <ele>171</ele>
        <time>2018-01-14T10:22:18Z</time>
      </trkpt>
      <trkpt lat="45.93828" lon="4.77973">
        <ele>172</ele>
        <time>2018-01-14T10:22:19Z</time>
      </trkpt>
      <trkpt lat="45.93832" lon="4.77978">
        <ele>173</ele>
        <time>2018-01-14T10:22:20Z</time>
      </trkpt>
      <trkpt lat="45.93836" lon="4.77984">
        <ele>178</ele>
        <time>2018-01-14T10:22:21Z</time>
      </trkpt>
      <trkpt lat="45.93839" lon="4.77991">
        <ele>179</ele>
        <time>2018-01-14T10:22:22Z</time>
      </trkpt>
      <trkpt lat="45.93842" lon="4.77998">
        <ele>179</ele>
        <time>2018-01-14T10:22:23Z</time>
      </trkpt>
      <trkpt lat="45.93843" lon="4.78004">
        <ele>181</ele>
        <time>2018-01-14T10:22:24Z</time>
      </trkpt>
      <trkpt lat="45.93845" lon="4.78012">
        <ele>181</ele>
        <time>2018-01-14T10:22:25Z</time>
      </trkpt>
      <trkpt lat="45.93846" lon="4.78021">
        <ele>182</ele>
        <time>2018-01-14T10:22:26Z</time>
      </trkpt>
      <trkpt lat="45.93847" lon="4.78028">
        <ele>182</ele>
        <time>2018-01-14T10:22:27Z</time>
      </trkpt>
      <trkpt lat="45.93848" lon="4.78035">
        <ele>182</ele>
        <time>2018-01-14T10:22:28Z</time>
      </trkpt>
      <trkpt lat="45.93849" lon="4.78042">
        <ele>183</ele>
        <time>2018-01-14T10:22:29Z</time>
      </trkpt>
      <trkpt lat="45.9385" lon="4.78054">
        <ele>183</ele>
        <time>2018-01-14T10:22:31Z</time>
      </trkpt>
      <trkpt lat="45.9385" lon="4.7806">
        <ele>183</ele>
        <time>2018-01-14T10:22:32Z</time>
      </trkpt>
      <trkpt lat="45.93848" lon="4.78067">
        <ele>182</ele>
        <time>2018-01-14T10:22:33Z</time>
      </trkpt>
      <trkpt lat="45.93846" lon="4.78074">
        <ele>182</ele>
        <time>2018-01-14T10:22:34Z</time>
      </trkpt>
      <trkpt lat="45.93845" lon="4.7808">
        <ele>182</ele>
        <time>2018-01-14T10:22:35Z</time>
      </trkpt>
      <trkpt lat="45.93845" lon="4.78087">
        <ele>182</ele>
        <time>2018-01-14T10:22:36Z</time>
      </trkpt>
      <trkpt lat="45.93844" lon="4.78094">
        <ele>183</ele>
        <time>2018-01-14T10:22:37Z</time>
      </trkpt>
      <trkpt lat="45.93843" lon="4.78101">
        <ele>183</ele>
        <time>2018-01-14T10:22:38Z</time>
      </trkpt>
      <trkpt lat="45.93842" lon="4.78108">
        <ele>184</ele>
        <time>2018-01-14T10:22:39Z</time>
      </trkpt>
      <trkpt lat="45.93841" lon="4.78115">
        <ele>184</ele>
        <time>2018-01-14T10:22:40Z</time>
      </trkpt>
      <trkpt lat="45.93837" lon="4.78126">
        <ele>184</ele>
        <time>2018-01-14T10:22:42Z</time>
      </trkpt>
      <trkpt lat="45.93835" lon="4.78133">
        <ele>184</ele>
        <time>2018-01-14T10:22:43Z</time>
      </trkpt>
      <trkpt lat="45.93833" lon="4.78138">
        <ele>180</ele>
        <time>2018-01-14T10:22:44Z</time>
      </trkpt>
      <trkpt lat="45.93831" lon="4.78145">
        <ele>180</ele>
        <time>2018-01-14T10:22:45Z</time>
      </trkpt>
      <trkpt lat="45.93829" lon="4.78152">
        <ele>181</ele>
        <time>2018-01-14T10:22:46Z</time>
      </trkpt>
      <trkpt lat="45.93827" lon="4.78158">
        <ele>181</ele>
        <time>2018-01-14T10:22:47Z</time>
      </trkpt>
      <trkpt lat="45.93825" lon="4.78164">
        <ele>181</ele>
        <time>2018-01-14T10:22:48Z</time>
      </trkpt>
      <trkpt lat="45.93823" lon="4.78171">
        <ele>182</ele>
        <time>2018-01-14T10:22:49Z</time>
      </trkpt>
      <trkpt lat="45.93821" lon="4.78176">
        <ele>182</ele>
        <time>2018-01-14T10:22:50Z</time>
      </trkpt>
      <trkpt lat="45.93819" lon="4.78183">
        <ele>182</ele>
        <time>2018-01-14T10:22:51Z</time>
      </trkpt>
      <trkpt lat="45.93816" lon="4.78195">
        <ele>182</ele>
        <time>2018-01-14T10:22:53Z</time>
      </trkpt>
      <trkpt lat="45.93815" lon="4.78201">
        <ele>182</ele>
        <time>2018-01-14T10:22:54Z</time>
      </trkpt>
      <trkpt lat="45.93814" lon="4.78207">
        <ele>182</ele>
        <time>2018-01-14T10:22:55Z</time>
      </trkpt>
      <trkpt lat="45.93812" lon="4.78213">
        <ele>182</ele>
        <time>2018-01-14T10:22:56Z</time>
      </trkpt>
      <trkpt lat="45.93808" lon="4.78224">
        <ele>182</ele>
        <time>2018-01-14T10:22:58Z</time>
      </trkpt>
      <trkpt lat="45.93805" lon="4.78229">
        <ele>182</ele>
        <time>2018-01-14T10:22:59Z</time>
      </trkpt>
      <trkpt lat="45.93801" lon="4.78234">
        <ele>182</ele>
        <time>2018-01-14T10:23:00Z</time>
      </trkpt>
      <trkpt lat="45.93798" lon="4.78238">
        <ele>182</ele>
        <time>2018-01-14T10:23:01Z</time>
      </trkpt>
      <trkpt lat="45.93796" lon="4.7825">
        <ele>182</ele>
        <time>2018-01-14T10:23:03Z</time>
      </trkpt>
      <trkpt lat="45.93795" lon="4.78257">
        <ele>183</ele>
        <time>2018-01-14T10:23:04Z</time>
      </trkpt>
      <trkpt lat="45.93794" lon="4.78265">
        <ele>183</ele>
        <time>2018-01-14T10:23:05Z</time>
      </trkpt>
      <trkpt lat="45.93793" lon="4.78272">
        <ele>183</ele>
        <time>2018-01-14T10:23:06Z</time>
      </trkpt>
      <trkpt lat="45.93791" lon="4.7828">
        <ele>183</ele>
        <time>2018-01-14T10:23:07Z</time>
      </trkpt>
      <trkpt lat="45.93788" lon="4.78286">
        <ele>183</ele>
        <time>2018-01-14T10:23:08Z</time>
      </trkpt>
      <trkpt lat="45.93786" lon="4.78293">
        <ele>183</ele>
        <time>2018-01-14T10:23:09Z</time>
      </trkpt>
      <trkpt lat="45.93784" lon="4.78299">
        <ele>183</ele>
        <time>2018-01-14T10:23:10Z</time>
      </trkpt>
      <trkpt lat="45.93781" lon="4.78305">
        <ele>183</ele>
        <time>2018-01-14T10:23:11Z</time>
      </trkpt>
      <trkpt lat="45.9378" lon="4.78312">
        <ele>183</ele>
        <time>2018-01-14T10:23:12Z</time>
      </trkpt>
      <trkpt lat="45.93778" lon="4.7832">
        <ele>183</ele>
        <time>2018-01-14T10:23:13Z</time>
      </trkpt>
      <trkpt lat="45.93776" lon="4.78327">
        <ele>183</ele>
        <time>2018-01-14T10:23:14Z</time>
      </trkpt>
      <trkpt lat="45.93774" lon="4.78335">
        <ele>183</ele>
        <time>2018-01-14T10:23:15Z</time>
      </trkpt>
      <trkpt lat="45.93772" lon="4.78342">
        <ele>183</ele>
        <time>2018-01-14T10:23:16Z</time>
      </trkpt>
      <trkpt lat="45.93771" lon="4.78348">
        <ele>183</ele>
        <time>2018-01-14T10:23:17Z</time>
      </trkpt>
      <trkpt lat="45.93769" lon="4.78354">
        <ele>183</ele>
        <time>2018-01-14T10:23:18Z</time>
      </trkpt>
      <trkpt lat="45.93767" lon="4.7836">
        <ele>183</ele>
        <time>2018-01-14T10:23:19Z</time>
      </trkpt>
      <trkpt lat="45.93766" lon="4.78367">
        <ele>183</ele>
        <time>2018-01-14T10:23:20Z</time>
      </trkpt>
      <trkpt lat="45.93765" lon="4.78373">
        <ele>183</ele>
        <time>2018-01-14T10:23:21Z</time>
      </trkpt>
      <trkpt lat="45.93764" lon="4.78381">
        <ele>183</ele>
        <time>2018-01-14T10:23:22Z</time>
      </trkpt>
      <trkpt lat="45.93762" lon="4.78387">
        <ele>183</ele>
        <time>2018-01-14T10:23:23Z</time>
      </trkpt>
      <trkpt lat="45.93759" lon="4.78396">
        <ele>183</ele>
        <time>2018-01-14T10:23:24Z</time>
      </trkpt>
      <trkpt lat="45.93757" lon="4.78402">
        <ele>182</ele>
        <time>2018-01-14T10:23:25Z</time>
      </trkpt>
      <trkpt lat="45.93756" lon="4.78409">
        <ele>182</ele>
        <time>2018-01-14T10:23:26Z</time>
      </trkpt>
      <trkpt lat="45.93754" lon="4.78418">
        <ele>182</ele>
        <time>2018-01-14T10:23:27Z</time>
      </trkpt>
      <trkpt lat="45.93751" lon="4.78426">
        <ele>182</ele>
        <time>2018-01-14T10:23:28Z</time>
      </trkpt>
      <trkpt lat="45.93749" lon="4.78434">
        <ele>180</ele>
        <time>2018-01-14T10:23:29Z</time>
      </trkpt>
      <trkpt lat="45.93746" lon="4.78441">
        <ele>180</ele>
        <time>2018-01-14T10:23:30Z</time>
      </trkpt>
      <trkpt lat="45.93745" lon="4.78448">
        <ele>180</ele>
        <time>2018-01-14T10:23:31Z</time>
      </trkpt>
      <trkpt lat="45.93742" lon="4.78454">
        <ele>180</ele>
        <time>2018-01-14T10:23:32Z</time>
      </trkpt>
      <trkpt lat="45.93741" lon="4.7846">
        <ele>180</ele>
        <time>2018-01-14T10:23:33Z</time>
      </trkpt>
      <trkpt lat="45.93738" lon="4.78468">
        <ele>180</ele>
        <time>2018-01-14T10:23:34Z</time>
      </trkpt>
      <trkpt lat="45.93736" lon="4.78474">
        <ele>180</ele>
        <time>2018-01-14T10:23:35Z</time>
      </trkpt>
      <trkpt lat="45.93734" lon="4.78484">
        <ele>180</ele>
        <time>2018-01-14T10:23:36Z</time>
      </trkpt>
      <trkpt lat="45.93732" lon="4.78491">
        <ele>180</ele>
        <time>2018-01-14T10:23:37Z</time>
      </trkpt>
      <trkpt lat="45.9373" lon="4.78497">
        <ele>180</ele>
        <time>2018-01-14T10:23:38Z</time>
      </trkpt>
      <trkpt lat="45.93729" lon="4.78505">
        <ele>179</ele>
        <time>2018-01-14T10:23:39Z</time>
      </trkpt>
      <trkpt lat="45.93727" lon="4.78512">
        <ele>179</ele>
        <time>2018-01-14T10:23:40Z</time>
      </trkpt>
      <trkpt lat="45.93725" lon="4.7852">
        <ele>179</ele>
        <time>2018-01-14T10:23:41Z</time>
      </trkpt>
      <trkpt lat="45.93723" lon="4.78528">
        <ele>178</ele>
        <time>2018-01-14T10:23:42Z</time>
      </trkpt>
      <trkpt lat="45.93721" lon="4.78536">
        <ele>178</ele>
        <time>2018-01-14T10:23:43Z</time>
      </trkpt>
      <trkpt lat="45.9372" lon="4.78542">
        <ele>178</ele>
        <time>2018-01-14T10:23:44Z</time>
      </trkpt>
      <trkpt lat="45.93718" lon="4.78549">
        <ele>178</ele>
        <time>2018-01-14T10:23:45Z</time>
      </trkpt>
      <trkpt lat="45.93715" lon="4.78557">
        <ele>178</ele>
        <time>2018-01-14T10:23:46Z</time>
      </trkpt>
      <trkpt lat="45.93714" lon="4.78566">
        <ele>178</ele>
        <time>2018-01-14T10:23:47Z</time>
      </trkpt>
      <trkpt lat="45.93713" lon="4.78573">
        <ele>178</ele>
        <time>2018-01-14T10:23:48Z</time>
      </trkpt>
      <trkpt lat="45.93712" lon="4.78581">
        <ele>177</ele>
        <time>2018-01-14T10:23:49Z</time>
      </trkpt>
      <trkpt lat="45.9371" lon="4.78588">
        <ele>176</ele>
        <time>2018-01-14T10:23:50Z</time>
      </trkpt>
      <trkpt lat="45.93709" lon="4.78598">
        <ele>176</ele>
        <time>2018-01-14T10:23:51Z</time>
      </trkpt>
      <trkpt lat="45.93708" lon="4.78605">
        <ele>176</ele>
        <time>2018-01-14T10:23:52Z</time>
      </trkpt>
      <trkpt lat="45.93705" lon="4.78612">
        <ele>176</ele>
        <time>2018-01-14T10:23:53Z</time>
      </trkpt>
      <trkpt lat="45.93704" lon="4.78618">
        <ele>176</ele>
        <time>2018-01-14T10:23:54Z</time>
      </trkpt>
      <trkpt lat="45.93704" lon="4.78626">
        <ele>176</ele>
        <time>2018-01-14T10:23:55Z</time>
      </trkpt>
      <trkpt lat="45.93706" lon="4.78634">
        <ele>176</ele>
        <time>2018-01-14T10:23:56Z</time>
      </trkpt>
      <trkpt lat="45.93711" lon="4.78636">
        <ele>176</ele>
        <time>2018-01-14T10:23:57Z</time>
      </trkpt>
      <trkpt lat="45.93716" lon="4.78637">
        <ele>176</ele>
        <time>2018-01-14T10:23:58Z</time>
      </trkpt>
      <trkpt lat="45.93723" lon="4.78633">
        <ele>177</ele>
        <time>2018-01-14T10:24:00Z</time>
      </trkpt>
      <trkpt lat="45.93726" lon="4.78631">
        <ele>177</ele>
        <time>2018-01-14T10:24:01Z</time>
      </trkpt>
      <trkpt lat="45.93734" lon="4.78629">
        <ele>177</ele>
        <time>2018-01-14T10:24:03Z</time>
      </trkpt>
      <trkpt lat="45.93737" lon="4.78629">
        <ele>177</ele>
        <time>2018-01-14T10:24:04Z</time>
      </trkpt>
      <trkpt lat="45.93743" lon="4.78626">
        <ele>177</ele>
        <time>2018-01-14T10:24:06Z</time>
      </trkpt>
      <trkpt lat="45.93747" lon="4.78625">
        <ele>177</ele>
        <time>2018-01-14T10:24:07Z</time>
      </trkpt>
      <trkpt lat="45.93753" lon="4.78625">
        <ele>181</ele>
        <time>2018-01-14T10:24:09Z</time>
      </trkpt>
      <trkpt lat="45.93757" lon="4.78625">
        <ele>181</ele>
        <time>2018-01-14T10:24:10Z</time>
      </trkpt>
      <trkpt lat="45.93763" lon="4.78623">
        <ele>181</ele>
        <time>2018-01-14T10:24:12Z</time>
      </trkpt>
      <trkpt lat="45.93766" lon="4.78623">
        <ele>181</ele>
        <time>2018-01-14T10:24:13Z</time>
      </trkpt>
      <trkpt lat="45.93775" lon="4.78621">
        <ele>181</ele>
        <time>2018-01-14T10:24:16Z</time>
      </trkpt>
      <trkpt lat="45.93777" lon="4.7862">
        <ele>181</ele>
        <time>2018-01-14T10:24:17Z</time>
      </trkpt>
      <trkpt lat="45.93783" lon="4.78618">
        <ele>182</ele>
        <time>2018-01-14T10:24:19Z</time>
      </trkpt>
      <trkpt lat="45.93786" lon="4.78617">
        <ele>182</ele>
        <time>2018-01-14T10:24:20Z</time>
      </trkpt>
      <trkpt lat="45.93792" lon="4.78615">
        <ele>182</ele>
        <time>2018-01-14T10:24:22Z</time>
      </trkpt>
      <trkpt lat="45.93796" lon="4.78614">
        <ele>182</ele>
        <time>2018-01-14T10:24:23Z</time>
      </trkpt>
      <trkpt lat="45.93803" lon="4.78612">
        <ele>182</ele>
        <time>2018-01-14T10:24:25Z</time>
      </trkpt>
      <trkpt lat="45.93806" lon="4.78612">
        <ele>183</ele>
        <time>2018-01-14T10:24:26Z</time>
      </trkpt>
      <trkpt lat="45.93813" lon="4.7861">
        <ele>183</ele>
        <time>2018-01-14T10:24:28Z</time>
      </trkpt>
      <trkpt lat="45.93817" lon="4.78609">
        <ele>183</ele>
        <time>2018-01-14T10:24:29Z</time>
      </trkpt>
      <trkpt lat="45.93823" lon="4.78608">
        <ele>184</ele>
        <time>2018-01-14T10:24:31Z</time>
      </trkpt>
      <trkpt lat="45.93826" lon="4.78607">
        <ele>184</ele>
        <time>2018-01-14T10:24:32Z</time>
      </trkpt>
      <trkpt lat="45.93833" lon="4.78605">
        <ele>184</ele>
        <time>2018-01-14T10:24:34Z</time>
      </trkpt>
      <trkpt lat="45.93836" lon="4.78604">
        <ele>187</ele>
        <time>2018-01-14T10:24:35Z</time>
      </trkpt>
      <trkpt lat="45.93844" lon="4.78603">
        <ele>188</ele>
        <time>2018-01-14T10:24:38Z</time>
      </trkpt>
      <trkpt lat="45.93847" lon="4.78603">
        <ele>188</ele>
        <time>2018-01-14T10:24:39Z</time>
      </trkpt>
      <trkpt lat="45.93855" lon="4.78603">
        <ele>188</ele>
        <time>2018-01-14T10:24:42Z</time>
      </trkpt>
      <trkpt lat="45.93857" lon="4.78602">
        <ele>188</ele>
        <time>2018-01-14T10:24:43Z</time>
      </trkpt>
      <trkpt lat="45.93866" lon="4.78601">
        <ele>188</ele>
        <time>2018-01-14T10:24:47Z</time>
      </trkpt>
      <trkpt lat="45.93868" lon="4.78601">
        <ele>188</ele>
        <time>2018-01-14T10:24:48Z</time>
      </trkpt>
      <trkpt lat="45.93875" lon="4.78597">
        <ele>189</ele>
        <time>2018-01-14T10:24:51Z</time>
      </trkpt>
      <trkpt lat="45.93877" lon="4.78597">
        <ele>189</ele>
        <time>2018-01-14T10:24:52Z</time>
      </trkpt>
      <trkpt lat="45.93885" lon="4.78599">
        <ele>189</ele>
        <time>2018-01-14T10:24:55Z</time>
      </trkpt>
      <trkpt lat="45.93887" lon="4.78599">
        <ele>189</ele>
        <time>2018-01-14T10:24:56Z</time>
      </trkpt>
      <trkpt lat="45.93896" lon="4.78598">
        <ele>190</ele>
        <time>2018-01-14T10:25:00Z</time>
      </trkpt>
      <trkpt lat="45.93898" lon="4.78597">
        <ele>190</ele>
        <time>2018-01-14T10:25:01Z</time>
      </trkpt>
      <trkpt lat="45.93904" lon="4.78595">
        <ele>191</ele>
        <time>2018-01-14T10:25:04Z</time>
      </trkpt>
      <trkpt lat="45.93907" lon="4.78594">
        <ele>191</ele>
        <time>2018-01-14T10:25:05Z</time>
      </trkpt>
      <trkpt lat="45.93914" lon="4.7859">
        <ele>192</ele>
        <time>2018-01-14T10:25:08Z</time>
      </trkpt>
      <trkpt lat="45.93916" lon="4.78588">
        <ele>192</ele>
        <time>2018-01-14T10:25:09Z</time>
      </trkpt>
      <trkpt lat="45.93922" lon="4.78581">
        <ele>194</ele>
        <time>2018-01-14T10:25:12Z</time>
      </trkpt>
      <trkpt lat="45.93924" lon="4.78579">
        <ele>194</ele>
        <time>2018-01-14T10:25:13Z</time>
      </trkpt>
      <trkpt lat="45.9393" lon="4.78575">
        <ele>196</ele>
        <time>2018-01-14T10:25:17Z</time>
      </trkpt>
      <trkpt lat="45.93933" lon="4.78576">
        <ele>196</ele>
        <time>2018-01-14T10:25:18Z</time>
      </trkpt>
      <trkpt lat="45.93938" lon="4.78586">
        <ele>195</ele>
        <time>2018-01-14T10:25:22Z</time>
      </trkpt>
      <trkpt lat="45.93937" lon="4.78591">
        <ele>195</ele>
        <time>2018-01-14T10:25:23Z</time>
      </trkpt>
      <trkpt lat="45.93937" lon="4.78601">
        <ele>195</ele>
        <time>2018-01-14T10:25:25Z</time>
      </trkpt>
      <trkpt lat="45.93936" lon="4.78606">
        <ele>196</ele>
        <time>2018-01-14T10:25:26Z</time>
      </trkpt>
      <trkpt lat="45.93937" lon="4.78616">
        <ele>196</ele>
        <time>2018-01-14T10:25:28Z</time>
      </trkpt>
      <trkpt lat="45.93937" lon="4.78621">
        <ele>196</ele>
        <time>2018-01-14T10:25:29Z</time>
      </trkpt>
      <trkpt lat="45.93938" lon="4.7863">
        <ele>195</ele>
        <time>2018-01-14T10:25:31Z</time>
      </trkpt>
      <trkpt lat="45.93938" lon="4.78635">
        <ele>195</ele>
        <time>2018-01-14T10:25:32Z</time>
      </trkpt>
      <trkpt lat="45.93939" lon="4.78646">
        <ele>195</ele>
        <time>2018-01-14T10:25:34Z</time>
      </trkpt>
      <trkpt lat="45.93939" lon="4.78652">
        <ele>195</ele>
        <time>2018-01-14T10:25:35Z</time>
      </trkpt>
      <trkpt lat="45.93939" lon="4.78663">
        <ele>194</ele>
        <time>2018-01-14T10:25:37Z</time>
      </trkpt>
      <trkpt lat="45.93939" lon="4.78668">
        <ele>193</ele>
        <time>2018-01-14T10:25:38Z</time>
      </trkpt>
      <trkpt lat="45.9394" lon="4.78678">
        <ele>194</ele>
        <time>2018-01-14T10:25:40Z</time>
      </trkpt>
      <trkpt lat="45.9394" lon="4.78683">
        <ele>194</ele>
        <time>2018-01-14T10:25:41Z</time>
      </trkpt>
      <trkpt lat="45.9394" lon="4.78694">
        <ele>194</ele>
        <time>2018-01-14T10:25:43Z</time>
      </trkpt>
      <trkpt lat="45.93939" lon="4.787">
        <ele>194</ele>
        <time>2018-01-14T10:25:44Z</time>
      </trkpt>
      <trkpt lat="45.93939" lon="4.78712">
        <ele>194</ele>
        <time>2018-01-14T10:25:46Z</time>
      </trkpt>
      <trkpt lat="45.93939" lon="4.78719">
        <ele>194</ele>
        <time>2018-01-14T10:25:47Z</time>
      </trkpt>
      <trkpt lat="45.93939" lon="4.78732">
        <ele>194</ele>
        <time>2018-01-14T10:25:49Z</time>
      </trkpt>
      <trkpt lat="45.93939" lon="4.78739">
        <ele>193</ele>
        <time>2018-01-14T10:25:50Z</time>
      </trkpt>
      <trkpt lat="45.93939" lon="4.78751">
        <ele>193</ele>
        <time>2018-01-14T10:25:52Z</time>
      </trkpt>
      <trkpt lat="45.93939" lon="4.78756">
        <ele>193</ele>
        <time>2018-01-14T10:25:53Z</time>
      </trkpt>
      <trkpt lat="45.9394" lon="4.78766">
        <ele>194</ele>
        <time>2018-01-14T10:25:55Z</time>
      </trkpt>
      <trkpt lat="45.9394" lon="4.78772">
        <ele>194</ele>
        <time>2018-01-14T10:25:56Z</time>
      </trkpt>
      <trkpt lat="45.93939" lon="4.78783">
        <ele>194</ele>
        <time>2018-01-14T10:25:58Z</time>
      </trkpt>
      <trkpt lat="45.93939" lon="4.78788">
        <ele>194</ele>
        <time>2018-01-14T10:25:59Z</time>
      </trkpt>
      <trkpt lat="45.9394" lon="4.78799">
        <ele>194</ele>
        <time>2018-01-14T10:26:01Z</time>
      </trkpt>
      <trkpt lat="45.93941" lon="4.78805">
        <ele>194</ele>
        <time>2018-01-14T10:26:02Z</time>
      </trkpt>
      <trkpt lat="45.93941" lon="4.78811">
        <ele>194</ele>
        <time>2018-01-14T10:26:03Z</time>
      </trkpt>
      <trkpt lat="45.93941" lon="4.78818">
        <ele>194</ele>
        <time>2018-01-14T10:26:04Z</time>
      </trkpt>
      <trkpt lat="45.93941" lon="4.78825">
        <ele>194</ele>
        <time>2018-01-14T10:26:05Z</time>
      </trkpt>
      <trkpt lat="45.93941" lon="4.78831">
        <ele>194</ele>
        <time>2018-01-14T10:26:06Z</time>
      </trkpt>
      <trkpt lat="45.9394" lon="4.78838">
        <ele>193</ele>
        <time>2018-01-14T10:26:07Z</time>
      </trkpt>
      <trkpt lat="45.9394" lon="4.78845">
        <ele>193</ele>
        <time>2018-01-14T10:26:08Z</time>
      </trkpt>
      <trkpt lat="45.93941" lon="4.78857">
        <ele>194</ele>
        <time>2018-01-14T10:26:10Z</time>
      </trkpt>
      <trkpt lat="45.93941" lon="4.78863">
        <ele>194</ele>
        <time>2018-01-14T10:26:11Z</time>
      </trkpt>
      <trkpt lat="45.93941" lon="4.7887">
        <ele>194</ele>
        <time>2018-01-14T10:26:12Z</time>
      </trkpt>
      <trkpt lat="45.93941" lon="4.78876">
        <ele>194</ele>
        <time>2018-01-14T10:26:13Z</time>
      </trkpt>
      <trkpt lat="45.93941" lon="4.78888">
        <ele>194</ele>
        <time>2018-01-14T10:26:15Z</time>
      </trkpt>
      <trkpt lat="45.93941" lon="4.78894">
        <ele>193</ele>
        <time>2018-01-14T10:26:16Z</time>
      </trkpt>
      <trkpt lat="45.93942" lon="4.78906">
        <ele>193</ele>
        <time>2018-01-14T10:26:18Z</time>
      </trkpt>
      <trkpt lat="45.93942" lon="4.78913">
        <ele>193</ele>
        <time>2018-01-14T10:26:19Z</time>
      </trkpt>
      <trkpt lat="45.93943" lon="4.78925">
        <ele>193</ele>
        <time>2018-01-14T10:26:21Z</time>
      </trkpt>
      <trkpt lat="45.93944" lon="4.7893">
        <ele>193</ele>
        <time>2018-01-14T10:26:22Z</time>
      </trkpt>
      <trkpt lat="45.93944" lon="4.78943">
        <ele>194</ele>
        <time>2018-01-14T10:26:24Z</time>
      </trkpt>
      <trkpt lat="45.93945" lon="4.78949">
        <ele>194</ele>
        <time>2018-01-14T10:26:25Z</time>
      </trkpt>
      <trkpt lat="45.93945" lon="4.78961">
        <ele>194</ele>
        <time>2018-01-14T10:26:27Z</time>
      </trkpt>
      <trkpt lat="45.93946" lon="4.78967">
        <ele>194</ele>
        <time>2018-01-14T10:26:28Z</time>
      </trkpt>
      <trkpt lat="45.93946" lon="4.78973">
        <ele>194</ele>
        <time>2018-01-14T10:26:29Z</time>
      </trkpt>
      <trkpt lat="45.93947" lon="4.7898">
        <ele>194</ele>
        <time>2018-01-14T10:26:30Z</time>
      </trkpt>
      <trkpt lat="45.93947" lon="4.78992">
        <ele>194</ele>
        <time>2018-01-14T10:26:32Z</time>
      </trkpt>
      <trkpt lat="45.93947" lon="4.78999">
        <ele>194</ele>
        <time>2018-01-14T10:26:33Z</time>
      </trkpt>
      <trkpt lat="45.93947" lon="4.79006">
        <ele>195</ele>
        <time>2018-01-14T10:26:34Z</time>
      </trkpt>
      <trkpt lat="45.93948" lon="4.79014">
        <ele>195</ele>
        <time>2018-01-14T10:26:35Z</time>
      </trkpt>
      <trkpt lat="45.93949" lon="4.79026">
        <ele>195</ele>
        <time>2018-01-14T10:26:37Z</time>
      </trkpt>
      <trkpt lat="45.93949" lon="4.79032">
        <ele>195</ele>
        <time>2018-01-14T10:26:38Z</time>
      </trkpt>
      <trkpt lat="45.93949" lon="4.79038">
        <ele>196</ele>
        <time>2018-01-14T10:26:39Z</time>
      </trkpt>
      <trkpt lat="45.93949" lon="4.79045">
        <ele>196</ele>
        <time>2018-01-14T10:26:40Z</time>
      </trkpt>
      <trkpt lat="45.9395" lon="4.79055">
        <ele>196</ele>
        <time>2018-01-14T10:26:42Z</time>
      </trkpt>
      <trkpt lat="45.9395" lon="4.79061">
        <ele>196</ele>
        <time>2018-01-14T10:26:43Z</time>
      </trkpt>
      <trkpt lat="45.93951" lon="4.79073">
        <ele>196</ele>
        <time>2018-01-14T10:26:45Z</time>
      </trkpt>
      <trkpt lat="45.93951" lon="4.79079">
        <ele>196</ele>
        <time>2018-01-14T10:26:46Z</time>
      </trkpt>
      <trkpt lat="45.93951" lon="4.7909">
        <ele>197</ele>
        <time>2018-01-14T10:26:48Z</time>
      </trkpt>
      <trkpt lat="45.93952" lon="4.79097">
        <ele>197</ele>
        <time>2018-01-14T10:26:49Z</time>
      </trkpt>
      <trkpt lat="45.93952" lon="4.79109">
        <ele>197</ele>
        <time>2018-01-14T10:26:51Z</time>
      </trkpt>
      <trkpt lat="45.93952" lon="4.79115">
        <ele>197</ele>
        <time>2018-01-14T10:26:52Z</time>
      </trkpt>
      <trkpt lat="45.93953" lon="4.79127">
        <ele>197</ele>
        <time>2018-01-14T10:26:54Z</time>
      </trkpt>
      <trkpt lat="45.93952" lon="4.79134">
        <ele>197</ele>
        <time>2018-01-14T10:26:55Z</time>
      </trkpt>
      <trkpt lat="45.93951" lon="4.79141">
        <ele>197</ele>
        <time>2018-01-14T10:26:56Z</time>
      </trkpt>
      <trkpt lat="45.9395" lon="4.79146">
        <ele>197</ele>
        <time>2018-01-14T10:26:57Z</time>
      </trkpt>
      <trkpt lat="45.93949" lon="4.79153">
        <ele>197</ele>
        <time>2018-01-14T10:26:58Z</time>
      </trkpt>
      <trkpt lat="45.93949" lon="4.79161">
        <ele>196</ele>
        <time>2018-01-14T10:26:59Z</time>
      </trkpt>
      <trkpt lat="45.93949" lon="4.79168">
        <ele>197</ele>
        <time>2018-01-14T10:27:00Z</time>
      </trkpt>
      <trkpt lat="45.93949" lon="4.79175">
        <ele>197</ele>
        <time>2018-01-14T10:27:01Z</time>
      </trkpt>
      <trkpt lat="45.9395" lon="4.79187">
        <ele>197</ele>
        <time>2018-01-14T10:27:03Z</time>
      </trkpt>
      <trkpt lat="45.9395" lon="4.79194">
        <ele>197</ele>
        <time>2018-01-14T10:27:04Z</time>
      </trkpt>
      <trkpt lat="45.9395" lon="4.792">
        <ele>197</ele>
        <time>2018-01-14T10:27:05Z</time>
      </trkpt>
      <trkpt lat="45.93951" lon="4.79207">
        <ele>197</ele>
        <time>2018-01-14T10:27:06Z</time>
      </trkpt>
      <trkpt lat="45.93951" lon="4.79213">
        <ele>197</ele>
        <time>2018-01-14T10:27:07Z</time>
      </trkpt>
      <trkpt lat="45.93952" lon="4.7922">
        <ele>197</ele>
        <time>2018-01-14T10:27:08Z</time>
      </trkpt>
      <trkpt lat="45.93952" lon="4.79232">
        <ele>197</ele>
        <time>2018-01-14T10:27:10Z</time>
      </trkpt>
      <trkpt lat="45.93952" lon="4.79239">
        <ele>197</ele>
        <time>2018-01-14T10:27:11Z</time>
      </trkpt>
      <trkpt lat="45.93953" lon="4.7925">
        <ele>198</ele>
        <time>2018-01-14T10:27:13Z</time>
      </trkpt>
      <trkpt lat="45.93954" lon="4.79256">
        <ele>198</ele>
        <time>2018-01-14T10:27:14Z</time>
      </trkpt>
      <trkpt lat="45.93954" lon="4.79268">
        <ele>198</ele>
        <time>2018-01-14T10:27:16Z</time>
      </trkpt>
      <trkpt lat="45.93954" lon="4.79274">
        <ele>198</ele>
        <time>2018-01-14T10:27:17Z</time>
      </trkpt>
      <trkpt lat="45.93955" lon="4.79285">
        <ele>198</ele>
        <time>2018-01-14T10:27:19Z</time>
      </trkpt>
      <trkpt lat="45.93955" lon="4.79291">
        <ele>199</ele>
        <time>2018-01-14T10:27:20Z</time>
      </trkpt>
      <trkpt lat="45.93955" lon="4.79302">
        <ele>199</ele>
        <time>2018-01-14T10:27:22Z</time>
      </trkpt>
      <trkpt lat="45.93956" lon="4.79307">
        <ele>199</ele>
        <time>2018-01-14T10:27:23Z</time>
      </trkpt>
      <trkpt lat="45.93957" lon="4.79319">
        <ele>199</ele>
        <time>2018-01-14T10:27:25Z</time>
      </trkpt>
      <trkpt lat="45.93957" lon="4.79325">
        <ele>199</ele>
        <time>2018-01-14T10:27:26Z</time>
      </trkpt>
      <trkpt lat="45.93956" lon="4.79336">
        <ele>201</ele>
        <time>2018-01-14T10:27:28Z</time>
      </trkpt>
      <trkpt lat="45.93956" lon="4.79342">
        <ele>201</ele>
        <time>2018-01-14T10:27:29Z</time>
      </trkpt>
      <trkpt lat="45.93956" lon="4.79349">
        <ele>201</ele>
        <time>2018-01-14T10:27:30Z</time>
      </trkpt>
      <trkpt lat="45.93955" lon="4.79356">
        <ele>201</ele>
        <time>2018-01-14T10:27:31Z</time>
      </trkpt>
      <trkpt lat="45.93955" lon="4.79367">
        <ele>201</ele>
        <time>2018-01-14T10:27:33Z</time>
      </trkpt>
      <trkpt lat="45.93955" lon="4.79373">
        <ele>201</ele>
        <time>2018-01-14T10:27:34Z</time>
      </trkpt>
      <trkpt lat="45.93954" lon="4.79385">
        <ele>201</ele>
        <time>2018-01-14T10:27:36Z</time>
      </trkpt>
      <trkpt lat="45.93954" lon="4.79391">
        <ele>201</ele>
        <time>2018-01-14T10:27:37Z</time>
      </trkpt>
      <trkpt lat="45.93953" lon="4.794">
        <ele>201</ele>
        <time>2018-01-14T10:27:38Z</time>
      </trkpt>
      <trkpt lat="45.93954" lon="4.79406">
        <ele>201</ele>
        <time>2018-01-14T10:27:39Z</time>
      </trkpt>
      <trkpt lat="45.93954" lon="4.79416">
        <ele>201</ele>
        <time>2018-01-14T10:27:41Z</time>
      </trkpt>
      <trkpt lat="45.93954" lon="4.79421">
        <ele>202</ele>
        <time>2018-01-14T10:27:42Z</time>
      </trkpt>
      <trkpt lat="45.93954" lon="4.79432">
        <ele>202</ele>
        <time>2018-01-14T10:27:44Z</time>
      </trkpt>
      <trkpt lat="45.93954" lon="4.79437">
        <ele>202</ele>
        <time>2018-01-14T10:27:45Z</time>
      </trkpt>
      <trkpt lat="45.93954" lon="4.79446">
        <ele>203</ele>
        <time>2018-01-14T10:27:47Z</time>
      </trkpt>
      <trkpt lat="45.93953" lon="4.79451">
        <ele>203</ele>
        <time>2018-01-14T10:27:48Z</time>
      </trkpt>
      <trkpt lat="45.93953" lon="4.7946">
        <ele>203</ele>
        <time>2018-01-14T10:27:50Z</time>
      </trkpt>
      <trkpt lat="45.93953" lon="4.79466">
        <ele>203</ele>
        <time>2018-01-14T10:27:51Z</time>
      </trkpt>
      <trkpt lat="45.93953" lon="4.79477">
        <ele>203</ele>
        <time>2018-01-14T10:27:53Z</time>
      </trkpt>
      <trkpt lat="45.93953" lon="4.79482">
        <ele>203</ele>
        <time>2018-01-14T10:27:54Z</time>
      </trkpt>
      <trkpt lat="45.93953" lon="4.79493">
        <ele>203</ele>
        <time>2018-01-14T10:27:56Z</time>
      </trkpt>
      <trkpt lat="45.93953" lon="4.79499">
        <ele>203</ele>
        <time>2018-01-14T10:27:57Z</time>
      </trkpt>
      <trkpt lat="45.93953" lon="4.79509">
        <ele>204</ele>
        <time>2018-01-14T10:27:59Z</time>
      </trkpt>
      <trkpt lat="45.93954" lon="4.79514">
        <ele>204</ele>
        <time>2018-01-14T10:28:00Z</time>
      </trkpt>
      <trkpt lat="45.93954" lon="4.79524">
        <ele>204</ele>
        <time>2018-01-14T10:28:02Z</time>
      </trkpt>
      <trkpt lat="45.93955" lon="4.79529">
        <ele>204</ele>
        <time>2018-01-14T10:28:03Z</time>
      </trkpt>
      <trkpt lat="45.93955" lon="4.7954">
        <ele>205</ele>
        <time>2018-01-14T10:28:05Z</time>
      </trkpt>
      <trkpt lat="45.93955" lon="4.79545">
        <ele>205</ele>
        <time>2018-01-14T10:28:06Z</time>
      </trkpt>
      <trkpt lat="45.93956" lon="4.79554">
        <ele>205</ele>
        <time>2018-01-14T10:28:08Z</time>
      </trkpt>
      <trkpt lat="45.93957" lon="4.7956">
        <ele>205</ele>
        <time>2018-01-14T10:28:09Z</time>
      </trkpt>
      <trkpt lat="45.93958" lon="4.79571">
        <ele>205</ele>
        <time>2018-01-14T10:28:11Z</time>
      </trkpt>
      <trkpt lat="45.93958" lon="4.79576">
        <ele>205</ele>
        <time>2018-01-14T10:28:12Z</time>
      </trkpt>
      <trkpt lat="45.9396" lon="4.79586">
        <ele>207</ele>
        <time>2018-01-14T10:28:14Z</time>
      </trkpt>
      <trkpt lat="45.9396" lon="4.79591">
        <ele>207</ele>
        <time>2018-01-14T10:28:15Z</time>
      </trkpt>
      <trkpt lat="45.93962" lon="4.79603">
        <ele>207</ele>
        <time>2018-01-14T10:28:17Z</time>
      </trkpt>
      <trkpt lat="45.93962" lon="4.79609">
        <ele>207</ele>
        <time>2018-01-14T10:28:18Z</time>
      </trkpt>
      <trkpt lat="45.93964" lon="4.7962">
        <ele>207</ele>
        <time>2018-01-14T10:28:20Z</time>
      </trkpt>
      <trkpt lat="45.93964" lon="4.79626">
        <ele>207</ele>
        <time>2018-01-14T10:28:21Z</time>
      </trkpt>
      <trkpt lat="45.93964" lon="4.79637">
        <ele>207</ele>
        <time>2018-01-14T10:28:23Z</time>
      </trkpt>
      <trkpt lat="45.93965" lon="4.79643">
        <ele>207</ele>
        <time>2018-01-14T10:28:24Z</time>
      </trkpt>
      <trkpt lat="45.93966" lon="4.79655">
        <ele>207</ele>
        <time>2018-01-14T10:28:26Z</time>
      </trkpt>
      <trkpt lat="45.93967" lon="4.79661">
        <ele>208</ele>
        <time>2018-01-14T10:28:27Z</time>
      </trkpt>
      <trkpt lat="45.93968" lon="4.79673">
        <ele>207</ele>
        <time>2018-01-14T10:28:29Z</time>
      </trkpt>
      <trkpt lat="45.93968" lon="4.79679">
        <ele>207</ele>
        <time>2018-01-14T10:28:30Z</time>
      </trkpt>
      <trkpt lat="45.93969" lon="4.79691">
        <ele>207</ele>
        <time>2018-01-14T10:28:32Z</time>
      </trkpt>
      <trkpt lat="45.9397" lon="4.79696">
        <ele>207</ele>
        <time>2018-01-14T10:28:33Z</time>
      </trkpt>
      <trkpt lat="45.9397" lon="4.79707">
        <ele>207</ele>
        <time>2018-01-14T10:28:35Z</time>
      </trkpt>
      <trkpt lat="45.93971" lon="4.79713">
        <ele>207</ele>
        <time>2018-01-14T10:28:36Z</time>
      </trkpt>
      <trkpt lat="45.93972" lon="4.79724">
        <ele>207</ele>
        <time>2018-01-14T10:28:38Z</time>
      </trkpt>
      <trkpt lat="45.93972" lon="4.7973">
        <ele>207</ele>
        <time>2018-01-14T10:28:39Z</time>
      </trkpt>
      <trkpt lat="45.93972" lon="4.79736">
        <ele>207</ele>
        <time>2018-01-14T10:28:40Z</time>
      </trkpt>
      <trkpt lat="45.93972" lon="4.79743">
        <ele>207</ele>
        <time>2018-01-14T10:28:41Z</time>
      </trkpt>
      <trkpt lat="45.93972" lon="4.79755">
        <ele>206</ele>
        <time>2018-01-14T10:28:43Z</time>
      </trkpt>
      <trkpt lat="45.93973" lon="4.79761">
        <ele>206</ele>
        <time>2018-01-14T10:28:44Z</time>
      </trkpt>
      <trkpt lat="45.93973" lon="4.79768">
        <ele>206</ele>
        <time>2018-01-14T10:28:45Z</time>
      </trkpt>
      <trkpt lat="45.93974" lon="4.79774">
        <ele>206</ele>
        <time>2018-01-14T10:28:46Z</time>
      </trkpt>
      <trkpt lat="45.93974" lon="4.79787">
        <ele>206</ele>
        <time>2018-01-14T10:28:48Z</time>
      </trkpt>
      <trkpt lat="45.93972" lon="4.79794">
        <ele>206</ele>
        <time>2018-01-14T10:28:49Z</time>
      </trkpt>
      <trkpt lat="45.93972" lon="4.79806">
        <ele>207</ele>
        <time>2018-01-14T10:28:51Z</time>
      </trkpt>
      <trkpt lat="45.93971" lon="4.79813">
        <ele>207</ele>
        <time>2018-01-14T10:28:52Z</time>
      </trkpt>
      <trkpt lat="45.9397" lon="4.7982">
        <ele>207</ele>
        <time>2018-01-14T10:28:53Z</time>
      </trkpt>
      <trkpt lat="45.93969" lon="4.79827">
        <ele>207</ele>
        <time>2018-01-14T10:28:54Z</time>
      </trkpt>
      <trkpt lat="45.93969" lon="4.79834">
        <ele>207</ele>
        <time>2018-01-14T10:28:55Z</time>
      </trkpt>
      <trkpt lat="45.93968" lon="4.79843">
        <ele>206</ele>
        <time>2018-01-14T10:28:56Z</time>
      </trkpt>
      <trkpt lat="45.93967" lon="4.7985">
        <ele>206</ele>
        <time>2018-01-14T10:28:57Z</time>
      </trkpt>
      <trkpt lat="45.93966" lon="4.79857">
        <ele>206</ele>
        <time>2018-01-14T10:28:58Z</time>
      </trkpt>
      <trkpt lat="45.93965" lon="4.79865">
        <ele>206</ele>
        <time>2018-01-14T10:28:59Z</time>
      </trkpt>
      <trkpt lat="45.93963" lon="4.79872">
        <ele>206</ele>
        <time>2018-01-14T10:29:00Z</time>
      </trkpt>
      <trkpt lat="45.93962" lon="4.79879">
        <ele>206</ele>
        <time>2018-01-14T10:29:01Z</time>
      </trkpt>
      <trkpt lat="45.93961" lon="4.79885">
        <ele>206</ele>
        <time>2018-01-14T10:29:02Z</time>
      </trkpt>
      <trkpt lat="45.93958" lon="4.79897">
        <ele>206</ele>
        <time>2018-01-14T10:29:04Z</time>
      </trkpt>
      <trkpt lat="45.93957" lon="4.79903">
        <ele>205</ele>
        <time>2018-01-14T10:29:05Z</time>
      </trkpt>
      <trkpt lat="45.93956" lon="4.79909">
        <ele>205</ele>
        <time>2018-01-14T10:29:06Z</time>
      </trkpt>
      <trkpt lat="45.93954" lon="4.79916">
        <ele>205</ele>
        <time>2018-01-14T10:29:07Z</time>
      </trkpt>
      <trkpt lat="45.93953" lon="4.79923">
        <ele>205</ele>
        <time>2018-01-14T10:29:08Z</time>
      </trkpt>
      <trkpt lat="45.93951" lon="4.7993">
        <ele>205</ele>
        <time>2018-01-14T10:29:09Z</time>
      </trkpt>
      <trkpt lat="45.93949" lon="4.79938">
        <ele>205</ele>
        <time>2018-01-14T10:29:10Z</time>
      </trkpt>
      <trkpt lat="45.93949" lon="4.79949">
        <ele>205</ele>
        <time>2018-01-14T10:29:11Z</time>
      </trkpt>
      <trkpt lat="45.93948" lon="4.79955">
        <ele>205</ele>
        <time>2018-01-14T10:29:12Z</time>
      </trkpt>
      <trkpt lat="45.93947" lon="4.79962">
        <ele>205</ele>
        <time>2018-01-14T10:29:13Z</time>
      </trkpt>
      <trkpt lat="45.93944" lon="4.79974">
        <ele>205</ele>
        <time>2018-01-14T10:29:15Z</time>
      </trkpt>
      <trkpt lat="45.93943" lon="4.7998">
        <ele>205</ele>
        <time>2018-01-14T10:29:16Z</time>
      </trkpt>
      <trkpt lat="45.93941" lon="4.7999">
        <ele>204</ele>
        <time>2018-01-14T10:29:18Z</time>
      </trkpt>
      <trkpt lat="45.9394" lon="4.79995">
        <ele>204</ele>
        <time>2018-01-14T10:29:19Z</time>
      </trkpt>
      <trkpt lat="45.93939" lon="4.80007">
        <ele>205</ele>
        <time>2018-01-14T10:29:21Z</time>
      </trkpt>
      <trkpt lat="45.93939" lon="4.80013">
        <ele>206</ele>
        <time>2018-01-14T10:29:22Z</time>
      </trkpt>
      <trkpt lat="45.93938" lon="4.80021">
        <ele>206</ele>
        <time>2018-01-14T10:29:23Z</time>
      </trkpt>
      <trkpt lat="45.93938" lon="4.80028">
        <ele>206</ele>
        <time>2018-01-14T10:29:24Z</time>
      </trkpt>
      <trkpt lat="45.93938" lon="4.80036">
        <ele>207</ele>
        <time>2018-01-14T10:29:25Z</time>
      </trkpt>
      <trkpt lat="45.93937" lon="4.80042">
        <ele>207</ele>
        <time>2018-01-14T10:29:26Z</time>
      </trkpt>
      <trkpt lat="45.93937" lon="4.80049">
        <ele>207</ele>
        <time>2018-01-14T10:29:27Z</time>
      </trkpt>
      <trkpt lat="45.93938" lon="4.80057">
        <ele>207</ele>
        <time>2018-01-14T10:29:28Z</time>
      </trkpt>
      <trkpt lat="45.93938" lon="4.80064">
        <ele>207</ele>
        <time>2018-01-14T10:29:29Z</time>
      </trkpt>
      <trkpt lat="45.93938" lon="4.80071">
        <ele>207</ele>
        <time>2018-01-14T10:29:30Z</time>
      </trkpt>
      <trkpt lat="45.93937" lon="4.80083">
        <ele>207</ele>
        <time>2018-01-14T10:29:32Z</time>
      </trkpt>
      <trkpt lat="45.93937" lon="4.80088">
        <ele>208</ele>
        <time>2018-01-14T10:29:33Z</time>
      </trkpt>
      <trkpt lat="45.93938" lon="4.80099">
        <ele>208</ele>
        <time>2018-01-14T10:29:35Z</time>
      </trkpt>
      <trkpt lat="45.93937" lon="4.80104">
        <ele>208</ele>
        <time>2018-01-14T10:29:36Z</time>
      </trkpt>
      <trkpt lat="45.93938" lon="4.80117">
        <ele>208</ele>
        <time>2018-01-14T10:29:38Z</time>
      </trkpt>
      <trkpt lat="45.93939" lon="4.80122">
        <ele>208</ele>
        <time>2018-01-14T10:29:39Z</time>
      </trkpt>
      <trkpt lat="45.93942" lon="4.80133">
        <ele>208</ele>
        <time>2018-01-14T10:29:41Z</time>
      </trkpt>
      <trkpt lat="45.93943" lon="4.80139">
        <ele>208</ele>
        <time>2018-01-14T10:29:42Z</time>
      </trkpt>
      <trkpt lat="45.93945" lon="4.80151">
        <ele>208</ele>
        <time>2018-01-14T10:29:44Z</time>
      </trkpt>
      <trkpt lat="45.93947" lon="4.80158">
        <ele>208</ele>
        <time>2018-01-14T10:29:45Z</time>
      </trkpt>
      <trkpt lat="45.93949" lon="4.80169">
        <ele>206</ele>
        <time>2018-01-14T10:29:47Z</time>
      </trkpt>
      <trkpt lat="45.93952" lon="4.80177">
        <ele>206</ele>
        <time>2018-01-14T10:29:48Z</time>
      </trkpt>
      <trkpt lat="45.93953" lon="4.80184">
        <ele>206</ele>
        <time>2018-01-14T10:29:49Z</time>
      </trkpt>
      <trkpt lat="45.93954" lon="4.8019">
        <ele>206</ele>
        <time>2018-01-14T10:29:50Z</time>
      </trkpt>
      <trkpt lat="45.93958" lon="4.80202">
        <ele>205</ele>
        <time>2018-01-14T10:29:52Z</time>
      </trkpt>
      <trkpt lat="45.93959" lon="4.80208">
        <ele>205</ele>
        <time>2018-01-14T10:29:53Z</time>
      </trkpt>
      <trkpt lat="45.93962" lon="4.80218">
        <ele>205</ele>
        <time>2018-01-14T10:29:55Z</time>
      </trkpt>
      <trkpt lat="45.93963" lon="4.80223">
        <ele>205</ele>
        <time>2018-01-14T10:29:56Z</time>
      </trkpt>
      <trkpt lat="45.93965" lon="4.80231">
        <ele>205</ele>
        <time>2018-01-14T10:29:57Z</time>
      </trkpt>
      <trkpt lat="45.93967" lon="4.80238">
        <ele>205</ele>
        <time>2018-01-14T10:29:58Z</time>
      </trkpt>
      <trkpt lat="45.93968" lon="4.80245">
        <ele>204</ele>
        <time>2018-01-14T10:29:59Z</time>
      </trkpt>
      <trkpt lat="45.9397" lon="4.80251">
        <ele>202</ele>
        <time>2018-01-14T10:30:00Z</time>
      </trkpt>
      <trkpt lat="45.93973" lon="4.80262">
        <ele>203</ele>
        <time>2018-01-14T10:30:02Z</time>
      </trkpt>
      <trkpt lat="45.93975" lon="4.80269">
        <ele>203</ele>
        <time>2018-01-14T10:30:03Z</time>
      </trkpt>
      <trkpt lat="45.93977" lon="4.80275">
        <ele>203</ele>
        <time>2018-01-14T10:30:04Z</time>
      </trkpt>
      <trkpt lat="45.93978" lon="4.80281">
        <ele>203</ele>
        <time>2018-01-14T10:30:05Z</time>
      </trkpt>
      <trkpt lat="45.93982" lon="4.80292">
        <ele>203</ele>
        <time>2018-01-14T10:30:07Z</time>
      </trkpt>
      <trkpt lat="45.93983" lon="4.80297">
        <ele>203</ele>
        <time>2018-01-14T10:30:08Z</time>
      </trkpt>
      <trkpt lat="45.93986" lon="4.80308">
        <ele>203</ele>
        <time>2018-01-14T10:30:10Z</time>
      </trkpt>
      <trkpt lat="45.93988" lon="4.80313">
        <ele>204</ele>
        <time>2018-01-14T10:30:11Z</time>
      </trkpt>
      <trkpt lat="45.9399" lon="4.80322">
        <ele>204</ele>
        <time>2018-01-14T10:30:13Z</time>
      </trkpt>
      <trkpt lat="45.93991" lon="4.80327">
        <ele>205</ele>
        <time>2018-01-14T10:30:14Z</time>
      </trkpt>
      <trkpt lat="45.93993" lon="4.80337">
        <ele>206</ele>
        <time>2018-01-14T10:30:16Z</time>
      </trkpt>
      <trkpt lat="45.93995" lon="4.80341">
        <ele>206</ele>
        <time>2018-01-14T10:30:17Z</time>
      </trkpt>
      <trkpt lat="45.93997" lon="4.80349">
        <ele>206</ele>
        <time>2018-01-14T10:30:19Z</time>
      </trkpt>
      <trkpt lat="45.93998" lon="4.80353">
        <ele>206</ele>
        <time>2018-01-14T10:30:20Z</time>
      </trkpt>
      <trkpt lat="45.94" lon="4.80361">
        <ele>214</ele>
        <time>2018-01-14T10:30:22Z</time>
      </trkpt>
      <trkpt lat="45.94001" lon="4.80366">
        <ele>215</ele>
        <time>2018-01-14T10:30:23Z</time>
      </trkpt>
      <trkpt lat="45.94004" lon="4.80377">
        <ele>216</ele>
        <time>2018-01-14T10:30:26Z</time>
      </trkpt>
      <trkpt lat="45.94005" lon="4.8038">
        <ele>216</ele>
        <time>2018-01-14T10:30:27Z</time>
      </trkpt>
      <trkpt lat="45.94009" lon="4.80391">
        <ele>217</ele>
        <time>2018-01-14T10:30:30Z</time>
      </trkpt>
      <trkpt lat="45.9401" lon="4.80394">
        <ele>217</ele>
        <time>2018-01-14T10:30:31Z</time>
      </trkpt>
      <trkpt lat="45.94013" lon="4.80405">
        <ele>217</ele>
        <time>2018-01-14T10:30:34Z</time>
      </trkpt>
      <trkpt lat="45.94014" lon="4.80409">
        <ele>218</ele>
        <time>2018-01-14T10:30:35Z</time>
      </trkpt>
      <trkpt lat="45.94017" lon="4.80421">
        <ele>221</ele>
        <time>2018-01-14T10:30:38Z</time>
      </trkpt>
      <trkpt lat="45.94018" lon="4.80425">
        <ele>221</ele>
        <time>2018-01-14T10:30:39Z</time>
      </trkpt>
      <trkpt lat="45.94019" lon="4.80437">
        <ele>222</ele>
        <time>2018-01-14T10:30:42Z</time>
      </trkpt>
      <trkpt lat="45.94019" lon="4.80441">
        <ele>222</ele>
        <time>2018-01-14T10:30:43Z</time>
      </trkpt>
      <trkpt lat="45.94021" lon="4.80453">
        <ele>223</ele>
        <time>2018-01-14T10:30:46Z</time>
      </trkpt>
      <trkpt lat="45.94021" lon="4.80457">
        <ele>223</ele>
        <time>2018-01-14T10:30:47Z</time>
      </trkpt>
      <trkpt lat="45.9402" lon="4.80469">
        <ele>223</ele>
        <time>2018-01-14T10:30:50Z</time>
      </trkpt>
      <trkpt lat="45.9402" lon="4.80473">
        <ele>223</ele>
        <time>2018-01-14T10:30:51Z</time>
      </trkpt>
      <trkpt lat="45.9402" lon="4.80482">
        <ele>223</ele>
        <time>2018-01-14T10:30:54Z</time>
      </trkpt>
      <trkpt lat="45.9402" lon="4.80486">
        <ele>223</ele>
        <time>2018-01-14T10:30:55Z</time>
      </trkpt>
      <trkpt lat="45.94021" lon="4.80497">
        <ele>223</ele>
        <time>2018-01-14T10:31:00Z</time>
      </trkpt>
      <trkpt lat="45.94022" lon="4.80501">
        <ele>223</ele>
        <time>2018-01-14T10:31:01Z</time>
      </trkpt>
      <trkpt lat="45.94023" lon="4.80512">
        <ele>224</ele>
        <time>2018-01-14T10:31:04Z</time>
      </trkpt>
      <trkpt lat="45.94023" lon="4.80516">
        <ele>224</ele>
        <time>2018-01-14T10:31:05Z</time>
      </trkpt>
      <trkpt lat="45.94024" lon="4.80525">
        <ele>225</ele>
        <time>2018-01-14T10:31:07Z</time>
      </trkpt>
      <trkpt lat="45.94024" lon="4.80529">
        <ele>225</ele>
        <time>2018-01-14T10:31:08Z</time>
      </trkpt>
      <trkpt lat="45.94024" lon="4.80542">
        <ele>225</ele>
        <time>2018-01-14T10:31:11Z</time>
      </trkpt>
      <trkpt lat="45.94024" lon="4.80546">
        <ele>225</ele>
        <time>2018-01-14T10:31:12Z</time>
      </trkpt>
      <trkpt lat="45.94025" lon="4.80557">
        <ele>225</ele>
        <time>2018-01-14T10:31:15Z</time>
      </trkpt>
      <trkpt lat="45.94025" lon="4.80561">
        <ele>225</ele>
        <time>2018-01-14T10:31:16Z</time>
      </trkpt>
      <trkpt lat="45.94025" lon="4.8057">
        <ele>224</ele>
        <time>2018-01-14T10:31:18Z</time>
      </trkpt>
      <trkpt lat="45.94026" lon="4.80575">
        <ele>224</ele>
        <time>2018-01-14T10:31:19Z</time>
      </trkpt>
      <trkpt lat="45.94028" lon="4.80586">
        <ele>224</ele>
        <time>2018-01-14T10:31:22Z</time>
      </trkpt>
      <trkpt lat="45.94028" lon="4.8059">
        <ele>225</ele>
        <time>2018-01-14T10:31:23Z</time>
      </trkpt>
      <trkpt lat="45.9403" lon="4.80598">
        <ele>225</ele>
        <time>2018-01-14T10:31:25Z</time>
      </trkpt>
      <trkpt lat="45.94031" lon="4.80602">
        <ele>225</ele>
        <time>2018-01-14T10:31:26Z</time>
      </trkpt>
      <trkpt lat="45.94033" lon="4.80614">
        <ele>226</ele>
        <time>2018-01-14T10:31:29Z</time>
      </trkpt>
      <trkpt lat="45.94033" lon="4.80619">
        <ele>226</ele>
        <time>2018-01-14T10:31:30Z</time>
      </trkpt>
      <trkpt lat="45.94033" lon="4.8063">
        <ele>226</ele>
        <time>2018-01-14T10:31:33Z</time>
      </trkpt>
      <trkpt lat="45.94034" lon="4.80634">
        <ele>226</ele>
        <time>2018-01-14T10:31:34Z</time>
      </trkpt>
      <trkpt lat="45.94035" lon="4.80645">
        <ele>226</ele>
        <time>2018-01-14T10:31:37Z</time>
      </trkpt>
      <trkpt lat="45.94036" lon="4.80649">
        <ele>226</ele>
        <time>2018-01-14T10:31:38Z</time>
      </trkpt>
      <trkpt lat="45.94037" lon="4.80661">
        <ele>226</ele>
        <time>2018-01-14T10:31:42Z</time>
      </trkpt>
      <trkpt lat="45.94037" lon="4.80665">
        <ele>226</ele>
        <time>2018-01-14T10:31:43Z</time>
      </trkpt>
      <trkpt lat="45.9404" lon="4.80676">
        <ele>226</ele>
        <time>2018-01-14T10:31:46Z</time>
      </trkpt>
      <trkpt lat="45.9404" lon="4.8068">
        <ele>226</ele>
        <time>2018-01-14T10:31:47Z</time>
      </trkpt>
      <trkpt lat="45.94041" lon="4.80689">
        <ele>227</ele>
        <time>2018-01-14T10:31:49Z</time>
      </trkpt>
      <trkpt lat="45.94041" lon="4.80694">
        <ele>227</ele>
        <time>2018-01-14T10:31:50Z</time>
      </trkpt>
      <trkpt lat="45.94043" lon="4.80706">
        <ele>227</ele>
        <time>2018-01-14T10:31:53Z</time>
      </trkpt>
      <trkpt lat="45.94043" lon="4.8071">
        <ele>227</ele>
        <time>2018-01-14T10:31:54Z</time>
      </trkpt>
      <trkpt lat="45.94045" lon="4.80722">
        <ele>227</ele>
        <time>2018-01-14T10:31:57Z</time>
      </trkpt>
      <trkpt lat="45.94045" lon="4.80727">
        <ele>227</ele>
        <time>2018-01-14T10:31:58Z</time>
      </trkpt>
      <trkpt lat="45.94047" lon="4.80739">
        <ele>228</ele>
        <time>2018-01-14T10:32:01Z</time>
      </trkpt>
      <trkpt lat="45.94047" lon="4.80742">
        <ele>228</ele>
        <time>2018-01-14T10:32:02Z</time>
      </trkpt>
      <trkpt lat="45.94049" lon="4.80754">
        <ele>229</ele>
        <time>2018-01-14T10:32:05Z</time>
      </trkpt>
      <trkpt lat="45.94049" lon="4.80758">
        <ele>229</ele>
        <time>2018-01-14T10:32:06Z</time>
      </trkpt>
      <trkpt lat="45.94049" lon="4.80768">
        <ele>229</ele>
        <time>2018-01-14T10:32:09Z</time>
      </trkpt>
      <trkpt lat="45.94049" lon="4.80771">
        <ele>229</ele>
        <time>2018-01-14T10:32:10Z</time>
      </trkpt>
      <trkpt lat="45.94051" lon="4.8078">
        <ele>229</ele>
        <time>2018-01-14T10:32:12Z</time>
      </trkpt>
      <trkpt lat="45.94052" lon="4.80784">
        <ele>229</ele>
        <time>2018-01-14T10:32:13Z</time>
      </trkpt>
      <trkpt lat="45.94053" lon="4.80797">
        <ele>229</ele>
        <time>2018-01-14T10:32:16Z</time>
      </trkpt>
      <trkpt lat="45.94053" lon="4.80801">
        <ele>230</ele>
        <time>2018-01-14T10:32:17Z</time>
      </trkpt>
      <trkpt lat="45.94055" lon="4.80812">
        <ele>230</ele>
        <time>2018-01-14T10:32:20Z</time>
      </trkpt>
      <trkpt lat="45.94055" lon="4.80816">
        <ele>230</ele>
        <time>2018-01-14T10:32:21Z</time>
      </trkpt>
      <trkpt lat="45.94055" lon="4.80828">
        <ele>231</ele>
        <time>2018-01-14T10:32:24Z</time>
      </trkpt>
      <trkpt lat="45.94056" lon="4.80832">
        <ele>231</ele>
        <time>2018-01-14T10:32:25Z</time>
      </trkpt>
      <trkpt lat="45.94057" lon="4.80843">
        <ele>231</ele>
        <time>2018-01-14T10:32:28Z</time>
      </trkpt>
      <trkpt lat="45.94057" lon="4.80847">
        <ele>231</ele>
        <time>2018-01-14T10:32:29Z</time>
      </trkpt>
      <trkpt lat="45.94058" lon="4.80858">
        <ele>231</ele>
        <time>2018-01-14T10:32:32Z</time>
      </trkpt>
      <trkpt lat="45.94058" lon="4.80861">
        <ele>231</ele>
        <time>2018-01-14T10:32:33Z</time>
      </trkpt>
      <trkpt lat="45.94059" lon="4.80873">
        <ele>231</ele>
        <time>2018-01-14T10:32:36Z</time>
      </trkpt>
      <trkpt lat="45.9406" lon="4.80877">
        <ele>231</ele>
        <time>2018-01-14T10:32:37Z</time>
      </trkpt>
      <trkpt lat="45.94061" lon="4.80887">
        <ele>231</ele>
        <time>2018-01-14T10:32:40Z</time>
      </trkpt>
      <trkpt lat="45.94061" lon="4.80891">
        <ele>231</ele>
        <time>2018-01-14T10:32:41Z</time>
      </trkpt>
      <trkpt lat="45.94062" lon="4.80901">
        <ele>232</ele>
        <time>2018-01-14T10:32:44Z</time>
      </trkpt>
      <trkpt lat="45.94063" lon="4.80905">
        <ele>232</ele>
        <time>2018-01-14T10:32:45Z</time>
      </trkpt>
      <trkpt lat="45.94065" lon="4.80916">
        <ele>233</ele>
        <time>2018-01-14T10:32:48Z</time>
      </trkpt>
      <trkpt lat="45.94066" lon="4.80919">
        <ele>234</ele>
        <time>2018-01-14T10:32:49Z</time>
      </trkpt>
      <trkpt lat="45.94067" lon="4.8093">
        <ele>233</ele>
        <time>2018-01-14T10:32:52Z</time>
      </trkpt>
      <trkpt lat="45.94067" lon="4.80934">
        <ele>233</ele>
        <time>2018-01-14T10:32:53Z</time>
      </trkpt>
      <trkpt lat="45.94068" lon="4.80944">
        <ele>233</ele>
        <time>2018-01-14T10:32:56Z</time>
      </trkpt>
      <trkpt lat="45.94069" lon="4.80948">
        <ele>233</ele>
        <time>2018-01-14T10:32:57Z</time>
      </trkpt>
      <trkpt lat="45.94071" lon="4.80959">
        <ele>233</ele>
        <time>2018-01-14T10:33:00Z</time>
      </trkpt>
      <trkpt lat="45.94072" lon="4.80963">
        <ele>233</ele>
        <time>2018-01-14T10:33:01Z</time>
      </trkpt>
      <trkpt lat="45.94074" lon="4.80974">
        <ele>234</ele>
        <time>2018-01-14T10:33:04Z</time>
      </trkpt>
      <trkpt lat="45.94074" lon="4.80977">
        <ele>234</ele>
        <time>2018-01-14T10:33:05Z</time>
      </trkpt>
      <trkpt lat="45.94074" lon="4.80989">
        <ele>235</ele>
        <time>2018-01-14T10:33:08Z</time>
      </trkpt>
      <trkpt lat="45.94075" lon="4.80993">
        <ele>236</ele>
        <time>2018-01-14T10:33:09Z</time>
      </trkpt>
      <trkpt lat="45.94076" lon="4.81004">
        <ele>237</ele>
        <time>2018-01-14T10:33:12Z</time>
      </trkpt>
      <trkpt lat="45.94077" lon="4.81008">
        <ele>237</ele>
        <time>2018-01-14T10:33:13Z</time>
      </trkpt>
      <trkpt lat="45.94079" lon="4.81018">
        <ele>235</ele>
        <time>2018-01-14T10:33:16Z</time>
      </trkpt>
      <trkpt lat="45.9408" lon="4.81022">
        <ele>235</ele>
        <time>2018-01-14T10:33:17Z</time>
      </trkpt>
      <trkpt lat="45.94082" lon="4.81031">
        <ele>234</ele>
        <time>2018-01-14T10:33:20Z</time>
      </trkpt>
      <trkpt lat="45.94083" lon="4.81035">
        <ele>234</ele>
        <time>2018-01-14T10:33:21Z</time>
      </trkpt>
      <trkpt lat="45.94086" lon="4.81045">
        <ele>243</ele>
        <time>2018-01-14T10:33:24Z</time>
      </trkpt>
      <trkpt lat="45.94087" lon="4.81048">
        <ele>243</ele>
        <time>2018-01-14T10:33:25Z</time>
      </trkpt>
      <trkpt lat="45.9409" lon="4.81058">
        <ele>243</ele>
        <time>2018-01-14T10:33:28Z</time>
      </trkpt>
      <trkpt lat="45.94092" lon="4.81061">
        <ele>243</ele>
        <time>2018-01-14T10:33:29Z</time>
      </trkpt>
      <trkpt lat="45.94096" lon="4.8107">
        <ele>242</ele>
        <time>2018-01-14T10:33:32Z</time>
      </trkpt>
      <trkpt lat="45.94097" lon="4.81073">
        <ele>242</ele>
        <time>2018-01-14T10:33:33Z</time>
      </trkpt>
      <trkpt lat="45.94101" lon="4.81082">
        <ele>242</ele>
        <time>2018-01-14T10:33:36Z</time>
      </trkpt>
      <trkpt lat="45.94102" lon="4.81085">
        <ele>241</ele>
        <time>2018-01-14T10:33:37Z</time>
      </trkpt>
      <trkpt lat="45.94107" lon="4.81094">
        <ele>242</ele>
        <time>2018-01-14T10:33:40Z</time>
      </trkpt>
      <trkpt lat="45.94109" lon="4.81098">
        <ele>242</ele>
        <time>2018-01-14T10:33:41Z</time>
      </trkpt>
      <trkpt lat="45.94114" lon="4.81107">
        <ele>243</ele>
        <time>2018-01-14T10:33:44Z</time>
      </trkpt>
      <trkpt lat="45.94116" lon="4.8111">
        <ele>243</ele>
        <time>2018-01-14T10:33:45Z</time>
      </trkpt>
      <trkpt lat="45.94122" lon="4.81118">
        <ele>243</ele>
        <time>2018-01-14T10:33:48Z</time>
      </trkpt>
      <trkpt lat="45.94123" lon="4.81121">
        <ele>243</ele>
        <time>2018-01-14T10:33:49Z</time>
      </trkpt>
      <trkpt lat="45.94129" lon="4.81128">
        <ele>243</ele>
        <time>2018-01-14T10:33:52Z</time>
      </trkpt>
      <trkpt lat="45.9413" lon="4.8113">
        <ele>244</ele>
        <time>2018-01-14T10:33:53Z</time>
      </trkpt>
      <trkpt lat="45.94134" lon="4.81139">
        <ele>244</ele>
        <time>2018-01-14T10:33:56Z</time>
      </trkpt>
      <trkpt lat="45.94135" lon="4.81143">
        <ele>244</ele>
        <time>2018-01-14T10:33:57Z</time>
      </trkpt>
      <trkpt lat="45.9414" lon="4.81151">
        <ele>244</ele>
        <time>2018-01-14T10:34:00Z</time>
      </trkpt>
      <trkpt lat="45.94142" lon="4.81154">
        <ele>245</ele>
        <time>2018-01-14T10:34:01Z</time>
      </trkpt>
      <trkpt lat="45.94146" lon="4.81165">
        <ele>245</ele>
        <time>2018-01-14T10:34:04Z</time>
      </trkpt>
      <trkpt lat="45.94147" lon="4.81168">
        <ele>245</ele>
        <time>2018-01-14T10:34:05Z</time>
      </trkpt>
      <trkpt lat="45.9415" lon="4.81177">
        <ele>245</ele>
        <time>2018-01-14T10:34:08Z</time>
      </trkpt>
      <trkpt lat="45.94151" lon="4.8118">
        <ele>245</ele>
        <time>2018-01-14T10:34:09Z</time>
      </trkpt>
      <trkpt lat="45.94155" lon="4.81189">
        <ele>245</ele>
        <time>2018-01-14T10:34:12Z</time>
      </trkpt>
      <trkpt lat="45.94156" lon="4.81192">
        <ele>245</ele>
        <time>2018-01-14T10:34:13Z</time>
      </trkpt>
      <trkpt lat="45.94159" lon="4.81202">
        <ele>245</ele>
        <time>2018-01-14T10:34:16Z</time>
      </trkpt>
      <trkpt lat="45.94159" lon="4.81206">
        <ele>245</ele>
        <time>2018-01-14T10:34:17Z</time>
      </trkpt>
      <trkpt lat="45.94163" lon="4.81217">
        <ele>245</ele>
        <time>2018-01-14T10:34:21Z</time>
      </trkpt>
      <trkpt lat="45.94164" lon="4.81221">
        <ele>245</ele>
        <time>2018-01-14T10:34:22Z</time>
      </trkpt>
      <trkpt lat="45.94165" lon="4.81232">
        <ele>246</ele>
        <time>2018-01-14T10:34:26Z</time>
      </trkpt>
      <trkpt lat="45.94166" lon="4.81236">
        <ele>247</ele>
        <time>2018-01-14T10:34:27Z</time>
      </trkpt>
      <trkpt lat="45.94169" lon="4.81245">
        <ele>251</ele>
        <time>2018-01-14T10:34:30Z</time>
      </trkpt>
      <trkpt lat="45.9417" lon="4.81248">
        <ele>251</ele>
        <time>2018-01-14T10:34:31Z</time>
      </trkpt>
      <trkpt lat="45.94171" lon="4.81258">
        <ele>252</ele>
        <time>2018-01-14T10:34:34Z</time>
      </trkpt>
      <trkpt lat="45.94171" lon="4.81261">
        <ele>253</ele>
        <time>2018-01-14T10:34:35Z</time>
      </trkpt>
      <trkpt lat="45.94173" lon="4.81273">
        <ele>255</ele>
        <time>2018-01-14T10:34:38Z</time>
      </trkpt>
      <trkpt lat="45.94174" lon="4.81277">
        <ele>255</ele>
        <time>2018-01-14T10:34:39Z</time>
      </trkpt>
      <trkpt lat="45.94175" lon="4.81289">
        <ele>256</ele>
        <time>2018-01-14T10:34:42Z</time>
      </trkpt>
      <trkpt lat="45.94175" lon="4.81293">
        <ele>256</ele>
        <time>2018-01-14T10:34:43Z</time>
      </trkpt>
      <trkpt lat="45.94175" lon="4.81304">
        <ele>256</ele>
        <time>2018-01-14T10:34:46Z</time>
      </trkpt>
      <trkpt lat="45.94176" lon="4.81308">
        <ele>256</ele>
        <time>2018-01-14T10:34:47Z</time>
      </trkpt>
      <trkpt lat="45.94177" lon="4.8132">
        <ele>255</ele>
        <time>2018-01-14T10:34:50Z</time>
      </trkpt>
      <trkpt lat="45.94176" lon="4.81324">
        <ele>254</ele>
        <time>2018-01-14T10:34:51Z</time>
      </trkpt>
      <trkpt lat="45.94176" lon="4.81335">
        <ele>254</ele>
        <time>2018-01-14T10:34:54Z</time>
      </trkpt>
      <trkpt lat="45.94176" lon="4.81338">
        <ele>255</ele>
        <time>2018-01-14T10:34:55Z</time>
      </trkpt>
      <trkpt lat="45.94175" lon="4.81349">
        <ele>256</ele>
        <time>2018-01-14T10:34:59Z</time>
      </trkpt>
      <trkpt lat="45.94175" lon="4.81352">
        <ele>256</ele>
        <time>2018-01-14T10:35:00Z</time>
      </trkpt>
      <trkpt lat="45.94175" lon="4.81363">
        <ele>257</ele>
        <time>2018-01-14T10:35:04Z</time>
      </trkpt>
      <trkpt lat="45.94175" lon="4.81366">
        <ele>257</ele>
        <time>2018-01-14T10:35:05Z</time>
      </trkpt>
      <trkpt lat="45.94172" lon="4.81375">
        <ele>258</ele>
        <time>2018-01-14T10:35:08Z</time>
      </trkpt>
      <trkpt lat="45.94171" lon="4.81378">
        <ele>258</ele>
        <time>2018-01-14T10:35:09Z</time>
      </trkpt>
      <trkpt lat="45.94169" lon="4.81389">
        <ele>258</ele>
        <time>2018-01-14T10:35:13Z</time>
      </trkpt>
      <trkpt lat="45.94168" lon="4.81392">
        <ele>258</ele>
        <time>2018-01-14T10:35:14Z</time>
      </trkpt>
      <trkpt lat="45.94167" lon="4.81403">
        <ele>253</ele>
        <time>2018-01-14T10:35:17Z</time>
      </trkpt>
      <trkpt lat="45.94167" lon="4.81407">
        <ele>254</ele>
        <time>2018-01-14T10:35:18Z</time>
      </trkpt>
      <trkpt lat="45.94166" lon="4.81419">
        <ele>256</ele>
        <time>2018-01-14T10:35:21Z</time>
      </trkpt>
      <trkpt lat="45.94165" lon="4.81422">
        <ele>256</ele>
        <time>2018-01-14T10:35:22Z</time>
      </trkpt>
      <trkpt lat="45.94164" lon="4.81434">
        <ele>256</ele>
        <time>2018-01-14T10:35:25Z</time>
      </trkpt>
      <trkpt lat="45.94163" lon="4.81438">
        <ele>256</ele>
        <time>2018-01-14T10:35:26Z</time>
      </trkpt>
      <trkpt lat="45.94162" lon="4.8145">
        <ele>257</ele>
        <time>2018-01-14T10:35:30Z</time>
      </trkpt>
      <trkpt lat="45.94162" lon="4.81453">
        <ele>257</ele>
        <time>2018-01-14T10:35:31Z</time>
      </trkpt>
      <trkpt lat="45.94158" lon="4.81464">
        <ele>258</ele>
        <time>2018-01-14T10:35:35Z</time>
      </trkpt>
      <trkpt lat="45.94158" lon="4.81466">
        <ele>258</ele>
        <time>2018-01-14T10:35:36Z</time>
      </trkpt>
      <trkpt lat="45.94158" lon="4.81476">
        <ele>259</ele>
        <time>2018-01-14T10:35:39Z</time>
      </trkpt>
      <trkpt lat="45.94158" lon="4.8148">
        <ele>259</ele>
        <time>2018-01-14T10:35:40Z</time>
      </trkpt>
      <trkpt lat="45.94157" lon="4.81493">
        <ele>260</ele>
        <time>2018-01-14T10:35:43Z</time>
      </trkpt>
      <trkpt lat="45.94156" lon="4.81497">
        <ele>261</ele>
        <time>2018-01-14T10:35:44Z</time>
      </trkpt>
      <trkpt lat="45.94155" lon="4.81509">
        <ele>263</ele>
        <time>2018-01-14T10:35:47Z</time>
      </trkpt>
      <trkpt lat="45.94155" lon="4.81513">
        <ele>263</ele>
        <time>2018-01-14T10:35:48Z</time>
      </trkpt>
      <trkpt lat="45.94155" lon="4.81525">
        <ele>263</ele>
        <time>2018-01-14T10:35:52Z</time>
      </trkpt>
      <trkpt lat="45.94155" lon="4.8153">
        <ele>264</ele>
        <time>2018-01-14T10:35:53Z</time>
      </trkpt>
      <trkpt lat="45.94156" lon="4.81538">
        <ele>264</ele>
        <time>2018-01-14T10:35:55Z</time>
      </trkpt>
      <trkpt lat="45.94156" lon="4.81543">
        <ele>264</ele>
        <time>2018-01-14T10:35:56Z</time>
      </trkpt>
      <trkpt lat="45.94157" lon="4.81552">
        <ele>264</ele>
        <time>2018-01-14T10:35:58Z</time>
      </trkpt>
      <trkpt lat="45.94157" lon="4.81557">
        <ele>265</ele>
        <time>2018-01-14T10:35:59Z</time>
      </trkpt>
      <trkpt lat="45.9416" lon="4.81569">
        <ele>265</ele>
        <time>2018-01-14T10:36:02Z</time>
      </trkpt>
      <trkpt lat="45.9416" lon="4.81573">
        <ele>266</ele>
        <time>2018-01-14T10:36:03Z</time>
      </trkpt>
      <trkpt lat="45.94162" lon="4.81583">
        <ele>266</ele>
        <time>2018-01-14T10:36:05Z</time>
      </trkpt>
      <trkpt lat="45.94162" lon="4.81587">
        <ele>267</ele>
        <time>2018-01-14T10:36:06Z</time>
      </trkpt>
      <trkpt lat="45.94163" lon="4.81597">
        <ele>267</ele>
        <time>2018-01-14T10:36:08Z</time>
      </trkpt>
      <trkpt lat="45.94164" lon="4.81602">
        <ele>267</ele>
        <time>2018-01-14T10:36:09Z</time>
      </trkpt>
      <trkpt lat="45.94165" lon="4.81612">
        <ele>267</ele>
        <time>2018-01-14T10:36:11Z</time>
      </trkpt>
      <trkpt lat="45.94165" lon="4.81617">
        <ele>268</ele>
        <time>2018-01-14T10:36:12Z</time>
      </trkpt>
      <trkpt lat="45.94167" lon="4.81626">
        <ele>268</ele>
        <time>2018-01-14T10:36:14Z</time>
      </trkpt>
      <trkpt lat="45.94168" lon="4.8163">
        <ele>267</ele>
        <time>2018-01-14T10:36:15Z</time>
      </trkpt>
      <trkpt lat="45.9417" lon="4.81639">
        <ele>268</ele>
        <time>2018-01-14T10:36:17Z</time>
      </trkpt>
      <trkpt lat="45.94171" lon="4.81644">
        <ele>268</ele>
        <time>2018-01-14T10:36:18Z</time>
      </trkpt>
      <trkpt lat="45.94172" lon="4.81653">
        <ele>268</ele>
        <time>2018-01-14T10:36:20Z</time>
      </trkpt>
      <trkpt lat="45.94173" lon="4.81658">
        <ele>268</ele>
        <time>2018-01-14T10:36:21Z</time>
      </trkpt>
      <trkpt lat="45.94174" lon="4.81668">
        <ele>268</ele>
        <time>2018-01-14T10:36:23Z</time>
      </trkpt>
      <trkpt lat="45.94175" lon="4.81673">
        <ele>268</ele>
        <time>2018-01-14T10:36:24Z</time>
      </trkpt>
      <trkpt lat="45.94177" lon="4.81683">
        <ele>268</ele>
        <time>2018-01-14T10:36:26Z</time>
      </trkpt>
      <trkpt lat="45.94179" lon="4.81688">
        <ele>267</ele>
        <time>2018-01-14T10:36:27Z</time>
      </trkpt>
      <trkpt lat="45.94182" lon="4.81697">
        <ele>267</ele>
        <time>2018-01-14T10:36:29Z</time>
      </trkpt>
      <trkpt lat="45.94184" lon="4.81702">
        <ele>267</ele>
        <time>2018-01-14T10:36:30Z</time>
      </trkpt>
      <trkpt lat="45.94186" lon="4.81712">
        <ele>267</ele>
        <time>2018-01-14T10:36:32Z</time>
      </trkpt>
      <trkpt lat="45.94186" lon="4.81717">
        <ele>267</ele>
        <time>2018-01-14T10:36:33Z</time>
      </trkpt>
      <trkpt lat="45.94186" lon="4.81727">
        <ele>267</ele>
        <time>2018-01-14T10:36:35Z</time>
      </trkpt>
      <trkpt lat="45.94186" lon="4.81731">
        <ele>267</ele>
        <time>2018-01-14T10:36:36Z</time>
      </trkpt>
      <trkpt lat="45.94187" lon="4.8174">
        <ele>267</ele>
        <time>2018-01-14T10:36:38Z</time>
      </trkpt>
      <trkpt lat="45.94188" lon="4.81745">
        <ele>267</ele>
        <time>2018-01-14T10:36:39Z</time>
      </trkpt>
      <trkpt lat="45.94192" lon="4.81754">
        <ele>266</ele>
        <time>2018-01-14T10:36:41Z</time>
      </trkpt>
      <trkpt lat="45.94194" lon="4.81758">
        <ele>266</ele>
        <time>2018-01-14T10:36:42Z</time>
      </trkpt>
      <trkpt lat="45.94198" lon="4.81767">
        <ele>266</ele>
        <time>2018-01-14T10:36:44Z</time>
      </trkpt>
      <trkpt lat="45.94199" lon="4.81772">
        <ele>266</ele>
        <time>2018-01-14T10:36:45Z</time>
      </trkpt>
      <trkpt lat="45.942" lon="4.81782">
        <ele>266</ele>
        <time>2018-01-14T10:36:47Z</time>
      </trkpt>
      <trkpt lat="45.942" lon="4.81788">
        <ele>266</ele>
        <time>2018-01-14T10:36:48Z</time>
      </trkpt>
      <trkpt lat="45.942" lon="4.81801">
        <ele>266</ele>
        <time>2018-01-14T10:36:50Z</time>
      </trkpt>
      <trkpt lat="45.942" lon="4.81808">
        <ele>266</ele>
        <time>2018-01-14T10:36:51Z</time>
      </trkpt>
      <trkpt lat="45.94202" lon="4.8182">
        <ele>266</ele>
        <time>2018-01-14T10:36:53Z</time>
      </trkpt>
      <trkpt lat="45.94203" lon="4.81825">
        <ele>266</ele>
        <time>2018-01-14T10:36:54Z</time>
      </trkpt>
      <trkpt lat="45.94204" lon="4.81833">
        <ele>266</ele>
        <time>2018-01-14T10:36:56Z</time>
      </trkpt>
      <trkpt lat="45.94205" lon="4.81838">
        <ele>266</ele>
        <time>2018-01-14T10:36:57Z</time>
      </trkpt>
      <trkpt lat="45.94206" lon="4.81847">
        <ele>266</ele>
        <time>2018-01-14T10:36:59Z</time>
      </trkpt>
      <trkpt lat="45.94208" lon="4.81852">
        <ele>265</ele>
        <time>2018-01-14T10:37:00Z</time>
      </trkpt>
      <trkpt lat="45.94211" lon="4.81862">
        <ele>265</ele>
        <time>2018-01-14T10:37:02Z</time>
      </trkpt>
      <trkpt lat="45.94212" lon="4.81867">
        <ele>265</ele>
        <time>2018-01-14T10:37:03Z</time>
      </trkpt>
      <trkpt lat="45.94214" lon="4.81878">
        <ele>265</ele>
        <time>2018-01-14T10:37:05Z</time>
      </trkpt>
      <trkpt lat="45.94215" lon="4.81883">
        <ele>265</ele>
        <time>2018-01-14T10:37:06Z</time>
      </trkpt>
      <trkpt lat="45.94218" lon="4.81895">
        <ele>265</ele>
        <time>2018-01-14T10:37:08Z</time>
      </trkpt>
      <trkpt lat="45.9422" lon="4.81901">
        <ele>265</ele>
        <time>2018-01-14T10:37:09Z</time>
      </trkpt>
      <trkpt lat="45.94221" lon="4.81908">
        <ele>264</ele>
        <time>2018-01-14T10:37:10Z</time>
      </trkpt>
      <trkpt lat="45.94223" lon="4.81914">
        <ele>264</ele>
        <time>2018-01-14T10:37:11Z</time>
      </trkpt>
      <trkpt lat="45.94225" lon="4.81926">
        <ele>264</ele>
        <time>2018-01-14T10:37:13Z</time>
      </trkpt>
      <trkpt lat="45.94225" lon="4.81932">
        <ele>264</ele>
        <time>2018-01-14T10:37:14Z</time>
      </trkpt>
      <trkpt lat="45.94227" lon="4.81938">
        <ele>264</ele>
        <time>2018-01-14T10:37:15Z</time>
      </trkpt>
      <trkpt lat="45.94228" lon="4.81944">
        <ele>264</ele>
        <time>2018-01-14T10:37:16Z</time>
      </trkpt>
      <trkpt lat="45.94231" lon="4.81956">
        <ele>264</ele>
        <time>2018-01-14T10:37:18Z</time>
      </trkpt>
      <trkpt lat="45.94233" lon="4.81961">
        <ele>264</ele>
        <time>2018-01-14T10:37:19Z</time>
      </trkpt>
      <trkpt lat="45.94234" lon="4.81972">
        <ele>264</ele>
        <time>2018-01-14T10:37:21Z</time>
      </trkpt>
      <trkpt lat="45.94236" lon="4.81979">
        <ele>263</ele>
        <time>2018-01-14T10:37:22Z</time>
      </trkpt>
      <trkpt lat="45.94237" lon="4.81985">
        <ele>263</ele>
        <time>2018-01-14T10:37:23Z</time>
      </trkpt>
      <trkpt lat="45.94238" lon="4.81992">
        <ele>263</ele>
        <time>2018-01-14T10:37:24Z</time>
      </trkpt>
      <trkpt lat="45.94239" lon="4.82001">
        <ele>263</ele>
        <time>2018-01-14T10:37:25Z</time>
      </trkpt>
      <trkpt lat="45.9424" lon="4.82009">
        <ele>263</ele>
        <time>2018-01-14T10:37:26Z</time>
      </trkpt>
      <trkpt lat="45.94241" lon="4.82016">
        <ele>263</ele>
        <time>2018-01-14T10:37:27Z</time>
      </trkpt>
      <trkpt lat="45.94242" lon="4.82023">
        <ele>263</ele>
        <time>2018-01-14T10:37:28Z</time>
      </trkpt>
      <trkpt lat="45.94246" lon="4.82034">
        <ele>263</ele>
        <time>2018-01-14T10:37:30Z</time>
      </trkpt>
      <trkpt lat="45.94247" lon="4.82039">
        <ele>263</ele>
        <time>2018-01-14T10:37:31Z</time>
      </trkpt>
      <trkpt lat="45.94249" lon="4.82049">
        <ele>263</ele>
        <time>2018-01-14T10:37:33Z</time>
      </trkpt>
      <trkpt lat="45.9425" lon="4.82057">
        <ele>262</ele>
        <time>2018-01-14T10:37:34Z</time>
      </trkpt>
      <trkpt lat="45.94252" lon="4.82063">
        <ele>262</ele>
        <time>2018-01-14T10:37:35Z</time>
      </trkpt>
      <trkpt lat="45.94254" lon="4.8207">
        <ele>262</ele>
        <time>2018-01-14T10:37:36Z</time>
      </trkpt>
      <trkpt lat="45.94255" lon="4.82076">
        <ele>262</ele>
        <time>2018-01-14T10:37:37Z</time>
      </trkpt>
      <trkpt lat="45.94256" lon="4.82083">
        <ele>262</ele>
        <time>2018-01-14T10:37:38Z</time>
      </trkpt>
      <trkpt lat="45.94258" lon="4.8209">
        <ele>262</ele>
        <time>2018-01-14T10:37:39Z</time>
      </trkpt>
      <trkpt lat="45.94258" lon="4.82096">
        <ele>262</ele>
        <time>2018-01-14T10:37:40Z</time>
      </trkpt>
      <trkpt lat="45.9426" lon="4.82103">
        <ele>262</ele>
        <time>2018-01-14T10:37:41Z</time>
      </trkpt>
      <trkpt lat="45.94261" lon="4.8211">
        <ele>263</ele>
        <time>2018-01-14T10:37:42Z</time>
      </trkpt>
      <trkpt lat="45.94262" lon="4.82118">
        <ele>263</ele>
        <time>2018-01-14T10:37:43Z</time>
      </trkpt>
      <trkpt lat="45.94264" lon="4.82125">
        <ele>263</ele>
        <time>2018-01-14T10:37:44Z</time>
      </trkpt>
      <trkpt lat="45.94266" lon="4.82132">
        <ele>263</ele>
        <time>2018-01-14T10:37:45Z</time>
      </trkpt>
      <trkpt lat="45.94268" lon="4.8214">
        <ele>263</ele>
        <time>2018-01-14T10:37:46Z</time>
      </trkpt>
      <trkpt lat="45.9427" lon="4.82147">
        <ele>263</ele>
        <time>2018-01-14T10:37:47Z</time>
      </trkpt>
      <trkpt lat="45.94272" lon="4.82155">
        <ele>263</ele>
        <time>2018-01-14T10:37:48Z</time>
      </trkpt>
      <trkpt lat="45.94274" lon="4.82163">
        <ele>263</ele>
        <time>2018-01-14T10:37:49Z</time>
      </trkpt>
      <trkpt lat="45.94276" lon="4.8217">
        <ele>264</ele>
        <time>2018-01-14T10:37:50Z</time>
      </trkpt>
      <trkpt lat="45.94277" lon="4.82177">
        <ele>264</ele>
        <time>2018-01-14T10:37:51Z</time>
      </trkpt>
      <trkpt lat="45.94279" lon="4.82186">
        <ele>264</ele>
        <time>2018-01-14T10:37:52Z</time>
      </trkpt>
      <trkpt lat="45.94279" lon="4.82194">
        <ele>264</ele>
        <time>2018-01-14T10:37:53Z</time>
      </trkpt>
      <trkpt lat="45.94281" lon="4.82203">
        <ele>264</ele>
        <time>2018-01-14T10:37:54Z</time>
      </trkpt>
      <trkpt lat="45.94282" lon="4.82209">
        <ele>264</ele>
        <time>2018-01-14T10:37:55Z</time>
      </trkpt>
      <trkpt lat="45.94282" lon="4.82216">
        <ele>264</ele>
        <time>2018-01-14T10:37:56Z</time>
      </trkpt>
      <trkpt lat="45.94283" lon="4.82223">
        <ele>264</ele>
        <time>2018-01-14T10:37:57Z</time>
      </trkpt>
      <trkpt lat="45.94283" lon="4.82229">
        <ele>264</ele>
        <time>2018-01-14T10:37:58Z</time>
      </trkpt>
      <trkpt lat="45.94284" lon="4.82242">
        <ele>264</ele>
        <time>2018-01-14T10:38:00Z</time>
      </trkpt>
      <trkpt lat="45.94285" lon="4.82251">
        <ele>265</ele>
        <time>2018-01-14T10:38:01Z</time>
      </trkpt>
      <trkpt lat="45.94285" lon="4.82258">
        <ele>265</ele>
        <time>2018-01-14T10:38:02Z</time>
      </trkpt>
      <trkpt lat="45.94285" lon="4.82265">
        <ele>265</ele>
        <time>2018-01-14T10:38:03Z</time>
      </trkpt>
      <trkpt lat="45.94285" lon="4.82274">
        <ele>265</ele>
        <time>2018-01-14T10:38:04Z</time>
      </trkpt>
      <trkpt lat="45.94285" lon="4.82281">
        <ele>265</ele>
        <time>2018-01-14T10:38:05Z</time>
      </trkpt>
      <trkpt lat="45.94286" lon="4.82289">
        <ele>265</ele>
        <time>2018-01-14T10:38:06Z</time>
      </trkpt>
      <trkpt lat="45.94286" lon="4.82296">
        <ele>265</ele>
        <time>2018-01-14T10:38:07Z</time>
      </trkpt>
      <trkpt lat="45.94286" lon="4.82303">
        <ele>265</ele>
        <time>2018-01-14T10:38:08Z</time>
      </trkpt>
      <trkpt lat="45.94286" lon="4.82311">
        <ele>265</ele>
        <time>2018-01-14T10:38:09Z</time>
      </trkpt>
      <trkpt lat="45.94287" lon="4.82318">
        <ele>265</ele>
        <time>2018-01-14T10:38:10Z</time>
      </trkpt>
      <trkpt lat="45.94287" lon="4.82325">
        <ele>265</ele>
        <time>2018-01-14T10:38:11Z</time>
      </trkpt>
      <trkpt lat="45.94288" lon="4.82331">
        <ele>265</ele>
        <time>2018-01-14T10:38:12Z</time>
      </trkpt>
      <trkpt lat="45.94289" lon="4.82339">
        <ele>264</ele>
        <time>2018-01-14T10:38:13Z</time>
      </trkpt>
      <trkpt lat="45.94289" lon="4.82351">
        <ele>264</ele>
        <time>2018-01-14T10:38:15Z</time>
      </trkpt>
      <trkpt lat="45.94289" lon="4.82357">
        <ele>264</ele>
        <time>2018-01-14T10:38:16Z</time>
      </trkpt>
      <trkpt lat="45.9429" lon="4.82368">
        <ele>264</ele>
        <time>2018-01-14T10:38:18Z</time>
      </trkpt>
      <trkpt lat="45.9429" lon="4.82375">
        <ele>264</ele>
        <time>2018-01-14T10:38:19Z</time>
      </trkpt>
      <trkpt lat="45.94292" lon="4.82383">
        <ele>264</ele>
        <time>2018-01-14T10:38:20Z</time>
      </trkpt>
      <trkpt lat="45.94292" lon="4.82389">
        <ele>264</ele>
        <time>2018-01-14T10:38:21Z</time>
      </trkpt>
      <trkpt lat="45.94293" lon="4.82396">
        <ele>264</ele>
        <time>2018-01-14T10:38:22Z</time>
      </trkpt>
      <trkpt lat="45.94293" lon="4.82403">
        <ele>264</ele>
        <time>2018-01-14T10:38:23Z</time>
      </trkpt>
      <trkpt lat="45.94293" lon="4.82415">
        <ele>264</ele>
        <time>2018-01-14T10:38:25Z</time>
      </trkpt>
      <trkpt lat="45.94292" lon="4.82421">
        <ele>264</ele>
        <time>2018-01-14T10:38:26Z</time>
      </trkpt>
      <trkpt lat="45.94292" lon="4.82433">
        <ele>264</ele>
        <time>2018-01-14T10:38:28Z</time>
      </trkpt>
      <trkpt lat="45.94292" lon="4.82439">
        <ele>264</ele>
        <time>2018-01-14T10:38:29Z</time>
      </trkpt>
      <trkpt lat="45.94292" lon="4.82451">
        <ele>264</ele>
        <time>2018-01-14T10:38:31Z</time>
      </trkpt>
      <trkpt lat="45.94292" lon="4.82457">
        <ele>264</ele>
        <time>2018-01-14T10:38:32Z</time>
      </trkpt>
      <trkpt lat="45.94293" lon="4.82469">
        <ele>264</ele>
        <time>2018-01-14T10:38:34Z</time>
      </trkpt>
      <trkpt lat="45.94292" lon="4.82474">
        <ele>264</ele>
        <time>2018-01-14T10:38:35Z</time>
      </trkpt>
      <trkpt lat="45.94292" lon="4.82485">
        <ele>264</ele>
        <time>2018-01-14T10:38:37Z</time>
      </trkpt>
      <trkpt lat="45.94292" lon="4.82489">
        <ele>264</ele>
        <time>2018-01-14T10:38:38Z</time>
      </trkpt>
      <trkpt lat="45.94293" lon="4.82497">
        <ele>264</ele>
        <time>2018-01-14T10:38:40Z</time>
      </trkpt>
      <trkpt lat="45.94293" lon="4.82503">
        <ele>264</ele>
        <time>2018-01-14T10:38:41Z</time>
      </trkpt>
      <trkpt lat="45.94294" lon="4.82514">
        <ele>264</ele>
        <time>2018-01-14T10:38:43Z</time>
      </trkpt>
      <trkpt lat="45.94294" lon="4.8252">
        <ele>264</ele>
        <time>2018-01-14T10:38:44Z</time>
      </trkpt>
      <trkpt lat="45.94294" lon="4.82532">
        <ele>264</ele>
        <time>2018-01-14T10:38:46Z</time>
      </trkpt>
      <trkpt lat="45.94294" lon="4.82538">
        <ele>264</ele>
        <time>2018-01-14T10:38:47Z</time>
      </trkpt>
      <trkpt lat="45.94294" lon="4.82545">
        <ele>264</ele>
        <time>2018-01-14T10:38:48Z</time>
      </trkpt>
      <trkpt lat="45.94293" lon="4.82552">
        <ele>264</ele>
        <time>2018-01-14T10:38:49Z</time>
      </trkpt>
      <trkpt lat="45.94294" lon="4.82565">
        <ele>264</ele>
        <time>2018-01-14T10:38:51Z</time>
      </trkpt>
      <trkpt lat="45.94294" lon="4.82573">
        <ele>264</ele>
        <time>2018-01-14T10:38:52Z</time>
      </trkpt>
      <trkpt lat="45.94294" lon="4.8258">
        <ele>264</ele>
        <time>2018-01-14T10:38:53Z</time>
      </trkpt>
      <trkpt lat="45.94294" lon="4.82587">
        <ele>265</ele>
        <time>2018-01-14T10:38:54Z</time>
      </trkpt>
      <trkpt lat="45.94294" lon="4.826">
        <ele>265</ele>
        <time>2018-01-14T10:38:56Z</time>
      </trkpt>
      <trkpt lat="45.94294" lon="4.82605">
        <ele>265</ele>
        <time>2018-01-14T10:38:57Z</time>
      </trkpt>
      <trkpt lat="45.94294" lon="4.82611">
        <ele>265</ele>
        <time>2018-01-14T10:38:58Z</time>
      </trkpt>
      <trkpt lat="45.94293" lon="4.82619">
        <ele>265</ele>
        <time>2018-01-14T10:38:59Z</time>
      </trkpt>
      <trkpt lat="45.94293" lon="4.82628">
        <ele>265</ele>
        <time>2018-01-14T10:39:00Z</time>
      </trkpt>
      <trkpt lat="45.94293" lon="4.82636">
        <ele>265</ele>
        <time>2018-01-14T10:39:01Z</time>
      </trkpt>
      <trkpt lat="45.94291" lon="4.82643">
        <ele>265</ele>
        <time>2018-01-14T10:39:02Z</time>
      </trkpt>
      <trkpt lat="45.94291" lon="4.82651">
        <ele>265</ele>
        <time>2018-01-14T10:39:03Z</time>
      </trkpt>
      <trkpt lat="45.94291" lon="4.82658">
        <ele>265</ele>
        <time>2018-01-14T10:39:04Z</time>
      </trkpt>
      <trkpt lat="45.9429" lon="4.82666">
        <ele>265</ele>
        <time>2018-01-14T10:39:05Z</time>
      </trkpt>
      <trkpt lat="45.9429" lon="4.82673">
        <ele>265</ele>
        <time>2018-01-14T10:39:06Z</time>
      </trkpt>
      <trkpt lat="45.9429" lon="4.82679">
        <ele>265</ele>
        <time>2018-01-14T10:39:07Z</time>
      </trkpt>
      <trkpt lat="45.9429" lon="4.82688">
        <ele>265</ele>
        <time>2018-01-14T10:39:08Z</time>
      </trkpt>
      <trkpt lat="45.9429" lon="4.82694">
        <ele>265</ele>
        <time>2018-01-14T10:39:09Z</time>
      </trkpt>
      <trkpt lat="45.94291" lon="4.82704">
        <ele>265</ele>
        <time>2018-01-14T10:39:11Z</time>
      </trkpt>
      <trkpt lat="45.94292" lon="4.82711">
        <ele>265</ele>
        <time>2018-01-14T10:39:12Z</time>
      </trkpt>
      <trkpt lat="45.94293" lon="4.82723">
        <ele>265</ele>
        <time>2018-01-14T10:39:14Z</time>
      </trkpt>
      <trkpt lat="45.94292" lon="4.82729">
        <ele>265</ele>
        <time>2018-01-14T10:39:15Z</time>
      </trkpt>
      <trkpt lat="45.94292" lon="4.82736">
        <ele>265</ele>
        <time>2018-01-14T10:39:16Z</time>
      </trkpt>
      <trkpt lat="45.94291" lon="4.82744">
        <ele>265</ele>
        <time>2018-01-14T10:39:17Z</time>
      </trkpt>
      <trkpt lat="45.94291" lon="4.8275">
        <ele>265</ele>
        <time>2018-01-14T10:39:18Z</time>
      </trkpt>
      <trkpt lat="45.9429" lon="4.82758">
        <ele>265</ele>
        <time>2018-01-14T10:39:19Z</time>
      </trkpt>
      <trkpt lat="45.94291" lon="4.82764">
        <ele>265</ele>
        <time>2018-01-14T10:39:20Z</time>
      </trkpt>
      <trkpt lat="45.94289" lon="4.82771">
        <ele>265</ele>
        <time>2018-01-14T10:39:21Z</time>
      </trkpt>
      <trkpt lat="45.94289" lon="4.82778">
        <ele>265</ele>
        <time>2018-01-14T10:39:22Z</time>
      </trkpt>
      <trkpt lat="45.94288" lon="4.82786">
        <ele>265</ele>
        <time>2018-01-14T10:39:23Z</time>
      </trkpt>
      <trkpt lat="45.94288" lon="4.82798">
        <ele>265</ele>
        <time>2018-01-14T10:39:25Z</time>
      </trkpt>
      <trkpt lat="45.94288" lon="4.82807">
        <ele>265</ele>
        <time>2018-01-14T10:39:26Z</time>
      </trkpt>
      <trkpt lat="45.94287" lon="4.82819">
        <ele>265</ele>
        <time>2018-01-14T10:39:28Z</time>
      </trkpt>
      <trkpt lat="45.94286" lon="4.82826">
        <ele>265</ele>
        <time>2018-01-14T10:39:29Z</time>
      </trkpt>
      <trkpt lat="45.94286" lon="4.82834">
        <ele>265</ele>
        <time>2018-01-14T10:39:30Z</time>
      </trkpt>
      <trkpt lat="45.94286" lon="4.82841">
        <ele>265</ele>
        <time>2018-01-14T10:39:31Z</time>
      </trkpt>
      <trkpt lat="45.94287" lon="4.82847">
        <ele>265</ele>
        <time>2018-01-14T10:39:32Z</time>
      </trkpt>
      <trkpt lat="45.94287" lon="4.82855">
        <ele>265</ele>
        <time>2018-01-14T10:39:33Z</time>
      </trkpt>
      <trkpt lat="45.94287" lon="4.82863">
        <ele>265</ele>
        <time>2018-01-14T10:39:34Z</time>
      </trkpt>
      <trkpt lat="45.94286" lon="4.8287">
        <ele>265</ele>
        <time>2018-01-14T10:39:35Z</time>
      </trkpt>
      <trkpt lat="45.94286" lon="4.82878">
        <ele>265</ele>
        <time>2018-01-14T10:39:36Z</time>
      </trkpt>
      <trkpt lat="45.94286" lon="4.82885">
        <ele>265</ele>
        <time>2018-01-14T10:39:37Z</time>
      </trkpt>
      <trkpt lat="45.94285" lon="4.82892">
        <ele>265</ele>
        <time>2018-01-14T10:39:38Z</time>
      </trkpt>
      <trkpt lat="45.94286" lon="4.82899">
        <ele>265</ele>
        <time>2018-01-14T10:39:39Z</time>
      </trkpt>
      <trkpt lat="45.94285" lon="4.82907">
        <ele>265</ele>
        <time>2018-01-14T10:39:40Z</time>
      </trkpt>
      <trkpt lat="45.94285" lon="4.82914">
        <ele>265</ele>
        <time>2018-01-14T10:39:41Z</time>
      </trkpt>
      <trkpt lat="45.94284" lon="4.82921">
        <ele>265</ele>
        <time>2018-01-14T10:39:42Z</time>
      </trkpt>
      <trkpt lat="45.94283" lon="4.82928">
        <ele>265</ele>
        <time>2018-01-14T10:39:43Z</time>
      </trkpt>
      <trkpt lat="45.94282" lon="4.82935">
        <ele>265</ele>
        <time>2018-01-14T10:39:44Z</time>
      </trkpt>
      <trkpt lat="45.94281" lon="4.82942">
        <ele>265</ele>
        <time>2018-01-14T10:39:45Z</time>
      </trkpt>
      <trkpt lat="45.94279" lon="4.82949">
        <ele>265</ele>
        <time>2018-01-14T10:39:46Z</time>
      </trkpt>
      <trkpt lat="45.9428" lon="4.82957">
        <ele>265</ele>
        <time>2018-01-14T10:39:47Z</time>
      </trkpt>
      <trkpt lat="45.94281" lon="4.82964">
        <ele>265</ele>
        <time>2018-01-14T10:39:48Z</time>
      </trkpt>
      <trkpt lat="45.94282" lon="4.8297">
        <ele>265</ele>
        <time>2018-01-14T10:39:49Z</time>
      </trkpt>
      <trkpt lat="45.94287" lon="4.82981">
        <ele>265</ele>
        <time>2018-01-14T10:39:51Z</time>
      </trkpt>
      <trkpt lat="45.94289" lon="4.82987">
        <ele>265</ele>
        <time>2018-01-14T10:39:52Z</time>
      </trkpt>
      <trkpt lat="45.94293" lon="4.82999">
        <ele>265</ele>
        <time>2018-01-14T10:39:54Z</time>
      </trkpt>
      <trkpt lat="45.94294" lon="4.83005">
        <ele>266</ele>
        <time>2018-01-14T10:39:55Z</time>
      </trkpt>
      <trkpt lat="45.94297" lon="4.83016">
        <ele>266</ele>
        <time>2018-01-14T10:39:57Z</time>
      </trkpt>
      <trkpt lat="45.94298" lon="4.83021">
        <ele>266</ele>
        <time>2018-01-14T10:39:58Z</time>
      </trkpt>
      <trkpt lat="45.94301" lon="4.83032">
        <ele>266</ele>
        <time>2018-01-14T10:40:00Z</time>
      </trkpt>
      <trkpt lat="45.94302" lon="4.83038">
        <ele>266</ele>
        <time>2018-01-14T10:40:01Z</time>
      </trkpt>
      <trkpt lat="45.94304" lon="4.8305">
        <ele>266</ele>
        <time>2018-01-14T10:40:03Z</time>
      </trkpt>
      <trkpt lat="45.94306" lon="4.83056">
        <ele>266</ele>
        <time>2018-01-14T10:40:04Z</time>
      </trkpt>
      <trkpt lat="45.94307" lon="4.83063">
        <ele>266</ele>
        <time>2018-01-14T10:40:05Z</time>
      </trkpt>
      <trkpt lat="45.94309" lon="4.83072">
        <ele>266</ele>
        <time>2018-01-14T10:40:06Z</time>
      </trkpt>
      <trkpt lat="45.94312" lon="4.83084">
        <ele>266</ele>
        <time>2018-01-14T10:40:08Z</time>
      </trkpt>
      <trkpt lat="45.94313" lon="4.83091">
        <ele>266</ele>
        <time>2018-01-14T10:40:09Z</time>
      </trkpt>
      <trkpt lat="45.94315" lon="4.83097">
        <ele>266</ele>
        <time>2018-01-14T10:40:10Z</time>
      </trkpt>
      <trkpt lat="45.94316" lon="4.83103">
        <ele>266</ele>
        <time>2018-01-14T10:40:11Z</time>
      </trkpt>
      <trkpt lat="45.9432" lon="4.83115">
        <ele>266</ele>
        <time>2018-01-14T10:40:13Z</time>
      </trkpt>
      <trkpt lat="45.94322" lon="4.8312">
        <ele>266</ele>
        <time>2018-01-14T10:40:14Z</time>
      </trkpt>
      <trkpt lat="45.94324" lon="4.83126">
        <ele>266</ele>
        <time>2018-01-14T10:40:15Z</time>
      </trkpt>
      <trkpt lat="45.94326" lon="4.83132">
        <ele>266</ele>
        <time>2018-01-14T10:40:16Z</time>
      </trkpt>
      <trkpt lat="45.94327" lon="4.83138">
        <ele>266</ele>
        <time>2018-01-14T10:40:17Z</time>
      </trkpt>
      <trkpt lat="45.9433" lon="4.83144">
        <ele>266</ele>
        <time>2018-01-14T10:40:18Z</time>
      </trkpt>
      <trkpt lat="45.94333" lon="4.8315">
        <ele>266</ele>
        <time>2018-01-14T10:40:19Z</time>
      </trkpt>
      <trkpt lat="45.94335" lon="4.83157">
        <ele>266</ele>
        <time>2018-01-14T10:40:20Z</time>
      </trkpt>
      <trkpt lat="45.94337" lon="4.83164">
        <ele>266</ele>
        <time>2018-01-14T10:40:21Z</time>
      </trkpt>
      <trkpt lat="45.9434" lon="4.83171">
        <ele>266</ele>
        <time>2018-01-14T10:40:22Z</time>
      </trkpt>
      <trkpt lat="45.94343" lon="4.83178">
        <ele>266</ele>
        <time>2018-01-14T10:40:23Z</time>
      </trkpt>
      <trkpt lat="45.94345" lon="4.83184">
        <ele>266</ele>
        <time>2018-01-14T10:40:24Z</time>
      </trkpt>
      <trkpt lat="45.94347" lon="4.83191">
        <ele>266</ele>
        <time>2018-01-14T10:40:25Z</time>
      </trkpt>
      <trkpt lat="45.9435" lon="4.83198">
        <ele>266</ele>
        <time>2018-01-14T10:40:26Z</time>
      </trkpt>
      <trkpt lat="45.94352" lon="4.83205">
        <ele>266</ele>
        <time>2018-01-14T10:40:27Z</time>
      </trkpt>
      <trkpt lat="45.94354" lon="4.83211">
        <ele>266</ele>
        <time>2018-01-14T10:40:28Z</time>
      </trkpt>
      <trkpt lat="45.94358" lon="4.83219">
        <ele>266</ele>
        <time>2018-01-14T10:40:29Z</time>
      </trkpt>
      <trkpt lat="45.94361" lon="4.83225">
        <ele>266</ele>
        <time>2018-01-14T10:40:30Z</time>
      </trkpt>
      <trkpt lat="45.94363" lon="4.8323">
        <ele>266</ele>
        <time>2018-01-14T10:40:31Z</time>
      </trkpt>
      <trkpt lat="45.94365" lon="4.83237">
        <ele>265</ele>
        <time>2018-01-14T10:40:32Z</time>
      </trkpt>
      <trkpt lat="45.94367" lon="4.83243">
        <ele>265</ele>
        <time>2018-01-14T10:40:33Z</time>
      </trkpt>
      <trkpt lat="45.94369" lon="4.8325">
        <ele>265</ele>
        <time>2018-01-14T10:40:34Z</time>
      </trkpt>
      <trkpt lat="45.94371" lon="4.83256">
        <ele>265</ele>
        <time>2018-01-14T10:40:35Z</time>
      </trkpt>
      <trkpt lat="45.94373" lon="4.83262">
        <ele>264</ele>
        <time>2018-01-14T10:40:36Z</time>
      </trkpt>
      <trkpt lat="45.94375" lon="4.8327">
        <ele>264</ele>
        <time>2018-01-14T10:40:37Z</time>
      </trkpt>
      <trkpt lat="45.94378" lon="4.83276">
        <ele>264</ele>
        <time>2018-01-14T10:40:38Z</time>
      </trkpt>
      <trkpt lat="45.9438" lon="4.83281">
        <ele>264</ele>
        <time>2018-01-14T10:40:39Z</time>
      </trkpt>
      <trkpt lat="45.94382" lon="4.83288">
        <ele>264</ele>
        <time>2018-01-14T10:40:40Z</time>
      </trkpt>
      <trkpt lat="45.94385" lon="4.83293">
        <ele>264</ele>
        <time>2018-01-14T10:40:41Z</time>
      </trkpt>
      <trkpt lat="45.94387" lon="4.833">
        <ele>264</ele>
        <time>2018-01-14T10:40:42Z</time>
      </trkpt>
      <trkpt lat="45.94389" lon="4.83306">
        <ele>264</ele>
        <time>2018-01-14T10:40:43Z</time>
      </trkpt>
      <trkpt lat="45.94391" lon="4.83312">
        <ele>264</ele>
        <time>2018-01-14T10:40:44Z</time>
      </trkpt>
      <trkpt lat="45.94393" lon="4.83318">
        <ele>264</ele>
        <time>2018-01-14T10:40:45Z</time>
      </trkpt>
      <trkpt lat="45.94395" lon="4.83324">
        <ele>264</ele>
        <time>2018-01-14T10:40:46Z</time>
      </trkpt>
      <trkpt lat="45.94398" lon="4.83331">
        <ele>264</ele>
        <time>2018-01-14T10:40:47Z</time>
      </trkpt>
      <trkpt lat="45.944" lon="4.83337">
        <ele>263</ele>
        <time>2018-01-14T10:40:48Z</time>
      </trkpt>
      <trkpt lat="45.94403" lon="4.83345">
        <ele>263</ele>
        <time>2018-01-14T10:40:49Z</time>
      </trkpt>
      <trkpt lat="45.94406" lon="4.83351">
        <ele>263</ele>
        <time>2018-01-14T10:40:50Z</time>
      </trkpt>
      <trkpt lat="45.94408" lon="4.83358">
        <ele>264</ele>
        <time>2018-01-14T10:40:51Z</time>
      </trkpt>
      <trkpt lat="45.94411" lon="4.83365">
        <ele>264</ele>
        <time>2018-01-14T10:40:52Z</time>
      </trkpt>
      <trkpt lat="45.94413" lon="4.83371">
        <ele>264</ele>
        <time>2018-01-14T10:40:53Z</time>
      </trkpt>
      <trkpt lat="45.94416" lon="4.83378">
        <ele>264</ele>
        <time>2018-01-14T10:40:54Z</time>
      </trkpt>
      <trkpt lat="45.94419" lon="4.83383">
        <ele>264</ele>
        <time>2018-01-14T10:40:55Z</time>
      </trkpt>
      <trkpt lat="45.94422" lon="4.83389">
        <ele>264</ele>
        <time>2018-01-14T10:40:56Z</time>
      </trkpt>
      <trkpt lat="45.94424" lon="4.83396">
        <ele>264</ele>
        <time>2018-01-14T10:40:57Z</time>
      </trkpt>
      <trkpt lat="45.94427" lon="4.83402">
        <ele>264</ele>
        <time>2018-01-14T10:40:58Z</time>
      </trkpt>
      <trkpt lat="45.94433" lon="4.83412">
        <ele>264</ele>
        <time>2018-01-14T10:41:00Z</time>
      </trkpt>
      <trkpt lat="45.94435" lon="4.83418">
        <ele>264</ele>
        <time>2018-01-14T10:41:01Z</time>
      </trkpt>
      <trkpt lat="45.94438" lon="4.83423">
        <ele>264</ele>
        <time>2018-01-14T10:41:02Z</time>
      </trkpt>
      <trkpt lat="45.9444" lon="4.8343">
        <ele>264</ele>
        <time>2018-01-14T10:41:03Z</time>
      </trkpt>
      <trkpt lat="45.94443" lon="4.83436">
        <ele>263</ele>
        <time>2018-01-14T10:41:04Z</time>
      </trkpt>
      <trkpt lat="45.94446" lon="4.83442">
        <ele>263</ele>
        <time>2018-01-14T10:41:05Z</time>
      </trkpt>
      <trkpt lat="45.9445" lon="4.83449">
        <ele>263</ele>
        <time>2018-01-14T10:41:06Z</time>
      </trkpt>
      <trkpt lat="45.94453" lon="4.83456">
        <ele>263</ele>
        <time>2018-01-14T10:41:07Z</time>
      </trkpt>
      <trkpt lat="45.94457" lon="4.83462">
        <ele>263</ele>
        <time>2018-01-14T10:41:08Z</time>
      </trkpt>
      <trkpt lat="45.9446" lon="4.83468">
        <ele>263</ele>
        <time>2018-01-14T10:41:09Z</time>
      </trkpt>
      <trkpt lat="45.94464" lon="4.83475">
        <ele>263</ele>
        <time>2018-01-14T10:41:10Z</time>
      </trkpt>
      <trkpt lat="45.94468" lon="4.83482">
        <ele>263</ele>
        <time>2018-01-14T10:41:11Z</time>
      </trkpt>
      <trkpt lat="45.94471" lon="4.83489">
        <ele>263</ele>
        <time>2018-01-14T10:41:12Z</time>
      </trkpt>
      <trkpt lat="45.94475" lon="4.83495">
        <ele>263</ele>
        <time>2018-01-14T10:41:13Z</time>
      </trkpt>
      <trkpt lat="45.94479" lon="4.83499">
        <ele>263</ele>
        <time>2018-01-14T10:41:14Z</time>
      </trkpt>
      <trkpt lat="45.94483" lon="4.83504">
        <ele>262</ele>
        <time>2018-01-14T10:41:15Z</time>
      </trkpt>
      <trkpt lat="45.94486" lon="4.83509">
        <ele>262</ele>
        <time>2018-01-14T10:41:16Z</time>
      </trkpt>
      <trkpt lat="45.9449" lon="4.83515">
        <ele>262</ele>
        <time>2018-01-14T10:41:17Z</time>
      </trkpt>
      <trkpt lat="45.94494" lon="4.8352">
        <ele>262</ele>
        <time>2018-01-14T10:41:18Z</time>
      </trkpt>
      <trkpt lat="45.94497" lon="4.83525">
        <ele>262</ele>
        <time>2018-01-14T10:41:19Z</time>
      </trkpt>
      <trkpt lat="45.94501" lon="4.83532">
        <ele>262</ele>
        <time>2018-01-14T10:41:20Z</time>
      </trkpt>
      <trkpt lat="45.94505" lon="4.83538">
        <ele>262</ele>
        <time>2018-01-14T10:41:21Z</time>
      </trkpt>
      <trkpt lat="45.94508" lon="4.83544">
        <ele>261</ele>
        <time>2018-01-14T10:41:22Z</time>
      </trkpt>
      <trkpt lat="45.94512" lon="4.83551">
        <ele>261</ele>
        <time>2018-01-14T10:41:23Z</time>
      </trkpt>
      <trkpt lat="45.94515" lon="4.83556">
        <ele>261</ele>
        <time>2018-01-14T10:41:24Z</time>
      </trkpt>
      <trkpt lat="45.94519" lon="4.83563">
        <ele>261</ele>
        <time>2018-01-14T10:41:25Z</time>
      </trkpt>
      <trkpt lat="45.94523" lon="4.83567">
        <ele>261</ele>
        <time>2018-01-14T10:41:26Z</time>
      </trkpt>
      <trkpt lat="45.94528" lon="4.83574">
        <ele>261</ele>
        <time>2018-01-14T10:41:27Z</time>
      </trkpt>
      <trkpt lat="45.94532" lon="4.8358">
        <ele>261</ele>
        <time>2018-01-14T10:41:28Z</time>
      </trkpt>
      <trkpt lat="45.94536" lon="4.83585">
        <ele>261</ele>
        <time>2018-01-14T10:41:29Z</time>
      </trkpt>
      <trkpt lat="45.94541" lon="4.83593">
        <ele>261</ele>
        <time>2018-01-14T10:41:30Z</time>
      </trkpt>
      <trkpt lat="45.94545" lon="4.83598">
        <ele>261</ele>
        <time>2018-01-14T10:41:31Z</time>
      </trkpt>
      <trkpt lat="45.94549" lon="4.83603">
        <ele>261</ele>
        <time>2018-01-14T10:41:32Z</time>
      </trkpt>
      <trkpt lat="45.94553" lon="4.83608">
        <ele>261</ele>
        <time>2018-01-14T10:41:33Z</time>
      </trkpt>
      <trkpt lat="45.94557" lon="4.83613">
        <ele>261</ele>
        <time>2018-01-14T10:41:34Z</time>
      </trkpt>
      <trkpt lat="45.9456" lon="4.83616">
        <ele>261</ele>
        <time>2018-01-14T10:41:35Z</time>
      </trkpt>
      <trkpt lat="45.94565" lon="4.83621">
        <ele>261</ele>
        <time>2018-01-14T10:41:36Z</time>
      </trkpt>
      <trkpt lat="45.94569" lon="4.83626">
        <ele>261</ele>
        <time>2018-01-14T10:41:37Z</time>
      </trkpt>
      <trkpt lat="45.94572" lon="4.83632">
        <ele>261</ele>
        <time>2018-01-14T10:41:38Z</time>
      </trkpt>
      <trkpt lat="45.94575" lon="4.83637">
        <ele>261</ele>
        <time>2018-01-14T10:41:39Z</time>
      </trkpt>
      <trkpt lat="45.94579" lon="4.83642">
        <ele>261</ele>
        <time>2018-01-14T10:41:40Z</time>
      </trkpt>
      <trkpt lat="45.94584" lon="4.83646">
        <ele>260</ele>
        <time>2018-01-14T10:41:41Z</time>
      </trkpt>
      <trkpt lat="45.94588" lon="4.83649">
        <ele>260</ele>
        <time>2018-01-14T10:41:42Z</time>
      </trkpt>
      <trkpt lat="45.94593" lon="4.83653">
        <ele>261</ele>
        <time>2018-01-14T10:41:43Z</time>
      </trkpt>
      <trkpt lat="45.94597" lon="4.83657">
        <ele>261</ele>
        <time>2018-01-14T10:41:44Z</time>
      </trkpt>
      <trkpt lat="45.94602" lon="4.83659">
        <ele>260</ele>
        <time>2018-01-14T10:41:45Z</time>
      </trkpt>
      <trkpt lat="45.94606" lon="4.83663">
        <ele>260</ele>
        <time>2018-01-14T10:41:46Z</time>
      </trkpt>
      <trkpt lat="45.94611" lon="4.83666">
        <ele>260</ele>
        <time>2018-01-14T10:41:47Z</time>
      </trkpt>
      <trkpt lat="45.94616" lon="4.83671">
        <ele>261</ele>
        <time>2018-01-14T10:41:48Z</time>
      </trkpt>
      <trkpt lat="45.94621" lon="4.83675">
        <ele>261</ele>
        <time>2018-01-14T10:41:49Z</time>
      </trkpt>
      <trkpt lat="45.94627" lon="4.83681">
        <ele>261</ele>
        <time>2018-01-14T10:41:50Z</time>
      </trkpt>
      <trkpt lat="45.94632" lon="4.83686">
        <ele>261</ele>
        <time>2018-01-14T10:41:51Z</time>
      </trkpt>
      <trkpt lat="45.94637" lon="4.8369">
        <ele>261</ele>
        <time>2018-01-14T10:41:52Z</time>
      </trkpt>
      <trkpt lat="45.94641" lon="4.83695">
        <ele>261</ele>
        <time>2018-01-14T10:41:53Z</time>
      </trkpt>
      <trkpt lat="45.94647" lon="4.837">
        <ele>261</ele>
        <time>2018-01-14T10:41:54Z</time>
      </trkpt>
      <trkpt lat="45.94651" lon="4.83705">
        <ele>261</ele>
        <time>2018-01-14T10:41:55Z</time>
      </trkpt>
      <trkpt lat="45.94656" lon="4.8371">
        <ele>261</ele>
        <time>2018-01-14T10:41:56Z</time>
      </trkpt>
      <trkpt lat="45.94661" lon="4.83715">
        <ele>261</ele>
        <time>2018-01-14T10:41:57Z</time>
      </trkpt>
      <trkpt lat="45.94666" lon="4.8372">
        <ele>261</ele>
        <time>2018-01-14T10:41:58Z</time>
      </trkpt>
      <trkpt lat="45.94671" lon="4.83725">
        <ele>261</ele>
        <time>2018-01-14T10:41:59Z</time>
      </trkpt>
      <trkpt lat="45.94676" lon="4.8373">
        <ele>262</ele>
        <time>2018-01-14T10:42:00Z</time>
      </trkpt>
      <trkpt lat="45.9468" lon="4.83735">
        <ele>262</ele>
        <time>2018-01-14T10:42:01Z</time>
      </trkpt>
      <trkpt lat="45.94685" lon="4.83741">
        <ele>262</ele>
        <time>2018-01-14T10:42:02Z</time>
      </trkpt>
      <trkpt lat="45.9469" lon="4.83745">
        <ele>262</ele>
        <time>2018-01-14T10:42:03Z</time>
      </trkpt>
      <trkpt lat="45.94694" lon="4.83749">
        <ele>262</ele>
        <time>2018-01-14T10:42:04Z</time>
      </trkpt>
      <trkpt lat="45.94698" lon="4.83754">
        <ele>263</ele>
        <time>2018-01-14T10:42:05Z</time>
      </trkpt>
      <trkpt lat="45.94703" lon="4.83759">
        <ele>263</ele>
        <time>2018-01-14T10:42:06Z</time>
      </trkpt>
      <trkpt lat="45.94707" lon="4.83764">
        <ele>263</ele>
        <time>2018-01-14T10:42:07Z</time>
      </trkpt>
      <trkpt lat="45.94711" lon="4.83768">
        <ele>263</ele>
        <time>2018-01-14T10:42:08Z</time>
      </trkpt>
      <trkpt lat="45.94715" lon="4.83773">
        <ele>263</ele>
        <time>2018-01-14T10:42:09Z</time>
      </trkpt>
      <trkpt lat="45.94719" lon="4.83778">
        <ele>263</ele>
        <time>2018-01-14T10:42:10Z</time>
      </trkpt>
      <trkpt lat="45.94723" lon="4.83782">
        <ele>263</ele>
        <time>2018-01-14T10:42:11Z</time>
      </trkpt>
      <trkpt lat="45.94727" lon="4.83787">
        <ele>263</ele>
        <time>2018-01-14T10:42:12Z</time>
      </trkpt>
      <trkpt lat="45.94731" lon="4.83792">
        <ele>264</ele>
        <time>2018-01-14T10:42:13Z</time>
      </trkpt>
      <trkpt lat="45.94737" lon="4.838">
        <ele>264</ele>
        <time>2018-01-14T10:42:15Z</time>
      </trkpt>
      <trkpt lat="45.9474" lon="4.83805">
        <ele>264</ele>
        <time>2018-01-14T10:42:16Z</time>
      </trkpt>
      <trkpt lat="45.94744" lon="4.83809">
        <ele>264</ele>
        <time>2018-01-14T10:42:17Z</time>
      </trkpt>
      <trkpt lat="45.94748" lon="4.83813">
        <ele>264</ele>
        <time>2018-01-14T10:42:18Z</time>
      </trkpt>
      <trkpt lat="45.94751" lon="4.83818">
        <ele>264</ele>
        <time>2018-01-14T10:42:19Z</time>
      </trkpt>
      <trkpt lat="45.94754" lon="4.83822">
        <ele>264</ele>
        <time>2018-01-14T10:42:20Z</time>
      </trkpt>
      <trkpt lat="45.94758" lon="4.83826">
        <ele>264</ele>
        <time>2018-01-14T10:42:21Z</time>
      </trkpt>
      <trkpt lat="45.94762" lon="4.8383">
        <ele>264</ele>
        <time>2018-01-14T10:42:22Z</time>
      </trkpt>
      <trkpt lat="45.94768" lon="4.83838">
        <ele>265</ele>
        <time>2018-01-14T10:42:24Z</time>
      </trkpt>
      <trkpt lat="45.94771" lon="4.83843">
        <ele>265</ele>
        <time>2018-01-14T10:42:25Z</time>
      </trkpt>
      <trkpt lat="45.94777" lon="4.83852">
        <ele>265</ele>
        <time>2018-01-14T10:42:27Z</time>
      </trkpt>
      <trkpt lat="45.9478" lon="4.83857">
        <ele>265</ele>
        <time>2018-01-14T10:42:28Z</time>
      </trkpt>
      <trkpt lat="45.94783" lon="4.83863">
        <ele>265</ele>
        <time>2018-01-14T10:42:29Z</time>
      </trkpt>
      <trkpt lat="45.94786" lon="4.83868">
        <ele>265</ele>
        <time>2018-01-14T10:42:30Z</time>
      </trkpt>
      <trkpt lat="45.94792" lon="4.83876">
        <ele>266</ele>
        <time>2018-01-14T10:42:32Z</time>
      </trkpt>
      <trkpt lat="45.94795" lon="4.8388">
        <ele>266</ele>
        <time>2018-01-14T10:42:33Z</time>
      </trkpt>
      <trkpt lat="45.94801" lon="4.8389">
        <ele>265</ele>
        <time>2018-01-14T10:42:35Z</time>
      </trkpt>
      <trkpt lat="45.94804" lon="4.83896">
        <ele>265</ele>
        <time>2018-01-14T10:42:36Z</time>
      </trkpt>
      <trkpt lat="45.94807" lon="4.83901">
        <ele>265</ele>
        <time>2018-01-14T10:42:37Z</time>
      </trkpt>
      <trkpt lat="45.94811" lon="4.83907">
        <ele>265</ele>
        <time>2018-01-14T10:42:38Z</time>
      </trkpt>
      <trkpt lat="45.94814" lon="4.83912">
        <ele>265</ele>
        <time>2018-01-14T10:42:39Z</time>
      </trkpt>
      <trkpt lat="45.94816" lon="4.83918">
        <ele>266</ele>
        <time>2018-01-14T10:42:40Z</time>
      </trkpt>
      <trkpt lat="45.94822" lon="4.83928">
        <ele>266</ele>
        <time>2018-01-14T10:42:42Z</time>
      </trkpt>
      <trkpt lat="45.94824" lon="4.83932">
        <ele>266</ele>
        <time>2018-01-14T10:42:43Z</time>
      </trkpt>
      <trkpt lat="45.94829" lon="4.83942">
        <ele>266</ele>
        <time>2018-01-14T10:42:45Z</time>
      </trkpt>
      <trkpt lat="45.94832" lon="4.83947">
        <ele>266</ele>
        <time>2018-01-14T10:42:46Z</time>
      </trkpt>
      <trkpt lat="45.94834" lon="4.83952">
        <ele>265</ele>
        <time>2018-01-14T10:42:47Z</time>
      </trkpt>
      <trkpt lat="45.94837" lon="4.83958">
        <ele>265</ele>
        <time>2018-01-14T10:42:48Z</time>
      </trkpt>
      <trkpt lat="45.9484" lon="4.83963">
        <ele>265</ele>
        <time>2018-01-14T10:42:49Z</time>
      </trkpt>
      <trkpt lat="45.94842" lon="4.83969">
        <ele>265</ele>
        <time>2018-01-14T10:42:50Z</time>
      </trkpt>
      <trkpt lat="45.94845" lon="4.83975">
        <ele>265</ele>
        <time>2018-01-14T10:42:51Z</time>
      </trkpt>
      <trkpt lat="45.94847" lon="4.83981">
        <ele>265</ele>
        <time>2018-01-14T10:42:52Z</time>
      </trkpt>
      <trkpt lat="45.9485" lon="4.83987">
        <ele>265</ele>
        <time>2018-01-14T10:42:53Z</time>
      </trkpt>
      <trkpt lat="45.94853" lon="4.83993">
        <ele>265</ele>
        <time>2018-01-14T10:42:54Z</time>
      </trkpt>
      <trkpt lat="45.94855" lon="4.83999">
        <ele>265</ele>
        <time>2018-01-14T10:42:55Z</time>
      </trkpt>
      <trkpt lat="45.94856" lon="4.84005">
        <ele>266</ele>
        <time>2018-01-14T10:42:56Z</time>
      </trkpt>
      <trkpt lat="45.94858" lon="4.84013">
        <ele>266</ele>
        <time>2018-01-14T10:42:57Z</time>
      </trkpt>
      <trkpt lat="45.9486" lon="4.84018">
        <ele>266</ele>
        <time>2018-01-14T10:42:58Z</time>
      </trkpt>
      <trkpt lat="45.94863" lon="4.84026">
        <ele>266</ele>
        <time>2018-01-14T10:42:59Z</time>
      </trkpt>
      <trkpt lat="45.94865" lon="4.84031">
        <ele>266</ele>
        <time>2018-01-14T10:43:00Z</time>
      </trkpt>
      <trkpt lat="45.94867" lon="4.84037">
        <ele>266</ele>
        <time>2018-01-14T10:43:01Z</time>
      </trkpt>
      <trkpt lat="45.94869" lon="4.84043">
        <ele>266</ele>
        <time>2018-01-14T10:43:02Z</time>
      </trkpt>
      <trkpt lat="45.94871" lon="4.84049">
        <ele>267</ele>
        <time>2018-01-14T10:43:03Z</time>
      </trkpt>
      <trkpt lat="45.94872" lon="4.84056">
        <ele>267</ele>
        <time>2018-01-14T10:43:04Z</time>
      </trkpt>
      <trkpt lat="45.94876" lon="4.84062">
        <ele>267</ele>
        <time>2018-01-14T10:43:05Z</time>
      </trkpt>
      <trkpt lat="45.94878" lon="4.84068">
        <ele>267</ele>
        <time>2018-01-14T10:43:06Z</time>
      </trkpt>
      <trkpt lat="45.9488" lon="4.84075">
        <ele>267</ele>
        <time>2018-01-14T10:43:07Z</time>
      </trkpt>
      <trkpt lat="45.94883" lon="4.84081">
        <ele>267</ele>
        <time>2018-01-14T10:43:08Z</time>
      </trkpt>
      <trkpt lat="45.94885" lon="4.84087">
        <ele>267</ele>
        <time>2018-01-14T10:43:09Z</time>
      </trkpt>
      <trkpt lat="45.94888" lon="4.84093">
        <ele>267</ele>
        <time>2018-01-14T10:43:10Z</time>
      </trkpt>
      <trkpt lat="45.94892" lon="4.84103">
        <ele>267</ele>
        <time>2018-01-14T10:43:12Z</time>
      </trkpt>
      <trkpt lat="45.94895" lon="4.8411">
        <ele>267</ele>
        <time>2018-01-14T10:43:13Z</time>
      </trkpt>
      <trkpt lat="45.949" lon="4.8412">
        <ele>267</ele>
        <time>2018-01-14T10:43:15Z</time>
      </trkpt>
      <trkpt lat="45.94903" lon="4.84125">
        <ele>267</ele>
        <time>2018-01-14T10:43:16Z</time>
      </trkpt>
      <trkpt lat="45.94906" lon="4.84131">
        <ele>268</ele>
        <time>2018-01-14T10:43:17Z</time>
      </trkpt>
      <trkpt lat="45.94909" lon="4.84136">
        <ele>268</ele>
        <time>2018-01-14T10:43:18Z</time>
      </trkpt>
      <trkpt lat="45.94913" lon="4.84143">
        <ele>268</ele>
        <time>2018-01-14T10:43:19Z</time>
      </trkpt>
      <trkpt lat="45.94917" lon="4.84148">
        <ele>268</ele>
        <time>2018-01-14T10:43:20Z</time>
      </trkpt>
      <trkpt lat="45.9492" lon="4.84154">
        <ele>268</ele>
        <time>2018-01-14T10:43:21Z</time>
      </trkpt>
      <trkpt lat="45.94923" lon="4.84159">
        <ele>268</ele>
        <time>2018-01-14T10:43:22Z</time>
      </trkpt>
      <trkpt lat="45.94927" lon="4.84164">
        <ele>268</ele>
        <time>2018-01-14T10:43:23Z</time>
      </trkpt>
      <trkpt lat="45.9493" lon="4.84169">
        <ele>268</ele>
        <time>2018-01-14T10:43:24Z</time>
      </trkpt>
      <trkpt lat="45.94933" lon="4.84175">
        <ele>267</ele>
        <time>2018-01-14T10:43:25Z</time>
      </trkpt>
      <trkpt lat="45.94937" lon="4.8418">
        <ele>267</ele>
        <time>2018-01-14T10:43:26Z</time>
      </trkpt>
      <trkpt lat="45.9494" lon="4.84185">
        <ele>267</ele>
        <time>2018-01-14T10:43:27Z</time>
      </trkpt>
      <trkpt lat="45.94945" lon="4.84188">
        <ele>267</ele>
        <time>2018-01-14T10:43:28Z</time>
      </trkpt>
      <trkpt lat="45.94948" lon="4.84194">
        <ele>267</ele>
        <time>2018-01-14T10:43:29Z</time>
      </trkpt>
      <trkpt lat="45.94952" lon="4.842">
        <ele>267</ele>
        <time>2018-01-14T10:43:30Z</time>
      </trkpt>
      <trkpt lat="45.94957" lon="4.84209">
        <ele>267</ele>
        <time>2018-01-14T10:43:32Z</time>
      </trkpt>
      <trkpt lat="45.9496" lon="4.84213">
        <ele>267</ele>
        <time>2018-01-14T10:43:33Z</time>
      </trkpt>
      <trkpt lat="45.94964" lon="4.84218">
        <ele>267</ele>
        <time>2018-01-14T10:43:34Z</time>
      </trkpt>
      <trkpt lat="45.94967" lon="4.84223">
        <ele>267</ele>
        <time>2018-01-14T10:43:35Z</time>
      </trkpt>
      <trkpt lat="45.9497" lon="4.84228">
        <ele>267</ele>
        <time>2018-01-14T10:43:36Z</time>
      </trkpt>
      <trkpt lat="45.94973" lon="4.84234">
        <ele>267</ele>
        <time>2018-01-14T10:43:37Z</time>
      </trkpt>
      <trkpt lat="45.94976" lon="4.84238">
        <ele>267</ele>
        <time>2018-01-14T10:43:38Z</time>
      </trkpt>
      <trkpt lat="45.94979" lon="4.84243">
        <ele>267</ele>
        <time>2018-01-14T10:43:39Z</time>
      </trkpt>
      <trkpt lat="45.94984" lon="4.84252">
        <ele>267</ele>
        <time>2018-01-14T10:43:41Z</time>
      </trkpt>
      <trkpt lat="45.94986" lon="4.84256">
        <ele>267</ele>
        <time>2018-01-14T10:43:42Z</time>
      </trkpt>
      <trkpt lat="45.94992" lon="4.84265">
        <ele>267</ele>
        <time>2018-01-14T10:43:44Z</time>
      </trkpt>
      <trkpt lat="45.94995" lon="4.84269">
        <ele>267</ele>
        <time>2018-01-14T10:43:45Z</time>
      </trkpt>
      <trkpt lat="45.94998" lon="4.84274">
        <ele>267</ele>
        <time>2018-01-14T10:43:46Z</time>
      </trkpt>
      <trkpt lat="45.95002" lon="4.84278">
        <ele>267</ele>
        <time>2018-01-14T10:43:47Z</time>
      </trkpt>
      <trkpt lat="45.95005" lon="4.84284">
        <ele>267</ele>
        <time>2018-01-14T10:43:48Z</time>
      </trkpt>
      <trkpt lat="45.95008" lon="4.84289">
        <ele>267</ele>
        <time>2018-01-14T10:43:49Z</time>
      </trkpt>
      <trkpt lat="45.95012" lon="4.84299">
        <ele>267</ele>
        <time>2018-01-14T10:43:51Z</time>
      </trkpt>
      <trkpt lat="45.95015" lon="4.84304">
        <ele>267</ele>
        <time>2018-01-14T10:43:52Z</time>
      </trkpt>
      <trkpt lat="45.9502" lon="4.84313">
        <ele>267</ele>
        <time>2018-01-14T10:43:54Z</time>
      </trkpt>
      <trkpt lat="45.95023" lon="4.84318">
        <ele>267</ele>
        <time>2018-01-14T10:43:55Z</time>
      </trkpt>
      <trkpt lat="45.95026" lon="4.84322">
        <ele>267</ele>
        <time>2018-01-14T10:43:56Z</time>
      </trkpt>
      <trkpt lat="45.95029" lon="4.84328">
        <ele>267</ele>
        <time>2018-01-14T10:43:57Z</time>
      </trkpt>
      <trkpt lat="45.95032" lon="4.84333">
        <ele>267</ele>
        <time>2018-01-14T10:43:58Z</time>
      </trkpt>
      <trkpt lat="45.95035" lon="4.84339">
        <ele>267</ele>
        <time>2018-01-14T10:43:59Z</time>
      </trkpt>
      <trkpt lat="45.95038" lon="4.84345">
        <ele>267</ele>
        <time>2018-01-14T10:44:00Z</time>
      </trkpt>
      <trkpt lat="45.95042" lon="4.8435">
        <ele>267</ele>
        <time>2018-01-14T10:44:01Z</time>
      </trkpt>
      <trkpt lat="45.95046" lon="4.84357">
        <ele>267</ele>
        <time>2018-01-14T10:44:02Z</time>
      </trkpt>
      <trkpt lat="45.9505" lon="4.84364">
        <ele>267</ele>
        <time>2018-01-14T10:44:03Z</time>
      </trkpt>
      <trkpt lat="45.95054" lon="4.84371">
        <ele>267</ele>
        <time>2018-01-14T10:44:04Z</time>
      </trkpt>
      <trkpt lat="45.95058" lon="4.84378">
        <ele>267</ele>
        <time>2018-01-14T10:44:05Z</time>
      </trkpt>
      <trkpt lat="45.95062" lon="4.84383">
        <ele>267</ele>
        <time>2018-01-14T10:44:06Z</time>
      </trkpt>
      <trkpt lat="45.95067" lon="4.84388">
        <ele>267</ele>
        <time>2018-01-14T10:44:07Z</time>
      </trkpt>
      <trkpt lat="45.95071" lon="4.84393">
        <ele>267</ele>
        <time>2018-01-14T10:44:08Z</time>
      </trkpt>
      <trkpt lat="45.95076" lon="4.84398">
        <ele>267</ele>
        <time>2018-01-14T10:44:09Z</time>
      </trkpt>
      <trkpt lat="45.9508" lon="4.84403">
        <ele>267</ele>
        <time>2018-01-14T10:44:10Z</time>
      </trkpt>
      <trkpt lat="45.95085" lon="4.84409">
        <ele>267</ele>
        <time>2018-01-14T10:44:11Z</time>
      </trkpt>
      <trkpt lat="45.9509" lon="4.84414">
        <ele>267</ele>
        <time>2018-01-14T10:44:12Z</time>
      </trkpt>
      <trkpt lat="45.95094" lon="4.84419">
        <ele>267</ele>
        <time>2018-01-14T10:44:13Z</time>
      </trkpt>
      <trkpt lat="45.95099" lon="4.84423">
        <ele>267</ele>
        <time>2018-01-14T10:44:14Z</time>
      </trkpt>
      <trkpt lat="45.95104" lon="4.84428">
        <ele>267</ele>
        <time>2018-01-14T10:44:15Z</time>
      </trkpt>
      <trkpt lat="45.95109" lon="4.84432">
        <ele>267</ele>
        <time>2018-01-14T10:44:16Z</time>
      </trkpt>
      <trkpt lat="45.95114" lon="4.84436">
        <ele>267</ele>
        <time>2018-01-14T10:44:17Z</time>
      </trkpt>
      <trkpt lat="45.95119" lon="4.8444">
        <ele>267</ele>
        <time>2018-01-14T10:44:18Z</time>
      </trkpt>
      <trkpt lat="45.95123" lon="4.84445">
        <ele>267</ele>
        <time>2018-01-14T10:44:19Z</time>
      </trkpt>
      <trkpt lat="45.95128" lon="4.84449">
        <ele>267</ele>
        <time>2018-01-14T10:44:20Z</time>
      </trkpt>
      <trkpt lat="45.95133" lon="4.84453">
        <ele>267</ele>
        <time>2018-01-14T10:44:21Z</time>
      </trkpt>
      <trkpt lat="45.95138" lon="4.84458">
        <ele>267</ele>
        <time>2018-01-14T10:44:22Z</time>
      </trkpt>
      <trkpt lat="45.95142" lon="4.84463">
        <ele>266</ele>
        <time>2018-01-14T10:44:23Z</time>
      </trkpt>
      <trkpt lat="45.95147" lon="4.84469">
        <ele>266</ele>
        <time>2018-01-14T10:44:24Z</time>
      </trkpt>
      <trkpt lat="45.95151" lon="4.84475">
        <ele>266</ele>
        <time>2018-01-14T10:44:25Z</time>
      </trkpt>
      <trkpt lat="45.95156" lon="4.84479">
        <ele>266</ele>
        <time>2018-01-14T10:44:26Z</time>
      </trkpt>
      <trkpt lat="45.95161" lon="4.84485">
        <ele>266</ele>
        <time>2018-01-14T10:44:27Z</time>
      </trkpt>
      <trkpt lat="45.95166" lon="4.84491">
        <ele>266</ele>
        <time>2018-01-14T10:44:28Z</time>
      </trkpt>
      <trkpt lat="45.9517" lon="4.84496">
        <ele>266</ele>
        <time>2018-01-14T10:44:29Z</time>
      </trkpt>
      <trkpt lat="45.95175" lon="4.84503">
        <ele>266</ele>
        <time>2018-01-14T10:44:30Z</time>
      </trkpt>
      <trkpt lat="45.9518" lon="4.84509">
        <ele>265</ele>
        <time>2018-01-14T10:44:31Z</time>
      </trkpt>
      <trkpt lat="45.95185" lon="4.84514">
        <ele>265</ele>
        <time>2018-01-14T10:44:32Z</time>
      </trkpt>
      <trkpt lat="45.9519" lon="4.8452">
        <ele>265</ele>
        <time>2018-01-14T10:44:33Z</time>
      </trkpt>
      <trkpt lat="45.95195" lon="4.84526">
        <ele>265</ele>
        <time>2018-01-14T10:44:34Z</time>
      </trkpt>
      <trkpt lat="45.952" lon="4.84532">
        <ele>265</ele>
        <time>2018-01-14T10:44:35Z</time>
      </trkpt>
      <trkpt lat="45.95204" lon="4.84538">
        <ele>265</ele>
        <time>2018-01-14T10:44:36Z</time>
      </trkpt>
      <trkpt lat="45.95209" lon="4.84544">
        <ele>264</ele>
        <time>2018-01-14T10:44:37Z</time>
      </trkpt>
      <trkpt lat="45.95213" lon="4.8455">
        <ele>264</ele>
        <time>2018-01-14T10:44:38Z</time>
      </trkpt>
      <trkpt lat="45.95217" lon="4.84556">
        <ele>264</ele>
        <time>2018-01-14T10:44:39Z</time>
      </trkpt>
      <trkpt lat="45.95222" lon="4.8456">
        <ele>264</ele>
        <time>2018-01-14T10:44:40Z</time>
      </trkpt>
      <trkpt lat="45.95226" lon="4.84564">
        <ele>264</ele>
        <time>2018-01-14T10:44:41Z</time>
      </trkpt>
      <trkpt lat="45.9523" lon="4.84569">
        <ele>264</ele>
        <time>2018-01-14T10:44:42Z</time>
      </trkpt>
      <trkpt lat="45.95234" lon="4.84573">
        <ele>264</ele>
        <time>2018-01-14T10:44:43Z</time>
      </trkpt>
      <trkpt lat="45.95238" lon="4.84577">
        <ele>264</ele>
        <time>2018-01-14T10:44:44Z</time>
      </trkpt>
      <trkpt lat="45.95242" lon="4.84583">
        <ele>264</ele>
        <time>2018-01-14T10:44:45Z</time>
      </trkpt>
      <trkpt lat="45.95245" lon="4.84588">
        <ele>264</ele>
        <time>2018-01-14T10:44:46Z</time>
      </trkpt>
      <trkpt lat="45.9525" lon="4.84594">
        <ele>264</ele>
        <time>2018-01-14T10:44:47Z</time>
      </trkpt>
      <trkpt lat="45.95254" lon="4.846">
        <ele>264</ele>
        <time>2018-01-14T10:44:48Z</time>
      </trkpt>
      <trkpt lat="45.95259" lon="4.84605">
        <ele>264</ele>
        <time>2018-01-14T10:44:49Z</time>
      </trkpt>
      <trkpt lat="45.95264" lon="4.8461">
        <ele>264</ele>
        <time>2018-01-14T10:44:50Z</time>
      </trkpt>
      <trkpt lat="45.95269" lon="4.84616">
        <ele>264</ele>
        <time>2018-01-14T10:44:51Z</time>
      </trkpt>
      <trkpt lat="45.95273" lon="4.84622">
        <ele>264</ele>
        <time>2018-01-14T10:44:52Z</time>
      </trkpt>
      <trkpt lat="45.95279" lon="4.84628">
        <ele>264</ele>
        <time>2018-01-14T10:44:53Z</time>
      </trkpt>
      <trkpt lat="45.95283" lon="4.84633">
        <ele>264</ele>
        <time>2018-01-14T10:44:54Z</time>
      </trkpt>
      <trkpt lat="45.95287" lon="4.84638">
        <ele>264</ele>
        <time>2018-01-14T10:44:55Z</time>
      </trkpt>
      <trkpt lat="45.95291" lon="4.84643">
        <ele>264</ele>
        <time>2018-01-14T10:44:56Z</time>
      </trkpt>
      <trkpt lat="45.95296" lon="4.84647">
        <ele>264</ele>
        <time>2018-01-14T10:44:57Z</time>
      </trkpt>
      <trkpt lat="45.95301" lon="4.84651">
        <ele>264</ele>
        <time>2018-01-14T10:44:58Z</time>
      </trkpt>
      <trkpt lat="45.95304" lon="4.84655">
        <ele>265</ele>
        <time>2018-01-14T10:44:59Z</time>
      </trkpt>
      <trkpt lat="45.95308" lon="4.84662">
        <ele>265</ele>
        <time>2018-01-14T10:45:00Z</time>
      </trkpt>
      <trkpt lat="45.95312" lon="4.84666">
        <ele>265</ele>
        <time>2018-01-14T10:45:01Z</time>
      </trkpt>
      <trkpt lat="45.95316" lon="4.84671">
        <ele>265</ele>
        <time>2018-01-14T10:45:02Z</time>
      </trkpt>
      <trkpt lat="45.95321" lon="4.84674">
        <ele>265</ele>
        <time>2018-01-14T10:45:03Z</time>
      </trkpt>
      <trkpt lat="45.95325" lon="4.84677">
        <ele>265</ele>
        <time>2018-01-14T10:45:04Z</time>
      </trkpt>
      <trkpt lat="45.9533" lon="4.8468">
        <ele>265</ele>
        <time>2018-01-14T10:45:05Z</time>
      </trkpt>
      <trkpt lat="45.95334" lon="4.84683">
        <ele>265</ele>
        <time>2018-01-14T10:45:06Z</time>
      </trkpt>
      <trkpt lat="45.95338" lon="4.84687">
        <ele>266</ele>
        <time>2018-01-14T10:45:07Z</time>
      </trkpt>
      <trkpt lat="45.95343" lon="4.84691">
        <ele>266</ele>
        <time>2018-01-14T10:45:08Z</time>
      </trkpt>
      <trkpt lat="45.95347" lon="4.84694">
        <ele>266</ele>
        <time>2018-01-14T10:45:09Z</time>
      </trkpt>
      <trkpt lat="45.95352" lon="4.84698">
        <ele>266</ele>
        <time>2018-01-14T10:45:10Z</time>
      </trkpt>
      <trkpt lat="45.95356" lon="4.84702">
        <ele>266</ele>
        <time>2018-01-14T10:45:11Z</time>
      </trkpt>
      <trkpt lat="45.9536" lon="4.84705">
        <ele>266</ele>
        <time>2018-01-14T10:45:12Z</time>
      </trkpt>
      <trkpt lat="45.95365" lon="4.84709">
        <ele>266</ele>
        <time>2018-01-14T10:45:13Z</time>
      </trkpt>
      <trkpt lat="45.95369" lon="4.84712">
        <ele>266</ele>
        <time>2018-01-14T10:45:14Z</time>
      </trkpt>
      <trkpt lat="45.95374" lon="4.84716">
        <ele>266</ele>
        <time>2018-01-14T10:45:15Z</time>
      </trkpt>
      <trkpt lat="45.95378" lon="4.84719">
        <ele>266</ele>
        <time>2018-01-14T10:45:16Z</time>
      </trkpt>
      <trkpt lat="45.95383" lon="4.84723">
        <ele>266</ele>
        <time>2018-01-14T10:45:17Z</time>
      </trkpt>
      <trkpt lat="45.95387" lon="4.84726">
        <ele>266</ele>
        <time>2018-01-14T10:45:18Z</time>
      </trkpt>
      <trkpt lat="45.95392" lon="4.8473">
        <ele>266</ele>
        <time>2018-01-14T10:45:19Z</time>
      </trkpt>
      <trkpt lat="45.95396" lon="4.84733">
        <ele>266</ele>
        <time>2018-01-14T10:45:20Z</time>
      </trkpt>
      <trkpt lat="45.954" lon="4.84737">
        <ele>266</ele>
        <time>2018-01-14T10:45:21Z</time>
      </trkpt>
      <trkpt lat="45.95408" lon="4.84742">
        <ele>267</ele>
        <time>2018-01-14T10:45:23Z</time>
      </trkpt>
      <trkpt lat="45.95411" lon="4.84745">
        <ele>267</ele>
        <time>2018-01-14T10:45:24Z</time>
      </trkpt>
      <trkpt lat="45.95418" lon="4.84752">
        <ele>267</ele>
        <time>2018-01-14T10:45:26Z</time>
      </trkpt>
      <trkpt lat="45.95421" lon="4.84756">
        <ele>267</ele>
        <time>2018-01-14T10:45:27Z</time>
      </trkpt>
      <trkpt lat="45.95427" lon="4.84763">
        <ele>267</ele>
        <time>2018-01-14T10:45:29Z</time>
      </trkpt>
      <trkpt lat="45.95431" lon="4.84765">
        <ele>267</ele>
        <time>2018-01-14T10:45:30Z</time>
      </trkpt>
      <trkpt lat="45.95438" lon="4.84772">
        <ele>267</ele>
        <time>2018-01-14T10:45:32Z</time>
      </trkpt>
      <trkpt lat="45.95441" lon="4.84775">
        <ele>267</ele>
        <time>2018-01-14T10:45:33Z</time>
      </trkpt>
      <trkpt lat="45.95447" lon="4.84782">
        <ele>267</ele>
        <time>2018-01-14T10:45:35Z</time>
      </trkpt>
      <trkpt lat="45.9545" lon="4.84786">
        <ele>267</ele>
        <time>2018-01-14T10:45:36Z</time>
      </trkpt>
      <trkpt lat="45.95456" lon="4.84793">
        <ele>267</ele>
        <time>2018-01-14T10:45:38Z</time>
      </trkpt>
      <trkpt lat="45.95459" lon="4.84796">
        <ele>267</ele>
        <time>2018-01-14T10:45:39Z</time>
      </trkpt>
      <trkpt lat="45.95465" lon="4.84805">
        <ele>267</ele>
        <time>2018-01-14T10:45:41Z</time>
      </trkpt>
      <trkpt lat="45.95468" lon="4.84809">
        <ele>267</ele>
        <time>2018-01-14T10:45:42Z</time>
      </trkpt>
      <trkpt lat="45.95474" lon="4.84817">
        <ele>267</ele>
        <time>2018-01-14T10:45:44Z</time>
      </trkpt>
      <trkpt lat="45.95478" lon="4.84821">
        <ele>267</ele>
        <time>2018-01-14T10:45:45Z</time>
      </trkpt>
      <trkpt lat="45.95482" lon="4.84827">
        <ele>267</ele>
        <time>2018-01-14T10:45:46Z</time>
      </trkpt>
      <trkpt lat="45.95486" lon="4.84832">
        <ele>267</ele>
        <time>2018-01-14T10:45:47Z</time>
      </trkpt>
      <trkpt lat="45.9549" lon="4.84837">
        <ele>267</ele>
        <time>2018-01-14T10:45:48Z</time>
      </trkpt>
      <trkpt lat="45.95493" lon="4.84841">
        <ele>267</ele>
        <time>2018-01-14T10:45:49Z</time>
      </trkpt>
      <trkpt lat="45.95499" lon="4.8485">
        <ele>268</ele>
        <time>2018-01-14T10:45:51Z</time>
      </trkpt>
      <trkpt lat="45.95503" lon="4.84854">
        <ele>268</ele>
        <time>2018-01-14T10:45:52Z</time>
      </trkpt>
      <trkpt lat="45.95506" lon="4.84858">
        <ele>268</ele>
        <time>2018-01-14T10:45:53Z</time>
      </trkpt>
      <trkpt lat="45.9551" lon="4.84862">
        <ele>268</ele>
        <time>2018-01-14T10:45:54Z</time>
      </trkpt>
      <trkpt lat="45.95513" lon="4.84868">
        <ele>268</ele>
        <time>2018-01-14T10:45:55Z</time>
      </trkpt>
      <trkpt lat="45.95517" lon="4.84871">
        <ele>268</ele>
        <time>2018-01-14T10:45:56Z</time>
      </trkpt>
      <trkpt lat="45.95524" lon="4.84879">
        <ele>268</ele>
        <time>2018-01-14T10:45:58Z</time>
      </trkpt>
      <trkpt lat="45.95528" lon="4.84882">
        <ele>268</ele>
        <time>2018-01-14T10:45:59Z</time>
      </trkpt>
      <trkpt lat="45.95532" lon="4.84885">
        <ele>268</ele>
        <time>2018-01-14T10:46:00Z</time>
      </trkpt>
      <trkpt lat="45.95536" lon="4.84889">
        <ele>268</ele>
        <time>2018-01-14T10:46:01Z</time>
      </trkpt>
      <trkpt lat="45.9554" lon="4.84892">
        <ele>268</ele>
        <time>2018-01-14T10:46:02Z</time>
      </trkpt>
      <trkpt lat="45.95544" lon="4.84895">
        <ele>268</ele>
        <time>2018-01-14T10:46:03Z</time>
      </trkpt>
      <trkpt lat="45.95552" lon="4.849">
        <ele>268</ele>
        <time>2018-01-14T10:46:05Z</time>
      </trkpt>
      <trkpt lat="45.95556" lon="4.84903">
        <ele>268</ele>
        <time>2018-01-14T10:46:06Z</time>
      </trkpt>
      <trkpt lat="45.95563" lon="4.8491">
        <ele>268</ele>
        <time>2018-01-14T10:46:08Z</time>
      </trkpt>
      <trkpt lat="45.95567" lon="4.84912">
        <ele>269</ele>
        <time>2018-01-14T10:46:09Z</time>
      </trkpt>
      <trkpt lat="45.95575" lon="4.84917">
        <ele>269</ele>
        <time>2018-01-14T10:46:11Z</time>
      </trkpt>
      <trkpt lat="45.95579" lon="4.84921">
        <ele>269</ele>
        <time>2018-01-14T10:46:12Z</time>
      </trkpt>
      <trkpt lat="45.95587" lon="4.84926">
        <ele>270</ele>
        <time>2018-01-14T10:46:14Z</time>
      </trkpt>
      <trkpt lat="45.95591" lon="4.84929">
        <ele>270</ele>
        <time>2018-01-14T10:46:15Z</time>
      </trkpt>
      <trkpt lat="45.95599" lon="4.84934">
        <ele>270</ele>
        <time>2018-01-14T10:46:17Z</time>
      </trkpt>
      <trkpt lat="45.95603" lon="4.84937">
        <ele>270</ele>
        <time>2018-01-14T10:46:18Z</time>
      </trkpt>
      <trkpt lat="45.95609" lon="4.84944">
        <ele>270</ele>
        <time>2018-01-14T10:46:20Z</time>
      </trkpt>
      <trkpt lat="45.95613" lon="4.84947">
        <ele>270</ele>
        <time>2018-01-14T10:46:21Z</time>
      </trkpt>
      <trkpt lat="45.9562" lon="4.84953">
        <ele>271</ele>
        <time>2018-01-14T10:46:23Z</time>
      </trkpt>
      <trkpt lat="45.95624" lon="4.84956">
        <ele>271</ele>
        <time>2018-01-14T10:46:24Z</time>
      </trkpt>
      <trkpt lat="45.95631" lon="4.84962">
        <ele>271</ele>
        <time>2018-01-14T10:46:26Z</time>
      </trkpt>
      <trkpt lat="45.95635" lon="4.84965">
        <ele>271</ele>
        <time>2018-01-14T10:46:27Z</time>
      </trkpt>
      <trkpt lat="45.95639" lon="4.84967">
        <ele>271</ele>
        <time>2018-01-14T10:46:28Z</time>
      </trkpt>
      <trkpt lat="45.95643" lon="4.84971">
        <ele>271</ele>
        <time>2018-01-14T10:46:29Z</time>
      </trkpt>
      <trkpt lat="45.95647" lon="4.84975">
        <ele>271</ele>
        <time>2018-01-14T10:46:30Z</time>
      </trkpt>
      <trkpt lat="45.9565" lon="4.8498">
        <ele>271</ele>
        <time>2018-01-14T10:46:31Z</time>
      </trkpt>
      <trkpt lat="45.95655" lon="4.84984">
        <ele>272</ele>
        <time>2018-01-14T10:46:32Z</time>
      </trkpt>
      <trkpt lat="45.95659" lon="4.84989">
        <ele>272</ele>
        <time>2018-01-14T10:46:33Z</time>
      </trkpt>
      <trkpt lat="45.95662" lon="4.84994">
        <ele>272</ele>
        <time>2018-01-14T10:46:34Z</time>
      </trkpt>
      <trkpt lat="45.95666" lon="4.84999">
        <ele>273</ele>
        <time>2018-01-14T10:46:35Z</time>
      </trkpt>
      <trkpt lat="45.95669" lon="4.85004">
        <ele>274</ele>
        <time>2018-01-14T10:46:36Z</time>
      </trkpt>
      <trkpt lat="45.95673" lon="4.85009">
        <ele>274</ele>
        <time>2018-01-14T10:46:37Z</time>
      </trkpt>
      <trkpt lat="45.95676" lon="4.85014">
        <ele>275</ele>
        <time>2018-01-14T10:46:38Z</time>
      </trkpt>
      <trkpt lat="45.9568" lon="4.85019">
        <ele>275</ele>
        <time>2018-01-14T10:46:39Z</time>
      </trkpt>
      <trkpt lat="45.95683" lon="4.85023">
        <ele>275</ele>
        <time>2018-01-14T10:46:40Z</time>
      </trkpt>
      <trkpt lat="45.95686" lon="4.85029">
        <ele>276</ele>
        <time>2018-01-14T10:46:41Z</time>
      </trkpt>
      <trkpt lat="45.95692" lon="4.85038">
        <ele>276</ele>
        <time>2018-01-14T10:46:43Z</time>
      </trkpt>
      <trkpt lat="45.95695" lon="4.85043">
        <ele>276</ele>
        <time>2018-01-14T10:46:44Z</time>
      </trkpt>
      <trkpt lat="45.957" lon="4.85051">
        <ele>276</ele>
        <time>2018-01-14T10:46:46Z</time>
      </trkpt>
      <trkpt lat="45.95704" lon="4.85056">
        <ele>276</ele>
        <time>2018-01-14T10:46:47Z</time>
      </trkpt>
      <trkpt lat="45.95709" lon="4.85064">
        <ele>277</ele>
        <time>2018-01-14T10:46:49Z</time>
      </trkpt>
      <trkpt lat="45.95711" lon="4.85068">
        <ele>277</ele>
        <time>2018-01-14T10:46:50Z</time>
      </trkpt>
      <trkpt lat="45.95714" lon="4.85073">
        <ele>277</ele>
        <time>2018-01-14T10:46:51Z</time>
      </trkpt>
      <trkpt lat="45.95717" lon="4.85079">
        <ele>277</ele>
        <time>2018-01-14T10:46:52Z</time>
      </trkpt>
      <trkpt lat="45.95723" lon="4.85088">
        <ele>279</ele>
        <time>2018-01-14T10:46:54Z</time>
      </trkpt>
      <trkpt lat="45.95724" lon="4.85094">
        <ele>279</ele>
        <time>2018-01-14T10:46:55Z</time>
      </trkpt>
      <trkpt lat="45.95729" lon="4.85103">
        <ele>279</ele>
        <time>2018-01-14T10:46:57Z</time>
      </trkpt>
      <trkpt lat="45.95733" lon="4.85105">
        <ele>279</ele>
        <time>2018-01-14T10:46:58Z</time>
      </trkpt>
      <trkpt lat="45.95736" lon="4.85117">
        <ele>279</ele>
        <time>2018-01-14T10:47:00Z</time>
      </trkpt>
      <trkpt lat="45.95739" lon="4.8512">
        <ele>279</ele>
        <time>2018-01-14T10:47:01Z</time>
      </trkpt>
      <trkpt lat="45.95742" lon="4.85125">
        <ele>279</ele>
        <time>2018-01-14T10:47:02Z</time>
      </trkpt>
      <trkpt lat="45.95746" lon="4.8513">
        <ele>279</ele>
        <time>2018-01-14T10:47:03Z</time>
      </trkpt>
      <trkpt lat="45.95753" lon="4.85136">
        <ele>276</ele>
        <time>2018-01-14T10:47:05Z</time>
      </trkpt>
      <trkpt lat="45.95757" lon="4.85141">
        <ele>276</ele>
        <time>2018-01-14T10:47:06Z</time>
      </trkpt>
      <trkpt lat="45.95761" lon="4.85146">
        <ele>276</ele>
        <time>2018-01-14T10:47:07Z</time>
      </trkpt>
      <trkpt lat="45.95765" lon="4.8515">
        <ele>276</ele>
        <time>2018-01-14T10:47:08Z</time>
      </trkpt>
      <trkpt lat="45.9577" lon="4.85161">
        <ele>276</ele>
        <time>2018-01-14T10:47:10Z</time>
      </trkpt>
      <trkpt lat="45.95772" lon="4.85165">
        <ele>276</ele>
        <time>2018-01-14T10:47:11Z</time>
      </trkpt>
      <trkpt lat="45.95777" lon="4.85169">
        <ele>277</ele>
        <time>2018-01-14T10:47:12Z</time>
      </trkpt>
      <trkpt lat="45.95781" lon="4.85173">
        <ele>276</ele>
        <time>2018-01-14T10:47:13Z</time>
      </trkpt>
      <trkpt lat="45.95786" lon="4.85175">
        <ele>276</ele>
        <time>2018-01-14T10:47:14Z</time>
      </trkpt>
      <trkpt lat="45.9579" lon="4.85178">
        <ele>276</ele>
        <time>2018-01-14T10:47:15Z</time>
      </trkpt>
      <trkpt lat="45.95793" lon="4.85182">
        <ele>276</ele>
        <time>2018-01-14T10:47:16Z</time>
      </trkpt>
      <trkpt lat="45.95798" lon="4.85186">
        <ele>275</ele>
        <time>2018-01-14T10:47:17Z</time>
      </trkpt>
      <trkpt lat="45.95802" lon="4.85191">
        <ele>275</ele>
        <time>2018-01-14T10:47:18Z</time>
      </trkpt>
      <trkpt lat="45.95806" lon="4.85194">
        <ele>275</ele>
        <time>2018-01-14T10:47:19Z</time>
      </trkpt>
      <trkpt lat="45.95809" lon="4.85201">
        <ele>275</ele>
        <time>2018-01-14T10:47:20Z</time>
      </trkpt>
      <trkpt lat="45.95814" lon="4.85205">
        <ele>275</ele>
        <time>2018-01-14T10:47:21Z</time>
      </trkpt>
      <trkpt lat="45.95815" lon="4.85214">
        <ele>275</ele>
        <time>2018-01-14T10:47:22Z</time>
      </trkpt>
      <trkpt lat="45.95821" lon="4.85218">
        <ele>275</ele>
        <time>2018-01-14T10:47:23Z</time>
      </trkpt>
      <trkpt lat="45.95826" lon="4.85223">
        <ele>274</ele>
        <time>2018-01-14T10:47:24Z</time>
      </trkpt>
      <trkpt lat="45.95831" lon="4.85228">
        <ele>274</ele>
        <time>2018-01-14T10:47:25Z</time>
      </trkpt>
      <trkpt lat="45.95834" lon="4.85234">
        <ele>271</ele>
        <time>2018-01-14T10:47:26Z</time>
      </trkpt>
      <trkpt lat="45.95839" lon="4.85238">
        <ele>271</ele>
        <time>2018-01-14T10:47:27Z</time>
      </trkpt>
      <trkpt lat="45.95843" lon="4.85245">
        <ele>271</ele>
        <time>2018-01-14T10:47:28Z</time>
      </trkpt>
      <trkpt lat="45.95846" lon="4.85251">
        <ele>271</ele>
        <time>2018-01-14T10:47:29Z</time>
      </trkpt>
      <trkpt lat="45.9585" lon="4.85258">
        <ele>271</ele>
        <time>2018-01-14T10:47:30Z</time>
      </trkpt>
      <trkpt lat="45.95853" lon="4.85266">
        <ele>270</ele>
        <time>2018-01-14T10:47:31Z</time>
      </trkpt>
      <trkpt lat="45.95856" lon="4.85273">
        <ele>270</ele>
        <time>2018-01-14T10:47:32Z</time>
      </trkpt>
      <trkpt lat="45.95861" lon="4.8528">
        <ele>270</ele>
        <time>2018-01-14T10:47:33Z</time>
      </trkpt>
      <trkpt lat="45.95865" lon="4.85284">
        <ele>270</ele>
        <time>2018-01-14T10:47:34Z</time>
      </trkpt>
      <trkpt lat="45.95869" lon="4.85291">
        <ele>269</ele>
        <time>2018-01-14T10:47:35Z</time>
      </trkpt>
      <trkpt lat="45.95873" lon="4.85298">
        <ele>269</ele>
        <time>2018-01-14T10:47:36Z</time>
      </trkpt>
      <trkpt lat="45.95877" lon="4.85304">
        <ele>269</ele>
        <time>2018-01-14T10:47:37Z</time>
      </trkpt>
      <trkpt lat="45.95882" lon="4.8531">
        <ele>269</ele>
        <time>2018-01-14T10:47:38Z</time>
      </trkpt>
      <trkpt lat="45.95887" lon="4.85315">
        <ele>269</ele>
        <time>2018-01-14T10:47:39Z</time>
      </trkpt>
      <trkpt lat="45.95892" lon="4.85321">
        <ele>269</ele>
        <time>2018-01-14T10:47:40Z</time>
      </trkpt>
      <trkpt lat="45.95896" lon="4.85325">
        <ele>268</ele>
        <time>2018-01-14T10:47:41Z</time>
      </trkpt>
      <trkpt lat="45.95902" lon="4.85329">
        <ele>268</ele>
        <time>2018-01-14T10:47:42Z</time>
      </trkpt>
      <trkpt lat="45.95907" lon="4.85334">
        <ele>267</ele>
        <time>2018-01-14T10:47:43Z</time>
      </trkpt>
      <trkpt lat="45.95912" lon="4.85337">
        <ele>267</ele>
        <time>2018-01-14T10:47:44Z</time>
      </trkpt>
      <trkpt lat="45.95918" lon="4.85339">
        <ele>267</ele>
        <time>2018-01-14T10:47:45Z</time>
      </trkpt>
      <trkpt lat="45.95924" lon="4.85342">
        <ele>266</ele>
        <time>2018-01-14T10:47:46Z</time>
      </trkpt>
      <trkpt lat="45.9593" lon="4.85344">
        <ele>266</ele>
        <time>2018-01-14T10:47:47Z</time>
      </trkpt>
      <trkpt lat="45.95937" lon="4.85345">
        <ele>266</ele>
        <time>2018-01-14T10:47:48Z</time>
      </trkpt>
      <trkpt lat="45.95943" lon="4.85348">
        <ele>266</ele>
        <time>2018-01-14T10:47:49Z</time>
      </trkpt>
      <trkpt lat="45.95949" lon="4.85348">
        <ele>266</ele>
        <time>2018-01-14T10:47:50Z</time>
      </trkpt>
      <trkpt lat="45.95955" lon="4.85349">
        <ele>266</ele>
        <time>2018-01-14T10:47:51Z</time>
      </trkpt>
      <trkpt lat="45.95963" lon="4.85351">
        <ele>265</ele>
        <time>2018-01-14T10:47:52Z</time>
      </trkpt>
      <trkpt lat="45.95969" lon="4.85351">
        <ele>265</ele>
        <time>2018-01-14T10:47:53Z</time>
      </trkpt>
      <trkpt lat="45.95977" lon="4.85352">
        <ele>265</ele>
        <time>2018-01-14T10:47:54Z</time>
      </trkpt>
      <trkpt lat="45.95984" lon="4.85353">
        <ele>265</ele>
        <time>2018-01-14T10:47:55Z</time>
      </trkpt>
      <trkpt lat="45.95992" lon="4.85353">
        <ele>265</ele>
        <time>2018-01-14T10:47:56Z</time>
      </trkpt>
      <trkpt lat="45.95999" lon="4.85353">
        <ele>265</ele>
        <time>2018-01-14T10:47:57Z</time>
      </trkpt>
      <trkpt lat="45.96006" lon="4.85354">
        <ele>264</ele>
        <time>2018-01-14T10:47:58Z</time>
      </trkpt>
      <trkpt lat="45.96014" lon="4.85354">
        <ele>263</ele>
        <time>2018-01-14T10:47:59Z</time>
      </trkpt>
      <trkpt lat="45.96021" lon="4.85354">
        <ele>263</ele>
        <time>2018-01-14T10:48:00Z</time>
      </trkpt>
      <trkpt lat="45.9603" lon="4.85354">
        <ele>263</ele>
        <time>2018-01-14T10:48:01Z</time>
      </trkpt>
      <trkpt lat="45.96037" lon="4.85355">
        <ele>263</ele>
        <time>2018-01-14T10:48:02Z</time>
      </trkpt>
      <trkpt lat="45.96046" lon="4.85355">
        <ele>262</ele>
        <time>2018-01-14T10:48:03Z</time>
      </trkpt>
      <trkpt lat="45.96055" lon="4.85355">
        <ele>262</ele>
        <time>2018-01-14T10:48:04Z</time>
      </trkpt>
      <trkpt lat="45.96062" lon="4.85356">
        <ele>262</ele>
        <time>2018-01-14T10:48:05Z</time>
      </trkpt>
      <trkpt lat="45.9607" lon="4.85358">
        <ele>262</ele>
        <time>2018-01-14T10:48:06Z</time>
      </trkpt>
      <trkpt lat="45.96078" lon="4.85359">
        <ele>262</ele>
        <time>2018-01-14T10:48:07Z</time>
      </trkpt>
      <trkpt lat="45.96088" lon="4.85364">
        <ele>259</ele>
        <time>2018-01-14T10:48:08Z</time>
      </trkpt>
      <trkpt lat="45.96096" lon="4.85367">
        <ele>259</ele>
        <time>2018-01-14T10:48:09Z</time>
      </trkpt>
      <trkpt lat="45.96105" lon="4.8537">
        <ele>259</ele>
        <time>2018-01-14T10:48:10Z</time>
      </trkpt>
      <trkpt lat="45.96114" lon="4.85373">
        <ele>258</ele>
        <time>2018-01-14T10:48:11Z</time>
      </trkpt>
      <trkpt lat="45.96122" lon="4.85378">
        <ele>258</ele>
        <time>2018-01-14T10:48:12Z</time>
      </trkpt>
      <trkpt lat="45.9613" lon="4.85381">
        <ele>258</ele>
        <time>2018-01-14T10:48:13Z</time>
      </trkpt>
      <trkpt lat="45.96138" lon="4.85385">
        <ele>258</ele>
        <time>2018-01-14T10:48:14Z</time>
      </trkpt>
      <trkpt lat="45.96145" lon="4.85388">
        <ele>258</ele>
        <time>2018-01-14T10:48:15Z</time>
      </trkpt>
      <trkpt lat="45.96153" lon="4.85391">
        <ele>258</ele>
        <time>2018-01-14T10:48:16Z</time>
      </trkpt>
      <trkpt lat="45.9616" lon="4.85396">
        <ele>258</ele>
        <time>2018-01-14T10:48:17Z</time>
      </trkpt>
      <trkpt lat="45.96167" lon="4.854">
        <ele>258</ele>
        <time>2018-01-14T10:48:18Z</time>
      </trkpt>
      <trkpt lat="45.96173" lon="4.85405">
        <ele>258</ele>
        <time>2018-01-14T10:48:19Z</time>
      </trkpt>
      <trkpt lat="45.9618" lon="4.8541">
        <ele>258</ele>
        <time>2018-01-14T10:48:20Z</time>
      </trkpt>
      <trkpt lat="45.96186" lon="4.85414">
        <ele>258</ele>
        <time>2018-01-14T10:48:21Z</time>
      </trkpt>
      <trkpt lat="45.96191" lon="4.85419">
        <ele>260</ele>
        <time>2018-01-14T10:48:22Z</time>
      </trkpt>
      <trkpt lat="45.96195" lon="4.85423">
        <ele>260</ele>
        <time>2018-01-14T10:48:23Z</time>
      </trkpt>
      <trkpt lat="45.96199" lon="4.85428">
        <ele>260</ele>
        <time>2018-01-14T10:48:24Z</time>
      </trkpt>
      <trkpt lat="45.96202" lon="4.8543">
        <ele>260</ele>
        <time>2018-01-14T10:48:25Z</time>
      </trkpt>
      <trkpt lat="45.96207" lon="4.85433">
        <ele>260</ele>
        <time>2018-01-14T10:48:26Z</time>
      </trkpt>
      <trkpt lat="45.96215" lon="4.85437">
        <ele>261</ele>
        <time>2018-01-14T10:48:28Z</time>
      </trkpt>
      <trkpt lat="45.96219" lon="4.8544">
        <ele>261</ele>
        <time>2018-01-14T10:48:29Z</time>
      </trkpt>
      <trkpt lat="45.96227" lon="4.85441">
        <ele>261</ele>
        <time>2018-01-14T10:48:31Z</time>
      </trkpt>
      <trkpt lat="45.96231" lon="4.85443">
        <ele>261</ele>
        <time>2018-01-14T10:48:32Z</time>
      </trkpt>
      <trkpt lat="45.96238" lon="4.85447">
        <ele>261</ele>
        <time>2018-01-14T10:48:34Z</time>
      </trkpt>
      <trkpt lat="45.96241" lon="4.85448">
        <ele>261</ele>
        <time>2018-01-14T10:48:35Z</time>
      </trkpt>
      <trkpt lat="45.96248" lon="4.85451">
        <ele>261</ele>
        <time>2018-01-14T10:48:37Z</time>
      </trkpt>
      <trkpt lat="45.96252" lon="4.85452">
        <ele>264</ele>
        <time>2018-01-14T10:48:38Z</time>
      </trkpt>
      <trkpt lat="45.96259" lon="4.85455">
        <ele>264</ele>
        <time>2018-01-14T10:48:40Z</time>
      </trkpt>
      <trkpt lat="45.96262" lon="4.85457">
        <ele>264</ele>
        <time>2018-01-14T10:48:41Z</time>
      </trkpt>
      <trkpt lat="45.96269" lon="4.85461">
        <ele>264</ele>
        <time>2018-01-14T10:48:43Z</time>
      </trkpt>
      <trkpt lat="45.96272" lon="4.85462">
        <ele>264</ele>
        <time>2018-01-14T10:48:44Z</time>
      </trkpt>
      <trkpt lat="45.96278" lon="4.85463">
        <ele>265</ele>
        <time>2018-01-14T10:48:46Z</time>
      </trkpt>
      <trkpt lat="45.96281" lon="4.85462">
        <ele>265</ele>
        <time>2018-01-14T10:48:47Z</time>
      </trkpt>
      <trkpt lat="45.96288" lon="4.85462">
        <ele>265</ele>
        <time>2018-01-14T10:48:49Z</time>
      </trkpt>
      <trkpt lat="45.96291" lon="4.85462">
        <ele>265</ele>
        <time>2018-01-14T10:48:50Z</time>
      </trkpt>
      <trkpt lat="45.96299" lon="4.85463">
        <ele>265</ele>
        <time>2018-01-14T10:48:52Z</time>
      </trkpt>
      <trkpt lat="45.96303" lon="4.85463">
        <ele>265</ele>
        <time>2018-01-14T10:48:53Z</time>
      </trkpt>
      <trkpt lat="45.96311" lon="4.85464">
        <ele>265</ele>
        <time>2018-01-14T10:48:55Z</time>
      </trkpt>
      <trkpt lat="45.96314" lon="4.85464">
        <ele>265</ele>
        <time>2018-01-14T10:48:56Z</time>
      </trkpt>
      <trkpt lat="45.96322" lon="4.85464">
        <ele>265</ele>
        <time>2018-01-14T10:48:58Z</time>
      </trkpt>
      <trkpt lat="45.96325" lon="4.85465">
        <ele>265</ele>
        <time>2018-01-14T10:48:59Z</time>
      </trkpt>
      <trkpt lat="45.96333" lon="4.85466">
        <ele>266</ele>
        <time>2018-01-14T10:49:01Z</time>
      </trkpt>
      <trkpt lat="45.96336" lon="4.85466">
        <ele>268</ele>
        <time>2018-01-14T10:49:02Z</time>
      </trkpt>
      <trkpt lat="45.96344" lon="4.85468">
        <ele>268</ele>
        <time>2018-01-14T10:49:04Z</time>
      </trkpt>
      <trkpt lat="45.96347" lon="4.85469">
        <ele>268</ele>
        <time>2018-01-14T10:49:05Z</time>
      </trkpt>
      <trkpt lat="45.96355" lon="4.8547">
        <ele>268</ele>
        <time>2018-01-14T10:49:07Z</time>
      </trkpt>
      <trkpt lat="45.96358" lon="4.85471">
        <ele>268</ele>
        <time>2018-01-14T10:49:08Z</time>
      </trkpt>
      <trkpt lat="45.96364" lon="4.85474">
        <ele>268</ele>
        <time>2018-01-14T10:49:10Z</time>
      </trkpt>
      <trkpt lat="45.96367" lon="4.85474">
        <ele>268</ele>
        <time>2018-01-14T10:49:11Z</time>
      </trkpt>
      <trkpt lat="45.96376" lon="4.85475">
        <ele>268</ele>
        <time>2018-01-14T10:49:14Z</time>
      </trkpt>
      <trkpt lat="45.96379" lon="4.85475">
        <ele>268</ele>
        <time>2018-01-14T10:49:15Z</time>
      </trkpt>
      <trkpt lat="45.96385" lon="4.85478">
        <ele>269</ele>
        <time>2018-01-14T10:49:17Z</time>
      </trkpt>
      <trkpt lat="45.96388" lon="4.85478">
        <ele>269</ele>
        <time>2018-01-14T10:49:18Z</time>
      </trkpt>
      <trkpt lat="45.96395" lon="4.8548">
        <ele>269</ele>
        <time>2018-01-14T10:49:20Z</time>
      </trkpt>
      <trkpt lat="45.96398" lon="4.8548">
        <ele>269</ele>
        <time>2018-01-14T10:49:21Z</time>
      </trkpt>
      <trkpt lat="45.96405" lon="4.85481">
        <ele>269</ele>
        <time>2018-01-14T10:49:23Z</time>
      </trkpt>
      <trkpt lat="45.96408" lon="4.85482">
        <ele>269</ele>
        <time>2018-01-14T10:49:24Z</time>
      </trkpt>
      <trkpt lat="45.96415" lon="4.85482">
        <ele>269</ele>
        <time>2018-01-14T10:49:26Z</time>
      </trkpt>
      <trkpt lat="45.96417" lon="4.85482">
        <ele>271</ele>
        <time>2018-01-14T10:49:27Z</time>
      </trkpt>
      <trkpt lat="45.96426" lon="4.85484">
        <ele>271</ele>
        <time>2018-01-14T10:49:30Z</time>
      </trkpt>
      <trkpt lat="45.9643" lon="4.85485">
        <ele>271</ele>
        <time>2018-01-14T10:49:31Z</time>
      </trkpt>
      <trkpt lat="45.96437" lon="4.85486">
        <ele>271</ele>
        <time>2018-01-14T10:49:33Z</time>
      </trkpt>
      <trkpt lat="45.9644" lon="4.85486">
        <ele>271</ele>
        <time>2018-01-14T10:49:34Z</time>
      </trkpt>
      <trkpt lat="45.96449" lon="4.85486">
        <ele>272</ele>
        <time>2018-01-14T10:49:37Z</time>
      </trkpt>
      <trkpt lat="45.96451" lon="4.85486">
        <ele>272</ele>
        <time>2018-01-14T10:49:38Z</time>
      </trkpt>
      <trkpt lat="45.9646" lon="4.85487">
        <ele>272</ele>
        <time>2018-01-14T10:49:42Z</time>
      </trkpt>
      <trkpt lat="45.96462" lon="4.85487">
        <ele>272</ele>
        <time>2018-01-14T10:49:43Z</time>
      </trkpt>
      <trkpt lat="45.96469" lon="4.85488">
        <ele>272</ele>
        <time>2018-01-14T10:49:46Z</time>
      </trkpt>
      <trkpt lat="45.96473" lon="4.85487">
        <ele>272</ele>
        <time>2018-01-14T10:49:47Z</time>
      </trkpt>
      <trkpt lat="45.96479" lon="4.85485">
        <ele>273</ele>
        <time>2018-01-14T10:49:49Z</time>
      </trkpt>
      <trkpt lat="45.96483" lon="4.85484">
        <ele>273</ele>
        <time>2018-01-14T10:49:50Z</time>
      </trkpt>
      <trkpt lat="45.9649" lon="4.85483">
        <ele>273</ele>
        <time>2018-01-14T10:49:52Z</time>
      </trkpt>
      <trkpt lat="45.96494" lon="4.85481">
        <ele>273</ele>
        <time>2018-01-14T10:49:53Z</time>
      </trkpt>
      <trkpt lat="45.965" lon="4.85479">
        <ele>275</ele>
        <time>2018-01-14T10:49:55Z</time>
      </trkpt>
      <trkpt lat="45.96503" lon="4.85478">
        <ele>275</ele>
        <time>2018-01-14T10:49:56Z</time>
      </trkpt>
      <trkpt lat="45.9651" lon="4.85477">
        <ele>275</ele>
        <time>2018-01-14T10:49:58Z</time>
      </trkpt>
      <trkpt lat="45.96513" lon="4.85476">
        <ele>275</ele>
        <time>2018-01-14T10:49:59Z</time>
      </trkpt>
      <trkpt lat="45.9652" lon="4.85474">
        <ele>275</ele>
        <time>2018-01-14T10:50:01Z</time>
      </trkpt>
      <trkpt lat="45.96523" lon="4.85474">
        <ele>275</ele>
        <time>2018-01-14T10:50:02Z</time>
      </trkpt>
      <trkpt lat="45.9653" lon="4.85472">
        <ele>275</ele>
        <time>2018-01-14T10:50:04Z</time>
      </trkpt>
      <trkpt lat="45.96533" lon="4.85471">
        <ele>275</ele>
        <time>2018-01-14T10:50:05Z</time>
      </trkpt>
      <trkpt lat="45.9654" lon="4.8547">
        <ele>275</ele>
        <time>2018-01-14T10:50:07Z</time>
      </trkpt>
      <trkpt lat="45.96543" lon="4.85469">
        <ele>275</ele>
        <time>2018-01-14T10:50:08Z</time>
      </trkpt>
      <trkpt lat="45.96549" lon="4.85467">
        <ele>275</ele>
        <time>2018-01-14T10:50:10Z</time>
      </trkpt>
      <trkpt lat="45.96553" lon="4.85466">
        <ele>275</ele>
        <time>2018-01-14T10:50:11Z</time>
      </trkpt>
      <trkpt lat="45.96559" lon="4.85465">
        <ele>275</ele>
        <time>2018-01-14T10:50:13Z</time>
      </trkpt>
      <trkpt lat="45.96563" lon="4.85464">
        <ele>275</ele>
        <time>2018-01-14T10:50:14Z</time>
      </trkpt>
      <trkpt lat="45.96569" lon="4.85461">
        <ele>275</ele>
        <time>2018-01-14T10:50:16Z</time>
      </trkpt>
      <trkpt lat="45.96573" lon="4.85459">
        <ele>275</ele>
        <time>2018-01-14T10:50:17Z</time>
      </trkpt>
      <trkpt lat="45.9658" lon="4.85455">
        <ele>275</ele>
        <time>2018-01-14T10:50:19Z</time>
      </trkpt>
      <trkpt lat="45.96583" lon="4.85453">
        <ele>275</ele>
        <time>2018-01-14T10:50:20Z</time>
      </trkpt>
      <trkpt lat="45.9659" lon="4.85451">
        <ele>276</ele>
        <time>2018-01-14T10:50:22Z</time>
      </trkpt>
      <trkpt lat="45.96593" lon="4.85451">
        <ele>276</ele>
        <time>2018-01-14T10:50:23Z</time>
      </trkpt>
      <trkpt lat="45.966" lon="4.85449">
        <ele>276</ele>
        <time>2018-01-14T10:50:25Z</time>
      </trkpt>
      <trkpt lat="45.96604" lon="4.85449">
        <ele>276</ele>
        <time>2018-01-14T10:50:26Z</time>
      </trkpt>
      <trkpt lat="45.96612" lon="4.85448">
        <ele>276</ele>
        <time>2018-01-14T10:50:28Z</time>
      </trkpt>
      <trkpt lat="45.96616" lon="4.85447">
        <ele>276</ele>
        <time>2018-01-14T10:50:29Z</time>
      </trkpt>
      <trkpt lat="45.96623" lon="4.85445">
        <ele>276</ele>
        <time>2018-01-14T10:50:31Z</time>
      </trkpt>
      <trkpt lat="45.96627" lon="4.85443">
        <ele>276</ele>
        <time>2018-01-14T10:50:32Z</time>
      </trkpt>
      <trkpt lat="45.96635" lon="4.85441">
        <ele>276</ele>
        <time>2018-01-14T10:50:34Z</time>
      </trkpt>
      <trkpt lat="45.96639" lon="4.85439">
        <ele>276</ele>
        <time>2018-01-14T10:50:35Z</time>
      </trkpt>
      <trkpt lat="45.96648" lon="4.85438">
        <ele>276</ele>
        <time>2018-01-14T10:50:37Z</time>
      </trkpt>
      <trkpt lat="45.96652" lon="4.85437">
        <ele>276</ele>
        <time>2018-01-14T10:50:38Z</time>
      </trkpt>
      <trkpt lat="45.9666" lon="4.85436">
        <ele>276</ele>
        <time>2018-01-14T10:50:40Z</time>
      </trkpt>
      <trkpt lat="45.96663" lon="4.85435">
        <ele>276</ele>
        <time>2018-01-14T10:50:41Z</time>
      </trkpt>
      <trkpt lat="45.9667" lon="4.85434">
        <ele>276</ele>
        <time>2018-01-14T10:50:43Z</time>
      </trkpt>
      <trkpt lat="45.96673" lon="4.85433">
        <ele>276</ele>
        <time>2018-01-14T10:50:44Z</time>
      </trkpt>
      <trkpt lat="45.96681" lon="4.85431">
        <ele>276</ele>
        <time>2018-01-14T10:50:46Z</time>
      </trkpt>
      <trkpt lat="45.96685" lon="4.85431">
        <ele>276</ele>
        <time>2018-01-14T10:50:47Z</time>
      </trkpt>
      <trkpt lat="45.96693" lon="4.85427">
        <ele>276</ele>
        <time>2018-01-14T10:50:49Z</time>
      </trkpt>
      <trkpt lat="45.96697" lon="4.85425">
        <ele>276</ele>
        <time>2018-01-14T10:50:50Z</time>
      </trkpt>
      <trkpt lat="45.96705" lon="4.8542">
        <ele>276</ele>
        <time>2018-01-14T10:50:52Z</time>
      </trkpt>
      <trkpt lat="45.96708" lon="4.85417">
        <ele>276</ele>
        <time>2018-01-14T10:50:53Z</time>
      </trkpt>
      <trkpt lat="45.96716" lon="4.85413">
        <ele>276</ele>
        <time>2018-01-14T10:50:55Z</time>
      </trkpt>
      <trkpt lat="45.96719" lon="4.85411">
        <ele>276</ele>
        <time>2018-01-14T10:50:56Z</time>
      </trkpt>
      <trkpt lat="45.96727" lon="4.85405">
        <ele>277</ele>
        <time>2018-01-14T10:50:58Z</time>
      </trkpt>
      <trkpt lat="45.9673" lon="4.85402">
        <ele>277</ele>
        <time>2018-01-14T10:50:59Z</time>
      </trkpt>
      <trkpt lat="45.96737" lon="4.85396">
        <ele>277</ele>
        <time>2018-01-14T10:51:01Z</time>
      </trkpt>
      <trkpt lat="45.9674" lon="4.85392">
        <ele>277</ele>
        <time>2018-01-14T10:51:02Z</time>
      </trkpt>
      <trkpt lat="45.96747" lon="4.85389">
        <ele>277</ele>
        <time>2018-01-14T10:51:04Z</time>
      </trkpt>
      <trkpt lat="45.96751" lon="4.85386">
        <ele>278</ele>
        <time>2018-01-14T10:51:05Z</time>
      </trkpt>
      <trkpt lat="45.96755" lon="4.85381">
        <ele>278</ele>
        <time>2018-01-14T10:51:06Z</time>
      </trkpt>
      <trkpt lat="45.96758" lon="4.85377">
        <ele>278</ele>
        <time>2018-01-14T10:51:07Z</time>
      </trkpt>
      <trkpt lat="45.96765" lon="4.85371">
        <ele>278</ele>
        <time>2018-01-14T10:51:09Z</time>
      </trkpt>
      <trkpt lat="45.96768" lon="4.85368">
        <ele>278</ele>
        <time>2018-01-14T10:51:10Z</time>
      </trkpt>
      <trkpt lat="45.96774" lon="4.85365">
        <ele>278</ele>
        <time>2018-01-14T10:51:12Z</time>
      </trkpt>
      <trkpt lat="45.96776" lon="4.85363">
        <ele>278</ele>
        <time>2018-01-14T10:51:13Z</time>
      </trkpt>
      <trkpt lat="45.96785" lon="4.85358">
        <ele>278</ele>
        <time>2018-01-14T10:51:16Z</time>
      </trkpt>
      <trkpt lat="45.96787" lon="4.85357">
        <ele>278</ele>
        <time>2018-01-14T10:51:17Z</time>
      </trkpt>
      <trkpt lat="45.96793" lon="4.85354">
        <ele>279</ele>
        <time>2018-01-14T10:51:19Z</time>
      </trkpt>
      <trkpt lat="45.96796" lon="4.85352">
        <ele>279</ele>
        <time>2018-01-14T10:51:20Z</time>
      </trkpt>
      <trkpt lat="45.96804" lon="4.8535">
        <ele>279</ele>
        <time>2018-01-14T10:51:23Z</time>
      </trkpt>
      <trkpt lat="45.96808" lon="4.85349">
        <ele>279</ele>
        <time>2018-01-14T10:51:24Z</time>
      </trkpt>
      <trkpt lat="45.96814" lon="4.85347">
        <ele>279</ele>
        <time>2018-01-14T10:51:26Z</time>
      </trkpt>
      <trkpt lat="45.96817" lon="4.85346">
        <ele>279</ele>
        <time>2018-01-14T10:51:27Z</time>
      </trkpt>
      <trkpt lat="45.96823" lon="4.85343">
        <ele>279</ele>
        <time>2018-01-14T10:51:29Z</time>
      </trkpt>
      <trkpt lat="45.96826" lon="4.85342">
        <ele>279</ele>
        <time>2018-01-14T10:51:30Z</time>
      </trkpt>
      <trkpt lat="45.96832" lon="4.85339">
        <ele>280</ele>
        <time>2018-01-14T10:51:32Z</time>
      </trkpt>
      <trkpt lat="45.96835" lon="4.85337">
        <ele>280</ele>
        <time>2018-01-14T10:51:33Z</time>
      </trkpt>
      <trkpt lat="45.96841" lon="4.85333">
        <ele>281</ele>
        <time>2018-01-14T10:51:35Z</time>
      </trkpt>
      <trkpt lat="45.96844" lon="4.85332">
        <ele>281</ele>
        <time>2018-01-14T10:51:36Z</time>
      </trkpt>
      <trkpt lat="45.96852" lon="4.85329">
        <ele>282</ele>
        <time>2018-01-14T10:51:39Z</time>
      </trkpt>
      <trkpt lat="45.96856" lon="4.85328">
        <ele>282</ele>
        <time>2018-01-14T10:51:40Z</time>
      </trkpt>
      <trkpt lat="45.96862" lon="4.85327">
        <ele>282</ele>
        <time>2018-01-14T10:51:42Z</time>
      </trkpt>
      <trkpt lat="45.96865" lon="4.85325">
        <ele>282</ele>
        <time>2018-01-14T10:51:43Z</time>
      </trkpt>
      <trkpt lat="45.96871" lon="4.85323">
        <ele>282</ele>
        <time>2018-01-14T10:51:45Z</time>
      </trkpt>
      <trkpt lat="45.96874" lon="4.85322">
        <ele>283</ele>
        <time>2018-01-14T10:51:46Z</time>
      </trkpt>
      <trkpt lat="45.9688" lon="4.8532">
        <ele>283</ele>
        <time>2018-01-14T10:51:48Z</time>
      </trkpt>
      <trkpt lat="45.96883" lon="4.8532">
        <ele>283</ele>
        <time>2018-01-14T10:51:49Z</time>
      </trkpt>
      <trkpt lat="45.9689" lon="4.8532">
        <ele>283</ele>
        <time>2018-01-14T10:51:51Z</time>
      </trkpt>
      <trkpt lat="45.96893" lon="4.8532">
        <ele>283</ele>
        <time>2018-01-14T10:51:52Z</time>
      </trkpt>
      <trkpt lat="45.96899" lon="4.85319">
        <ele>284</ele>
        <time>2018-01-14T10:51:54Z</time>
      </trkpt>
      <trkpt lat="45.96903" lon="4.85317">
        <ele>284</ele>
        <time>2018-01-14T10:51:55Z</time>
      </trkpt>
      <trkpt lat="45.9691" lon="4.85315">
        <ele>284</ele>
        <time>2018-01-14T10:51:57Z</time>
      </trkpt>
      <trkpt lat="45.96913" lon="4.85314">
        <ele>284</ele>
        <time>2018-01-14T10:51:58Z</time>
      </trkpt>
      <trkpt lat="45.96921" lon="4.85311">
        <ele>285</ele>
        <time>2018-01-14T10:52:00Z</time>
      </trkpt>
      <trkpt lat="45.96924" lon="4.8531">
        <ele>284</ele>
        <time>2018-01-14T10:52:01Z</time>
      </trkpt>
      <trkpt lat="45.96931" lon="4.85307">
        <ele>284</ele>
        <time>2018-01-14T10:52:03Z</time>
      </trkpt>
      <trkpt lat="45.96935" lon="4.85307">
        <ele>284</ele>
        <time>2018-01-14T10:52:04Z</time>
      </trkpt>
      <trkpt lat="45.96942" lon="4.85306">
        <ele>284</ele>
        <time>2018-01-14T10:52:06Z</time>
      </trkpt>
      <trkpt lat="45.96945" lon="4.85305">
        <ele>284</ele>
        <time>2018-01-14T10:52:07Z</time>
      </trkpt>
      <trkpt lat="45.96953" lon="4.85304">
        <ele>284</ele>
        <time>2018-01-14T10:52:09Z</time>
      </trkpt>
      <trkpt lat="45.96957" lon="4.85303">
        <ele>284</ele>
        <time>2018-01-14T10:52:10Z</time>
      </trkpt>
      <trkpt lat="45.96965" lon="4.85302">
        <ele>284</ele>
        <time>2018-01-14T10:52:12Z</time>
      </trkpt>
      <trkpt lat="45.96969" lon="4.85302">
        <ele>284</ele>
        <time>2018-01-14T10:52:13Z</time>
      </trkpt>
      <trkpt lat="45.96977" lon="4.853">
        <ele>284</ele>
        <time>2018-01-14T10:52:15Z</time>
      </trkpt>
      <trkpt lat="45.96981" lon="4.85299">
        <ele>284</ele>
        <time>2018-01-14T10:52:16Z</time>
      </trkpt>
      <trkpt lat="45.96986" lon="4.85298">
        <ele>283</ele>
        <time>2018-01-14T10:52:17Z</time>
      </trkpt>
      <trkpt lat="45.9699" lon="4.85298">
        <ele>283</ele>
        <time>2018-01-14T10:52:18Z</time>
      </trkpt>
      <trkpt lat="45.96996" lon="4.85296">
        <ele>283</ele>
        <time>2018-01-14T10:52:19Z</time>
      </trkpt>
      <trkpt lat="45.97001" lon="4.85296">
        <ele>282</ele>
        <time>2018-01-14T10:52:20Z</time>
      </trkpt>
      <trkpt lat="45.97006" lon="4.85295">
        <ele>282</ele>
        <time>2018-01-14T10:52:21Z</time>
      </trkpt>
      <trkpt lat="45.97012" lon="4.85295">
        <ele>282</ele>
        <time>2018-01-14T10:52:22Z</time>
      </trkpt>
      <trkpt lat="45.97017" lon="4.85294">
        <ele>282</ele>
        <time>2018-01-14T10:52:23Z</time>
      </trkpt>
      <trkpt lat="45.97023" lon="4.85293">
        <ele>282</ele>
        <time>2018-01-14T10:52:24Z</time>
      </trkpt>
      <trkpt lat="45.97029" lon="4.85293">
        <ele>282</ele>
        <time>2018-01-14T10:52:25Z</time>
      </trkpt>
      <trkpt lat="45.97035" lon="4.85292">
        <ele>282</ele>
        <time>2018-01-14T10:52:26Z</time>
      </trkpt>
      <trkpt lat="45.97042" lon="4.85292">
        <ele>282</ele>
        <time>2018-01-14T10:52:27Z</time>
      </trkpt>
      <trkpt lat="45.97048" lon="4.85291">
        <ele>282</ele>
        <time>2018-01-14T10:52:28Z</time>
      </trkpt>
      <trkpt lat="45.97055" lon="4.8529">
        <ele>282</ele>
        <time>2018-01-14T10:52:29Z</time>
      </trkpt>
      <trkpt lat="45.97061" lon="4.85289">
        <ele>282</ele>
        <time>2018-01-14T10:52:30Z</time>
      </trkpt>
      <trkpt lat="45.97068" lon="4.85289">
        <ele>282</ele>
        <time>2018-01-14T10:52:31Z</time>
      </trkpt>
      <trkpt lat="45.97076" lon="4.85287">
        <ele>281</ele>
        <time>2018-01-14T10:52:32Z</time>
      </trkpt>
      <trkpt lat="45.97083" lon="4.85287">
        <ele>281</ele>
        <time>2018-01-14T10:52:33Z</time>
      </trkpt>
      <trkpt lat="45.97091" lon="4.85284">
        <ele>280</ele>
        <time>2018-01-14T10:52:34Z</time>
      </trkpt>
      <trkpt lat="45.97098" lon="4.85284">
        <ele>280</ele>
        <time>2018-01-14T10:52:35Z</time>
      </trkpt>
      <trkpt lat="45.97105" lon="4.85284">
        <ele>280</ele>
        <time>2018-01-14T10:52:36Z</time>
      </trkpt>
      <trkpt lat="45.97112" lon="4.85284">
        <ele>280</ele>
        <time>2018-01-14T10:52:37Z</time>
      </trkpt>
      <trkpt lat="45.97119" lon="4.85283">
        <ele>280</ele>
        <time>2018-01-14T10:52:38Z</time>
      </trkpt>
      <trkpt lat="45.97125" lon="4.85284">
        <ele>280</ele>
        <time>2018-01-14T10:52:39Z</time>
      </trkpt>
      <trkpt lat="45.97131" lon="4.85285">
        <ele>279</ele>
        <time>2018-01-14T10:52:40Z</time>
      </trkpt>
      <trkpt lat="45.97137" lon="4.85285">
        <ele>279</ele>
        <time>2018-01-14T10:52:41Z</time>
      </trkpt>
      <trkpt lat="45.97144" lon="4.85285">
        <ele>279</ele>
        <time>2018-01-14T10:52:42Z</time>
      </trkpt>
      <trkpt lat="45.97151" lon="4.85286">
        <ele>279</ele>
        <time>2018-01-14T10:52:43Z</time>
      </trkpt>
      <trkpt lat="45.97157" lon="4.85286">
        <ele>279</ele>
        <time>2018-01-14T10:52:44Z</time>
      </trkpt>
      <trkpt lat="45.97164" lon="4.85286">
        <ele>279</ele>
        <time>2018-01-14T10:52:45Z</time>
      </trkpt>
      <trkpt lat="45.97171" lon="4.85286">
        <ele>279</ele>
        <time>2018-01-14T10:52:46Z</time>
      </trkpt>
      <trkpt lat="45.97177" lon="4.85286">
        <ele>279</ele>
        <time>2018-01-14T10:52:47Z</time>
      </trkpt>
      <trkpt lat="45.97184" lon="4.85286">
        <ele>279</ele>
        <time>2018-01-14T10:52:48Z</time>
      </trkpt>
      <trkpt lat="45.97191" lon="4.85286">
        <ele>279</ele>
        <time>2018-01-14T10:52:49Z</time>
      </trkpt>
      <trkpt lat="45.97197" lon="4.85285">
        <ele>279</ele>
        <time>2018-01-14T10:52:50Z</time>
      </trkpt>
      <trkpt lat="45.97203" lon="4.85285">
        <ele>279</ele>
        <time>2018-01-14T10:52:51Z</time>
      </trkpt>
      <trkpt lat="45.97209" lon="4.85284">
        <ele>279</ele>
        <time>2018-01-14T10:52:52Z</time>
      </trkpt>
      <trkpt lat="45.97215" lon="4.85284">
        <ele>279</ele>
        <time>2018-01-14T10:52:53Z</time>
      </trkpt>
      <trkpt lat="45.97221" lon="4.85282">
        <ele>279</ele>
        <time>2018-01-14T10:52:54Z</time>
      </trkpt>
      <trkpt lat="45.97227" lon="4.85282">
        <ele>279</ele>
        <time>2018-01-14T10:52:55Z</time>
      </trkpt>
      <trkpt lat="45.97233" lon="4.85282">
        <ele>279</ele>
        <time>2018-01-14T10:52:56Z</time>
      </trkpt>
      <trkpt lat="45.97239" lon="4.85281">
        <ele>279</ele>
        <time>2018-01-14T10:52:57Z</time>
      </trkpt>
      <trkpt lat="45.97246" lon="4.85281">
        <ele>279</ele>
        <time>2018-01-14T10:52:58Z</time>
      </trkpt>
      <trkpt lat="45.97252" lon="4.8528">
        <ele>281</ele>
        <time>2018-01-14T10:52:59Z</time>
      </trkpt>
      <trkpt lat="45.97259" lon="4.8528">
        <ele>281</ele>
        <time>2018-01-14T10:53:00Z</time>
      </trkpt>
      <trkpt lat="45.97265" lon="4.85279">
        <ele>281</ele>
        <time>2018-01-14T10:53:01Z</time>
      </trkpt>
      <trkpt lat="45.97272" lon="4.85279">
        <ele>281</ele>
        <time>2018-01-14T10:53:02Z</time>
      </trkpt>
      <trkpt lat="45.97279" lon="4.85279">
        <ele>281</ele>
        <time>2018-01-14T10:53:03Z</time>
      </trkpt>
      <trkpt lat="45.97285" lon="4.8528">
        <ele>282</ele>
        <time>2018-01-14T10:53:04Z</time>
      </trkpt>
      <trkpt lat="45.97292" lon="4.8528">
        <ele>282</ele>
        <time>2018-01-14T10:53:05Z</time>
      </trkpt>
      <trkpt lat="45.97299" lon="4.85279">
        <ele>282</ele>
        <time>2018-01-14T10:53:06Z</time>
      </trkpt>
      <trkpt lat="45.97305" lon="4.85279">
        <ele>282</ele>
        <time>2018-01-14T10:53:07Z</time>
      </trkpt>
      <trkpt lat="45.97311" lon="4.85279">
        <ele>282</ele>
        <time>2018-01-14T10:53:08Z</time>
      </trkpt>
      <trkpt lat="45.97317" lon="4.8528">
        <ele>282</ele>
        <time>2018-01-14T10:53:09Z</time>
      </trkpt>
      <trkpt lat="45.97323" lon="4.85279">
        <ele>282</ele>
        <time>2018-01-14T10:53:10Z</time>
      </trkpt>
      <trkpt lat="45.97329" lon="4.85279">
        <ele>282</ele>
        <time>2018-01-14T10:53:11Z</time>
      </trkpt>
      <trkpt lat="45.97333" lon="4.85278">
        <ele>282</ele>
        <time>2018-01-14T10:53:12Z</time>
      </trkpt>
      <trkpt lat="45.97339" lon="4.85277">
        <ele>284</ele>
        <time>2018-01-14T10:53:13Z</time>
      </trkpt>
      <trkpt lat="45.97343" lon="4.85278">
        <ele>284</ele>
        <time>2018-01-14T10:53:14Z</time>
      </trkpt>
      <trkpt lat="45.97348" lon="4.85277">
        <ele>284</ele>
        <time>2018-01-14T10:53:15Z</time>
      </trkpt>
      <trkpt lat="45.97353" lon="4.85277">
        <ele>284</ele>
        <time>2018-01-14T10:53:16Z</time>
      </trkpt>
      <trkpt lat="45.97361" lon="4.85277">
        <ele>285</ele>
        <time>2018-01-14T10:53:18Z</time>
      </trkpt>
      <trkpt lat="45.97366" lon="4.85277">
        <ele>285</ele>
        <time>2018-01-14T10:53:19Z</time>
      </trkpt>
      <trkpt lat="45.97371" lon="4.85277">
        <ele>285</ele>
        <time>2018-01-14T10:53:20Z</time>
      </trkpt>
      <trkpt lat="45.97376" lon="4.85276">
        <ele>285</ele>
        <time>2018-01-14T10:53:21Z</time>
      </trkpt>
      <trkpt lat="45.97384" lon="4.85273">
        <ele>285</ele>
        <time>2018-01-14T10:53:23Z</time>
      </trkpt>
      <trkpt lat="45.97388" lon="4.85273">
        <ele>285</ele>
        <time>2018-01-14T10:53:24Z</time>
      </trkpt>
      <trkpt lat="45.97397" lon="4.85273">
        <ele>286</ele>
        <time>2018-01-14T10:53:26Z</time>
      </trkpt>
      <trkpt lat="45.97402" lon="4.85273">
        <ele>286</ele>
        <time>2018-01-14T10:53:27Z</time>
      </trkpt>
      <trkpt lat="45.97406" lon="4.85273">
        <ele>286</ele>
        <time>2018-01-14T10:53:28Z</time>
      </trkpt>
      <trkpt lat="45.97411" lon="4.85274">
        <ele>286</ele>
        <time>2018-01-14T10:53:29Z</time>
      </trkpt>
      <trkpt lat="45.97417" lon="4.85275">
        <ele>286</ele>
        <time>2018-01-14T10:53:30Z</time>
      </trkpt>
      <trkpt lat="45.97422" lon="4.85275">
        <ele>285</ele>
        <time>2018-01-14T10:53:31Z</time>
      </trkpt>
      <trkpt lat="45.97428" lon="4.85275">
        <ele>285</ele>
        <time>2018-01-14T10:53:32Z</time>
      </trkpt>
      <trkpt lat="45.97434" lon="4.85275">
        <ele>285</ele>
        <time>2018-01-14T10:53:33Z</time>
      </trkpt>
      <trkpt lat="45.97441" lon="4.85274">
        <ele>285</ele>
        <time>2018-01-14T10:53:34Z</time>
      </trkpt>
      <trkpt lat="45.97447" lon="4.85274">
        <ele>285</ele>
        <time>2018-01-14T10:53:35Z</time>
      </trkpt>
      <trkpt lat="45.97454" lon="4.85275">
        <ele>284</ele>
        <time>2018-01-14T10:53:36Z</time>
      </trkpt>
      <trkpt lat="45.97461" lon="4.85276">
        <ele>284</ele>
        <time>2018-01-14T10:53:37Z</time>
      </trkpt>
      <trkpt lat="45.97468" lon="4.85276">
        <ele>284</ele>
        <time>2018-01-14T10:53:38Z</time>
      </trkpt>
      <trkpt lat="45.97474" lon="4.85275">
        <ele>284</ele>
        <time>2018-01-14T10:53:39Z</time>
      </trkpt>
      <trkpt lat="45.97481" lon="4.85275">
        <ele>284</ele>
        <time>2018-01-14T10:53:40Z</time>
      </trkpt>
      <trkpt lat="45.97487" lon="4.85275">
        <ele>284</ele>
        <time>2018-01-14T10:53:41Z</time>
      </trkpt>
      <trkpt lat="45.97494" lon="4.85274">
        <ele>283</ele>
        <time>2018-01-14T10:53:42Z</time>
      </trkpt>
      <trkpt lat="45.975" lon="4.85276">
        <ele>281</ele>
        <time>2018-01-14T10:53:43Z</time>
      </trkpt>
      <trkpt lat="45.97507" lon="4.85274">
        <ele>281</ele>
        <time>2018-01-14T10:53:44Z</time>
      </trkpt>
      <trkpt lat="45.97513" lon="4.85273">
        <ele>281</ele>
        <time>2018-01-14T10:53:45Z</time>
      </trkpt>
      <trkpt lat="45.97518" lon="4.85273">
        <ele>281</ele>
        <time>2018-01-14T10:53:46Z</time>
      </trkpt>
      <trkpt lat="45.97524" lon="4.85272">
        <ele>281</ele>
        <time>2018-01-14T10:53:47Z</time>
      </trkpt>
      <trkpt lat="45.9753" lon="4.85272">
        <ele>281</ele>
        <time>2018-01-14T10:53:48Z</time>
      </trkpt>
      <trkpt lat="45.97535" lon="4.85271">
        <ele>281</ele>
        <time>2018-01-14T10:53:49Z</time>
      </trkpt>
      <trkpt lat="45.9754" lon="4.85271">
        <ele>281</ele>
        <time>2018-01-14T10:53:50Z</time>
      </trkpt>
      <trkpt lat="45.97545" lon="4.85271">
        <ele>281</ele>
        <time>2018-01-14T10:53:51Z</time>
      </trkpt>
      <trkpt lat="45.9755" lon="4.85271">
        <ele>281</ele>
        <time>2018-01-14T10:53:52Z</time>
      </trkpt>
      <trkpt lat="45.97556" lon="4.8527">
        <ele>281</ele>
        <time>2018-01-14T10:53:53Z</time>
      </trkpt>
      <trkpt lat="45.97561" lon="4.85272">
        <ele>281</ele>
        <time>2018-01-14T10:53:54Z</time>
      </trkpt>
      <trkpt lat="45.97566" lon="4.85273">
        <ele>281</ele>
        <time>2018-01-14T10:53:55Z</time>
      </trkpt>
      <trkpt lat="45.97573" lon="4.85274">
        <ele>281</ele>
        <time>2018-01-14T10:53:56Z</time>
      </trkpt>
      <trkpt lat="45.9758" lon="4.85274">
        <ele>281</ele>
        <time>2018-01-14T10:53:57Z</time>
      </trkpt>
      <trkpt lat="45.97586" lon="4.85275">
        <ele>279</ele>
        <time>2018-01-14T10:53:58Z</time>
      </trkpt>
      <trkpt lat="45.97593" lon="4.85274">
        <ele>279</ele>
        <time>2018-01-14T10:53:59Z</time>
      </trkpt>
      <trkpt lat="45.97601" lon="4.85272">
        <ele>279</ele>
        <time>2018-01-14T10:54:00Z</time>
      </trkpt>
      <trkpt lat="45.97608" lon="4.8527">
        <ele>279</ele>
        <time>2018-01-14T10:54:01Z</time>
      </trkpt>
      <trkpt lat="45.97615" lon="4.8527">
        <ele>279</ele>
        <time>2018-01-14T10:54:02Z</time>
      </trkpt>
      <trkpt lat="45.97622" lon="4.8527">
        <ele>278</ele>
        <time>2018-01-14T10:54:03Z</time>
      </trkpt>
      <trkpt lat="45.97629" lon="4.85268">
        <ele>278</ele>
        <time>2018-01-14T10:54:04Z</time>
      </trkpt>
      <trkpt lat="45.97636" lon="4.85268">
        <ele>278</ele>
        <time>2018-01-14T10:54:05Z</time>
      </trkpt>
      <trkpt lat="45.97644" lon="4.85267">
        <ele>278</ele>
        <time>2018-01-14T10:54:06Z</time>
      </trkpt>
      <trkpt lat="45.9765" lon="4.85268">
        <ele>277</ele>
        <time>2018-01-14T10:54:07Z</time>
      </trkpt>
      <trkpt lat="45.97658" lon="4.85267">
        <ele>277</ele>
        <time>2018-01-14T10:54:08Z</time>
      </trkpt>
      <trkpt lat="45.97665" lon="4.85266">
        <ele>277</ele>
        <time>2018-01-14T10:54:09Z</time>
      </trkpt>
      <trkpt lat="45.97674" lon="4.85262">
        <ele>276</ele>
        <time>2018-01-14T10:54:10Z</time>
      </trkpt>
      <trkpt lat="45.97681" lon="4.85262">
        <ele>276</ele>
        <time>2018-01-14T10:54:11Z</time>
      </trkpt>
      <trkpt lat="45.97688" lon="4.85262">
        <ele>276</ele>
        <time>2018-01-14T10:54:12Z</time>
      </trkpt>
      <trkpt lat="45.97694" lon="4.85262">
        <ele>276</ele>
        <time>2018-01-14T10:54:13Z</time>
      </trkpt>
      <trkpt lat="45.977" lon="4.85262">
        <ele>276</ele>
        <time>2018-01-14T10:54:14Z</time>
      </trkpt>
      <trkpt lat="45.97707" lon="4.85261">
        <ele>276</ele>
        <time>2018-01-14T10:54:15Z</time>
      </trkpt>
      <trkpt lat="45.97712" lon="4.85261">
        <ele>275</ele>
        <time>2018-01-14T10:54:16Z</time>
      </trkpt>
      <trkpt lat="45.97718" lon="4.85259">
        <ele>275</ele>
        <time>2018-01-14T10:54:17Z</time>
      </trkpt>
      <trkpt lat="45.97725" lon="4.85258">
        <ele>275</ele>
        <time>2018-01-14T10:54:18Z</time>
      </trkpt>
      <trkpt lat="45.97731" lon="4.85257">
        <ele>275</ele>
        <time>2018-01-14T10:54:19Z</time>
      </trkpt>
      <trkpt lat="45.97737" lon="4.85257">
        <ele>275</ele>
        <time>2018-01-14T10:54:20Z</time>
      </trkpt>
      <trkpt lat="45.97744" lon="4.85256">
        <ele>274</ele>
        <time>2018-01-14T10:54:21Z</time>
      </trkpt>
      <trkpt lat="45.97751" lon="4.85254">
        <ele>274</ele>
        <time>2018-01-14T10:54:22Z</time>
      </trkpt>
      <trkpt lat="45.97757" lon="4.85252">
        <ele>274</ele>
        <time>2018-01-14T10:54:23Z</time>
      </trkpt>
      <trkpt lat="45.97764" lon="4.85251">
        <ele>274</ele>
        <time>2018-01-14T10:54:24Z</time>
      </trkpt>
      <trkpt lat="45.97771" lon="4.85251">
        <ele>274</ele>
        <time>2018-01-14T10:54:25Z</time>
      </trkpt>
      <trkpt lat="45.97778" lon="4.85251">
        <ele>275</ele>
        <time>2018-01-14T10:54:26Z</time>
      </trkpt>
      <trkpt lat="45.97785" lon="4.85251">
        <ele>275</ele>
        <time>2018-01-14T10:54:27Z</time>
      </trkpt>
      <trkpt lat="45.97792" lon="4.85251">
        <ele>275</ele>
        <time>2018-01-14T10:54:28Z</time>
      </trkpt>
      <trkpt lat="45.97798" lon="4.85251">
        <ele>275</ele>
        <time>2018-01-14T10:54:29Z</time>
      </trkpt>
      <trkpt lat="45.97804" lon="4.8525">
        <ele>275</ele>
        <time>2018-01-14T10:54:30Z</time>
      </trkpt>
      <trkpt lat="45.9781" lon="4.85249">
        <ele>275</ele>
        <time>2018-01-14T10:54:31Z</time>
      </trkpt>
      <trkpt lat="45.97816" lon="4.85247">
        <ele>275</ele>
        <time>2018-01-14T10:54:32Z</time>
      </trkpt>
      <trkpt lat="45.97822" lon="4.85247">
        <ele>275</ele>
        <time>2018-01-14T10:54:33Z</time>
      </trkpt>
      <trkpt lat="45.97827" lon="4.85246">
        <ele>275</ele>
        <time>2018-01-14T10:54:34Z</time>
      </trkpt>
      <trkpt lat="45.97833" lon="4.85244">
        <ele>275</ele>
        <time>2018-01-14T10:54:35Z</time>
      </trkpt>
      <trkpt lat="45.97839" lon="4.85243">
        <ele>275</ele>
        <time>2018-01-14T10:54:36Z</time>
      </trkpt>
      <trkpt lat="45.97844" lon="4.85243">
        <ele>275</ele>
        <time>2018-01-14T10:54:37Z</time>
      </trkpt>
      <trkpt lat="45.9785" lon="4.85242">
        <ele>275</ele>
        <time>2018-01-14T10:54:38Z</time>
      </trkpt>
      <trkpt lat="45.97856" lon="4.85242">
        <ele>275</ele>
        <time>2018-01-14T10:54:39Z</time>
      </trkpt>
      <trkpt lat="45.97862" lon="4.85241">
        <ele>275</ele>
        <time>2018-01-14T10:54:40Z</time>
      </trkpt>
      <trkpt lat="45.97868" lon="4.8524">
        <ele>275</ele>
        <time>2018-01-14T10:54:41Z</time>
      </trkpt>
      <trkpt lat="45.97873" lon="4.85239">
        <ele>275</ele>
        <time>2018-01-14T10:54:42Z</time>
      </trkpt>
      <trkpt lat="45.9788" lon="4.85238">
        <ele>275</ele>
        <time>2018-01-14T10:54:43Z</time>
      </trkpt>
      <trkpt lat="45.97887" lon="4.85236">
        <ele>275</ele>
        <time>2018-01-14T10:54:44Z</time>
      </trkpt>
      <trkpt lat="45.97893" lon="4.85234">
        <ele>275</ele>
        <time>2018-01-14T10:54:45Z</time>
      </trkpt>
      <trkpt lat="45.979" lon="4.85233">
        <ele>275</ele>
        <time>2018-01-14T10:54:46Z</time>
      </trkpt>
      <trkpt lat="45.97905" lon="4.85233">
        <ele>275</ele>
        <time>2018-01-14T10:54:47Z</time>
      </trkpt>
      <trkpt lat="45.97911" lon="4.85232">
        <ele>275</ele>
        <time>2018-01-14T10:54:48Z</time>
      </trkpt>
      <trkpt lat="45.97917" lon="4.85233">
        <ele>276</ele>
        <time>2018-01-14T10:54:49Z</time>
      </trkpt>
      <trkpt lat="45.97923" lon="4.85232">
        <ele>276</ele>
        <time>2018-01-14T10:54:50Z</time>
      </trkpt>
      <trkpt lat="45.97928" lon="4.85232">
        <ele>276</ele>
        <time>2018-01-14T10:54:51Z</time>
      </trkpt>
      <trkpt lat="45.97934" lon="4.85232">
        <ele>276</ele>
        <time>2018-01-14T10:54:52Z</time>
      </trkpt>
      <trkpt lat="45.9794" lon="4.85231">
        <ele>276</ele>
        <time>2018-01-14T10:54:53Z</time>
      </trkpt>
      <trkpt lat="45.97947" lon="4.8523">
        <ele>276</ele>
        <time>2018-01-14T10:54:54Z</time>
      </trkpt>
      <trkpt lat="45.97953" lon="4.85231">
        <ele>276</ele>
        <time>2018-01-14T10:54:55Z</time>
      </trkpt>
      <trkpt lat="45.97959" lon="4.8523">
        <ele>276</ele>
        <time>2018-01-14T10:54:56Z</time>
      </trkpt>
      <trkpt lat="45.97964" lon="4.8523">
        <ele>276</ele>
        <time>2018-01-14T10:54:57Z</time>
      </trkpt>
      <trkpt lat="45.97971" lon="4.85227">
        <ele>276</ele>
        <time>2018-01-14T10:54:58Z</time>
      </trkpt>
      <trkpt lat="45.97977" lon="4.85227">
        <ele>276</ele>
        <time>2018-01-14T10:54:59Z</time>
      </trkpt>
      <trkpt lat="45.97984" lon="4.85225">
        <ele>276</ele>
        <time>2018-01-14T10:55:00Z</time>
      </trkpt>
      <trkpt lat="45.97992" lon="4.85224">
        <ele>276</ele>
        <time>2018-01-14T10:55:01Z</time>
      </trkpt>
      <trkpt lat="45.97998" lon="4.85224">
        <ele>276</ele>
        <time>2018-01-14T10:55:02Z</time>
      </trkpt>
      <trkpt lat="45.98005" lon="4.85225">
        <ele>276</ele>
        <time>2018-01-14T10:55:03Z</time>
      </trkpt>
      <trkpt lat="45.98012" lon="4.85225">
        <ele>276</ele>
        <time>2018-01-14T10:55:04Z</time>
      </trkpt>
      <trkpt lat="45.98019" lon="4.85224">
        <ele>276</ele>
        <time>2018-01-14T10:55:05Z</time>
      </trkpt>
      <trkpt lat="45.98025" lon="4.85223">
        <ele>276</ele>
        <time>2018-01-14T10:55:06Z</time>
      </trkpt>
      <trkpt lat="45.98031" lon="4.85223">
        <ele>276</ele>
        <time>2018-01-14T10:55:07Z</time>
      </trkpt>
      <trkpt lat="45.98038" lon="4.85223">
        <ele>276</ele>
        <time>2018-01-14T10:55:08Z</time>
      </trkpt>
      <trkpt lat="45.98044" lon="4.85223">
        <ele>276</ele>
        <time>2018-01-14T10:55:09Z</time>
      </trkpt>
      <trkpt lat="45.98049" lon="4.85222">
        <ele>276</ele>
        <time>2018-01-14T10:55:10Z</time>
      </trkpt>
      <trkpt lat="45.98054" lon="4.85222">
        <ele>276</ele>
        <time>2018-01-14T10:55:11Z</time>
      </trkpt>
      <trkpt lat="45.98059" lon="4.85223">
        <ele>276</ele>
        <time>2018-01-14T10:55:12Z</time>
      </trkpt>
      <trkpt lat="45.98063" lon="4.85222">
        <ele>276</ele>
        <time>2018-01-14T10:55:13Z</time>
      </trkpt>
      <trkpt lat="45.98069" lon="4.85222">
        <ele>276</ele>
        <time>2018-01-14T10:55:14Z</time>
      </trkpt>
      <trkpt lat="45.98074" lon="4.85221">
        <ele>276</ele>
        <time>2018-01-14T10:55:15Z</time>
      </trkpt>
      <trkpt lat="45.98079" lon="4.85221">
        <ele>276</ele>
        <time>2018-01-14T10:55:16Z</time>
      </trkpt>
      <trkpt lat="45.98086" lon="4.85218">
        <ele>275</ele>
        <time>2018-01-14T10:55:17Z</time>
      </trkpt>
      <trkpt lat="45.98091" lon="4.85217">
        <ele>275</ele>
        <time>2018-01-14T10:55:18Z</time>
      </trkpt>
      <trkpt lat="45.98098" lon="4.85217">
        <ele>275</ele>
        <time>2018-01-14T10:55:19Z</time>
      </trkpt>
      <trkpt lat="45.98104" lon="4.85216">
        <ele>275</ele>
        <time>2018-01-14T10:55:20Z</time>
      </trkpt>
      <trkpt lat="45.9811" lon="4.85216">
        <ele>275</ele>
        <time>2018-01-14T10:55:21Z</time>
      </trkpt>
      <trkpt lat="45.98117" lon="4.85216">
        <ele>275</ele>
        <time>2018-01-14T10:55:22Z</time>
      </trkpt>
      <trkpt lat="45.98123" lon="4.85215">
        <ele>275</ele>
        <time>2018-01-14T10:55:23Z</time>
      </trkpt>
      <trkpt lat="45.9813" lon="4.85214">
        <ele>275</ele>
        <time>2018-01-14T10:55:24Z</time>
      </trkpt>
      <trkpt lat="45.98136" lon="4.85215">
        <ele>275</ele>
        <time>2018-01-14T10:55:25Z</time>
      </trkpt>
      <trkpt lat="45.98142" lon="4.85214">
        <ele>275</ele>
        <time>2018-01-14T10:55:26Z</time>
      </trkpt>
      <trkpt lat="45.98148" lon="4.85213">
        <ele>275</ele>
        <time>2018-01-14T10:55:27Z</time>
      </trkpt>
      <trkpt lat="45.98154" lon="4.85212">
        <ele>275</ele>
        <time>2018-01-14T10:55:28Z</time>
      </trkpt>
      <trkpt lat="45.98161" lon="4.85212">
        <ele>274</ele>
        <time>2018-01-14T10:55:29Z</time>
      </trkpt>
      <trkpt lat="45.98167" lon="4.85212">
        <ele>274</ele>
        <time>2018-01-14T10:55:30Z</time>
      </trkpt>
      <trkpt lat="45.98174" lon="4.85211">
        <ele>274</ele>
        <time>2018-01-14T10:55:31Z</time>
      </trkpt>
      <trkpt lat="45.98181" lon="4.85211">
        <ele>274</ele>
        <time>2018-01-14T10:55:32Z</time>
      </trkpt>
      <trkpt lat="45.98188" lon="4.8521">
        <ele>274</ele>
        <time>2018-01-14T10:55:33Z</time>
      </trkpt>
      <trkpt lat="45.98195" lon="4.85209">
        <ele>274</ele>
        <time>2018-01-14T10:55:34Z</time>
      </trkpt>
      <trkpt lat="45.98202" lon="4.85209">
        <ele>274</ele>
        <time>2018-01-14T10:55:35Z</time>
      </trkpt>
      <trkpt lat="45.98209" lon="4.85209">
        <ele>274</ele>
        <time>2018-01-14T10:55:36Z</time>
      </trkpt>
      <trkpt lat="45.98216" lon="4.85208">
        <ele>274</ele>
        <time>2018-01-14T10:55:37Z</time>
      </trkpt>
      <trkpt lat="45.98223" lon="4.85207">
        <ele>274</ele>
        <time>2018-01-14T10:55:38Z</time>
      </trkpt>
      <trkpt lat="45.98231" lon="4.85207">
        <ele>274</ele>
        <time>2018-01-14T10:55:39Z</time>
      </trkpt>
      <trkpt lat="45.98237" lon="4.85207">
        <ele>274</ele>
        <time>2018-01-14T10:55:40Z</time>
      </trkpt>
      <trkpt lat="45.98244" lon="4.85207">
        <ele>274</ele>
        <time>2018-01-14T10:55:41Z</time>
      </trkpt>
      <trkpt lat="45.98251" lon="4.85206">
        <ele>274</ele>
        <time>2018-01-14T10:55:42Z</time>
      </trkpt>
      <trkpt lat="45.98257" lon="4.85205">
        <ele>274</ele>
        <time>2018-01-14T10:55:43Z</time>
      </trkpt>
      <trkpt lat="45.98264" lon="4.85205">
        <ele>274</ele>
        <time>2018-01-14T10:55:44Z</time>
      </trkpt>
      <trkpt lat="45.9827" lon="4.85205">
        <ele>274</ele>
        <time>2018-01-14T10:55:45Z</time>
      </trkpt>
      <trkpt lat="45.98276" lon="4.85204">
        <ele>274</ele>
        <time>2018-01-14T10:55:46Z</time>
      </trkpt>
      <trkpt lat="45.98282" lon="4.85203">
        <ele>274</ele>
        <time>2018-01-14T10:55:47Z</time>
      </trkpt>
      <trkpt lat="45.98288" lon="4.85203">
        <ele>274</ele>
        <time>2018-01-14T10:55:48Z</time>
      </trkpt>
      <trkpt lat="45.98294" lon="4.85202">
        <ele>274</ele>
        <time>2018-01-14T10:55:49Z</time>
      </trkpt>
      <trkpt lat="45.983" lon="4.85202">
        <ele>274</ele>
        <time>2018-01-14T10:55:50Z</time>
      </trkpt>
      <trkpt lat="45.98307" lon="4.85201">
        <ele>274</ele>
        <time>2018-01-14T10:55:51Z</time>
      </trkpt>
      <trkpt lat="45.98314" lon="4.852">
        <ele>274</ele>
        <time>2018-01-14T10:55:52Z</time>
      </trkpt>
      <trkpt lat="45.98321" lon="4.852">
        <ele>274</ele>
        <time>2018-01-14T10:55:53Z</time>
      </trkpt>
      <trkpt lat="45.98328" lon="4.85199">
        <ele>274</ele>
        <time>2018-01-14T10:55:54Z</time>
      </trkpt>
      <trkpt lat="45.98335" lon="4.85198">
        <ele>275</ele>
        <time>2018-01-14T10:55:55Z</time>
      </trkpt>
      <trkpt lat="45.98342" lon="4.85197">
        <ele>275</ele>
        <time>2018-01-14T10:55:56Z</time>
      </trkpt>
      <trkpt lat="45.98349" lon="4.85195">
        <ele>275</ele>
        <time>2018-01-14T10:55:57Z</time>
      </trkpt>
      <trkpt lat="45.98357" lon="4.85195">
        <ele>275</ele>
        <time>2018-01-14T10:55:58Z</time>
      </trkpt>
      <trkpt lat="45.98365" lon="4.85197">
        <ele>275</ele>
        <time>2018-01-14T10:55:59Z</time>
      </trkpt>
      <trkpt lat="45.98372" lon="4.85197">
        <ele>275</ele>
        <time>2018-01-14T10:56:00Z</time>
      </trkpt>
      <trkpt lat="45.98378" lon="4.85196">
        <ele>275</ele>
        <time>2018-01-14T10:56:01Z</time>
      </trkpt>
      <trkpt lat="45.98385" lon="4.85195">
        <ele>275</ele>
        <time>2018-01-14T10:56:02Z</time>
      </trkpt>
      <trkpt lat="45.98393" lon="4.85192">
        <ele>275</ele>
        <time>2018-01-14T10:56:03Z</time>
      </trkpt>
      <trkpt lat="45.98399" lon="4.85192">
        <ele>275</ele>
        <time>2018-01-14T10:56:04Z</time>
      </trkpt>
      <trkpt lat="45.98406" lon="4.85191">
        <ele>275</ele>
        <time>2018-01-14T10:56:05Z</time>
      </trkpt>
      <trkpt lat="45.98413" lon="4.85191">
        <ele>275</ele>
        <time>2018-01-14T10:56:06Z</time>
      </trkpt>
      <trkpt lat="45.98419" lon="4.85191">
        <ele>275</ele>
        <time>2018-01-14T10:56:07Z</time>
      </trkpt>
      <trkpt lat="45.98426" lon="4.8519">
        <ele>275</ele>
        <time>2018-01-14T10:56:08Z</time>
      </trkpt>
      <trkpt lat="45.98432" lon="4.85188">
        <ele>275</ele>
        <time>2018-01-14T10:56:09Z</time>
      </trkpt>
      <trkpt lat="45.98438" lon="4.85189">
        <ele>275</ele>
        <time>2018-01-14T10:56:10Z</time>
      </trkpt>
      <trkpt lat="45.98444" lon="4.85188">
        <ele>275</ele>
        <time>2018-01-14T10:56:11Z</time>
      </trkpt>
      <trkpt lat="45.98449" lon="4.85188">
        <ele>275</ele>
        <time>2018-01-14T10:56:12Z</time>
      </trkpt>
      <trkpt lat="45.98455" lon="4.85187">
        <ele>275</ele>
        <time>2018-01-14T10:56:13Z</time>
      </trkpt>
      <trkpt lat="45.9846" lon="4.85186">
        <ele>275</ele>
        <time>2018-01-14T10:56:14Z</time>
      </trkpt>
      <trkpt lat="45.98465" lon="4.85185">
        <ele>275</ele>
        <time>2018-01-14T10:56:15Z</time>
      </trkpt>
      <trkpt lat="45.9847" lon="4.85184">
        <ele>275</ele>
        <time>2018-01-14T10:56:16Z</time>
      </trkpt>
      <trkpt lat="45.98476" lon="4.85184">
        <ele>275</ele>
        <time>2018-01-14T10:56:17Z</time>
      </trkpt>
      <trkpt lat="45.98481" lon="4.85183">
        <ele>275</ele>
        <time>2018-01-14T10:56:18Z</time>
      </trkpt>
      <trkpt lat="45.98487" lon="4.85181">
        <ele>275</ele>
        <time>2018-01-14T10:56:19Z</time>
      </trkpt>
      <trkpt lat="45.98493" lon="4.85181">
        <ele>275</ele>
        <time>2018-01-14T10:56:20Z</time>
      </trkpt>
      <trkpt lat="45.98499" lon="4.8518">
        <ele>275</ele>
        <time>2018-01-14T10:56:21Z</time>
      </trkpt>
      <trkpt lat="45.98505" lon="4.8518">
        <ele>274</ele>
        <time>2018-01-14T10:56:22Z</time>
      </trkpt>
      <trkpt lat="45.9851" lon="4.85179">
        <ele>274</ele>
        <time>2018-01-14T10:56:23Z</time>
      </trkpt>
      <trkpt lat="45.98515" lon="4.85177">
        <ele>274</ele>
        <time>2018-01-14T10:56:24Z</time>
      </trkpt>
      <trkpt lat="45.9852" lon="4.85176">
        <ele>273</ele>
        <time>2018-01-14T10:56:25Z</time>
      </trkpt>
      <trkpt lat="45.98525" lon="4.85175">
        <ele>273</ele>
        <time>2018-01-14T10:56:26Z</time>
      </trkpt>
      <trkpt lat="45.9853" lon="4.85174">
        <ele>273</ele>
        <time>2018-01-14T10:56:27Z</time>
      </trkpt>
      <trkpt lat="45.98536" lon="4.85172">
        <ele>273</ele>
        <time>2018-01-14T10:56:28Z</time>
      </trkpt>
      <trkpt lat="45.98541" lon="4.8517">
        <ele>273</ele>
        <time>2018-01-14T10:56:29Z</time>
      </trkpt>
      <trkpt lat="45.98547" lon="4.85169">
        <ele>273</ele>
        <time>2018-01-14T10:56:30Z</time>
      </trkpt>
      <trkpt lat="45.98552" lon="4.85166">
        <ele>274</ele>
        <time>2018-01-14T10:56:31Z</time>
      </trkpt>
      <trkpt lat="45.98557" lon="4.85163">
        <ele>274</ele>
        <time>2018-01-14T10:56:32Z</time>
      </trkpt>
      <trkpt lat="45.98563" lon="4.8516">
        <ele>273</ele>
        <time>2018-01-14T10:56:33Z</time>
      </trkpt>
      <trkpt lat="45.98568" lon="4.85158">
        <ele>273</ele>
        <time>2018-01-14T10:56:34Z</time>
      </trkpt>
      <trkpt lat="45.98574" lon="4.85155">
        <ele>273</ele>
        <time>2018-01-14T10:56:35Z</time>
      </trkpt>
      <trkpt lat="45.9858" lon="4.85153">
        <ele>273</ele>
        <time>2018-01-14T10:56:36Z</time>
      </trkpt>
      <trkpt lat="45.98585" lon="4.8515">
        <ele>272</ele>
        <time>2018-01-14T10:56:37Z</time>
      </trkpt>
      <trkpt lat="45.9859" lon="4.85147">
        <ele>272</ele>
        <time>2018-01-14T10:56:38Z</time>
      </trkpt>
      <trkpt lat="45.98595" lon="4.85145">
        <ele>272</ele>
        <time>2018-01-14T10:56:39Z</time>
      </trkpt>
      <trkpt lat="45.98601" lon="4.85142">
        <ele>272</ele>
        <time>2018-01-14T10:56:40Z</time>
      </trkpt>
      <trkpt lat="45.98608" lon="4.85139">
        <ele>272</ele>
        <time>2018-01-14T10:56:41Z</time>
      </trkpt>
      <trkpt lat="45.98613" lon="4.85136">
        <ele>272</ele>
        <time>2018-01-14T10:56:42Z</time>
      </trkpt>
      <trkpt lat="45.9862" lon="4.85135">
        <ele>272</ele>
        <time>2018-01-14T10:56:43Z</time>
      </trkpt>
      <trkpt lat="45.98626" lon="4.85132">
        <ele>272</ele>
        <time>2018-01-14T10:56:44Z</time>
      </trkpt>
      <trkpt lat="45.98632" lon="4.85129">
        <ele>272</ele>
        <time>2018-01-14T10:56:45Z</time>
      </trkpt>
      <trkpt lat="45.98639" lon="4.85126">
        <ele>272</ele>
        <time>2018-01-14T10:56:46Z</time>
      </trkpt>
      <trkpt lat="45.98646" lon="4.85123">
        <ele>271</ele>
        <time>2018-01-14T10:56:47Z</time>
      </trkpt>
      <trkpt lat="45.98652" lon="4.8512">
        <ele>271</ele>
        <time>2018-01-14T10:56:48Z</time>
      </trkpt>
      <trkpt lat="45.98659" lon="4.85117">
        <ele>271</ele>
        <time>2018-01-14T10:56:49Z</time>
      </trkpt>
      <trkpt lat="45.98665" lon="4.85113">
        <ele>271</ele>
        <time>2018-01-14T10:56:50Z</time>
      </trkpt>
      <trkpt lat="45.98672" lon="4.8511">
        <ele>270</ele>
        <time>2018-01-14T10:56:51Z</time>
      </trkpt>
      <trkpt lat="45.98678" lon="4.85108">
        <ele>270</ele>
        <time>2018-01-14T10:56:52Z</time>
      </trkpt>
      <trkpt lat="45.98685" lon="4.85104">
        <ele>270</ele>
        <time>2018-01-14T10:56:53Z</time>
      </trkpt>
      <trkpt lat="45.98692" lon="4.85101">
        <ele>270</ele>
        <time>2018-01-14T10:56:54Z</time>
      </trkpt>
      <trkpt lat="45.98698" lon="4.85098">
        <ele>270</ele>
        <time>2018-01-14T10:56:55Z</time>
      </trkpt>
      <trkpt lat="45.98705" lon="4.85094">
        <ele>270</ele>
        <time>2018-01-14T10:56:56Z</time>
      </trkpt>
      <trkpt lat="45.98712" lon="4.8509">
        <ele>270</ele>
        <time>2018-01-14T10:56:57Z</time>
      </trkpt>
      <trkpt lat="45.98718" lon="4.85087">
        <ele>270</ele>
        <time>2018-01-14T10:56:58Z</time>
      </trkpt>
      <trkpt lat="45.98724" lon="4.85083">
        <ele>270</ele>
        <time>2018-01-14T10:56:59Z</time>
      </trkpt>
      <trkpt lat="45.98731" lon="4.85079">
        <ele>269</ele>
        <time>2018-01-14T10:57:00Z</time>
      </trkpt>
      <trkpt lat="45.98737" lon="4.85077">
        <ele>269</ele>
        <time>2018-01-14T10:57:01Z</time>
      </trkpt>
      <trkpt lat="45.98743" lon="4.85074">
        <ele>269</ele>
        <time>2018-01-14T10:57:02Z</time>
      </trkpt>
      <trkpt lat="45.9875" lon="4.8507">
        <ele>269</ele>
        <time>2018-01-14T10:57:03Z</time>
      </trkpt>
      <trkpt lat="45.98756" lon="4.85067">
        <ele>268</ele>
        <time>2018-01-14T10:57:04Z</time>
      </trkpt>
      <trkpt lat="45.98762" lon="4.85065">
        <ele>268</ele>
        <time>2018-01-14T10:57:05Z</time>
      </trkpt>
      <trkpt lat="45.98768" lon="4.85062">
        <ele>268</ele>
        <time>2018-01-14T10:57:06Z</time>
      </trkpt>
      <trkpt lat="45.98774" lon="4.85059">
        <ele>268</ele>
        <time>2018-01-14T10:57:07Z</time>
      </trkpt>
      <trkpt lat="45.98781" lon="4.85056">
        <ele>267</ele>
        <time>2018-01-14T10:57:08Z</time>
      </trkpt>
      <trkpt lat="45.98787" lon="4.85053">
        <ele>267</ele>
        <time>2018-01-14T10:57:09Z</time>
      </trkpt>
      <trkpt lat="45.98794" lon="4.8505">
        <ele>267</ele>
        <time>2018-01-14T10:57:10Z</time>
      </trkpt>
      <trkpt lat="45.98801" lon="4.85046">
        <ele>267</ele>
        <time>2018-01-14T10:57:11Z</time>
      </trkpt>
      <trkpt lat="45.98808" lon="4.85042">
        <ele>267</ele>
        <time>2018-01-14T10:57:12Z</time>
      </trkpt>
      <trkpt lat="45.98815" lon="4.85039">
        <ele>267</ele>
        <time>2018-01-14T10:57:13Z</time>
      </trkpt>
      <trkpt lat="45.98822" lon="4.85035">
        <ele>267</ele>
        <time>2018-01-14T10:57:14Z</time>
      </trkpt>
      <trkpt lat="45.98829" lon="4.85032">
        <ele>267</ele>
        <time>2018-01-14T10:57:15Z</time>
      </trkpt>
      <trkpt lat="45.98836" lon="4.85027">
        <ele>266</ele>
        <time>2018-01-14T10:57:16Z</time>
      </trkpt>
      <trkpt lat="45.98843" lon="4.85024">
        <ele>266</ele>
        <time>2018-01-14T10:57:17Z</time>
      </trkpt>
      <trkpt lat="45.9885" lon="4.8502">
        <ele>266</ele>
        <time>2018-01-14T10:57:18Z</time>
      </trkpt>
      <trkpt lat="45.98857" lon="4.85016">
        <ele>266</ele>
        <time>2018-01-14T10:57:19Z</time>
      </trkpt>
      <trkpt lat="45.98864" lon="4.85012">
        <ele>266</ele>
        <time>2018-01-14T10:57:20Z</time>
      </trkpt>
      <trkpt lat="45.9887" lon="4.85009">
        <ele>266</ele>
        <time>2018-01-14T10:57:21Z</time>
      </trkpt>
      <trkpt lat="45.98876" lon="4.85005">
        <ele>267</ele>
        <time>2018-01-14T10:57:22Z</time>
      </trkpt>
      <trkpt lat="45.98883" lon="4.85001">
        <ele>267</ele>
        <time>2018-01-14T10:57:23Z</time>
      </trkpt>
      <trkpt lat="45.9889" lon="4.84998">
        <ele>267</ele>
        <time>2018-01-14T10:57:24Z</time>
      </trkpt>
      <trkpt lat="45.98896" lon="4.84995">
        <ele>267</ele>
        <time>2018-01-14T10:57:25Z</time>
      </trkpt>
      <trkpt lat="45.98902" lon="4.84991">
        <ele>267</ele>
        <time>2018-01-14T10:57:26Z</time>
      </trkpt>
      <trkpt lat="45.98909" lon="4.84988">
        <ele>267</ele>
        <time>2018-01-14T10:57:27Z</time>
      </trkpt>
      <trkpt lat="45.98915" lon="4.84984">
        <ele>267</ele>
        <time>2018-01-14T10:57:28Z</time>
      </trkpt>
      <trkpt lat="45.98922" lon="4.84982">
        <ele>267</ele>
        <time>2018-01-14T10:57:29Z</time>
      </trkpt>
      <trkpt lat="45.9893" lon="4.84978">
        <ele>267</ele>
        <time>2018-01-14T10:57:30Z</time>
      </trkpt>
      <trkpt lat="45.98937" lon="4.84975">
        <ele>266</ele>
        <time>2018-01-14T10:57:31Z</time>
      </trkpt>
      <trkpt lat="45.98944" lon="4.84971">
        <ele>266</ele>
        <time>2018-01-14T10:57:32Z</time>
      </trkpt>
      <trkpt lat="45.98951" lon="4.84967">
        <ele>266</ele>
        <time>2018-01-14T10:57:33Z</time>
      </trkpt>
      <trkpt lat="45.98958" lon="4.84965">
        <ele>266</ele>
        <time>2018-01-14T10:57:34Z</time>
      </trkpt>
      <trkpt lat="45.98965" lon="4.84961">
        <ele>266</ele>
        <time>2018-01-14T10:57:35Z</time>
      </trkpt>
      <trkpt lat="45.98972" lon="4.84958">
        <ele>266</ele>
        <time>2018-01-14T10:57:36Z</time>
      </trkpt>
      <trkpt lat="45.98978" lon="4.84954">
        <ele>266</ele>
        <time>2018-01-14T10:57:37Z</time>
      </trkpt>
      <trkpt lat="45.98985" lon="4.84951">
        <ele>266</ele>
        <time>2018-01-14T10:57:38Z</time>
      </trkpt>
      <trkpt lat="45.98993" lon="4.84948">
        <ele>266</ele>
        <time>2018-01-14T10:57:39Z</time>
      </trkpt>
      <trkpt lat="45.98999" lon="4.84944">
        <ele>266</ele>
        <time>2018-01-14T10:57:40Z</time>
      </trkpt>
      <trkpt lat="45.99006" lon="4.84941">
        <ele>265</ele>
        <time>2018-01-14T10:57:41Z</time>
      </trkpt>
      <trkpt lat="45.99012" lon="4.84938">
        <ele>264</ele>
        <time>2018-01-14T10:57:42Z</time>
      </trkpt>
      <trkpt lat="45.99019" lon="4.84934">
        <ele>264</ele>
        <time>2018-01-14T10:57:43Z</time>
      </trkpt>
      <trkpt lat="45.99026" lon="4.84931">
        <ele>264</ele>
        <time>2018-01-14T10:57:44Z</time>
      </trkpt>
      <trkpt lat="45.99033" lon="4.84927">
        <ele>264</ele>
        <time>2018-01-14T10:57:45Z</time>
      </trkpt>
      <trkpt lat="45.9904" lon="4.84923">
        <ele>264</ele>
        <time>2018-01-14T10:57:46Z</time>
      </trkpt>
      <trkpt lat="45.99046" lon="4.8492">
        <ele>264</ele>
        <time>2018-01-14T10:57:47Z</time>
      </trkpt>
      <trkpt lat="45.99053" lon="4.84916">
        <ele>263</ele>
        <time>2018-01-14T10:57:48Z</time>
      </trkpt>
      <trkpt lat="45.9906" lon="4.84912">
        <ele>263</ele>
        <time>2018-01-14T10:57:49Z</time>
      </trkpt>
      <trkpt lat="45.99067" lon="4.84909">
        <ele>263</ele>
        <time>2018-01-14T10:57:50Z</time>
      </trkpt>
      <trkpt lat="45.99074" lon="4.84905">
        <ele>263</ele>
        <time>2018-01-14T10:57:51Z</time>
      </trkpt>
      <trkpt lat="45.99081" lon="4.84901">
        <ele>263</ele>
        <time>2018-01-14T10:57:52Z</time>
      </trkpt>
      <trkpt lat="45.99088" lon="4.84897">
        <ele>261</ele>
        <time>2018-01-14T10:57:53Z</time>
      </trkpt>
      <trkpt lat="45.99096" lon="4.84893">
        <ele>261</ele>
        <time>2018-01-14T10:57:54Z</time>
      </trkpt>
      <trkpt lat="45.99103" lon="4.8489">
        <ele>261</ele>
        <time>2018-01-14T10:57:55Z</time>
      </trkpt>
      <trkpt lat="45.9911" lon="4.84886">
        <ele>260</ele>
        <time>2018-01-14T10:57:56Z</time>
      </trkpt>
      <trkpt lat="45.99117" lon="4.84882">
        <ele>260</ele>
        <time>2018-01-14T10:57:57Z</time>
      </trkpt>
      <trkpt lat="45.99125" lon="4.84878">
        <ele>260</ele>
        <time>2018-01-14T10:57:58Z</time>
      </trkpt>
      <trkpt lat="45.99132" lon="4.84875">
        <ele>260</ele>
        <time>2018-01-14T10:57:59Z</time>
      </trkpt>
      <trkpt lat="45.99139" lon="4.84871">
        <ele>260</ele>
        <time>2018-01-14T10:58:00Z</time>
      </trkpt>
      <trkpt lat="45.99146" lon="4.84867">
        <ele>260</ele>
        <time>2018-01-14T10:58:01Z</time>
      </trkpt>
      <trkpt lat="45.99154" lon="4.84862">
        <ele>259</ele>
        <time>2018-01-14T10:58:02Z</time>
      </trkpt>
      <trkpt lat="45.99162" lon="4.84857">
        <ele>259</ele>
        <time>2018-01-14T10:58:03Z</time>
      </trkpt>
      <trkpt lat="45.99171" lon="4.84854">
        <ele>257</ele>
        <time>2018-01-14T10:58:04Z</time>
      </trkpt>
      <trkpt lat="45.9918" lon="4.8485">
        <ele>257</ele>
        <time>2018-01-14T10:58:05Z</time>
      </trkpt>
      <trkpt lat="45.99189" lon="4.84844">
        <ele>257</ele>
        <time>2018-01-14T10:58:06Z</time>
      </trkpt>
      <trkpt lat="45.99197" lon="4.84841">
        <ele>256</ele>
        <time>2018-01-14T10:58:07Z</time>
      </trkpt>
      <trkpt lat="45.99207" lon="4.84835">
        <ele>256</ele>
        <time>2018-01-14T10:58:08Z</time>
      </trkpt>
      <trkpt lat="45.99216" lon="4.84829">
        <ele>257</ele>
        <time>2018-01-14T10:58:09Z</time>
      </trkpt>
      <trkpt lat="45.99226" lon="4.84824">
        <ele>256</ele>
        <time>2018-01-14T10:58:10Z</time>
      </trkpt>
      <trkpt lat="45.99235" lon="4.84818">
        <ele>256</ele>
        <time>2018-01-14T10:58:11Z</time>
      </trkpt>
      <trkpt lat="45.99245" lon="4.84812">
        <ele>256</ele>
        <time>2018-01-14T10:58:12Z</time>
      </trkpt>
      <trkpt lat="45.99254" lon="4.84807">
        <ele>254</ele>
        <time>2018-01-14T10:58:13Z</time>
      </trkpt>
      <trkpt lat="45.99264" lon="4.84802">
        <ele>253</ele>
        <time>2018-01-14T10:58:14Z</time>
      </trkpt>
      <trkpt lat="45.99273" lon="4.84797">
        <ele>253</ele>
        <time>2018-01-14T10:58:15Z</time>
      </trkpt>
      <trkpt lat="45.99283" lon="4.84792">
        <ele>253</ele>
        <time>2018-01-14T10:58:16Z</time>
      </trkpt>
      <trkpt lat="45.99293" lon="4.84787">
        <ele>253</ele>
        <time>2018-01-14T10:58:17Z</time>
      </trkpt>
      <trkpt lat="45.99303" lon="4.84781">
        <ele>253</ele>
        <time>2018-01-14T10:58:18Z</time>
      </trkpt>
      <trkpt lat="45.99312" lon="4.84776">
        <ele>253</ele>
        <time>2018-01-14T10:58:19Z</time>
      </trkpt>
      <trkpt lat="45.99321" lon="4.84771">
        <ele>252</ele>
        <time>2018-01-14T10:58:20Z</time>
      </trkpt>
      <trkpt lat="45.99331" lon="4.84766">
        <ele>252</ele>
        <time>2018-01-14T10:58:21Z</time>
      </trkpt>
      <trkpt lat="45.9934" lon="4.84761">
        <ele>251</ele>
        <time>2018-01-14T10:58:22Z</time>
      </trkpt>
      <trkpt lat="45.99349" lon="4.84756">
        <ele>251</ele>
        <time>2018-01-14T10:58:23Z</time>
      </trkpt>
      <trkpt lat="45.99359" lon="4.84751">
        <ele>250</ele>
        <time>2018-01-14T10:58:24Z</time>
      </trkpt>
      <trkpt lat="45.99368" lon="4.84746">
        <ele>250</ele>
        <time>2018-01-14T10:58:25Z</time>
      </trkpt>
      <trkpt lat="45.99377" lon="4.84742">
        <ele>250</ele>
        <time>2018-01-14T10:58:26Z</time>
      </trkpt>
      <trkpt lat="45.99385" lon="4.84737">
        <ele>249</ele>
        <time>2018-01-14T10:58:27Z</time>
      </trkpt>
      <trkpt lat="45.99394" lon="4.84733">
        <ele>249</ele>
        <time>2018-01-14T10:58:28Z</time>
      </trkpt>
      <trkpt lat="45.99402" lon="4.84727">
        <ele>249</ele>
        <time>2018-01-14T10:58:29Z</time>
      </trkpt>
      <trkpt lat="45.99411" lon="4.84723">
        <ele>249</ele>
        <time>2018-01-14T10:58:30Z</time>
      </trkpt>
      <trkpt lat="45.99419" lon="4.84718">
        <ele>249</ele>
        <time>2018-01-14T10:58:31Z</time>
      </trkpt>
      <trkpt lat="45.99428" lon="4.84714">
        <ele>249</ele>
        <time>2018-01-14T10:58:32Z</time>
      </trkpt>
      <trkpt lat="45.99436" lon="4.8471">
        <ele>249</ele>
        <time>2018-01-14T10:58:33Z</time>
      </trkpt>
      <trkpt lat="45.99443" lon="4.84706">
        <ele>250</ele>
        <time>2018-01-14T10:58:34Z</time>
      </trkpt>
      <trkpt lat="45.9945" lon="4.84702">
        <ele>250</ele>
        <time>2018-01-14T10:58:35Z</time>
      </trkpt>
      <trkpt lat="45.99458" lon="4.84697">
        <ele>250</ele>
        <time>2018-01-14T10:58:36Z</time>
      </trkpt>
      <trkpt lat="45.99466" lon="4.84692">
        <ele>250</ele>
        <time>2018-01-14T10:58:37Z</time>
      </trkpt>
      <trkpt lat="45.99473" lon="4.84689">
        <ele>250</ele>
        <time>2018-01-14T10:58:38Z</time>
      </trkpt>
      <trkpt lat="45.99479" lon="4.84688">
        <ele>250</ele>
        <time>2018-01-14T10:58:39Z</time>
      </trkpt>
      <trkpt lat="45.99486" lon="4.84686">
        <ele>250</ele>
        <time>2018-01-14T10:58:40Z</time>
      </trkpt>
      <trkpt lat="45.99491" lon="4.84685">
        <ele>250</ele>
        <time>2018-01-14T10:58:41Z</time>
      </trkpt>
      <trkpt lat="45.99497" lon="4.84684">
        <ele>250</ele>
        <time>2018-01-14T10:58:42Z</time>
      </trkpt>
      <trkpt lat="45.99503" lon="4.84683">
        <ele>251</ele>
        <time>2018-01-14T10:58:43Z</time>
      </trkpt>
      <trkpt lat="45.99509" lon="4.84682">
        <ele>251</ele>
        <time>2018-01-14T10:58:44Z</time>
      </trkpt>
      <trkpt lat="45.99516" lon="4.8468">
        <ele>251</ele>
        <time>2018-01-14T10:58:45Z</time>
      </trkpt>
      <trkpt lat="45.99522" lon="4.84679">
        <ele>251</ele>
        <time>2018-01-14T10:58:46Z</time>
      </trkpt>
      <trkpt lat="45.99528" lon="4.84677">
        <ele>251</ele>
        <time>2018-01-14T10:58:47Z</time>
      </trkpt>
      <trkpt lat="45.99535" lon="4.84676">
        <ele>251</ele>
        <time>2018-01-14T10:58:48Z</time>
      </trkpt>
      <trkpt lat="45.99541" lon="4.84674">
        <ele>251</ele>
        <time>2018-01-14T10:58:49Z</time>
      </trkpt>
      <trkpt lat="45.99548" lon="4.84673">
        <ele>251</ele>
        <time>2018-01-14T10:58:50Z</time>
      </trkpt>
      <trkpt lat="45.99554" lon="4.84672">
        <ele>251</ele>
        <time>2018-01-14T10:58:51Z</time>
      </trkpt>
      <trkpt lat="45.9956" lon="4.84672">
        <ele>251</ele>
        <time>2018-01-14T10:58:52Z</time>
      </trkpt>
      <trkpt lat="45.99565" lon="4.84671">
        <ele>251</ele>
        <time>2018-01-14T10:58:53Z</time>
      </trkpt>
      <trkpt lat="45.9957" lon="4.8467">
        <ele>251</ele>
        <time>2018-01-14T10:58:54Z</time>
      </trkpt>
      <trkpt lat="45.99575" lon="4.84669">
        <ele>250</ele>
        <time>2018-01-14T10:58:55Z</time>
      </trkpt>
      <trkpt lat="45.99581" lon="4.84669">
        <ele>250</ele>
        <time>2018-01-14T10:58:56Z</time>
      </trkpt>
      <trkpt lat="45.99587" lon="4.84668">
        <ele>250</ele>
        <time>2018-01-14T10:58:57Z</time>
      </trkpt>
      <trkpt lat="45.99594" lon="4.84667">
        <ele>251</ele>
        <time>2018-01-14T10:58:58Z</time>
      </trkpt>
      <trkpt lat="45.996" lon="4.84666">
        <ele>250</ele>
        <time>2018-01-14T10:58:59Z</time>
      </trkpt>
      <trkpt lat="45.99606" lon="4.84664">
        <ele>250</ele>
        <time>2018-01-14T10:59:00Z</time>
      </trkpt>
      <trkpt lat="45.99613" lon="4.84663">
        <ele>250</ele>
        <time>2018-01-14T10:59:01Z</time>
      </trkpt>
      <trkpt lat="45.99619" lon="4.84661">
        <ele>250</ele>
        <time>2018-01-14T10:59:02Z</time>
      </trkpt>
      <trkpt lat="45.99625" lon="4.8466">
        <ele>250</ele>
        <time>2018-01-14T10:59:03Z</time>
      </trkpt>
      <trkpt lat="45.99632" lon="4.84658">
        <ele>250</ele>
        <time>2018-01-14T10:59:04Z</time>
      </trkpt>
      <trkpt lat="45.99639" lon="4.84657">
        <ele>250</ele>
        <time>2018-01-14T10:59:05Z</time>
      </trkpt>
      <trkpt lat="45.99645" lon="4.84655">
        <ele>250</ele>
        <time>2018-01-14T10:59:06Z</time>
      </trkpt>
      <trkpt lat="45.99651" lon="4.84653">
        <ele>250</ele>
        <time>2018-01-14T10:59:07Z</time>
      </trkpt>
      <trkpt lat="45.99657" lon="4.84651">
        <ele>250</ele>
        <time>2018-01-14T10:59:08Z</time>
      </trkpt>
      <trkpt lat="45.99663" lon="4.8465">
        <ele>251</ele>
        <time>2018-01-14T10:59:09Z</time>
      </trkpt>
      <trkpt lat="45.99669" lon="4.84648">
        <ele>251</ele>
        <time>2018-01-14T10:59:10Z</time>
      </trkpt>
      <trkpt lat="45.99675" lon="4.84647">
        <ele>251</ele>
        <time>2018-01-14T10:59:11Z</time>
      </trkpt>
      <trkpt lat="45.99681" lon="4.84645">
        <ele>252</ele>
        <time>2018-01-14T10:59:12Z</time>
      </trkpt>
      <trkpt lat="45.99687" lon="4.84644">
        <ele>252</ele>
        <time>2018-01-14T10:59:13Z</time>
      </trkpt>
      <trkpt lat="45.99693" lon="4.84641">
        <ele>252</ele>
        <time>2018-01-14T10:59:14Z</time>
      </trkpt>
      <trkpt lat="45.99699" lon="4.84641">
        <ele>252</ele>
        <time>2018-01-14T10:59:15Z</time>
      </trkpt>
      <trkpt lat="45.99705" lon="4.84639">
        <ele>252</ele>
        <time>2018-01-14T10:59:16Z</time>
      </trkpt>
      <trkpt lat="45.99711" lon="4.84638">
        <ele>252</ele>
        <time>2018-01-14T10:59:17Z</time>
      </trkpt>
      <trkpt lat="45.99717" lon="4.84637">
        <ele>252</ele>
        <time>2018-01-14T10:59:18Z</time>
      </trkpt>
      <trkpt lat="45.99723" lon="4.84635">
        <ele>252</ele>
        <time>2018-01-14T10:59:19Z</time>
      </trkpt>
      <trkpt lat="45.99728" lon="4.84633">
        <ele>252</ele>
        <time>2018-01-14T10:59:20Z</time>
      </trkpt>
      <trkpt lat="45.99733" lon="4.84634">
        <ele>252</ele>
        <time>2018-01-14T10:59:21Z</time>
      </trkpt>
      <trkpt lat="45.99739" lon="4.84633">
        <ele>252</ele>
        <time>2018-01-14T10:59:22Z</time>
      </trkpt>
      <trkpt lat="45.99744" lon="4.84632">
        <ele>252</ele>
        <time>2018-01-14T10:59:23Z</time>
      </trkpt>
      <trkpt lat="45.99749" lon="4.84631">
        <ele>253</ele>
        <time>2018-01-14T10:59:24Z</time>
      </trkpt>
      <trkpt lat="45.99754" lon="4.84631">
        <ele>254</ele>
        <time>2018-01-14T10:59:25Z</time>
      </trkpt>
      <trkpt lat="45.99759" lon="4.84631">
        <ele>254</ele>
        <time>2018-01-14T10:59:26Z</time>
      </trkpt>
      <trkpt lat="45.99764" lon="4.84631">
        <ele>254</ele>
        <time>2018-01-14T10:59:27Z</time>
      </trkpt>
      <trkpt lat="45.99769" lon="4.84632">
        <ele>254</ele>
        <time>2018-01-14T10:59:28Z</time>
      </trkpt>
      <trkpt lat="45.99773" lon="4.84632">
        <ele>254</ele>
        <time>2018-01-14T10:59:29Z</time>
      </trkpt>
      <trkpt lat="45.99778" lon="4.84633">
        <ele>254</ele>
        <time>2018-01-14T10:59:30Z</time>
      </trkpt>
      <trkpt lat="45.99783" lon="4.84633">
        <ele>254</ele>
        <time>2018-01-14T10:59:31Z</time>
      </trkpt>
      <trkpt lat="45.99788" lon="4.84633">
        <ele>254</ele>
        <time>2018-01-14T10:59:32Z</time>
      </trkpt>
      <trkpt lat="45.99792" lon="4.84635">
        <ele>254</ele>
        <time>2018-01-14T10:59:33Z</time>
      </trkpt>
      <trkpt lat="45.99797" lon="4.84637">
        <ele>254</ele>
        <time>2018-01-14T10:59:34Z</time>
      </trkpt>
      <trkpt lat="45.99805" lon="4.84639">
        <ele>254</ele>
        <time>2018-01-14T10:59:36Z</time>
      </trkpt>
      <trkpt lat="45.99809" lon="4.8464">
        <ele>254</ele>
        <time>2018-01-14T10:59:37Z</time>
      </trkpt>
      <trkpt lat="45.99814" lon="4.84641">
        <ele>254</ele>
        <time>2018-01-14T10:59:38Z</time>
      </trkpt>
      <trkpt lat="45.99818" lon="4.84643">
        <ele>254</ele>
        <time>2018-01-14T10:59:39Z</time>
      </trkpt>
      <trkpt lat="45.99827" lon="4.84643">
        <ele>254</ele>
        <time>2018-01-14T10:59:41Z</time>
      </trkpt>
      <trkpt lat="45.99831" lon="4.84644">
        <ele>254</ele>
        <time>2018-01-14T10:59:42Z</time>
      </trkpt>
      <trkpt lat="45.99836" lon="4.84645">
        <ele>254</ele>
        <time>2018-01-14T10:59:43Z</time>
      </trkpt>
      <trkpt lat="45.9984" lon="4.84647">
        <ele>254</ele>
        <time>2018-01-14T10:59:44Z</time>
      </trkpt>
      <trkpt lat="45.99849" lon="4.84651">
        <ele>254</ele>
        <time>2018-01-14T10:59:46Z</time>
      </trkpt>
      <trkpt lat="45.99854" lon="4.84656">
        <ele>254</ele>
        <time>2018-01-14T10:59:47Z</time>
      </trkpt>
      <trkpt lat="45.99859" lon="4.84656">
        <ele>254</ele>
        <time>2018-01-14T10:59:48Z</time>
      </trkpt>
      <trkpt lat="45.99863" lon="4.84658">
        <ele>254</ele>
        <time>2018-01-14T10:59:49Z</time>
      </trkpt>
      <trkpt lat="45.99868" lon="4.84659">
        <ele>254</ele>
        <time>2018-01-14T10:59:50Z</time>
      </trkpt>
      <trkpt lat="45.99873" lon="4.8466">
        <ele>254</ele>
        <time>2018-01-14T10:59:51Z</time>
      </trkpt>
      <trkpt lat="45.99879" lon="4.84662">
        <ele>254</ele>
        <time>2018-01-14T10:59:52Z</time>
      </trkpt>
      <trkpt lat="45.99884" lon="4.84663">
        <ele>254</ele>
        <time>2018-01-14T10:59:53Z</time>
      </trkpt>
      <trkpt lat="45.99888" lon="4.84665">
        <ele>254</ele>
        <time>2018-01-14T10:59:54Z</time>
      </trkpt>
      <trkpt lat="45.99893" lon="4.84666">
        <ele>254</ele>
        <time>2018-01-14T10:59:55Z</time>
      </trkpt>
      <trkpt lat="45.99898" lon="4.84667">
        <ele>255</ele>
        <time>2018-01-14T10:59:56Z</time>
      </trkpt>
      <trkpt lat="45.99903" lon="4.84668">
        <ele>255</ele>
        <time>2018-01-14T10:59:57Z</time>
      </trkpt>
      <trkpt lat="45.99908" lon="4.84669">
        <ele>255</ele>
        <time>2018-01-14T10:59:58Z</time>
      </trkpt>
      <trkpt lat="45.99916" lon="4.84671">
        <ele>254</ele>
        <time>2018-01-14T11:00:00Z</time>
      </trkpt>
      <trkpt lat="45.99921" lon="4.84672">
        <ele>254</ele>
        <time>2018-01-14T11:00:01Z</time>
      </trkpt>
      <trkpt lat="45.99926" lon="4.84674">
        <ele>255</ele>
        <time>2018-01-14T11:00:02Z</time>
      </trkpt>
      <trkpt lat="45.9993" lon="4.84676">
        <ele>255</ele>
        <time>2018-01-14T11:00:03Z</time>
      </trkpt>
      <trkpt lat="45.99934" lon="4.84677">
        <ele>255</ele>
        <time>2018-01-14T11:00:04Z</time>
      </trkpt>
      <trkpt lat="45.99939" lon="4.84679">
        <ele>255</ele>
        <time>2018-01-14T11:00:05Z</time>
      </trkpt>
      <trkpt lat="45.99943" lon="4.8468">
        <ele>255</ele>
        <time>2018-01-14T11:00:06Z</time>
      </trkpt>
      <trkpt lat="45.99948" lon="4.84682">
        <ele>255</ele>
        <time>2018-01-14T11:00:07Z</time>
      </trkpt>
      <trkpt lat="45.99953" lon="4.84683">
        <ele>255</ele>
        <time>2018-01-14T11:00:08Z</time>
      </trkpt>
      <trkpt lat="45.99958" lon="4.84684">
        <ele>255</ele>
        <time>2018-01-14T11:00:09Z</time>
      </trkpt>
      <trkpt lat="45.99963" lon="4.84686">
        <ele>255</ele>
        <time>2018-01-14T11:00:10Z</time>
      </trkpt>
      <trkpt lat="45.99968" lon="4.84686">
        <ele>255</ele>
        <time>2018-01-14T11:00:11Z</time>
      </trkpt>
      <trkpt lat="45.99972" lon="4.84687">
        <ele>256</ele>
        <time>2018-01-14T11:00:12Z</time>
      </trkpt>
      <trkpt lat="45.99977" lon="4.84689">
        <ele>256</ele>
        <time>2018-01-14T11:00:13Z</time>
      </trkpt>
      <trkpt lat="45.99981" lon="4.8469">
        <ele>256</ele>
        <time>2018-01-14T11:00:14Z</time>
      </trkpt>
      <trkpt lat="45.99986" lon="4.84691">
        <ele>256</ele>
        <time>2018-01-14T11:00:15Z</time>
      </trkpt>
      <trkpt lat="45.99991" lon="4.84694">
        <ele>256</ele>
        <time>2018-01-14T11:00:16Z</time>
      </trkpt>
      <trkpt lat="45.99995" lon="4.84694">
        <ele>256</ele>
        <time>2018-01-14T11:00:17Z</time>
      </trkpt>
      <trkpt lat="46" lon="4.84695">
        <ele>256</ele>
        <time>2018-01-14T11:00:18Z</time>
      </trkpt>
      <trkpt lat="46.00005" lon="4.84696">
        <ele>256</ele>
        <time>2018-01-14T11:00:19Z</time>
      </trkpt>
      <trkpt lat="46.0001" lon="4.84696">
        <ele>256</ele>
        <time>2018-01-14T11:00:20Z</time>
      </trkpt>
      <trkpt lat="46.00018" lon="4.84699">
        <ele>256</ele>
        <time>2018-01-14T11:00:22Z</time>
      </trkpt>
      <trkpt lat="46.00022" lon="4.847">
        <ele>256</ele>
        <time>2018-01-14T11:00:23Z</time>
      </trkpt>
      <trkpt lat="46.00031" lon="4.84701">
        <ele>256</ele>
        <time>2018-01-14T11:00:25Z</time>
      </trkpt>
      <trkpt lat="46.00035" lon="4.84703">
        <ele>256</ele>
        <time>2018-01-14T11:00:26Z</time>
      </trkpt>
      <trkpt lat="46.00044" lon="4.84704">
        <ele>256</ele>
        <time>2018-01-14T11:00:28Z</time>
      </trkpt>
      <trkpt lat="46.00048" lon="4.84703">
        <ele>256</ele>
        <time>2018-01-14T11:00:29Z</time>
      </trkpt>
      <trkpt lat="46.00055" lon="4.84704">
        <ele>257</ele>
        <time>2018-01-14T11:00:31Z</time>
      </trkpt>
      <trkpt lat="46.00058" lon="4.84705">
        <ele>257</ele>
        <time>2018-01-14T11:00:32Z</time>
      </trkpt>
      <trkpt lat="46.00065" lon="4.84706">
        <ele>257</ele>
        <time>2018-01-14T11:00:34Z</time>
      </trkpt>
      <trkpt lat="46.00068" lon="4.84706">
        <ele>257</ele>
        <time>2018-01-14T11:00:35Z</time>
      </trkpt>
      <trkpt lat="46.00075" lon="4.84707">
        <ele>257</ele>
        <time>2018-01-14T11:00:42Z</time>
      </trkpt>
      <trkpt lat="46.00077" lon="4.84706">
        <ele>257</ele>
        <time>2018-01-14T11:00:43Z</time>
      </trkpt>
      <trkpt lat="46.00082" lon="4.84702">
        <ele>257</ele>
        <time>2018-01-14T11:00:46Z</time>
      </trkpt>
      <trkpt lat="46.00084" lon="4.84698">
        <ele>257</ele>
        <time>2018-01-14T11:00:47Z</time>
      </trkpt>
      <trkpt lat="46.00085" lon="4.84689">
        <ele>257</ele>
        <time>2018-01-14T11:00:49Z</time>
      </trkpt>
      <trkpt lat="46.00085" lon="4.84685">
        <ele>257</ele>
        <time>2018-01-14T11:00:50Z</time>
      </trkpt>
      <trkpt lat="46.00084" lon="4.84676">
        <ele>256</ele>
        <time>2018-01-14T11:00:52Z</time>
      </trkpt>
      <trkpt lat="46.00084" lon="4.84671">
        <ele>256</ele>
        <time>2018-01-14T11:00:53Z</time>
      </trkpt>
      <trkpt lat="46.00084" lon="4.84659">
        <ele>256</ele>
        <time>2018-01-14T11:00:55Z</time>
      </trkpt>
      <trkpt lat="46.00084" lon="4.84652">
        <ele>257</ele>
        <time>2018-01-14T11:00:56Z</time>
      </trkpt>
      <trkpt lat="46.00084" lon="4.84646">
        <ele>257</ele>
        <time>2018-01-14T11:00:57Z</time>
      </trkpt>
      <trkpt lat="46.00085" lon="4.84636">
        <ele>257</ele>
        <time>2018-01-14T11:00:58Z</time>
      </trkpt>
      <trkpt lat="46.00084" lon="4.8463">
        <ele>257</ele>
        <time>2018-01-14T11:00:59Z</time>
      </trkpt>
      <trkpt lat="46.00084" lon="4.84623">
        <ele>257</ele>
        <time>2018-01-14T11:01:00Z</time>
      </trkpt>
      <trkpt lat="46.00084" lon="4.84615">
        <ele>257</ele>
        <time>2018-01-14T11:01:01Z</time>
      </trkpt>
      <trkpt lat="46.00084" lon="4.8461">
        <ele>257</ele>
        <time>2018-01-14T11:01:02Z</time>
      </trkpt>
      <trkpt lat="46.00084" lon="4.84599">
        <ele>257</ele>
        <time>2018-01-14T11:01:03Z</time>
      </trkpt>
      <trkpt lat="46.00084" lon="4.84593">
        <ele>257</ele>
        <time>2018-01-14T11:01:04Z</time>
      </trkpt>
      <trkpt lat="46.00083" lon="4.84585">
        <ele>257</ele>
        <time>2018-01-14T11:01:05Z</time>
      </trkpt>
      <trkpt lat="46.00083" lon="4.84578">
        <ele>257</ele>
        <time>2018-01-14T11:01:06Z</time>
      </trkpt>
      <trkpt lat="46.00083" lon="4.84572">
        <ele>257</ele>
        <time>2018-01-14T11:01:07Z</time>
      </trkpt>
      <trkpt lat="46.00083" lon="4.84564">
        <ele>257</ele>
        <time>2018-01-14T11:01:08Z</time>
      </trkpt>
      <trkpt lat="46.00082" lon="4.84559">
        <ele>257</ele>
        <time>2018-01-14T11:01:09Z</time>
      </trkpt>
      <trkpt lat="46.00082" lon="4.84551">
        <ele>257</ele>
        <time>2018-01-14T11:01:10Z</time>
      </trkpt>
      <trkpt lat="46.00084" lon="4.84539">
        <ele>258</ele>
        <time>2018-01-14T11:01:12Z</time>
      </trkpt>
      <trkpt lat="46.00085" lon="4.84534">
        <ele>258</ele>
        <time>2018-01-14T11:01:13Z</time>
      </trkpt>
      <trkpt lat="46.00088" lon="4.84525">
        <ele>259</ele>
        <time>2018-01-14T11:01:15Z</time>
      </trkpt>
      <trkpt lat="46.0009" lon="4.84521">
        <ele>259</ele>
        <time>2018-01-14T11:01:16Z</time>
      </trkpt>
      <trkpt lat="46.00091" lon="4.84511">
        <ele>259</ele>
        <time>2018-01-14T11:01:18Z</time>
      </trkpt>
      <trkpt lat="46.00093" lon="4.84504">
        <ele>259</ele>
        <time>2018-01-14T11:01:19Z</time>
      </trkpt>
      <trkpt lat="46.00094" lon="4.84492">
        <ele>259</ele>
        <time>2018-01-14T11:01:22Z</time>
      </trkpt>
      <trkpt lat="46.00094" lon="4.84488">
        <ele>259</ele>
        <time>2018-01-14T11:01:23Z</time>
      </trkpt>
      <trkpt lat="46.00094" lon="4.84475">
        <ele>260</ele>
        <time>2018-01-14T11:01:26Z</time>
      </trkpt>
      <trkpt lat="46.00094" lon="4.84471">
        <ele>260</ele>
        <time>2018-01-14T11:01:27Z</time>
      </trkpt>
      <trkpt lat="46.00094" lon="4.84458">
        <ele>260</ele>
        <time>2018-01-14T11:01:30Z</time>
      </trkpt>
      <trkpt lat="46.00094" lon="4.84454">
        <ele>260</ele>
        <time>2018-01-14T11:01:31Z</time>
      </trkpt>
      <trkpt lat="46.00087" lon="4.84449">
        <ele>260</ele>
        <time>2018-01-14T11:01:36Z</time>
      </trkpt>
      <trkpt lat="46.00085" lon="4.84451">
        <ele>260</ele>
        <time>2018-01-14T11:01:37Z</time>
      </trkpt>
      <trkpt lat="46.00078" lon="4.84457">
        <ele>258</ele>
        <time>2018-01-14T11:05:03Z</time>
      </trkpt>
      <trkpt lat="46.00078" lon="4.84457">
        <ele>258</ele>
        <time>2018-01-14T11:05:04Z</time>
      </trkpt>
      <trkpt lat="46.00079" lon="4.84454">
        <ele>258</ele>
        <time>2018-01-14T11:07:27Z</time>
      </trkpt>
      <trkpt lat="46.00079" lon="4.84454">
        <ele>258</ele>
        <time>2018-01-14T11:07:28Z</time>
      </trkpt>
      <trkpt lat="46.00079" lon="4.84455">
        <ele>258</ele>
        <time>2018-01-14T11:07:30Z</time>
      </trkpt>
      <trkpt lat="46.00079" lon="4.84455">
        <ele>258</ele>
        <time>2018-01-14T11:07:31Z</time>
      </trkpt>
      <trkpt lat="46.00071" lon="4.84458">
        <ele>258</ele>
        <time>2018-01-14T11:10:05Z</time>
      </trkpt>
      <trkpt lat="46.0007" lon="4.84459">
        <ele>258</ele>
        <time>2018-01-14T11:10:06Z</time>
      </trkpt>
      <trkpt lat="46.00078" lon="4.84462">
        <ele>258</ele>
        <time>2018-01-14T11:13:00Z</time>
      </trkpt>
      <trkpt lat="46.00079" lon="4.84463">
        <ele>258</ele>
        <time>2018-01-14T11:13:01Z</time>
      </trkpt>
      <trkpt lat="46.00087" lon="4.84468">
        <ele>260</ele>
        <time>2018-01-14T11:13:09Z</time>
      </trkpt>
      <trkpt lat="46.00088" lon="4.8447">
        <ele>260</ele>
        <time>2018-01-14T11:13:10Z</time>
      </trkpt>
      <trkpt lat="46.00088" lon="4.84482">
        <ele>259</ele>
        <time>2018-01-14T11:13:14Z</time>
      </trkpt>
      <trkpt lat="46.00088" lon="4.84486">
        <ele>259</ele>
        <time>2018-01-14T11:13:15Z</time>
      </trkpt>
      <trkpt lat="46.00086" lon="4.84496">
        <ele>259</ele>
        <time>2018-01-14T11:13:17Z</time>
      </trkpt>
      <trkpt lat="46.00085" lon="4.845">
        <ele>259</ele>
        <time>2018-01-14T11:13:18Z</time>
      </trkpt>
      <trkpt lat="46.00082" lon="4.8451">
        <ele>258</ele>
        <time>2018-01-14T11:13:20Z</time>
      </trkpt>
      <trkpt lat="46.00079" lon="4.84514">
        <ele>258</ele>
        <time>2018-01-14T11:13:21Z</time>
      </trkpt>
      <trkpt lat="46.00075" lon="4.84515">
        <ele>258</ele>
        <time>2018-01-14T11:13:22Z</time>
      </trkpt>
      <trkpt lat="46.00072" lon="4.84505">
        <ele>258</ele>
        <time>2018-01-14T11:13:23Z</time>
      </trkpt>
      <trkpt lat="46.00072" lon="4.84494">
        <ele>259</ele>
        <time>2018-01-14T11:13:25Z</time>
      </trkpt>
      <trkpt lat="46.00072" lon="4.84488">
        <ele>258</ele>
        <time>2018-01-14T11:13:26Z</time>
      </trkpt>
      <trkpt lat="46.00072" lon="4.84482">
        <ele>258</ele>
        <time>2018-01-14T11:13:27Z</time>
      </trkpt>
      <trkpt lat="46.0007" lon="4.84475">
        <ele>258</ele>
        <time>2018-01-14T11:13:28Z</time>
      </trkpt>
      <trkpt lat="46.00067" lon="4.84463">
        <ele>258</ele>
        <time>2018-01-14T11:13:30Z</time>
      </trkpt>
      <trkpt lat="46.00066" lon="4.84457">
        <ele>258</ele>
        <time>2018-01-14T11:13:31Z</time>
      </trkpt>
      <trkpt lat="46.00065" lon="4.8445">
        <ele>258</ele>
        <time>2018-01-14T11:13:32Z</time>
      </trkpt>
      <trkpt lat="46.00064" lon="4.84442">
        <ele>258</ele>
        <time>2018-01-14T11:13:33Z</time>
      </trkpt>
      <trkpt lat="46.00062" lon="4.8443">
        <ele>258</ele>
        <time>2018-01-14T11:13:35Z</time>
      </trkpt>
      <trkpt lat="46.0006" lon="4.84423">
        <ele>258</ele>
        <time>2018-01-14T11:13:36Z</time>
      </trkpt>
      <trkpt lat="46.0006" lon="4.84417">
        <ele>258</ele>
        <time>2018-01-14T11:13:37Z</time>
      </trkpt>
      <trkpt lat="46.00058" lon="4.84411">
        <ele>259</ele>
        <time>2018-01-14T11:13:38Z</time>
      </trkpt>
      <trkpt lat="46.00056" lon="4.84399">
        <ele>259</ele>
        <time>2018-01-14T11:13:40Z</time>
      </trkpt>
      <trkpt lat="46.00054" lon="4.84393">
        <ele>259</ele>
        <time>2018-01-14T11:13:41Z</time>
      </trkpt>
      <trkpt lat="46.00053" lon="4.8438">
        <ele>259</ele>
        <time>2018-01-14T11:13:43Z</time>
      </trkpt>
      <trkpt lat="46.00052" lon="4.84374">
        <ele>259</ele>
        <time>2018-01-14T11:13:44Z</time>
      </trkpt>
      <trkpt lat="46.00051" lon="4.84367">
        <ele>259</ele>
        <time>2018-01-14T11:13:45Z</time>
      </trkpt>
      <trkpt lat="46.00049" lon="4.84361">
        <ele>259</ele>
        <time>2018-01-14T11:13:46Z</time>
      </trkpt>
      <trkpt lat="46.00047" lon="4.84349">
        <ele>259</ele>
        <time>2018-01-14T11:13:48Z</time>
      </trkpt>
      <trkpt lat="46.00046" lon="4.84342">
        <ele>259</ele>
        <time>2018-01-14T11:13:49Z</time>
      </trkpt>
      <trkpt lat="46.00045" lon="4.84335">
        <ele>259</ele>
        <time>2018-01-14T11:13:50Z</time>
      </trkpt>
      <trkpt lat="46.00044" lon="4.84329">
        <ele>260</ele>
        <time>2018-01-14T11:13:51Z</time>
      </trkpt>
      <trkpt lat="46.00043" lon="4.84323">
        <ele>260</ele>
        <time>2018-01-14T11:13:52Z</time>
      </trkpt>
      <trkpt lat="46.00042" lon="4.84316">
        <ele>259</ele>
        <time>2018-01-14T11:13:53Z</time>
      </trkpt>
      <trkpt lat="46.0004" lon="4.8431">
        <ele>259</ele>
        <time>2018-01-14T11:13:54Z</time>
      </trkpt>
      <trkpt lat="46.00038" lon="4.84304">
        <ele>259</ele>
        <time>2018-01-14T11:13:55Z</time>
      </trkpt>
      <trkpt lat="46.00037" lon="4.84297">
        <ele>259</ele>
        <time>2018-01-14T11:13:56Z</time>
      </trkpt>
      <trkpt lat="46.00036" lon="4.84291">
        <ele>260</ele>
        <time>2018-01-14T11:13:57Z</time>
      </trkpt>
      <trkpt lat="46.00034" lon="4.84284">
        <ele>260</ele>
        <time>2018-01-14T11:13:58Z</time>
      </trkpt>
      <trkpt lat="46.00032" lon="4.84278">
        <ele>260</ele>
        <time>2018-01-14T11:13:59Z</time>
      </trkpt>
      <trkpt lat="46.0003" lon="4.84272">
        <ele>260</ele>
        <time>2018-01-14T11:14:00Z</time>
      </trkpt>
      <trkpt lat="46.00028" lon="4.84266">
        <ele>260</ele>
        <time>2018-01-14T11:14:01Z</time>
      </trkpt>
      <trkpt lat="46.00026" lon="4.84259">
        <ele>260</ele>
        <time>2018-01-14T11:14:02Z</time>
      </trkpt>
      <trkpt lat="46.00024" lon="4.84252">
        <ele>260</ele>
        <time>2018-01-14T11:14:03Z</time>
      </trkpt>
      <trkpt lat="46.00022" lon="4.84245">
        <ele>259</ele>
        <time>2018-01-14T11:14:04Z</time>
      </trkpt>
      <trkpt lat="46.0002" lon="4.84238">
        <ele>259</ele>
        <time>2018-01-14T11:14:05Z</time>
      </trkpt>
      <trkpt lat="46.00018" lon="4.8423">
        <ele>259</ele>
        <time>2018-01-14T11:14:06Z</time>
      </trkpt>
      <trkpt lat="46.00016" lon="4.84223">
        <ele>259</ele>
        <time>2018-01-14T11:14:07Z</time>
      </trkpt>
      <trkpt lat="46.00014" lon="4.84216">
        <ele>259</ele>
        <time>2018-01-14T11:14:08Z</time>
      </trkpt>
      <trkpt lat="46.00012" lon="4.84207">
        <ele>259</ele>
        <time>2018-01-14T11:14:09Z</time>
      </trkpt>
      <trkpt lat="46.00009" lon="4.842">
        <ele>258</ele>
        <time>2018-01-14T11:14:10Z</time>
      </trkpt>
      <trkpt lat="46.00007" lon="4.84193">
        <ele>258</ele>
        <time>2018-01-14T11:14:11Z</time>
      </trkpt>
      <trkpt lat="46.00004" lon="4.84185">
        <ele>258</ele>
        <time>2018-01-14T11:14:12Z</time>
      </trkpt>
      <trkpt lat="46.00003" lon="4.84178">
        <ele>258</ele>
        <time>2018-01-14T11:14:13Z</time>
      </trkpt>
      <trkpt lat="46" lon="4.8417">
        <ele>257</ele>
        <time>2018-01-14T11:14:14Z</time>
      </trkpt>
      <trkpt lat="45.99998" lon="4.84163">
        <ele>257</ele>
        <time>2018-01-14T11:14:15Z</time>
      </trkpt>
      <trkpt lat="45.99996" lon="4.84155">
        <ele>257</ele>
        <time>2018-01-14T11:14:16Z</time>
      </trkpt>
      <trkpt lat="45.99993" lon="4.84147">
        <ele>257</ele>
        <time>2018-01-14T11:14:17Z</time>
      </trkpt>
      <trkpt lat="45.99992" lon="4.84139">
        <ele>257</ele>
        <time>2018-01-14T11:14:18Z</time>
      </trkpt>
      <trkpt lat="45.99989" lon="4.84132">
        <ele>257</ele>
        <time>2018-01-14T11:14:19Z</time>
      </trkpt>
      <trkpt lat="45.99987" lon="4.84124">
        <ele>257</ele>
        <time>2018-01-14T11:14:20Z</time>
      </trkpt>
      <trkpt lat="45.99985" lon="4.84117">
        <ele>258</ele>
        <time>2018-01-14T11:14:21Z</time>
      </trkpt>
      <trkpt lat="45.99983" lon="4.8411">
        <ele>258</ele>
        <time>2018-01-14T11:14:22Z</time>
      </trkpt>
      <trkpt lat="45.9998" lon="4.84104">
        <ele>258</ele>
        <time>2018-01-14T11:14:23Z</time>
      </trkpt>
      <trkpt lat="45.99979" lon="4.84097">
        <ele>258</ele>
        <time>2018-01-14T11:14:24Z</time>
      </trkpt>
      <trkpt lat="45.99978" lon="4.84089">
        <ele>258</ele>
        <time>2018-01-14T11:14:25Z</time>
      </trkpt>
      <trkpt lat="45.99976" lon="4.84082">
        <ele>259</ele>
        <time>2018-01-14T11:14:26Z</time>
      </trkpt>
      <trkpt lat="45.99975" lon="4.84074">
        <ele>259</ele>
        <time>2018-01-14T11:14:27Z</time>
      </trkpt>
      <trkpt lat="45.99972" lon="4.84068">
        <ele>259</ele>
        <time>2018-01-14T11:14:28Z</time>
      </trkpt>
      <trkpt lat="45.9997" lon="4.84062">
        <ele>259</ele>
        <time>2018-01-14T11:14:29Z</time>
      </trkpt>
      <trkpt lat="45.99968" lon="4.84055">
        <ele>259</ele>
        <time>2018-01-14T11:14:30Z</time>
      </trkpt>
      <trkpt lat="45.99966" lon="4.84048">
        <ele>259</ele>
        <time>2018-01-14T11:14:31Z</time>
      </trkpt>
      <trkpt lat="45.99964" lon="4.8404">
        <ele>259</ele>
        <time>2018-01-14T11:14:32Z</time>
      </trkpt>
      <trkpt lat="45.99963" lon="4.84033">
        <ele>259</ele>
        <time>2018-01-14T11:14:33Z</time>
      </trkpt>
      <trkpt lat="45.99961" lon="4.84026">
        <ele>259</ele>
        <time>2018-01-14T11:14:34Z</time>
      </trkpt>
      <trkpt lat="45.99959" lon="4.84019">
        <ele>259</ele>
        <time>2018-01-14T11:14:35Z</time>
      </trkpt>
      <trkpt lat="45.99956" lon="4.84012">
        <ele>259</ele>
        <time>2018-01-14T11:14:36Z</time>
      </trkpt>
      <trkpt lat="45.99954" lon="4.84004">
        <ele>259</ele>
        <time>2018-01-14T11:14:37Z</time>
      </trkpt>
      <trkpt lat="45.99953" lon="4.83998">
        <ele>259</ele>
        <time>2018-01-14T11:14:38Z</time>
      </trkpt>
      <trkpt lat="45.99951" lon="4.83989">
        <ele>259</ele>
        <time>2018-01-14T11:14:39Z</time>
      </trkpt>
      <trkpt lat="45.99949" lon="4.83982">
        <ele>259</ele>
        <time>2018-01-14T11:14:40Z</time>
      </trkpt>
      <trkpt lat="45.99948" lon="4.83975">
        <ele>259</ele>
        <time>2018-01-14T11:14:41Z</time>
      </trkpt>
      <trkpt lat="45.99945" lon="4.83968">
        <ele>259</ele>
        <time>2018-01-14T11:14:42Z</time>
      </trkpt>
      <trkpt lat="45.99943" lon="4.83961">
        <ele>259</ele>
        <time>2018-01-14T11:14:43Z</time>
      </trkpt>
      <trkpt lat="45.99941" lon="4.83954">
        <ele>259</ele>
        <time>2018-01-14T11:14:44Z</time>
      </trkpt>
      <trkpt lat="45.99938" lon="4.83947">
        <ele>259</ele>
        <time>2018-01-14T11:14:45Z</time>
      </trkpt>
      <trkpt lat="45.99937" lon="4.8394">
        <ele>259</ele>
        <time>2018-01-14T11:14:46Z</time>
      </trkpt>
      <trkpt lat="45.99936" lon="4.83933">
        <ele>259</ele>
        <time>2018-01-14T11:14:47Z</time>
      </trkpt>
      <trkpt lat="45.99933" lon="4.83926">
        <ele>259</ele>
        <time>2018-01-14T11:14:48Z</time>
      </trkpt>
      <trkpt lat="45.99931" lon="4.83919">
        <ele>259</ele>
        <time>2018-01-14T11:14:49Z</time>
      </trkpt>
      <trkpt lat="45.99929" lon="4.83912">
        <ele>259</ele>
        <time>2018-01-14T11:14:50Z</time>
      </trkpt>
      <trkpt lat="45.99927" lon="4.83904">
        <ele>259</ele>
        <time>2018-01-14T11:14:51Z</time>
      </trkpt>
      <trkpt lat="45.99924" lon="4.83897">
        <ele>259</ele>
        <time>2018-01-14T11:14:52Z</time>
      </trkpt>
      <trkpt lat="45.99923" lon="4.8389">
        <ele>259</ele>
        <time>2018-01-14T11:14:53Z</time>
      </trkpt>
      <trkpt lat="45.9992" lon="4.83883">
        <ele>259</ele>
        <time>2018-01-14T11:14:54Z</time>
      </trkpt>
      <trkpt lat="45.99918" lon="4.83876">
        <ele>259</ele>
        <time>2018-01-14T11:14:55Z</time>
      </trkpt>
      <trkpt lat="45.99915" lon="4.83869">
        <ele>258</ele>
        <time>2018-01-14T11:14:56Z</time>
      </trkpt>
      <trkpt lat="45.99914" lon="4.83862">
        <ele>258</ele>
        <time>2018-01-14T11:14:57Z</time>
      </trkpt>
      <trkpt lat="45.99911" lon="4.83854">
        <ele>258</ele>
        <time>2018-01-14T11:14:58Z</time>
      </trkpt>
      <trkpt lat="45.99909" lon="4.83846">
        <ele>258</ele>
        <time>2018-01-14T11:14:59Z</time>
      </trkpt>
      <trkpt lat="45.99907" lon="4.83838">
        <ele>258</ele>
        <time>2018-01-14T11:15:00Z</time>
      </trkpt>
      <trkpt lat="45.99906" lon="4.8383">
        <ele>257</ele>
        <time>2018-01-14T11:15:01Z</time>
      </trkpt>
      <trkpt lat="45.99903" lon="4.83822">
        <ele>257</ele>
        <time>2018-01-14T11:15:02Z</time>
      </trkpt>
      <trkpt lat="45.99901" lon="4.83813">
        <ele>257</ele>
        <time>2018-01-14T11:15:03Z</time>
      </trkpt>
      <trkpt lat="45.99899" lon="4.83805">
        <ele>257</ele>
        <time>2018-01-14T11:15:04Z</time>
      </trkpt>
      <trkpt lat="45.99898" lon="4.83796">
        <ele>257</ele>
        <time>2018-01-14T11:15:05Z</time>
      </trkpt>
      <trkpt lat="45.99896" lon="4.83787">
        <ele>257</ele>
        <time>2018-01-14T11:15:06Z</time>
      </trkpt>
      <trkpt lat="45.99893" lon="4.83778">
        <ele>257</ele>
        <time>2018-01-14T11:15:07Z</time>
      </trkpt>
      <trkpt lat="45.99892" lon="4.83771">
        <ele>257</ele>
        <time>2018-01-14T11:15:08Z</time>
      </trkpt>
      <trkpt lat="45.99889" lon="4.83762">
        <ele>257</ele>
        <time>2018-01-14T11:15:09Z</time>
      </trkpt>
      <trkpt lat="45.99887" lon="4.83755">
        <ele>257</ele>
        <time>2018-01-14T11:15:10Z</time>
      </trkpt>
      <trkpt lat="45.99885" lon="4.83746">
        <ele>256</ele>
        <time>2018-01-14T11:15:11Z</time>
      </trkpt>
      <trkpt lat="45.99882" lon="4.8374">
        <ele>256</ele>
        <time>2018-01-14T11:15:12Z</time>
      </trkpt>
      <trkpt lat="45.9988" lon="4.83732">
        <ele>256</ele>
        <time>2018-01-14T11:15:13Z</time>
      </trkpt>
      <trkpt lat="45.99877" lon="4.83725">
        <ele>256</ele>
        <time>2018-01-14T11:15:14Z</time>
      </trkpt>
      <trkpt lat="45.99874" lon="4.83717">
        <ele>256</ele>
        <time>2018-01-14T11:15:15Z</time>
      </trkpt>
      <trkpt lat="45.99872" lon="4.8371">
        <ele>256</ele>
        <time>2018-01-14T11:15:16Z</time>
      </trkpt>
      <trkpt lat="45.99872" lon="4.83701">
        <ele>256</ele>
        <time>2018-01-14T11:15:17Z</time>
      </trkpt>
      <trkpt lat="45.9987" lon="4.83693">
        <ele>256</ele>
        <time>2018-01-14T11:15:18Z</time>
      </trkpt>
      <trkpt lat="45.99867" lon="4.83686">
        <ele>256</ele>
        <time>2018-01-14T11:15:19Z</time>
      </trkpt>
      <trkpt lat="45.99864" lon="4.83677">
        <ele>256</ele>
        <time>2018-01-14T11:15:20Z</time>
      </trkpt>
      <trkpt lat="45.99861" lon="4.83667">
        <ele>257</ele>
        <time>2018-01-14T11:15:21Z</time>
      </trkpt>
      <trkpt lat="45.99859" lon="4.83659">
        <ele>257</ele>
        <time>2018-01-14T11:15:22Z</time>
      </trkpt>
      <trkpt lat="45.99858" lon="4.83651">
        <ele>257</ele>
        <time>2018-01-14T11:15:23Z</time>
      </trkpt>
      <trkpt lat="45.99855" lon="4.83644">
        <ele>257</ele>
        <time>2018-01-14T11:15:24Z</time>
      </trkpt>
      <trkpt lat="45.99853" lon="4.83636">
        <ele>257</ele>
        <time>2018-01-14T11:15:25Z</time>
      </trkpt>
      <trkpt lat="45.99851" lon="4.83627">
        <ele>257</ele>
        <time>2018-01-14T11:15:26Z</time>
      </trkpt>
      <trkpt lat="45.99849" lon="4.8362">
        <ele>257</ele>
        <time>2018-01-14T11:15:27Z</time>
      </trkpt>
      <trkpt lat="45.99848" lon="4.83613">
        <ele>257</ele>
        <time>2018-01-14T11:15:28Z</time>
      </trkpt>
      <trkpt lat="45.99846" lon="4.83604">
        <ele>257</ele>
        <time>2018-01-14T11:15:29Z</time>
      </trkpt>
      <trkpt lat="45.99844" lon="4.83598">
        <ele>257</ele>
        <time>2018-01-14T11:15:30Z</time>
      </trkpt>
      <trkpt lat="45.99842" lon="4.83592">
        <ele>257</ele>
        <time>2018-01-14T11:15:31Z</time>
      </trkpt>
      <trkpt lat="45.99841" lon="4.83583">
        <ele>257</ele>
        <time>2018-01-14T11:15:32Z</time>
      </trkpt>
      <trkpt lat="45.99839" lon="4.83576">
        <ele>257</ele>
        <time>2018-01-14T11:15:33Z</time>
      </trkpt>
      <trkpt lat="45.99837" lon="4.83569">
        <ele>258</ele>
        <time>2018-01-14T11:15:34Z</time>
      </trkpt>
      <trkpt lat="45.99835" lon="4.83562">
        <ele>258</ele>
        <time>2018-01-14T11:15:35Z</time>
      </trkpt>
      <trkpt lat="45.99834" lon="4.83555">
        <ele>258</ele>
        <time>2018-01-14T11:15:36Z</time>
      </trkpt>
      <trkpt lat="45.99833" lon="4.83548">
        <ele>258</ele>
        <time>2018-01-14T11:15:37Z</time>
      </trkpt>
      <trkpt lat="45.99831" lon="4.83542">
        <ele>259</ele>
        <time>2018-01-14T11:15:38Z</time>
      </trkpt>
      <trkpt lat="45.9983" lon="4.83535">
        <ele>259</ele>
        <time>2018-01-14T11:15:39Z</time>
      </trkpt>
      <trkpt lat="45.99828" lon="4.83529">
        <ele>259</ele>
        <time>2018-01-14T11:15:40Z</time>
      </trkpt>
      <trkpt lat="45.99827" lon="4.83522">
        <ele>259</ele>
        <time>2018-01-14T11:15:41Z</time>
      </trkpt>
      <trkpt lat="45.99825" lon="4.83514">
        <ele>259</ele>
        <time>2018-01-14T11:15:42Z</time>
      </trkpt>
      <trkpt lat="45.99823" lon="4.83508">
        <ele>259</ele>
        <time>2018-01-14T11:15:43Z</time>
      </trkpt>
      <trkpt lat="45.99821" lon="4.83501">
        <ele>259</ele>
        <time>2018-01-14T11:15:44Z</time>
      </trkpt>
      <trkpt lat="45.99819" lon="4.83494">
        <ele>260</ele>
        <time>2018-01-14T11:15:45Z</time>
      </trkpt>
      <trkpt lat="45.99817" lon="4.83487">
        <ele>260</ele>
        <time>2018-01-14T11:15:46Z</time>
      </trkpt>
      <trkpt lat="45.99815" lon="4.83481">
        <ele>260</ele>
        <time>2018-01-14T11:15:47Z</time>
      </trkpt>
      <trkpt lat="45.99814" lon="4.83475">
        <ele>260</ele>
        <time>2018-01-14T11:15:48Z</time>
      </trkpt>
      <trkpt lat="45.99812" lon="4.83469">
        <ele>260</ele>
        <time>2018-01-14T11:15:49Z</time>
      </trkpt>
      <trkpt lat="45.9981" lon="4.83458">
        <ele>261</ele>
        <time>2018-01-14T11:15:51Z</time>
      </trkpt>
      <trkpt lat="45.99809" lon="4.83451">
        <ele>261</ele>
        <time>2018-01-14T11:15:52Z</time>
      </trkpt>
      <trkpt lat="45.99808" lon="4.83444">
        <ele>261</ele>
        <time>2018-01-14T11:15:53Z</time>
      </trkpt>
      <trkpt lat="45.99808" lon="4.83436">
        <ele>261</ele>
        <time>2018-01-14T11:15:54Z</time>
      </trkpt>
      <trkpt lat="45.99806" lon="4.83423">
        <ele>261</ele>
        <time>2018-01-14T11:15:56Z</time>
      </trkpt>
      <trkpt lat="45.99805" lon="4.83417">
        <ele>261</ele>
        <time>2018-01-14T11:15:57Z</time>
      </trkpt>
      <trkpt lat="45.99802" lon="4.83407">
        <ele>262</ele>
        <time>2018-01-14T11:15:59Z</time>
      </trkpt>
      <trkpt lat="45.99801" lon="4.83401">
        <ele>262</ele>
        <time>2018-01-14T11:16:00Z</time>
      </trkpt>
      <trkpt lat="45.99798" lon="4.83389">
        <ele>262</ele>
        <time>2018-01-14T11:16:02Z</time>
      </trkpt>
      <trkpt lat="45.99797" lon="4.83384">
        <ele>262</ele>
        <time>2018-01-14T11:16:03Z</time>
      </trkpt>
      <trkpt lat="45.99794" lon="4.83373">
        <ele>262</ele>
        <time>2018-01-14T11:16:05Z</time>
      </trkpt>
      <trkpt lat="45.99793" lon="4.83367">
        <ele>262</ele>
        <time>2018-01-14T11:16:06Z</time>
      </trkpt>
      <trkpt lat="45.99791" lon="4.83356">
        <ele>262</ele>
        <time>2018-01-14T11:16:08Z</time>
      </trkpt>
      <trkpt lat="45.9979" lon="4.8335">
        <ele>262</ele>
        <time>2018-01-14T11:16:09Z</time>
      </trkpt>
      <trkpt lat="45.99788" lon="4.83338">
        <ele>263</ele>
        <time>2018-01-14T11:16:11Z</time>
      </trkpt>
      <trkpt lat="45.99788" lon="4.83332">
        <ele>264</ele>
        <time>2018-01-14T11:16:12Z</time>
      </trkpt>
      <trkpt lat="45.99786" lon="4.83321">
        <ele>264</ele>
        <time>2018-01-14T11:16:14Z</time>
      </trkpt>
      <trkpt lat="45.99785" lon="4.83315">
        <ele>264</ele>
        <time>2018-01-14T11:16:15Z</time>
      </trkpt>
      <trkpt lat="45.99782" lon="4.83303">
        <ele>264</ele>
        <time>2018-01-14T11:16:17Z</time>
      </trkpt>
      <trkpt lat="45.99781" lon="4.83297">
        <ele>264</ele>
        <time>2018-01-14T11:16:18Z</time>
      </trkpt>
      <trkpt lat="45.99779" lon="4.83285">
        <ele>265</ele>
        <time>2018-01-14T11:16:20Z</time>
      </trkpt>
      <trkpt lat="45.99779" lon="4.83279">
        <ele>265</ele>
        <time>2018-01-14T11:16:21Z</time>
      </trkpt>
      <trkpt lat="45.99777" lon="4.83266">
        <ele>265</ele>
        <time>2018-01-14T11:16:23Z</time>
      </trkpt>
      <trkpt lat="45.99776" lon="4.8326">
        <ele>265</ele>
        <time>2018-01-14T11:16:24Z</time>
      </trkpt>
      <trkpt lat="45.99775" lon="4.83248">
        <ele>267</ele>
        <time>2018-01-14T11:16:26Z</time>
      </trkpt>
      <trkpt lat="45.99774" lon="4.83242">
        <ele>267</ele>
        <time>2018-01-14T11:16:27Z</time>
      </trkpt>
      <trkpt lat="45.99773" lon="4.8323">
        <ele>267</ele>
        <time>2018-01-14T11:16:29Z</time>
      </trkpt>
      <trkpt lat="45.99772" lon="4.83224">
        <ele>268</ele>
        <time>2018-01-14T11:16:30Z</time>
      </trkpt>
      <trkpt lat="45.99772" lon="4.83212">
        <ele>268</ele>
        <time>2018-01-14T11:16:32Z</time>
      </trkpt>
      <trkpt lat="45.99771" lon="4.83207">
        <ele>268</ele>
        <time>2018-01-14T11:16:33Z</time>
      </trkpt>
      <trkpt lat="45.9977" lon="4.83196">
        <ele>268</ele>
        <time>2018-01-14T11:16:35Z</time>
      </trkpt>
      <trkpt lat="45.99769" lon="4.83191">
        <ele>269</ele>
        <time>2018-01-14T11:16:36Z</time>
      </trkpt>
      <trkpt lat="45.99767" lon="4.83182">
        <ele>269</ele>
        <time>2018-01-14T11:16:38Z</time>
      </trkpt>
      <trkpt lat="45.99766" lon="4.83176">
        <ele>269</ele>
        <time>2018-01-14T11:16:39Z</time>
      </trkpt>
      <trkpt lat="45.99765" lon="4.83165">
        <ele>271</ele>
        <time>2018-01-14T11:16:41Z</time>
      </trkpt>
      <trkpt lat="45.99764" lon="4.8316">
        <ele>271</ele>
        <time>2018-01-14T11:16:42Z</time>
      </trkpt>
      <trkpt lat="45.99763" lon="4.8315">
        <ele>271</ele>
        <time>2018-01-14T11:16:44Z</time>
      </trkpt>
      <trkpt lat="45.99762" lon="4.83144">
        <ele>271</ele>
        <time>2018-01-14T11:16:45Z</time>
      </trkpt>
      <trkpt lat="45.99762" lon="4.83134">
        <ele>271</ele>
        <time>2018-01-14T11:16:47Z</time>
      </trkpt>
      <trkpt lat="45.99762" lon="4.83129">
        <ele>271</ele>
        <time>2018-01-14T11:16:48Z</time>
      </trkpt>
      <trkpt lat="45.99761" lon="4.83118">
        <ele>271</ele>
        <time>2018-01-14T11:16:50Z</time>
      </trkpt>
      <trkpt lat="45.99761" lon="4.83113">
        <ele>271</ele>
        <time>2018-01-14T11:16:51Z</time>
      </trkpt>
      <trkpt lat="45.9976" lon="4.83103">
        <ele>272</ele>
        <time>2018-01-14T11:16:53Z</time>
      </trkpt>
      <trkpt lat="45.9976" lon="4.83098">
        <ele>272</ele>
        <time>2018-01-14T11:16:54Z</time>
      </trkpt>
      <trkpt lat="45.99758" lon="4.83088">
        <ele>272</ele>
        <time>2018-01-14T11:16:56Z</time>
      </trkpt>
      <trkpt lat="45.99758" lon="4.83084">
        <ele>272</ele>
        <time>2018-01-14T11:16:57Z</time>
      </trkpt>
      <trkpt lat="45.99756" lon="4.83075">
        <ele>272</ele>
        <time>2018-01-14T11:16:59Z</time>
      </trkpt>
      <trkpt lat="45.99755" lon="4.8307">
        <ele>272</ele>
        <time>2018-01-14T11:17:00Z</time>
      </trkpt>
      <trkpt lat="45.99754" lon="4.83061">
        <ele>272</ele>
        <time>2018-01-14T11:17:02Z</time>
      </trkpt>
      <trkpt lat="45.99753" lon="4.83056">
        <ele>272</ele>
        <time>2018-01-14T11:17:03Z</time>
      </trkpt>
      <trkpt lat="45.9975" lon="4.83046">
        <ele>272</ele>
        <time>2018-01-14T11:17:05Z</time>
      </trkpt>
      <trkpt lat="45.99748" lon="4.83042">
        <ele>271</ele>
        <time>2018-01-14T11:17:06Z</time>
      </trkpt>
      <trkpt lat="45.99746" lon="4.83032">
        <ele>271</ele>
        <time>2018-01-14T11:17:08Z</time>
      </trkpt>
      <trkpt lat="45.99745" lon="4.83026">
        <ele>271</ele>
        <time>2018-01-14T11:17:09Z</time>
      </trkpt>
      <trkpt lat="45.99743" lon="4.83016">
        <ele>271</ele>
        <time>2018-01-14T11:17:11Z</time>
      </trkpt>
      <trkpt lat="45.99741" lon="4.83011">
        <ele>271</ele>
        <time>2018-01-14T11:17:12Z</time>
      </trkpt>
      <trkpt lat="45.99737" lon="4.83">
        <ele>271</ele>
        <time>2018-01-14T11:17:14Z</time>
      </trkpt>
      <trkpt lat="45.99735" lon="4.82996">
        <ele>271</ele>
        <time>2018-01-14T11:17:15Z</time>
      </trkpt>
      <trkpt lat="45.99733" lon="4.8299">
        <ele>271</ele>
        <time>2018-01-14T11:17:16Z</time>
      </trkpt>
      <trkpt lat="45.99731" lon="4.82984">
        <ele>271</ele>
        <time>2018-01-14T11:17:17Z</time>
      </trkpt>
      <trkpt lat="45.99731" lon="4.82977">
        <ele>271</ele>
        <time>2018-01-14T11:17:18Z</time>
      </trkpt>
      <trkpt lat="45.99729" lon="4.82971">
        <ele>271</ele>
        <time>2018-01-14T11:17:19Z</time>
      </trkpt>
      <trkpt lat="45.99726" lon="4.82959">
        <ele>271</ele>
        <time>2018-01-14T11:17:21Z</time>
      </trkpt>
      <trkpt lat="45.99725" lon="4.82952">
        <ele>271</ele>
        <time>2018-01-14T11:17:22Z</time>
      </trkpt>
      <trkpt lat="45.99722" lon="4.82945">
        <ele>271</ele>
        <time>2018-01-14T11:17:23Z</time>
      </trkpt>
      <trkpt lat="45.99721" lon="4.82939">
        <ele>271</ele>
        <time>2018-01-14T11:17:24Z</time>
      </trkpt>
      <trkpt lat="45.99718" lon="4.82933">
        <ele>271</ele>
        <time>2018-01-14T11:17:25Z</time>
      </trkpt>
      <trkpt lat="45.99716" lon="4.82927">
        <ele>271</ele>
        <time>2018-01-14T11:17:26Z</time>
      </trkpt>
      <trkpt lat="45.99713" lon="4.82915">
        <ele>271</ele>
        <time>2018-01-14T11:17:28Z</time>
      </trkpt>
      <trkpt lat="45.99711" lon="4.82909">
        <ele>271</ele>
        <time>2018-01-14T11:17:29Z</time>
      </trkpt>
      <trkpt lat="45.99709" lon="4.82903">
        <ele>271</ele>
        <time>2018-01-14T11:17:30Z</time>
      </trkpt>
      <trkpt lat="45.99707" lon="4.82897">
        <ele>271</ele>
        <time>2018-01-14T11:17:31Z</time>
      </trkpt>
      <trkpt lat="45.99704" lon="4.82891">
        <ele>271</ele>
        <time>2018-01-14T11:17:32Z</time>
      </trkpt>
      <trkpt lat="45.99703" lon="4.82884">
        <ele>271</ele>
        <time>2018-01-14T11:17:33Z</time>
      </trkpt>
      <trkpt lat="45.99701" lon="4.82873">
        <ele>270</ele>
        <time>2018-01-14T11:17:34Z</time>
      </trkpt>
      <trkpt lat="45.99699" lon="4.82866">
        <ele>270</ele>
        <time>2018-01-14T11:17:35Z</time>
      </trkpt>
      <trkpt lat="45.99697" lon="4.82858">
        <ele>270</ele>
        <time>2018-01-14T11:17:36Z</time>
      </trkpt>
      <trkpt lat="45.99695" lon="4.82851">
        <ele>270</ele>
        <time>2018-01-14T11:17:37Z</time>
      </trkpt>
      <trkpt lat="45.99692" lon="4.82841">
        <ele>270</ele>
        <time>2018-01-14T11:17:38Z</time>
      </trkpt>
      <trkpt lat="45.9969" lon="4.82834">
        <ele>270</ele>
        <time>2018-01-14T11:17:39Z</time>
      </trkpt>
      <trkpt lat="45.99687" lon="4.82828">
        <ele>270</ele>
        <time>2018-01-14T11:17:40Z</time>
      </trkpt>
      <trkpt lat="45.99687" lon="4.82819">
        <ele>270</ele>
        <time>2018-01-14T11:17:41Z</time>
      </trkpt>
      <trkpt lat="45.99685" lon="4.82812">
        <ele>270</ele>
        <time>2018-01-14T11:17:42Z</time>
      </trkpt>
      <trkpt lat="45.99682" lon="4.82805">
        <ele>270</ele>
        <time>2018-01-14T11:17:43Z</time>
      </trkpt>
      <trkpt lat="45.9968" lon="4.82797">
        <ele>270</ele>
        <time>2018-01-14T11:17:44Z</time>
      </trkpt>
      <trkpt lat="45.99679" lon="4.82791">
        <ele>269</ele>
        <time>2018-01-14T11:17:45Z</time>
      </trkpt>
      <trkpt lat="45.99677" lon="4.82781">
        <ele>269</ele>
        <time>2018-01-14T11:17:46Z</time>
      </trkpt>
      <trkpt lat="45.99676" lon="4.82773">
        <ele>269</ele>
        <time>2018-01-14T11:17:47Z</time>
      </trkpt>
      <trkpt lat="45.99675" lon="4.82765">
        <ele>269</ele>
        <time>2018-01-14T11:17:48Z</time>
      </trkpt>
      <trkpt lat="45.99674" lon="4.82757">
        <ele>269</ele>
        <time>2018-01-14T11:17:49Z</time>
      </trkpt>
      <trkpt lat="45.99673" lon="4.82749">
        <ele>269</ele>
        <time>2018-01-14T11:17:50Z</time>
      </trkpt>
      <trkpt lat="45.99672" lon="4.82743">
        <ele>269</ele>
        <time>2018-01-14T11:17:51Z</time>
      </trkpt>
      <trkpt lat="45.99671" lon="4.82735">
        <ele>269</ele>
        <time>2018-01-14T11:17:52Z</time>
      </trkpt>
      <trkpt lat="45.99671" lon="4.82727">
        <ele>269</ele>
        <time>2018-01-14T11:17:53Z</time>
      </trkpt>
      <trkpt lat="45.99669" lon="4.82719">
        <ele>269</ele>
        <time>2018-01-14T11:17:54Z</time>
      </trkpt>
      <trkpt lat="45.99668" lon="4.82712">
        <ele>269</ele>
        <time>2018-01-14T11:17:55Z</time>
      </trkpt>
      <trkpt lat="45.99666" lon="4.82704">
        <ele>268</ele>
        <time>2018-01-14T11:17:56Z</time>
      </trkpt>
      <trkpt lat="45.99664" lon="4.82696">
        <ele>268</ele>
        <time>2018-01-14T11:17:57Z</time>
      </trkpt>
      <trkpt lat="45.99662" lon="4.82689">
        <ele>268</ele>
        <time>2018-01-14T11:17:58Z</time>
      </trkpt>
      <trkpt lat="45.99663" lon="4.8268">
        <ele>268</ele>
        <time>2018-01-14T11:17:59Z</time>
      </trkpt>
      <trkpt lat="45.99661" lon="4.82674">
        <ele>268</ele>
        <time>2018-01-14T11:18:00Z</time>
      </trkpt>
      <trkpt lat="45.9966" lon="4.82666">
        <ele>268</ele>
        <time>2018-01-14T11:18:01Z</time>
      </trkpt>
      <trkpt lat="45.99658" lon="4.82659">
        <ele>268</ele>
        <time>2018-01-14T11:18:02Z</time>
      </trkpt>
      <trkpt lat="45.99657" lon="4.82653">
        <ele>268</ele>
        <time>2018-01-14T11:18:03Z</time>
      </trkpt>
      <trkpt lat="45.99656" lon="4.8264">
        <ele>267</ele>
        <time>2018-01-14T11:18:04Z</time>
      </trkpt>
      <trkpt lat="45.99655" lon="4.82632">
        <ele>267</ele>
        <time>2018-01-14T11:18:05Z</time>
      </trkpt>
      <trkpt lat="45.99654" lon="4.82623">
        <ele>267</ele>
        <time>2018-01-14T11:18:06Z</time>
      </trkpt>
      <trkpt lat="45.99653" lon="4.82612">
        <ele>267</ele>
        <time>2018-01-14T11:18:07Z</time>
      </trkpt>
      <trkpt lat="45.9965" lon="4.82602">
        <ele>267</ele>
        <time>2018-01-14T11:18:08Z</time>
      </trkpt>
      <trkpt lat="45.99648" lon="4.82594">
        <ele>267</ele>
        <time>2018-01-14T11:18:09Z</time>
      </trkpt>
      <trkpt lat="45.99646" lon="4.82583">
        <ele>266</ele>
        <time>2018-01-14T11:18:10Z</time>
      </trkpt>
      <trkpt lat="45.99644" lon="4.82575">
        <ele>266</ele>
        <time>2018-01-14T11:18:11Z</time>
      </trkpt>
      <trkpt lat="45.99642" lon="4.82566">
        <ele>266</ele>
        <time>2018-01-14T11:18:12Z</time>
      </trkpt>
      <trkpt lat="45.99641" lon="4.82558">
        <ele>266</ele>
        <time>2018-01-14T11:18:13Z</time>
      </trkpt>
      <trkpt lat="45.9964" lon="4.82549">
        <ele>266</ele>
        <time>2018-01-14T11:18:14Z</time>
      </trkpt>
      <trkpt lat="45.99638" lon="4.8254">
        <ele>266</ele>
        <time>2018-01-14T11:18:15Z</time>
      </trkpt>
      <trkpt lat="45.99636" lon="4.82533">
        <ele>266</ele>
        <time>2018-01-14T11:18:16Z</time>
      </trkpt>
      <trkpt lat="45.99634" lon="4.82525">
        <ele>266</ele>
        <time>2018-01-14T11:18:17Z</time>
      </trkpt>
      <trkpt lat="45.99631" lon="4.82518">
        <ele>266</ele>
        <time>2018-01-14T11:18:18Z</time>
      </trkpt>
      <trkpt lat="45.9963" lon="4.82509">
        <ele>265</ele>
        <time>2018-01-14T11:18:19Z</time>
      </trkpt>
      <trkpt lat="45.99627" lon="4.82502">
        <ele>265</ele>
        <time>2018-01-14T11:18:20Z</time>
      </trkpt>
      <trkpt lat="45.99625" lon="4.82494">
        <ele>265</ele>
        <time>2018-01-14T11:18:21Z</time>
      </trkpt>
      <trkpt lat="45.99623" lon="4.82486">
        <ele>265</ele>
        <time>2018-01-14T11:18:22Z</time>
      </trkpt>
      <trkpt lat="45.99619" lon="4.82477">
        <ele>265</ele>
        <time>2018-01-14T11:18:23Z</time>
      </trkpt>
      <trkpt lat="45.99617" lon="4.82466">
        <ele>265</ele>
        <time>2018-01-14T11:18:24Z</time>
      </trkpt>
      <trkpt lat="45.99615" lon="4.82459">
        <ele>265</ele>
        <time>2018-01-14T11:18:25Z</time>
      </trkpt>
      <trkpt lat="45.99611" lon="4.82452">
        <ele>265</ele>
        <time>2018-01-14T11:18:26Z</time>
      </trkpt>
      <trkpt lat="45.99608" lon="4.82443">
        <ele>264</ele>
        <time>2018-01-14T11:18:27Z</time>
      </trkpt>
      <trkpt lat="45.99604" lon="4.82435">
        <ele>264</ele>
        <time>2018-01-14T11:18:28Z</time>
      </trkpt>
      <trkpt lat="45.996" lon="4.82427">
        <ele>264</ele>
        <time>2018-01-14T11:18:29Z</time>
      </trkpt>
      <trkpt lat="45.99598" lon="4.82418">
        <ele>263</ele>
        <time>2018-01-14T11:18:30Z</time>
      </trkpt>
      <trkpt lat="45.99596" lon="4.8241">
        <ele>263</ele>
        <time>2018-01-14T11:18:31Z</time>
      </trkpt>
      <trkpt lat="45.99593" lon="4.824">
        <ele>264</ele>
        <time>2018-01-14T11:18:32Z</time>
      </trkpt>
      <trkpt lat="45.99591" lon="4.82391">
        <ele>264</ele>
        <time>2018-01-14T11:18:33Z</time>
      </trkpt>
      <trkpt lat="45.99589" lon="4.82379">
        <ele>264</ele>
        <time>2018-01-14T11:18:34Z</time>
      </trkpt>
      <trkpt lat="45.99588" lon="4.82369">
        <ele>264</ele>
        <time>2018-01-14T11:18:35Z</time>
      </trkpt>
      <trkpt lat="45.99587" lon="4.82358">
        <ele>264</ele>
        <time>2018-01-14T11:18:36Z</time>
      </trkpt>
      <trkpt lat="45.99586" lon="4.82348">
        <ele>264</ele>
        <time>2018-01-14T11:18:37Z</time>
      </trkpt>
      <trkpt lat="45.99584" lon="4.82337">
        <ele>263</ele>
        <time>2018-01-14T11:18:38Z</time>
      </trkpt>
      <trkpt lat="45.99582" lon="4.82328">
        <ele>263</ele>
        <time>2018-01-14T11:18:39Z</time>
      </trkpt>
      <trkpt lat="45.9958" lon="4.82319">
        <ele>262</ele>
        <time>2018-01-14T11:18:40Z</time>
      </trkpt>
      <trkpt lat="45.99577" lon="4.82311">
        <ele>262</ele>
        <time>2018-01-14T11:18:41Z</time>
      </trkpt>
      <trkpt lat="45.99575" lon="4.823">
        <ele>262</ele>
        <time>2018-01-14T11:18:42Z</time>
      </trkpt>
      <trkpt lat="45.99572" lon="4.82295">
        <ele>262</ele>
        <time>2018-01-14T11:18:43Z</time>
      </trkpt>
      <trkpt lat="45.9957" lon="4.82288">
        <ele>262</ele>
        <time>2018-01-14T11:18:44Z</time>
      </trkpt>
      <trkpt lat="45.99567" lon="4.8228">
        <ele>262</ele>
        <time>2018-01-14T11:18:45Z</time>
      </trkpt>
      <trkpt lat="45.99564" lon="4.82273">
        <ele>262</ele>
        <time>2018-01-14T11:18:46Z</time>
      </trkpt>
      <trkpt lat="45.99563" lon="4.82265">
        <ele>262</ele>
        <time>2018-01-14T11:18:47Z</time>
      </trkpt>
      <trkpt lat="45.9956" lon="4.82258">
        <ele>262</ele>
        <time>2018-01-14T11:18:48Z</time>
      </trkpt>
      <trkpt lat="45.99559" lon="4.82251">
        <ele>262</ele>
        <time>2018-01-14T11:18:49Z</time>
      </trkpt>
      <trkpt lat="45.99556" lon="4.82243">
        <ele>262</ele>
        <time>2018-01-14T11:18:50Z</time>
      </trkpt>
      <trkpt lat="45.99555" lon="4.82235">
        <ele>262</ele>
        <time>2018-01-14T11:18:51Z</time>
      </trkpt>
      <trkpt lat="45.99553" lon="4.82228">
        <ele>262</ele>
        <time>2018-01-14T11:18:52Z</time>
      </trkpt>
      <trkpt lat="45.9955" lon="4.8222">
        <ele>262</ele>
        <time>2018-01-14T11:18:53Z</time>
      </trkpt>
      <trkpt lat="45.99548" lon="4.82212">
        <ele>262</ele>
        <time>2018-01-14T11:18:54Z</time>
      </trkpt>
      <trkpt lat="45.99548" lon="4.82194">
        <ele>263</ele>
        <time>2018-01-14T11:18:55Z</time>
      </trkpt>
      <trkpt lat="45.99546" lon="4.82187">
        <ele>263</ele>
        <time>2018-01-14T11:18:56Z</time>
      </trkpt>
      <trkpt lat="45.99545" lon="4.82178">
        <ele>263</ele>
        <time>2018-01-14T11:18:57Z</time>
      </trkpt>
      <trkpt lat="45.99543" lon="4.8217">
        <ele>263</ele>
        <time>2018-01-14T11:18:58Z</time>
      </trkpt>
      <trkpt lat="45.99543" lon="4.82163">
        <ele>263</ele>
        <time>2018-01-14T11:18:59Z</time>
      </trkpt>
      <trkpt lat="45.99542" lon="4.82156">
        <ele>263</ele>
        <time>2018-01-14T11:19:00Z</time>
      </trkpt>
      <trkpt lat="45.99541" lon="4.82149">
        <ele>263</ele>
        <time>2018-01-14T11:19:01Z</time>
      </trkpt>
      <trkpt lat="45.99539" lon="4.82143">
        <ele>263</ele>
        <time>2018-01-14T11:19:02Z</time>
      </trkpt>
      <trkpt lat="45.99538" lon="4.82135">
        <ele>263</ele>
        <time>2018-01-14T11:19:03Z</time>
      </trkpt>
      <trkpt lat="45.99535" lon="4.82129">
        <ele>263</ele>
        <time>2018-01-14T11:19:04Z</time>
      </trkpt>
      <trkpt lat="45.99533" lon="4.82121">
        <ele>263</ele>
        <time>2018-01-14T11:19:05Z</time>
      </trkpt>
      <trkpt lat="45.99532" lon="4.82112">
        <ele>263</ele>
        <time>2018-01-14T11:19:06Z</time>
      </trkpt>
      <trkpt lat="45.99532" lon="4.82103">
        <ele>263</ele>
        <time>2018-01-14T11:19:07Z</time>
      </trkpt>
      <trkpt lat="45.99532" lon="4.82095">
        <ele>263</ele>
        <time>2018-01-14T11:19:08Z</time>
      </trkpt>
      <trkpt lat="45.99531" lon="4.82087">
        <ele>262</ele>
        <time>2018-01-14T11:19:09Z</time>
      </trkpt>
      <trkpt lat="45.9953" lon="4.82079">
        <ele>262</ele>
        <time>2018-01-14T11:19:10Z</time>
      </trkpt>
      <trkpt lat="45.99529" lon="4.82071">
        <ele>262</ele>
        <time>2018-01-14T11:19:11Z</time>
      </trkpt>
      <trkpt lat="45.99527" lon="4.82062">
        <ele>262</ele>
        <time>2018-01-14T11:19:12Z</time>
      </trkpt>
      <trkpt lat="45.99527" lon="4.82053">
        <ele>262</ele>
        <time>2018-01-14T11:19:13Z</time>
      </trkpt>
      <trkpt lat="45.99523" lon="4.82042">
        <ele>262</ele>
        <time>2018-01-14T11:19:14Z</time>
      </trkpt>
      <trkpt lat="45.99522" lon="4.82033">
        <ele>262</ele>
        <time>2018-01-14T11:19:15Z</time>
      </trkpt>
      <trkpt lat="45.99522" lon="4.82026">
        <ele>261</ele>
        <time>2018-01-14T11:19:16Z</time>
      </trkpt>
      <trkpt lat="45.9952" lon="4.82017">
        <ele>261</ele>
        <time>2018-01-14T11:19:17Z</time>
      </trkpt>
      <trkpt lat="45.99519" lon="4.82009">
        <ele>261</ele>
        <time>2018-01-14T11:19:18Z</time>
      </trkpt>
      <trkpt lat="45.99518" lon="4.82002">
        <ele>261</ele>
        <time>2018-01-14T11:19:19Z</time>
      </trkpt>
      <trkpt lat="45.99516" lon="4.81995">
        <ele>260</ele>
        <time>2018-01-14T11:19:20Z</time>
      </trkpt>
      <trkpt lat="45.99515" lon="4.81987">
        <ele>260</ele>
        <time>2018-01-14T11:19:21Z</time>
      </trkpt>
      <trkpt lat="45.99515" lon="4.81979">
        <ele>261</ele>
        <time>2018-01-14T11:19:22Z</time>
      </trkpt>
      <trkpt lat="45.99513" lon="4.81972">
        <ele>261</ele>
        <time>2018-01-14T11:19:23Z</time>
      </trkpt>
      <trkpt lat="45.99512" lon="4.81964">
        <ele>261</ele>
        <time>2018-01-14T11:19:24Z</time>
      </trkpt>
      <trkpt lat="45.99511" lon="4.81955">
        <ele>261</ele>
        <time>2018-01-14T11:19:25Z</time>
      </trkpt>
      <trkpt lat="45.99511" lon="4.81946">
        <ele>261</ele>
        <time>2018-01-14T11:19:26Z</time>
      </trkpt>
      <trkpt lat="45.9951" lon="4.81938">
        <ele>260</ele>
        <time>2018-01-14T11:19:27Z</time>
      </trkpt>
      <trkpt lat="45.9951" lon="4.81929">
        <ele>260</ele>
        <time>2018-01-14T11:19:28Z</time>
      </trkpt>
      <trkpt lat="45.99508" lon="4.81922">
        <ele>260</ele>
        <time>2018-01-14T11:19:29Z</time>
      </trkpt>
      <trkpt lat="45.99508" lon="4.81914">
        <ele>260</ele>
        <time>2018-01-14T11:19:30Z</time>
      </trkpt>
      <trkpt lat="45.99507" lon="4.81907">
        <ele>260</ele>
        <time>2018-01-14T11:19:31Z</time>
      </trkpt>
      <trkpt lat="45.99505" lon="4.819">
        <ele>261</ele>
        <time>2018-01-14T11:19:32Z</time>
      </trkpt>
      <trkpt lat="45.99504" lon="4.81891">
        <ele>261</ele>
        <time>2018-01-14T11:19:33Z</time>
      </trkpt>
      <trkpt lat="45.99504" lon="4.81883">
        <ele>261</ele>
        <time>2018-01-14T11:19:34Z</time>
      </trkpt>
      <trkpt lat="45.99502" lon="4.81874">
        <ele>261</ele>
        <time>2018-01-14T11:19:35Z</time>
      </trkpt>
      <trkpt lat="45.99501" lon="4.81865">
        <ele>262</ele>
        <time>2018-01-14T11:19:36Z</time>
      </trkpt>
      <trkpt lat="45.99501" lon="4.81857">
        <ele>262</ele>
        <time>2018-01-14T11:19:37Z</time>
      </trkpt>
      <trkpt lat="45.99499" lon="4.81849">
        <ele>261</ele>
        <time>2018-01-14T11:19:38Z</time>
      </trkpt>
      <trkpt lat="45.99498" lon="4.81841">
        <ele>261</ele>
        <time>2018-01-14T11:19:39Z</time>
      </trkpt>
      <trkpt lat="45.99497" lon="4.81833">
        <ele>262</ele>
        <time>2018-01-14T11:19:40Z</time>
      </trkpt>
      <trkpt lat="45.99496" lon="4.81826">
        <ele>262</ele>
        <time>2018-01-14T11:19:41Z</time>
      </trkpt>
      <trkpt lat="45.99495" lon="4.81818">
        <ele>262</ele>
        <time>2018-01-14T11:19:42Z</time>
      </trkpt>
      <trkpt lat="45.99493" lon="4.81811">
        <ele>262</ele>
        <time>2018-01-14T11:19:43Z</time>
      </trkpt>
      <trkpt lat="45.99492" lon="4.81805">
        <ele>262</ele>
        <time>2018-01-14T11:19:44Z</time>
      </trkpt>
      <trkpt lat="45.9949" lon="4.81798">
        <ele>262</ele>
        <time>2018-01-14T11:19:45Z</time>
      </trkpt>
      <trkpt lat="45.99487" lon="4.81791">
        <ele>262</ele>
        <time>2018-01-14T11:19:46Z</time>
      </trkpt>
      <trkpt lat="45.99487" lon="4.81782">
        <ele>262</ele>
        <time>2018-01-14T11:19:47Z</time>
      </trkpt>
      <trkpt lat="45.99486" lon="4.81772">
        <ele>262</ele>
        <time>2018-01-14T11:19:48Z</time>
      </trkpt>
      <trkpt lat="45.99485" lon="4.81764">
        <ele>262</ele>
        <time>2018-01-14T11:19:49Z</time>
      </trkpt>
      <trkpt lat="45.99486" lon="4.81755">
        <ele>262</ele>
        <time>2018-01-14T11:19:50Z</time>
      </trkpt>
      <trkpt lat="45.99485" lon="4.81746">
        <ele>262</ele>
        <time>2018-01-14T11:19:51Z</time>
      </trkpt>
      <trkpt lat="45.99485" lon="4.81737">
        <ele>261</ele>
        <time>2018-01-14T11:19:52Z</time>
      </trkpt>
      <trkpt lat="45.99484" lon="4.81727">
        <ele>261</ele>
        <time>2018-01-14T11:19:53Z</time>
      </trkpt>
      <trkpt lat="45.99482" lon="4.81719">
        <ele>261</ele>
        <time>2018-01-14T11:19:54Z</time>
      </trkpt>
      <trkpt lat="45.99483" lon="4.81708">
        <ele>261</ele>
        <time>2018-01-14T11:19:55Z</time>
      </trkpt>
      <trkpt lat="45.99481" lon="4.81693">
        <ele>261</ele>
        <time>2018-01-14T11:19:56Z</time>
      </trkpt>
      <trkpt lat="45.9948" lon="4.81681">
        <ele>261</ele>
        <time>2018-01-14T11:19:57Z</time>
      </trkpt>
      <trkpt lat="45.99479" lon="4.81672">
        <ele>261</ele>
        <time>2018-01-14T11:19:58Z</time>
      </trkpt>
      <trkpt lat="45.99476" lon="4.81663">
        <ele>259</ele>
        <time>2018-01-14T11:19:59Z</time>
      </trkpt>
      <trkpt lat="45.99475" lon="4.81653">
        <ele>259</ele>
        <time>2018-01-14T11:20:00Z</time>
      </trkpt>
      <trkpt lat="45.99473" lon="4.81644">
        <ele>258</ele>
        <time>2018-01-14T11:20:01Z</time>
      </trkpt>
      <trkpt lat="45.9947" lon="4.81634">
        <ele>258</ele>
        <time>2018-01-14T11:20:02Z</time>
      </trkpt>
      <trkpt lat="45.99468" lon="4.81623">
        <ele>258</ele>
        <time>2018-01-14T11:20:03Z</time>
      </trkpt>
      <trkpt lat="45.99467" lon="4.81612">
        <ele>258</ele>
        <time>2018-01-14T11:20:04Z</time>
      </trkpt>
      <trkpt lat="45.99465" lon="4.81601">
        <ele>257</ele>
        <time>2018-01-14T11:20:05Z</time>
      </trkpt>
      <trkpt lat="45.99463" lon="4.8159">
        <ele>257</ele>
        <time>2018-01-14T11:20:06Z</time>
      </trkpt>
      <trkpt lat="45.99461" lon="4.81579">
        <ele>255</ele>
        <time>2018-01-14T11:20:07Z</time>
      </trkpt>
      <trkpt lat="45.99459" lon="4.81568">
        <ele>255</ele>
        <time>2018-01-14T11:20:08Z</time>
      </trkpt>
      <trkpt lat="45.99457" lon="4.81558">
        <ele>255</ele>
        <time>2018-01-14T11:20:09Z</time>
      </trkpt>
      <trkpt lat="45.99456" lon="4.81545">
        <ele>255</ele>
        <time>2018-01-14T11:20:10Z</time>
      </trkpt>
      <trkpt lat="45.99455" lon="4.81535">
        <ele>255</ele>
        <time>2018-01-14T11:20:11Z</time>
      </trkpt>
      <trkpt lat="45.99454" lon="4.81524">
        <ele>255</ele>
        <time>2018-01-14T11:20:12Z</time>
      </trkpt>
      <trkpt lat="45.99453" lon="4.81514">
        <ele>255</ele>
        <time>2018-01-14T11:20:13Z</time>
      </trkpt>
      <trkpt lat="45.99452" lon="4.81503">
        <ele>255</ele>
        <time>2018-01-14T11:20:14Z</time>
      </trkpt>
      <trkpt lat="45.99451" lon="4.81493">
        <ele>254</ele>
        <time>2018-01-14T11:20:15Z</time>
      </trkpt>
      <trkpt lat="45.9945" lon="4.81483">
        <ele>254</ele>
        <time>2018-01-14T11:20:16Z</time>
      </trkpt>
      <trkpt lat="45.99449" lon="4.81474">
        <ele>254</ele>
        <time>2018-01-14T11:20:17Z</time>
      </trkpt>
      <trkpt lat="45.99447" lon="4.81465">
        <ele>254</ele>
        <time>2018-01-14T11:20:18Z</time>
      </trkpt>
      <trkpt lat="45.99445" lon="4.81456">
        <ele>254</ele>
        <time>2018-01-14T11:20:19Z</time>
      </trkpt>
      <trkpt lat="45.99444" lon="4.81447">
        <ele>254</ele>
        <time>2018-01-14T11:20:20Z</time>
      </trkpt>
      <trkpt lat="45.99444" lon="4.81434">
        <ele>254</ele>
        <time>2018-01-14T11:20:21Z</time>
      </trkpt>
      <trkpt lat="45.99443" lon="4.81426">
        <ele>254</ele>
        <time>2018-01-14T11:20:22Z</time>
      </trkpt>
      <trkpt lat="45.99441" lon="4.81417">
        <ele>254</ele>
        <time>2018-01-14T11:20:23Z</time>
      </trkpt>
      <trkpt lat="45.9944" lon="4.81409">
        <ele>254</ele>
        <time>2018-01-14T11:20:24Z</time>
      </trkpt>
      <trkpt lat="45.99439" lon="4.81401">
        <ele>254</ele>
        <time>2018-01-14T11:20:25Z</time>
      </trkpt>
      <trkpt lat="45.99439" lon="4.81392">
        <ele>254</ele>
        <time>2018-01-14T11:20:26Z</time>
      </trkpt>
      <trkpt lat="45.99438" lon="4.81383">
        <ele>254</ele>
        <time>2018-01-14T11:20:27Z</time>
      </trkpt>
      <trkpt lat="45.99437" lon="4.81373">
        <ele>254</ele>
        <time>2018-01-14T11:20:28Z</time>
      </trkpt>
      <trkpt lat="45.99436" lon="4.81365">
        <ele>254</ele>
        <time>2018-01-14T11:20:29Z</time>
      </trkpt>
      <trkpt lat="45.99436" lon="4.81357">
        <ele>254</ele>
        <time>2018-01-14T11:20:30Z</time>
      </trkpt>
      <trkpt lat="45.99435" lon="4.81348">
        <ele>254</ele>
        <time>2018-01-14T11:20:31Z</time>
      </trkpt>
      <trkpt lat="45.99433" lon="4.81338">
        <ele>254</ele>
        <time>2018-01-14T11:20:32Z</time>
      </trkpt>
      <trkpt lat="45.99431" lon="4.81328">
        <ele>254</ele>
        <time>2018-01-14T11:20:33Z</time>
      </trkpt>
      <trkpt lat="45.99429" lon="4.81319">
        <ele>254</ele>
        <time>2018-01-14T11:20:34Z</time>
      </trkpt>
      <trkpt lat="45.99427" lon="4.8131">
        <ele>254</ele>
        <time>2018-01-14T11:20:35Z</time>
      </trkpt>
      <trkpt lat="45.99426" lon="4.813">
        <ele>253</ele>
        <time>2018-01-14T11:20:36Z</time>
      </trkpt>
      <trkpt lat="45.99424" lon="4.81288">
        <ele>253</ele>
        <time>2018-01-14T11:20:37Z</time>
      </trkpt>
      <trkpt lat="45.99423" lon="4.81278">
        <ele>253</ele>
        <time>2018-01-14T11:20:38Z</time>
      </trkpt>
      <trkpt lat="45.99421" lon="4.81267">
        <ele>252</ele>
        <time>2018-01-14T11:20:39Z</time>
      </trkpt>
      <trkpt lat="45.99419" lon="4.81258">
        <ele>252</ele>
        <time>2018-01-14T11:20:40Z</time>
      </trkpt>
      <trkpt lat="45.99418" lon="4.81248">
        <ele>252</ele>
        <time>2018-01-14T11:20:41Z</time>
      </trkpt>
      <trkpt lat="45.99417" lon="4.81238">
        <ele>252</ele>
        <time>2018-01-14T11:20:42Z</time>
      </trkpt>
      <trkpt lat="45.99416" lon="4.81228">
        <ele>252</ele>
        <time>2018-01-14T11:20:43Z</time>
      </trkpt>
      <trkpt lat="45.99414" lon="4.81216">
        <ele>252</ele>
        <time>2018-01-14T11:20:44Z</time>
      </trkpt>
      <trkpt lat="45.99412" lon="4.81206">
        <ele>252</ele>
        <time>2018-01-14T11:20:45Z</time>
      </trkpt>
      <trkpt lat="45.99411" lon="4.81195">
        <ele>252</ele>
        <time>2018-01-14T11:20:46Z</time>
      </trkpt>
      <trkpt lat="45.99409" lon="4.81185">
        <ele>251</ele>
        <time>2018-01-14T11:20:47Z</time>
      </trkpt>
      <trkpt lat="45.99408" lon="4.81175">
        <ele>251</ele>
        <time>2018-01-14T11:20:48Z</time>
      </trkpt>
      <trkpt lat="45.99407" lon="4.81164">
        <ele>251</ele>
        <time>2018-01-14T11:20:49Z</time>
      </trkpt>
      <trkpt lat="45.99406" lon="4.81153">
        <ele>251</ele>
        <time>2018-01-14T11:20:50Z</time>
      </trkpt>
      <trkpt lat="45.99404" lon="4.81143">
        <ele>251</ele>
        <time>2018-01-14T11:20:51Z</time>
      </trkpt>
      <trkpt lat="45.99403" lon="4.81134">
        <ele>251</ele>
        <time>2018-01-14T11:20:52Z</time>
      </trkpt>
      <trkpt lat="45.99401" lon="4.81124">
        <ele>251</ele>
        <time>2018-01-14T11:20:53Z</time>
      </trkpt>
      <trkpt lat="45.99401" lon="4.81116">
        <ele>251</ele>
        <time>2018-01-14T11:20:54Z</time>
      </trkpt>
      <trkpt lat="45.99399" lon="4.81108">
        <ele>251</ele>
        <time>2018-01-14T11:20:55Z</time>
      </trkpt>
      <trkpt lat="45.99398" lon="4.81099">
        <ele>251</ele>
        <time>2018-01-14T11:20:56Z</time>
      </trkpt>
      <trkpt lat="45.99397" lon="4.8109">
        <ele>251</ele>
        <time>2018-01-14T11:20:57Z</time>
      </trkpt>
      <trkpt lat="45.99397" lon="4.8108">
        <ele>251</ele>
        <time>2018-01-14T11:20:58Z</time>
      </trkpt>
      <trkpt lat="45.99396" lon="4.81071">
        <ele>251</ele>
        <time>2018-01-14T11:20:59Z</time>
      </trkpt>
      <trkpt lat="45.99395" lon="4.81064">
        <ele>251</ele>
        <time>2018-01-14T11:21:00Z</time>
      </trkpt>
      <trkpt lat="45.99392" lon="4.81054">
        <ele>251</ele>
        <time>2018-01-14T11:21:01Z</time>
      </trkpt>
      <trkpt lat="45.99391" lon="4.81044">
        <ele>251</ele>
        <time>2018-01-14T11:21:02Z</time>
      </trkpt>
      <trkpt lat="45.9939" lon="4.81035">
        <ele>251</ele>
        <time>2018-01-14T11:21:03Z</time>
      </trkpt>
      <trkpt lat="45.9939" lon="4.81022">
        <ele>251</ele>
        <time>2018-01-14T11:21:04Z</time>
      </trkpt>
      <trkpt lat="45.99389" lon="4.81012">
        <ele>251</ele>
        <time>2018-01-14T11:21:05Z</time>
      </trkpt>
      <trkpt lat="45.99387" lon="4.81002">
        <ele>251</ele>
        <time>2018-01-14T11:21:06Z</time>
      </trkpt>
      <trkpt lat="45.99386" lon="4.80994">
        <ele>250</ele>
        <time>2018-01-14T11:21:07Z</time>
      </trkpt>
      <trkpt lat="45.99384" lon="4.80984">
        <ele>250</ele>
        <time>2018-01-14T11:21:08Z</time>
      </trkpt>
      <trkpt lat="45.99382" lon="4.80975">
        <ele>250</ele>
        <time>2018-01-14T11:21:09Z</time>
      </trkpt>
      <trkpt lat="45.99381" lon="4.80966">
        <ele>250</ele>
        <time>2018-01-14T11:21:10Z</time>
      </trkpt>
      <trkpt lat="45.99379" lon="4.80956">
        <ele>250</ele>
        <time>2018-01-14T11:21:11Z</time>
      </trkpt>
      <trkpt lat="45.99379" lon="4.80947">
        <ele>250</ele>
        <time>2018-01-14T11:21:12Z</time>
      </trkpt>
      <trkpt lat="45.99378" lon="4.80938">
        <ele>250</ele>
        <time>2018-01-14T11:21:13Z</time>
      </trkpt>
      <trkpt lat="45.99377" lon="4.8093">
        <ele>250</ele>
        <time>2018-01-14T11:21:14Z</time>
      </trkpt>
      <trkpt lat="45.99376" lon="4.80921">
        <ele>250</ele>
        <time>2018-01-14T11:21:15Z</time>
      </trkpt>
      <trkpt lat="45.99373" lon="4.80912">
        <ele>248</ele>
        <time>2018-01-14T11:21:16Z</time>
      </trkpt>
      <trkpt lat="45.99372" lon="4.80902">
        <ele>248</ele>
        <time>2018-01-14T11:21:17Z</time>
      </trkpt>
      <trkpt lat="45.99372" lon="4.80893">
        <ele>248</ele>
        <time>2018-01-14T11:21:18Z</time>
      </trkpt>
      <trkpt lat="45.99371" lon="4.80884">
        <ele>248</ele>
        <time>2018-01-14T11:21:19Z</time>
      </trkpt>
      <trkpt lat="45.99369" lon="4.80875">
        <ele>248</ele>
        <time>2018-01-14T11:21:20Z</time>
      </trkpt>
      <trkpt lat="45.99369" lon="4.80866">
        <ele>248</ele>
        <time>2018-01-14T11:21:21Z</time>
      </trkpt>
      <trkpt lat="45.99366" lon="4.80857">
        <ele>248</ele>
        <time>2018-01-14T11:21:22Z</time>
      </trkpt>
      <trkpt lat="45.99364" lon="4.80848">
        <ele>247</ele>
        <time>2018-01-14T11:21:23Z</time>
      </trkpt>
      <trkpt lat="45.99363" lon="4.80839">
        <ele>247</ele>
        <time>2018-01-14T11:21:24Z</time>
      </trkpt>
      <trkpt lat="45.99362" lon="4.80828">
        <ele>246</ele>
        <time>2018-01-14T11:21:25Z</time>
      </trkpt>
      <trkpt lat="45.9936" lon="4.80815">
        <ele>246</ele>
        <time>2018-01-14T11:21:26Z</time>
      </trkpt>
      <trkpt lat="45.99359" lon="4.80806">
        <ele>246</ele>
        <time>2018-01-14T11:21:27Z</time>
      </trkpt>
      <trkpt lat="45.99357" lon="4.80795">
        <ele>246</ele>
        <time>2018-01-14T11:21:28Z</time>
      </trkpt>
      <trkpt lat="45.99356" lon="4.80784">
        <ele>246</ele>
        <time>2018-01-14T11:21:29Z</time>
      </trkpt>
      <trkpt lat="45.99357" lon="4.80774">
        <ele>245</ele>
        <time>2018-01-14T11:21:30Z</time>
      </trkpt>
      <trkpt lat="45.99355" lon="4.80764">
        <ele>245</ele>
        <time>2018-01-14T11:21:31Z</time>
      </trkpt>
      <trkpt lat="45.99354" lon="4.80755">
        <ele>245</ele>
        <time>2018-01-14T11:21:32Z</time>
      </trkpt>
      <trkpt lat="45.99353" lon="4.80745">
        <ele>245</ele>
        <time>2018-01-14T11:21:33Z</time>
      </trkpt>
      <trkpt lat="45.9935" lon="4.80733">
        <ele>245</ele>
        <time>2018-01-14T11:21:34Z</time>
      </trkpt>
      <trkpt lat="45.99349" lon="4.80722">
        <ele>244</ele>
        <time>2018-01-14T11:21:35Z</time>
      </trkpt>
      <trkpt lat="45.99347" lon="4.80711">
        <ele>244</ele>
        <time>2018-01-14T11:21:36Z</time>
      </trkpt>
      <trkpt lat="45.99346" lon="4.80702">
        <ele>244</ele>
        <time>2018-01-14T11:21:37Z</time>
      </trkpt>
      <trkpt lat="45.99345" lon="4.8069">
        <ele>244</ele>
        <time>2018-01-14T11:21:38Z</time>
      </trkpt>
      <trkpt lat="45.99343" lon="4.80681">
        <ele>244</ele>
        <time>2018-01-14T11:21:39Z</time>
      </trkpt>
      <trkpt lat="45.99342" lon="4.80671">
        <ele>244</ele>
        <time>2018-01-14T11:21:40Z</time>
      </trkpt>
      <trkpt lat="45.9934" lon="4.80662">
        <ele>244</ele>
        <time>2018-01-14T11:21:41Z</time>
      </trkpt>
      <trkpt lat="45.9934" lon="4.80652">
        <ele>244</ele>
        <time>2018-01-14T11:21:42Z</time>
      </trkpt>
      <trkpt lat="45.99339" lon="4.80643">
        <ele>244</ele>
        <time>2018-01-14T11:21:43Z</time>
      </trkpt>
      <trkpt lat="45.99337" lon="4.80633">
        <ele>243</ele>
        <time>2018-01-14T11:21:44Z</time>
      </trkpt>
      <trkpt lat="45.99337" lon="4.80624">
        <ele>243</ele>
        <time>2018-01-14T11:21:45Z</time>
      </trkpt>
      <trkpt lat="45.99335" lon="4.80613">
        <ele>243</ele>
        <time>2018-01-14T11:21:46Z</time>
      </trkpt>
      <trkpt lat="45.99334" lon="4.80604">
        <ele>243</ele>
        <time>2018-01-14T11:21:47Z</time>
      </trkpt>
      <trkpt lat="45.99333" lon="4.8059">
        <ele>242</ele>
        <time>2018-01-14T11:21:48Z</time>
      </trkpt>
      <trkpt lat="45.99333" lon="4.80577">
        <ele>242</ele>
        <time>2018-01-14T11:21:49Z</time>
      </trkpt>
      <trkpt lat="45.99331" lon="4.80567">
        <ele>242</ele>
        <time>2018-01-14T11:21:50Z</time>
      </trkpt>
      <trkpt lat="45.9933" lon="4.8056">
        <ele>242</ele>
        <time>2018-01-14T11:21:51Z</time>
      </trkpt>
      <trkpt lat="45.99329" lon="4.80551">
        <ele>241</ele>
        <time>2018-01-14T11:21:52Z</time>
      </trkpt>
      <trkpt lat="45.99328" lon="4.80543">
        <ele>241</ele>
        <time>2018-01-14T11:21:53Z</time>
      </trkpt>
      <trkpt lat="45.99327" lon="4.80535">
        <ele>241</ele>
        <time>2018-01-14T11:21:54Z</time>
      </trkpt>
      <trkpt lat="45.99327" lon="4.80526">
        <ele>241</ele>
        <time>2018-01-14T11:21:55Z</time>
      </trkpt>
      <trkpt lat="45.99325" lon="4.80518">
        <ele>241</ele>
        <time>2018-01-14T11:21:56Z</time>
      </trkpt>
      <trkpt lat="45.99325" lon="4.8051">
        <ele>241</ele>
        <time>2018-01-14T11:21:57Z</time>
      </trkpt>
      <trkpt lat="45.99323" lon="4.80501">
        <ele>241</ele>
        <time>2018-01-14T11:21:58Z</time>
      </trkpt>
      <trkpt lat="45.99322" lon="4.8049">
        <ele>241</ele>
        <time>2018-01-14T11:21:59Z</time>
      </trkpt>
      <trkpt lat="45.99321" lon="4.80482">
        <ele>241</ele>
        <time>2018-01-14T11:22:00Z</time>
      </trkpt>
      <trkpt lat="45.99319" lon="4.80474">
        <ele>241</ele>
        <time>2018-01-14T11:22:01Z</time>
      </trkpt>
      <trkpt lat="45.99318" lon="4.80465">
        <ele>241</ele>
        <time>2018-01-14T11:22:02Z</time>
      </trkpt>
      <trkpt lat="45.99318" lon="4.80456">
        <ele>241</ele>
        <time>2018-01-14T11:22:03Z</time>
      </trkpt>
      <trkpt lat="45.99317" lon="4.80447">
        <ele>241</ele>
        <time>2018-01-14T11:22:04Z</time>
      </trkpt>
      <trkpt lat="45.99317" lon="4.80438">
        <ele>241</ele>
        <time>2018-01-14T11:22:05Z</time>
      </trkpt>
      <trkpt lat="45.99316" lon="4.80428">
        <ele>241</ele>
        <time>2018-01-14T11:22:06Z</time>
      </trkpt>
      <trkpt lat="45.99316" lon="4.80419">
        <ele>241</ele>
        <time>2018-01-14T11:22:07Z</time>
      </trkpt>
      <trkpt lat="45.99319" lon="4.80411">
        <ele>242</ele>
        <time>2018-01-14T11:22:08Z</time>
      </trkpt>
      <trkpt lat="45.9932" lon="4.80404">
        <ele>242</ele>
        <time>2018-01-14T11:22:09Z</time>
      </trkpt>
      <trkpt lat="45.99322" lon="4.80396">
        <ele>242</ele>
        <time>2018-01-14T11:22:10Z</time>
      </trkpt>
      <trkpt lat="45.99322" lon="4.8039">
        <ele>242</ele>
        <time>2018-01-14T11:22:11Z</time>
      </trkpt>
      <trkpt lat="45.9932" lon="4.80383">
        <ele>242</ele>
        <time>2018-01-14T11:22:12Z</time>
      </trkpt>
      <trkpt lat="45.99317" lon="4.80377">
        <ele>242</ele>
        <time>2018-01-14T11:22:13Z</time>
      </trkpt>
      <trkpt lat="45.99312" lon="4.80375">
        <ele>243</ele>
        <time>2018-01-14T11:22:14Z</time>
      </trkpt>
      <trkpt lat="45.99306" lon="4.80373">
        <ele>243</ele>
        <time>2018-01-14T11:22:15Z</time>
      </trkpt>
      <trkpt lat="45.99302" lon="4.80372">
        <ele>243</ele>
        <time>2018-01-14T11:22:16Z</time>
      </trkpt>
      <trkpt lat="45.99297" lon="4.80374">
        <ele>243</ele>
        <time>2018-01-14T11:22:17Z</time>
      </trkpt>
      <trkpt lat="45.9929" lon="4.80375">
        <ele>242</ele>
        <time>2018-01-14T11:22:18Z</time>
      </trkpt>
      <trkpt lat="45.99285" lon="4.80373">
        <ele>243</ele>
        <time>2018-01-14T11:22:19Z</time>
      </trkpt>
      <trkpt lat="45.99279" lon="4.80372">
        <ele>243</ele>
        <time>2018-01-14T11:22:20Z</time>
      </trkpt>
      <trkpt lat="45.99273" lon="4.80368">
        <ele>243</ele>
        <time>2018-01-14T11:22:21Z</time>
      </trkpt>
      <trkpt lat="45.99268" lon="4.80364">
        <ele>243</ele>
        <time>2018-01-14T11:22:22Z</time>
      </trkpt>
      <trkpt lat="45.99264" lon="4.80359">
        <ele>243</ele>
        <time>2018-01-14T11:22:23Z</time>
      </trkpt>
      <trkpt lat="45.99259" lon="4.80353">
        <ele>243</ele>
        <time>2018-01-14T11:22:24Z</time>
      </trkpt>
      <trkpt lat="45.99255" lon="4.80348">
        <ele>243</ele>
        <time>2018-01-14T11:22:25Z</time>
      </trkpt>
      <trkpt lat="45.99251" lon="4.80341">
        <ele>243</ele>
        <time>2018-01-14T11:22:26Z</time>
      </trkpt>
      <trkpt lat="45.99247" lon="4.80334">
        <ele>243</ele>
        <time>2018-01-14T11:22:27Z</time>
      </trkpt>
      <trkpt lat="45.99243" lon="4.80327">
        <ele>243</ele>
        <time>2018-01-14T11:22:28Z</time>
      </trkpt>
      <trkpt lat="45.99239" lon="4.8032">
        <ele>243</ele>
        <time>2018-01-14T11:22:29Z</time>
      </trkpt>
      <trkpt lat="45.99234" lon="4.80314">
        <ele>243</ele>
        <time>2018-01-14T11:22:30Z</time>
      </trkpt>
      <trkpt lat="45.9923" lon="4.80308">
        <ele>243</ele>
        <time>2018-01-14T11:22:31Z</time>
      </trkpt>
      <trkpt lat="45.99226" lon="4.80301">
        <ele>242</ele>
        <time>2018-01-14T11:22:32Z</time>
      </trkpt>
      <trkpt lat="45.99221" lon="4.80296">
        <ele>242</ele>
        <time>2018-01-14T11:22:33Z</time>
      </trkpt>
      <trkpt lat="45.99216" lon="4.80289">
        <ele>242</ele>
        <time>2018-01-14T11:22:34Z</time>
      </trkpt>
      <trkpt lat="45.99211" lon="4.80282">
        <ele>242</ele>
        <time>2018-01-14T11:22:35Z</time>
      </trkpt>
      <trkpt lat="45.99206" lon="4.80277">
        <ele>242</ele>
        <time>2018-01-14T11:22:36Z</time>
      </trkpt>
      <trkpt lat="45.99201" lon="4.80271">
        <ele>242</ele>
        <time>2018-01-14T11:22:37Z</time>
      </trkpt>
      <trkpt lat="45.99197" lon="4.80264">
        <ele>242</ele>
        <time>2018-01-14T11:22:38Z</time>
      </trkpt>
      <trkpt lat="45.99192" lon="4.80259">
        <ele>242</ele>
        <time>2018-01-14T11:22:39Z</time>
      </trkpt>
      <trkpt lat="45.99187" lon="4.80252">
        <ele>242</ele>
        <time>2018-01-14T11:22:40Z</time>
      </trkpt>
      <trkpt lat="45.99181" lon="4.80246">
        <ele>242</ele>
        <time>2018-01-14T11:22:41Z</time>
      </trkpt>
      <trkpt lat="45.99176" lon="4.8024">
        <ele>242</ele>
        <time>2018-01-14T11:22:42Z</time>
      </trkpt>
      <trkpt lat="45.99171" lon="4.80234">
        <ele>242</ele>
        <time>2018-01-14T11:22:43Z</time>
      </trkpt>
      <trkpt lat="45.99166" lon="4.80228">
        <ele>241</ele>
        <time>2018-01-14T11:22:44Z</time>
      </trkpt>
      <trkpt lat="45.99161" lon="4.80223">
        <ele>241</ele>
        <time>2018-01-14T11:22:45Z</time>
      </trkpt>
      <trkpt lat="45.99156" lon="4.80217">
        <ele>242</ele>
        <time>2018-01-14T11:22:46Z</time>
      </trkpt>
      <trkpt lat="45.99152" lon="4.80211">
        <ele>242</ele>
        <time>2018-01-14T11:22:47Z</time>
      </trkpt>
      <trkpt lat="45.99147" lon="4.80206">
        <ele>242</ele>
        <time>2018-01-14T11:22:48Z</time>
      </trkpt>
      <trkpt lat="45.99143" lon="4.80199">
        <ele>242</ele>
        <time>2018-01-14T11:22:49Z</time>
      </trkpt>
      <trkpt lat="45.99138" lon="4.80193">
        <ele>242</ele>
        <time>2018-01-14T11:22:50Z</time>
      </trkpt>
      <trkpt lat="45.99132" lon="4.80188">
        <ele>242</ele>
        <time>2018-01-14T11:22:51Z</time>
      </trkpt>
      <trkpt lat="45.99128" lon="4.80182">
        <ele>242</ele>
        <time>2018-01-14T11:22:52Z</time>
      </trkpt>
      <trkpt lat="45.99121" lon="4.80177">
        <ele>242</ele>
        <time>2018-01-14T11:22:53Z</time>
      </trkpt>
      <trkpt lat="45.99116" lon="4.80171">
        <ele>242</ele>
        <time>2018-01-14T11:22:54Z</time>
      </trkpt>
      <trkpt lat="45.99111" lon="4.80165">
        <ele>243</ele>
        <time>2018-01-14T11:22:55Z</time>
      </trkpt>
      <trkpt lat="45.99106" lon="4.80159">
        <ele>243</ele>
        <time>2018-01-14T11:22:56Z</time>
      </trkpt>
      <trkpt lat="45.99102" lon="4.80153">
        <ele>243</ele>
        <time>2018-01-14T11:22:57Z</time>
      </trkpt>
      <trkpt lat="45.99097" lon="4.80148">
        <ele>243</ele>
        <time>2018-01-14T11:22:58Z</time>
      </trkpt>
      <trkpt lat="45.99093" lon="4.80143">
        <ele>243</ele>
        <time>2018-01-14T11:22:59Z</time>
      </trkpt>
      <trkpt lat="45.99088" lon="4.80139">
        <ele>243</ele>
        <time>2018-01-14T11:23:00Z</time>
      </trkpt>
      <trkpt lat="45.99085" lon="4.80132">
        <ele>243</ele>
        <time>2018-01-14T11:23:01Z</time>
      </trkpt>
      <trkpt lat="45.99079" lon="4.80128">
        <ele>242</ele>
        <time>2018-01-14T11:23:02Z</time>
      </trkpt>
      <trkpt lat="45.99076" lon="4.80123">
        <ele>242</ele>
        <time>2018-01-14T11:23:03Z</time>
      </trkpt>
      <trkpt lat="45.99071" lon="4.80118">
        <ele>242</ele>
        <time>2018-01-14T11:23:04Z</time>
      </trkpt>
      <trkpt lat="45.99067" lon="4.80113">
        <ele>242</ele>
        <time>2018-01-14T11:23:05Z</time>
      </trkpt>
      <trkpt lat="45.99062" lon="4.80108">
        <ele>242</ele>
        <time>2018-01-14T11:23:06Z</time>
      </trkpt>
      <trkpt lat="45.99058" lon="4.80104">
        <ele>242</ele>
        <time>2018-01-14T11:23:07Z</time>
      </trkpt>
      <trkpt lat="45.99053" lon="4.80099">
        <ele>242</ele>
        <time>2018-01-14T11:23:08Z</time>
      </trkpt>
      <trkpt lat="45.99049" lon="4.80094">
        <ele>242</ele>
        <time>2018-01-14T11:23:09Z</time>
      </trkpt>
      <trkpt lat="45.99044" lon="4.80089">
        <ele>242</ele>
        <time>2018-01-14T11:23:10Z</time>
      </trkpt>
      <trkpt lat="45.9904" lon="4.80084">
        <ele>242</ele>
        <time>2018-01-14T11:23:11Z</time>
      </trkpt>
      <trkpt lat="45.99036" lon="4.80079">
        <ele>243</ele>
        <time>2018-01-14T11:23:12Z</time>
      </trkpt>
      <trkpt lat="45.99031" lon="4.80074">
        <ele>243</ele>
        <time>2018-01-14T11:23:13Z</time>
      </trkpt>
      <trkpt lat="45.99026" lon="4.80068">
        <ele>243</ele>
        <time>2018-01-14T11:23:14Z</time>
      </trkpt>
      <trkpt lat="45.99021" lon="4.80061">
        <ele>243</ele>
        <time>2018-01-14T11:23:15Z</time>
      </trkpt>
      <trkpt lat="45.99017" lon="4.80057">
        <ele>243</ele>
        <time>2018-01-14T11:23:16Z</time>
      </trkpt>
      <trkpt lat="45.99012" lon="4.80052">
        <ele>244</ele>
        <time>2018-01-14T11:23:17Z</time>
      </trkpt>
      <trkpt lat="45.99008" lon="4.80046">
        <ele>244</ele>
        <time>2018-01-14T11:23:18Z</time>
      </trkpt>
      <trkpt lat="45.99004" lon="4.80041">
        <ele>244</ele>
        <time>2018-01-14T11:23:19Z</time>
      </trkpt>
      <trkpt lat="45.99" lon="4.80035">
        <ele>244</ele>
        <time>2018-01-14T11:23:20Z</time>
      </trkpt>
      <trkpt lat="45.98996" lon="4.8003">
        <ele>243</ele>
        <time>2018-01-14T11:23:21Z</time>
      </trkpt>
      <trkpt lat="45.98991" lon="4.80025">
        <ele>243</ele>
        <time>2018-01-14T11:23:22Z</time>
      </trkpt>
      <trkpt lat="45.98988" lon="4.8002">
        <ele>243</ele>
        <time>2018-01-14T11:23:23Z</time>
      </trkpt>
      <trkpt lat="45.98983" lon="4.80015">
        <ele>243</ele>
        <time>2018-01-14T11:23:24Z</time>
      </trkpt>
      <trkpt lat="45.98979" lon="4.8001">
        <ele>243</ele>
        <time>2018-01-14T11:23:25Z</time>
      </trkpt>
      <trkpt lat="45.98975" lon="4.80004">
        <ele>243</ele>
        <time>2018-01-14T11:23:26Z</time>
      </trkpt>
      <trkpt lat="45.98971" lon="4.79998">
        <ele>245</ele>
        <time>2018-01-14T11:23:27Z</time>
      </trkpt>
      <trkpt lat="45.98967" lon="4.79994">
        <ele>245</ele>
        <time>2018-01-14T11:23:28Z</time>
      </trkpt>
      <trkpt lat="45.98963" lon="4.79989">
        <ele>245</ele>
        <time>2018-01-14T11:23:29Z</time>
      </trkpt>
      <trkpt lat="45.98958" lon="4.79984">
        <ele>245</ele>
        <time>2018-01-14T11:23:30Z</time>
      </trkpt>
      <trkpt lat="45.98953" lon="4.79979">
        <ele>245</ele>
        <time>2018-01-14T11:23:31Z</time>
      </trkpt>
      <trkpt lat="45.98948" lon="4.79973">
        <ele>245</ele>
        <time>2018-01-14T11:23:32Z</time>
      </trkpt>
      <trkpt lat="45.98944" lon="4.79968">
        <ele>245</ele>
        <time>2018-01-14T11:23:33Z</time>
      </trkpt>
      <trkpt lat="45.98939" lon="4.79963">
        <ele>245</ele>
        <time>2018-01-14T11:23:34Z</time>
      </trkpt>
      <trkpt lat="45.98934" lon="4.79959">
        <ele>245</ele>
        <time>2018-01-14T11:23:35Z</time>
      </trkpt>
      <trkpt lat="45.98929" lon="4.79953">
        <ele>245</ele>
        <time>2018-01-14T11:23:36Z</time>
      </trkpt>
      <trkpt lat="45.98925" lon="4.79948">
        <ele>245</ele>
        <time>2018-01-14T11:23:37Z</time>
      </trkpt>
      <trkpt lat="45.98921" lon="4.79943">
        <ele>245</ele>
        <time>2018-01-14T11:23:38Z</time>
      </trkpt>
      <trkpt lat="45.98916" lon="4.79939">
        <ele>244</ele>
        <time>2018-01-14T11:23:39Z</time>
      </trkpt>
      <trkpt lat="45.98912" lon="4.79934">
        <ele>244</ele>
        <time>2018-01-14T11:23:40Z</time>
      </trkpt>
      <trkpt lat="45.98908" lon="4.79928">
        <ele>244</ele>
        <time>2018-01-14T11:23:41Z</time>
      </trkpt>
      <trkpt lat="45.98903" lon="4.79923">
        <ele>244</ele>
        <time>2018-01-14T11:23:42Z</time>
      </trkpt>
      <trkpt lat="45.98899" lon="4.79918">
        <ele>244</ele>
        <time>2018-01-14T11:23:43Z</time>
      </trkpt>
      <trkpt lat="45.98895" lon="4.79913">
        <ele>244</ele>
        <time>2018-01-14T11:23:44Z</time>
      </trkpt>
      <trkpt lat="45.98891" lon="4.79908">
        <ele>244</ele>
        <time>2018-01-14T11:23:45Z</time>
      </trkpt>
      <trkpt lat="45.98887" lon="4.79903">
        <ele>244</ele>
        <time>2018-01-14T11:23:46Z</time>
      </trkpt>
      <trkpt lat="45.98883" lon="4.79898">
        <ele>244</ele>
        <time>2018-01-14T11:23:47Z</time>
      </trkpt>
      <trkpt lat="45.98879" lon="4.79894">
        <ele>244</ele>
        <time>2018-01-14T11:23:48Z</time>
      </trkpt>
      <trkpt lat="45.98875" lon="4.79889">
        <ele>244</ele>
        <time>2018-01-14T11:23:49Z</time>
      </trkpt>
      <trkpt lat="45.9887" lon="4.79884">
        <ele>244</ele>
        <time>2018-01-14T11:23:50Z</time>
      </trkpt>
      <trkpt lat="45.98866" lon="4.79881">
        <ele>244</ele>
        <time>2018-01-14T11:23:51Z</time>
      </trkpt>
      <trkpt lat="45.98862" lon="4.79877">
        <ele>244</ele>
        <time>2018-01-14T11:23:52Z</time>
      </trkpt>
      <trkpt lat="45.98858" lon="4.79873">
        <ele>244</ele>
        <time>2018-01-14T11:23:53Z</time>
      </trkpt>
      <trkpt lat="45.98854" lon="4.79868">
        <ele>244</ele>
        <time>2018-01-14T11:23:54Z</time>
      </trkpt>
      <trkpt lat="45.9885" lon="4.79862">
        <ele>244</ele>
        <time>2018-01-14T11:23:55Z</time>
      </trkpt>
      <trkpt lat="45.98846" lon="4.79858">
        <ele>244</ele>
        <time>2018-01-14T11:23:56Z</time>
      </trkpt>
      <trkpt lat="45.98842" lon="4.79853">
        <ele>244</ele>
        <time>2018-01-14T11:23:57Z</time>
      </trkpt>
      <trkpt lat="45.98838" lon="4.79849">
        <ele>244</ele>
        <time>2018-01-14T11:23:58Z</time>
      </trkpt>
      <trkpt lat="45.98834" lon="4.79845">
        <ele>244</ele>
        <time>2018-01-14T11:23:59Z</time>
      </trkpt>
      <trkpt lat="45.9883" lon="4.7984">
        <ele>244</ele>
        <time>2018-01-14T11:24:00Z</time>
      </trkpt>
      <trkpt lat="45.98825" lon="4.79835">
        <ele>244</ele>
        <time>2018-01-14T11:24:01Z</time>
      </trkpt>
      <trkpt lat="45.98821" lon="4.7983">
        <ele>244</ele>
        <time>2018-01-14T11:24:02Z</time>
      </trkpt>
      <trkpt lat="45.98816" lon="4.79825">
        <ele>245</ele>
        <time>2018-01-14T11:24:03Z</time>
      </trkpt>
      <trkpt lat="45.98812" lon="4.7982">
        <ele>245</ele>
        <time>2018-01-14T11:24:04Z</time>
      </trkpt>
      <trkpt lat="45.98808" lon="4.79815">
        <ele>245</ele>
        <time>2018-01-14T11:24:05Z</time>
      </trkpt>
      <trkpt lat="45.98804" lon="4.79809">
        <ele>245</ele>
        <time>2018-01-14T11:24:06Z</time>
      </trkpt>
      <trkpt lat="45.988" lon="4.79804">
        <ele>245</ele>
        <time>2018-01-14T11:24:07Z</time>
      </trkpt>
      <trkpt lat="45.98795" lon="4.79798">
        <ele>245</ele>
        <time>2018-01-14T11:24:08Z</time>
      </trkpt>
      <trkpt lat="45.98791" lon="4.79794">
        <ele>245</ele>
        <time>2018-01-14T11:24:09Z</time>
      </trkpt>
      <trkpt lat="45.98787" lon="4.79789">
        <ele>245</ele>
        <time>2018-01-14T11:24:10Z</time>
      </trkpt>
      <trkpt lat="45.98785" lon="4.79783">
        <ele>245</ele>
        <time>2018-01-14T11:24:11Z</time>
      </trkpt>
      <trkpt lat="45.98781" lon="4.79778">
        <ele>245</ele>
        <time>2018-01-14T11:24:12Z</time>
      </trkpt>
      <trkpt lat="45.98777" lon="4.79773">
        <ele>245</ele>
        <time>2018-01-14T11:24:13Z</time>
      </trkpt>
      <trkpt lat="45.98773" lon="4.79769">
        <ele>245</ele>
        <time>2018-01-14T11:24:14Z</time>
      </trkpt>
      <trkpt lat="45.98768" lon="4.79765">
        <ele>245</ele>
        <time>2018-01-14T11:24:15Z</time>
      </trkpt>
      <trkpt lat="45.98765" lon="4.79761">
        <ele>245</ele>
        <time>2018-01-14T11:24:16Z</time>
      </trkpt>
      <trkpt lat="45.9876" lon="4.79758">
        <ele>245</ele>
        <time>2018-01-14T11:24:17Z</time>
      </trkpt>
      <trkpt lat="45.98756" lon="4.79753">
        <ele>245</ele>
        <time>2018-01-14T11:24:18Z</time>
      </trkpt>
      <trkpt lat="45.98752" lon="4.79749">
        <ele>245</ele>
        <time>2018-01-14T11:24:19Z</time>
      </trkpt>
      <trkpt lat="45.98747" lon="4.79745">
        <ele>245</ele>
        <time>2018-01-14T11:24:20Z</time>
      </trkpt>
      <trkpt lat="45.98743" lon="4.79741">
        <ele>245</ele>
        <time>2018-01-14T11:24:21Z</time>
      </trkpt>
      <trkpt lat="45.98739" lon="4.79738">
        <ele>245</ele>
        <time>2018-01-14T11:24:22Z</time>
      </trkpt>
      <trkpt lat="45.98734" lon="4.79736">
        <ele>245</ele>
        <time>2018-01-14T11:24:23Z</time>
      </trkpt>
      <trkpt lat="45.98728" lon="4.79733">
        <ele>245</ele>
        <time>2018-01-14T11:24:24Z</time>
      </trkpt>
      <trkpt lat="45.98723" lon="4.79731">
        <ele>245</ele>
        <time>2018-01-14T11:24:25Z</time>
      </trkpt>
      <trkpt lat="45.98719" lon="4.79728">
        <ele>245</ele>
        <time>2018-01-14T11:24:26Z</time>
      </trkpt>
      <trkpt lat="45.98714" lon="4.79724">
        <ele>245</ele>
        <time>2018-01-14T11:24:27Z</time>
      </trkpt>
      <trkpt lat="45.9871" lon="4.7972">
        <ele>245</ele>
        <time>2018-01-14T11:24:28Z</time>
      </trkpt>
      <trkpt lat="45.98706" lon="4.79716">
        <ele>245</ele>
        <time>2018-01-14T11:24:29Z</time>
      </trkpt>
      <trkpt lat="45.98701" lon="4.79714">
        <ele>245</ele>
        <time>2018-01-14T11:24:30Z</time>
      </trkpt>
      <trkpt lat="45.98695" lon="4.79712">
        <ele>245</ele>
        <time>2018-01-14T11:24:31Z</time>
      </trkpt>
      <trkpt lat="45.9869" lon="4.79709">
        <ele>245</ele>
        <time>2018-01-14T11:24:32Z</time>
      </trkpt>
      <trkpt lat="45.98685" lon="4.79706">
        <ele>245</ele>
        <time>2018-01-14T11:24:33Z</time>
      </trkpt>
      <trkpt lat="45.9868" lon="4.79704">
        <ele>245</ele>
        <time>2018-01-14T11:24:34Z</time>
      </trkpt>
      <trkpt lat="45.98675" lon="4.79701">
        <ele>245</ele>
        <time>2018-01-14T11:24:35Z</time>
      </trkpt>
      <trkpt lat="45.98671" lon="4.79698">
        <ele>245</ele>
        <time>2018-01-14T11:24:36Z</time>
      </trkpt>
      <trkpt lat="45.98666" lon="4.79695">
        <ele>245</ele>
        <time>2018-01-14T11:24:37Z</time>
      </trkpt>
      <trkpt lat="45.98662" lon="4.7969">
        <ele>245</ele>
        <time>2018-01-14T11:24:38Z</time>
      </trkpt>
      <trkpt lat="45.98657" lon="4.79687">
        <ele>245</ele>
        <time>2018-01-14T11:24:39Z</time>
      </trkpt>
      <trkpt lat="45.98653" lon="4.79681">
        <ele>245</ele>
        <time>2018-01-14T11:24:40Z</time>
      </trkpt>
      <trkpt lat="45.98648" lon="4.79675">
        <ele>245</ele>
        <time>2018-01-14T11:24:41Z</time>
      </trkpt>
      <trkpt lat="45.98644" lon="4.79669">
        <ele>245</ele>
        <time>2018-01-14T11:24:42Z</time>
      </trkpt>
      <trkpt lat="45.98641" lon="4.79663">
        <ele>245</ele>
        <time>2018-01-14T11:24:43Z</time>
      </trkpt>
      <trkpt lat="45.98638" lon="4.79657">
        <ele>245</ele>
        <time>2018-01-14T11:24:44Z</time>
      </trkpt>
      <trkpt lat="45.98636" lon="4.79651">
        <ele>245</ele>
        <time>2018-01-14T11:24:45Z</time>
      </trkpt>
      <trkpt lat="45.98633" lon="4.79643">
        <ele>245</ele>
        <time>2018-01-14T11:24:46Z</time>
      </trkpt>
      <trkpt lat="45.9863" lon="4.79638">
        <ele>245</ele>
        <time>2018-01-14T11:24:47Z</time>
      </trkpt>
      <trkpt lat="45.98629" lon="4.79631">
        <ele>245</ele>
        <time>2018-01-14T11:24:48Z</time>
      </trkpt>
      <trkpt lat="45.98627" lon="4.79624">
        <ele>245</ele>
        <time>2018-01-14T11:24:49Z</time>
      </trkpt>
      <trkpt lat="45.98627" lon="4.79616">
        <ele>245</ele>
        <time>2018-01-14T11:24:50Z</time>
      </trkpt>
      <trkpt lat="45.98629" lon="4.79608">
        <ele>245</ele>
        <time>2018-01-14T11:24:51Z</time>
      </trkpt>
      <trkpt lat="45.98629" lon="4.796">
        <ele>245</ele>
        <time>2018-01-14T11:24:52Z</time>
      </trkpt>
      <trkpt lat="45.98628" lon="4.79591">
        <ele>245</ele>
        <time>2018-01-14T11:24:53Z</time>
      </trkpt>
      <trkpt lat="45.98625" lon="4.79584">
        <ele>245</ele>
        <time>2018-01-14T11:24:54Z</time>
      </trkpt>
      <trkpt lat="45.98622" lon="4.79579">
        <ele>245</ele>
        <time>2018-01-14T11:24:55Z</time>
      </trkpt>
      <trkpt lat="45.98617" lon="4.79574">
        <ele>245</ele>
        <time>2018-01-14T11:24:56Z</time>
      </trkpt>
      <trkpt lat="45.98612" lon="4.79571">
        <ele>245</ele>
        <time>2018-01-14T11:24:57Z</time>
      </trkpt>
      <trkpt lat="45.98607" lon="4.7957">
        <ele>245</ele>
        <time>2018-01-14T11:24:58Z</time>
      </trkpt>
      <trkpt lat="45.98602" lon="4.79571">
        <ele>245</ele>
        <time>2018-01-14T11:24:59Z</time>
      </trkpt>
      <trkpt lat="45.98597" lon="4.79574">
        <ele>245</ele>
        <time>2018-01-14T11:25:00Z</time>
      </trkpt>
      <trkpt lat="45.98592" lon="4.79577">
        <ele>245</ele>
        <time>2018-01-14T11:25:01Z</time>
      </trkpt>
      <trkpt lat="45.98587" lon="4.79578">
        <ele>245</ele>
        <time>2018-01-14T11:25:02Z</time>
      </trkpt>
      <trkpt lat="45.98582" lon="4.79576">
        <ele>245</ele>
        <time>2018-01-14T11:25:03Z</time>
      </trkpt>
      <trkpt lat="45.98576" lon="4.79574">
        <ele>245</ele>
        <time>2018-01-14T11:25:04Z</time>
      </trkpt>
      <trkpt lat="45.98571" lon="4.79572">
        <ele>245</ele>
        <time>2018-01-14T11:25:05Z</time>
      </trkpt>
      <trkpt lat="45.98566" lon="4.79568">
        <ele>244</ele>
        <time>2018-01-14T11:25:06Z</time>
      </trkpt>
      <trkpt lat="45.98561" lon="4.79563">
        <ele>244</ele>
        <time>2018-01-14T11:25:07Z</time>
      </trkpt>
      <trkpt lat="45.98557" lon="4.79558">
        <ele>244</ele>
        <time>2018-01-14T11:25:08Z</time>
      </trkpt>
      <trkpt lat="45.98552" lon="4.79553">
        <ele>244</ele>
        <time>2018-01-14T11:25:09Z</time>
      </trkpt>
      <trkpt lat="45.98549" lon="4.79548">
        <ele>244</ele>
        <time>2018-01-14T11:25:10Z</time>
      </trkpt>
      <trkpt lat="45.98545" lon="4.79541">
        <ele>244</ele>
        <time>2018-01-14T11:25:11Z</time>
      </trkpt>
      <trkpt lat="45.98542" lon="4.79535">
        <ele>244</ele>
        <time>2018-01-14T11:25:12Z</time>
      </trkpt>
      <trkpt lat="45.98538" lon="4.79527">
        <ele>244</ele>
        <time>2018-01-14T11:25:13Z</time>
      </trkpt>
      <trkpt lat="45.98535" lon="4.7952">
        <ele>244</ele>
        <time>2018-01-14T11:25:14Z</time>
      </trkpt>
      <trkpt lat="45.98532" lon="4.79512">
        <ele>244</ele>
        <time>2018-01-14T11:25:15Z</time>
      </trkpt>
      <trkpt lat="45.9853" lon="4.79503">
        <ele>244</ele>
        <time>2018-01-14T11:25:16Z</time>
      </trkpt>
      <trkpt lat="45.98528" lon="4.79494">
        <ele>244</ele>
        <time>2018-01-14T11:25:17Z</time>
      </trkpt>
      <trkpt lat="45.98527" lon="4.79486">
        <ele>244</ele>
        <time>2018-01-14T11:25:18Z</time>
      </trkpt>
      <trkpt lat="45.98526" lon="4.79477">
        <ele>244</ele>
        <time>2018-01-14T11:25:19Z</time>
      </trkpt>
      <trkpt lat="45.98526" lon="4.79469">
        <ele>244</ele>
        <time>2018-01-14T11:25:20Z</time>
      </trkpt>
      <trkpt lat="45.98527" lon="4.79461">
        <ele>244</ele>
        <time>2018-01-14T11:25:21Z</time>
      </trkpt>
      <trkpt lat="45.98528" lon="4.79452">
        <ele>244</ele>
        <time>2018-01-14T11:25:22Z</time>
      </trkpt>
      <trkpt lat="45.9853" lon="4.7944">
        <ele>244</ele>
        <time>2018-01-14T11:25:23Z</time>
      </trkpt>
      <trkpt lat="45.9853" lon="4.79431">
        <ele>244</ele>
        <time>2018-01-14T11:25:24Z</time>
      </trkpt>
      <trkpt lat="45.9853" lon="4.7942">
        <ele>244</ele>
        <time>2018-01-14T11:25:25Z</time>
      </trkpt>
      <trkpt lat="45.9853" lon="4.79413">
        <ele>244</ele>
        <time>2018-01-14T11:25:26Z</time>
      </trkpt>
      <trkpt lat="45.98529" lon="4.79404">
        <ele>244</ele>
        <time>2018-01-14T11:25:27Z</time>
      </trkpt>
      <trkpt lat="45.98528" lon="4.79398">
        <ele>244</ele>
        <time>2018-01-14T11:25:28Z</time>
      </trkpt>
      <trkpt lat="45.98527" lon="4.7939">
        <ele>244</ele>
        <time>2018-01-14T11:25:29Z</time>
      </trkpt>
      <trkpt lat="45.98526" lon="4.79384">
        <ele>244</ele>
        <time>2018-01-14T11:25:30Z</time>
      </trkpt>
      <trkpt lat="45.98525" lon="4.79376">
        <ele>244</ele>
        <time>2018-01-14T11:25:31Z</time>
      </trkpt>
      <trkpt lat="45.98523" lon="4.79366">
        <ele>243</ele>
        <time>2018-01-14T11:25:32Z</time>
      </trkpt>
      <trkpt lat="45.98521" lon="4.79358">
        <ele>243</ele>
        <time>2018-01-14T11:25:33Z</time>
      </trkpt>
      <trkpt lat="45.98519" lon="4.79349">
        <ele>243</ele>
        <time>2018-01-14T11:25:34Z</time>
      </trkpt>
      <trkpt lat="45.98517" lon="4.79341">
        <ele>243</ele>
        <time>2018-01-14T11:25:35Z</time>
      </trkpt>
      <trkpt lat="45.98514" lon="4.79333">
        <ele>243</ele>
        <time>2018-01-14T11:25:36Z</time>
      </trkpt>
      <trkpt lat="45.98511" lon="4.79325">
        <ele>243</ele>
        <time>2018-01-14T11:25:37Z</time>
      </trkpt>
      <trkpt lat="45.98509" lon="4.79317">
        <ele>243</ele>
        <time>2018-01-14T11:25:38Z</time>
      </trkpt>
      <trkpt lat="45.98506" lon="4.7931">
        <ele>243</ele>
        <time>2018-01-14T11:25:39Z</time>
      </trkpt>
      <trkpt lat="45.98503" lon="4.79302">
        <ele>243</ele>
        <time>2018-01-14T11:25:40Z</time>
      </trkpt>
      <trkpt lat="45.98501" lon="4.79295">
        <ele>243</ele>
        <time>2018-01-14T11:25:41Z</time>
      </trkpt>
      <trkpt lat="45.98498" lon="4.79289">
        <ele>243</ele>
        <time>2018-01-14T11:25:42Z</time>
      </trkpt>
      <trkpt lat="45.98496" lon="4.79281">
        <ele>243</ele>
        <time>2018-01-14T11:25:43Z</time>
      </trkpt>
      <trkpt lat="45.98493" lon="4.79275">
        <ele>243</ele>
        <time>2018-01-14T11:25:44Z</time>
      </trkpt>
      <trkpt lat="45.98489" lon="4.79267">
        <ele>243</ele>
        <time>2018-01-14T11:25:45Z</time>
      </trkpt>
      <trkpt lat="45.98485" lon="4.7926">
        <ele>243</ele>
        <time>2018-01-14T11:25:46Z</time>
      </trkpt>
      <trkpt lat="45.98481" lon="4.79252">
        <ele>243</ele>
        <time>2018-01-14T11:25:47Z</time>
      </trkpt>
      <trkpt lat="45.98476" lon="4.79246">
        <ele>243</ele>
        <time>2018-01-14T11:25:48Z</time>
      </trkpt>
      <trkpt lat="45.98472" lon="4.79239">
        <ele>243</ele>
        <time>2018-01-14T11:25:49Z</time>
      </trkpt>
      <trkpt lat="45.98468" lon="4.79232">
        <ele>243</ele>
        <time>2018-01-14T11:25:50Z</time>
      </trkpt>
      <trkpt lat="45.98464" lon="4.79225">
        <ele>243</ele>
        <time>2018-01-14T11:25:51Z</time>
      </trkpt>
      <trkpt lat="45.9846" lon="4.79219">
        <ele>243</ele>
        <time>2018-01-14T11:25:52Z</time>
      </trkpt>
      <trkpt lat="45.98456" lon="4.79212">
        <ele>243</ele>
        <time>2018-01-14T11:25:53Z</time>
      </trkpt>
      <trkpt lat="45.98453" lon="4.79205">
        <ele>242</ele>
        <time>2018-01-14T11:25:54Z</time>
      </trkpt>
      <trkpt lat="45.98449" lon="4.792">
        <ele>242</ele>
        <time>2018-01-14T11:25:55Z</time>
      </trkpt>
      <trkpt lat="45.98445" lon="4.79194">
        <ele>242</ele>
        <time>2018-01-14T11:25:56Z</time>
      </trkpt>
      <trkpt lat="45.98441" lon="4.79188">
        <ele>242</ele>
        <time>2018-01-14T11:25:57Z</time>
      </trkpt>
      <trkpt lat="45.98438" lon="4.79182">
        <ele>242</ele>
        <time>2018-01-14T11:25:58Z</time>
      </trkpt>
      <trkpt lat="45.98434" lon="4.79176">
        <ele>242</ele>
        <time>2018-01-14T11:25:59Z</time>
      </trkpt>
      <trkpt lat="45.98431" lon="4.7917">
        <ele>242</ele>
        <time>2018-01-14T11:26:00Z</time>
      </trkpt>
      <trkpt lat="45.98427" lon="4.79164">
        <ele>242</ele>
        <time>2018-01-14T11:26:01Z</time>
      </trkpt>
      <trkpt lat="45.98423" lon="4.79157">
        <ele>242</ele>
        <time>2018-01-14T11:26:02Z</time>
      </trkpt>
      <trkpt lat="45.9842" lon="4.79151">
        <ele>242</ele>
        <time>2018-01-14T11:26:03Z</time>
      </trkpt>
      <trkpt lat="45.98417" lon="4.79145">
        <ele>242</ele>
        <time>2018-01-14T11:26:04Z</time>
      </trkpt>
      <trkpt lat="45.98413" lon="4.79139">
        <ele>242</ele>
        <time>2018-01-14T11:26:05Z</time>
      </trkpt>
      <trkpt lat="45.9841" lon="4.79133">
        <ele>242</ele>
        <time>2018-01-14T11:26:06Z</time>
      </trkpt>
      <trkpt lat="45.98407" lon="4.79127">
        <ele>242</ele>
        <time>2018-01-14T11:26:07Z</time>
      </trkpt>
      <trkpt lat="45.98403" lon="4.7912">
        <ele>242</ele>
        <time>2018-01-14T11:26:08Z</time>
      </trkpt>
      <trkpt lat="45.984" lon="4.79113">
        <ele>242</ele>
        <time>2018-01-14T11:26:09Z</time>
      </trkpt>
      <trkpt lat="45.98396" lon="4.79107">
        <ele>242</ele>
        <time>2018-01-14T11:26:10Z</time>
      </trkpt>
      <trkpt lat="45.98392" lon="4.79101">
        <ele>242</ele>
        <time>2018-01-14T11:26:11Z</time>
      </trkpt>
      <trkpt lat="45.98388" lon="4.79094">
        <ele>242</ele>
        <time>2018-01-14T11:26:12Z</time>
      </trkpt>
      <trkpt lat="45.98384" lon="4.79087">
        <ele>242</ele>
        <time>2018-01-14T11:26:13Z</time>
      </trkpt>
      <trkpt lat="45.98381" lon="4.79081">
        <ele>242</ele>
        <time>2018-01-14T11:26:14Z</time>
      </trkpt>
      <trkpt lat="45.98377" lon="4.79074">
        <ele>242</ele>
        <time>2018-01-14T11:26:15Z</time>
      </trkpt>
      <trkpt lat="45.98373" lon="4.79067">
        <ele>242</ele>
        <time>2018-01-14T11:26:16Z</time>
      </trkpt>
      <trkpt lat="45.98369" lon="4.79059">
        <ele>242</ele>
        <time>2018-01-14T11:26:17Z</time>
      </trkpt>
      <trkpt lat="45.98366" lon="4.79052">
        <ele>242</ele>
        <time>2018-01-14T11:26:18Z</time>
      </trkpt>
      <trkpt lat="45.98363" lon="4.79045">
        <ele>242</ele>
        <time>2018-01-14T11:26:19Z</time>
      </trkpt>
      <trkpt lat="45.98359" lon="4.79035">
        <ele>242</ele>
        <time>2018-01-14T11:26:20Z</time>
      </trkpt>
      <trkpt lat="45.98355" lon="4.7903">
        <ele>242</ele>
        <time>2018-01-14T11:26:21Z</time>
      </trkpt>
      <trkpt lat="45.98351" lon="4.79023">
        <ele>242</ele>
        <time>2018-01-14T11:26:22Z</time>
      </trkpt>
      <trkpt lat="45.98346" lon="4.79019">
        <ele>242</ele>
        <time>2018-01-14T11:26:23Z</time>
      </trkpt>
      <trkpt lat="45.98341" lon="4.79016">
        <ele>242</ele>
        <time>2018-01-14T11:26:24Z</time>
      </trkpt>
      <trkpt lat="45.98337" lon="4.79012">
        <ele>242</ele>
        <time>2018-01-14T11:26:25Z</time>
      </trkpt>
      <trkpt lat="45.98331" lon="4.79009">
        <ele>242</ele>
        <time>2018-01-14T11:26:26Z</time>
      </trkpt>
      <trkpt lat="45.98325" lon="4.79005">
        <ele>242</ele>
        <time>2018-01-14T11:26:27Z</time>
      </trkpt>
      <trkpt lat="45.9832" lon="4.79001">
        <ele>242</ele>
        <time>2018-01-14T11:26:28Z</time>
      </trkpt>
      <trkpt lat="45.98314" lon="4.78999">
        <ele>242</ele>
        <time>2018-01-14T11:26:29Z</time>
      </trkpt>
      <trkpt lat="45.98309" lon="4.78996">
        <ele>241</ele>
        <time>2018-01-14T11:26:30Z</time>
      </trkpt>
      <trkpt lat="45.98303" lon="4.78992">
        <ele>241</ele>
        <time>2018-01-14T11:26:31Z</time>
      </trkpt>
      <trkpt lat="45.98298" lon="4.78988">
        <ele>241</ele>
        <time>2018-01-14T11:26:32Z</time>
      </trkpt>
      <trkpt lat="45.98292" lon="4.78984">
        <ele>241</ele>
        <time>2018-01-14T11:26:33Z</time>
      </trkpt>
      <trkpt lat="45.98286" lon="4.78981">
        <ele>241</ele>
        <time>2018-01-14T11:26:34Z</time>
      </trkpt>
      <trkpt lat="45.9828" lon="4.78978">
        <ele>241</ele>
        <time>2018-01-14T11:26:35Z</time>
      </trkpt>
      <trkpt lat="45.98275" lon="4.78974">
        <ele>241</ele>
        <time>2018-01-14T11:26:36Z</time>
      </trkpt>
      <trkpt lat="45.9827" lon="4.78969">
        <ele>241</ele>
        <time>2018-01-14T11:26:37Z</time>
      </trkpt>
      <trkpt lat="45.98265" lon="4.78967">
        <ele>241</ele>
        <time>2018-01-14T11:26:38Z</time>
      </trkpt>
      <trkpt lat="45.98259" lon="4.78964">
        <ele>241</ele>
        <time>2018-01-14T11:26:39Z</time>
      </trkpt>
      <trkpt lat="45.98254" lon="4.78961">
        <ele>241</ele>
        <time>2018-01-14T11:26:40Z</time>
      </trkpt>
      <trkpt lat="45.98249" lon="4.78958">
        <ele>241</ele>
        <time>2018-01-14T11:26:41Z</time>
      </trkpt>
      <trkpt lat="45.98244" lon="4.78956">
        <ele>241</ele>
        <time>2018-01-14T11:26:42Z</time>
      </trkpt>
      <trkpt lat="45.98239" lon="4.78951">
        <ele>241</ele>
        <time>2018-01-14T11:26:43Z</time>
      </trkpt>
      <trkpt lat="45.98233" lon="4.7895">
        <ele>241</ele>
        <time>2018-01-14T11:26:44Z</time>
      </trkpt>
      <trkpt lat="45.98228" lon="4.78948">
        <ele>241</ele>
        <time>2018-01-14T11:26:45Z</time>
      </trkpt>
      <trkpt lat="45.98223" lon="4.78943">
        <ele>241</ele>
        <time>2018-01-14T11:26:46Z</time>
      </trkpt>
      <trkpt lat="45.98218" lon="4.7894">
        <ele>241</ele>
        <time>2018-01-14T11:26:47Z</time>
      </trkpt>
      <trkpt lat="45.98213" lon="4.78936">
        <ele>241</ele>
        <time>2018-01-14T11:26:48Z</time>
      </trkpt>
      <trkpt lat="45.98208" lon="4.78933">
        <ele>241</ele>
        <time>2018-01-14T11:26:49Z</time>
      </trkpt>
      <trkpt lat="45.98203" lon="4.78931">
        <ele>241</ele>
        <time>2018-01-14T11:26:50Z</time>
      </trkpt>
      <trkpt lat="45.98198" lon="4.78928">
        <ele>241</ele>
        <time>2018-01-14T11:26:51Z</time>
      </trkpt>
      <trkpt lat="45.98193" lon="4.78924">
        <ele>241</ele>
        <time>2018-01-14T11:26:52Z</time>
      </trkpt>
      <trkpt lat="45.98188" lon="4.78921">
        <ele>241</ele>
        <time>2018-01-14T11:26:53Z</time>
      </trkpt>
      <trkpt lat="45.98183" lon="4.78918">
        <ele>240</ele>
        <time>2018-01-14T11:26:54Z</time>
      </trkpt>
      <trkpt lat="45.98177" lon="4.78915">
        <ele>240</ele>
        <time>2018-01-14T11:26:55Z</time>
      </trkpt>
      <trkpt lat="45.98173" lon="4.78913">
        <ele>240</ele>
        <time>2018-01-14T11:26:56Z</time>
      </trkpt>
      <trkpt lat="45.98168" lon="4.78909">
        <ele>240</ele>
        <time>2018-01-14T11:26:57Z</time>
      </trkpt>
      <trkpt lat="45.98163" lon="4.78908">
        <ele>240</ele>
        <time>2018-01-14T11:26:58Z</time>
      </trkpt>
      <trkpt lat="45.98157" lon="4.78906">
        <ele>240</ele>
        <time>2018-01-14T11:26:59Z</time>
      </trkpt>
      <trkpt lat="45.9815" lon="4.78905">
        <ele>240</ele>
        <time>2018-01-14T11:27:00Z</time>
      </trkpt>
      <trkpt lat="45.98144" lon="4.78903">
        <ele>240</ele>
        <time>2018-01-14T11:27:01Z</time>
      </trkpt>
      <trkpt lat="45.98138" lon="4.78902">
        <ele>240</ele>
        <time>2018-01-14T11:27:02Z</time>
      </trkpt>
      <trkpt lat="45.98134" lon="4.78899">
        <ele>240</ele>
        <time>2018-01-14T11:27:03Z</time>
      </trkpt>
      <trkpt lat="45.9813" lon="4.78896">
        <ele>240</ele>
        <time>2018-01-14T11:27:04Z</time>
      </trkpt>
      <trkpt lat="45.98124" lon="4.78891">
        <ele>240</ele>
        <time>2018-01-14T11:27:05Z</time>
      </trkpt>
      <trkpt lat="45.98118" lon="4.78888">
        <ele>240</ele>
        <time>2018-01-14T11:27:06Z</time>
      </trkpt>
      <trkpt lat="45.98113" lon="4.78886">
        <ele>240</ele>
        <time>2018-01-14T11:27:07Z</time>
      </trkpt>
      <trkpt lat="45.98108" lon="4.78883">
        <ele>240</ele>
        <time>2018-01-14T11:27:08Z</time>
      </trkpt>
      <trkpt lat="45.98102" lon="4.78879">
        <ele>240</ele>
        <time>2018-01-14T11:27:09Z</time>
      </trkpt>
      <trkpt lat="45.98096" lon="4.78876">
        <ele>240</ele>
        <time>2018-01-14T11:27:10Z</time>
      </trkpt>
      <trkpt lat="45.9809" lon="4.78873">
        <ele>239</ele>
        <time>2018-01-14T11:27:11Z</time>
      </trkpt>
      <trkpt lat="45.98085" lon="4.7887">
        <ele>239</ele>
        <time>2018-01-14T11:27:12Z</time>
      </trkpt>
      <trkpt lat="45.98079" lon="4.78866">
        <ele>239</ele>
        <time>2018-01-14T11:27:13Z</time>
      </trkpt>
      <trkpt lat="45.98074" lon="4.78863">
        <ele>239</ele>
        <time>2018-01-14T11:27:14Z</time>
      </trkpt>
      <trkpt lat="45.98069" lon="4.78858">
        <ele>239</ele>
        <time>2018-01-14T11:27:15Z</time>
      </trkpt>
      <trkpt lat="45.98064" lon="4.78855">
        <ele>239</ele>
        <time>2018-01-14T11:27:16Z</time>
      </trkpt>
      <trkpt lat="45.9806" lon="4.78852">
        <ele>239</ele>
        <time>2018-01-14T11:27:17Z</time>
      </trkpt>
      <trkpt lat="45.98056" lon="4.78846">
        <ele>239</ele>
        <time>2018-01-14T11:27:18Z</time>
      </trkpt>
      <trkpt lat="45.98051" lon="4.78842">
        <ele>239</ele>
        <time>2018-01-14T11:27:19Z</time>
      </trkpt>
      <trkpt lat="45.98046" lon="4.78838">
        <ele>238</ele>
        <time>2018-01-14T11:27:20Z</time>
      </trkpt>
      <trkpt lat="45.9804" lon="4.78835">
        <ele>238</ele>
        <time>2018-01-14T11:27:21Z</time>
      </trkpt>
      <trkpt lat="45.98034" lon="4.78831">
        <ele>238</ele>
        <time>2018-01-14T11:27:22Z</time>
      </trkpt>
      <trkpt lat="45.98029" lon="4.78826">
        <ele>238</ele>
        <time>2018-01-14T11:27:23Z</time>
      </trkpt>
      <trkpt lat="45.98024" lon="4.78822">
        <ele>238</ele>
        <time>2018-01-14T11:27:24Z</time>
      </trkpt>
      <trkpt lat="45.98018" lon="4.78818">
        <ele>238</ele>
        <time>2018-01-14T11:27:25Z</time>
      </trkpt>
      <trkpt lat="45.98013" lon="4.78815">
        <ele>238</ele>
        <time>2018-01-14T11:27:26Z</time>
      </trkpt>
      <trkpt lat="45.98008" lon="4.78811">
        <ele>238</ele>
        <time>2018-01-14T11:27:27Z</time>
      </trkpt>
      <trkpt lat="45.98003" lon="4.78808">
        <ele>238</ele>
        <time>2018-01-14T11:27:28Z</time>
      </trkpt>
      <trkpt lat="45.97998" lon="4.78805">
        <ele>238</ele>
        <time>2018-01-14T11:27:29Z</time>
      </trkpt>
      <trkpt lat="45.97993" lon="4.78801">
        <ele>238</ele>
        <time>2018-01-14T11:27:30Z</time>
      </trkpt>
      <trkpt lat="45.97987" lon="4.78797">
        <ele>238</ele>
        <time>2018-01-14T11:27:31Z</time>
      </trkpt>
      <trkpt lat="45.97982" lon="4.78793">
        <ele>238</ele>
        <time>2018-01-14T11:27:32Z</time>
      </trkpt>
      <trkpt lat="45.97977" lon="4.7879">
        <ele>238</ele>
        <time>2018-01-14T11:27:33Z</time>
      </trkpt>
      <trkpt lat="45.97973" lon="4.78786">
        <ele>238</ele>
        <time>2018-01-14T11:27:34Z</time>
      </trkpt>
      <trkpt lat="45.97968" lon="4.78783">
        <ele>238</ele>
        <time>2018-01-14T11:27:35Z</time>
      </trkpt>
      <trkpt lat="45.97964" lon="4.7878">
        <ele>238</ele>
        <time>2018-01-14T11:27:36Z</time>
      </trkpt>
      <trkpt lat="45.97959" lon="4.78776">
        <ele>238</ele>
        <time>2018-01-14T11:27:37Z</time>
      </trkpt>
      <trkpt lat="45.97953" lon="4.78772">
        <ele>238</ele>
        <time>2018-01-14T11:27:38Z</time>
      </trkpt>
      <trkpt lat="45.97948" lon="4.78769">
        <ele>238</ele>
        <time>2018-01-14T11:27:39Z</time>
      </trkpt>
      <trkpt lat="45.97943" lon="4.78765">
        <ele>238</ele>
        <time>2018-01-14T11:27:40Z</time>
      </trkpt>
      <trkpt lat="45.97937" lon="4.78761">
        <ele>238</ele>
        <time>2018-01-14T11:27:41Z</time>
      </trkpt>
      <trkpt lat="45.97932" lon="4.78757">
        <ele>238</ele>
        <time>2018-01-14T11:27:42Z</time>
      </trkpt>
      <trkpt lat="45.97926" lon="4.78753">
        <ele>237</ele>
        <time>2018-01-14T11:27:43Z</time>
      </trkpt>
      <trkpt lat="45.97921" lon="4.78749">
        <ele>237</ele>
        <time>2018-01-14T11:27:44Z</time>
      </trkpt>
      <trkpt lat="45.97916" lon="4.78745">
        <ele>237</ele>
        <time>2018-01-14T11:27:45Z</time>
      </trkpt>
      <trkpt lat="45.97911" lon="4.78742">
        <ele>237</ele>
        <time>2018-01-14T11:27:46Z</time>
      </trkpt>
      <trkpt lat="45.97906" lon="4.7874">
        <ele>237</ele>
        <time>2018-01-14T11:27:47Z</time>
      </trkpt>
      <trkpt lat="45.97901" lon="4.78736">
        <ele>237</ele>
        <time>2018-01-14T11:27:48Z</time>
      </trkpt>
      <trkpt lat="45.97896" lon="4.78732">
        <ele>237</ele>
        <time>2018-01-14T11:27:49Z</time>
      </trkpt>
      <trkpt lat="45.9789" lon="4.78729">
        <ele>236</ele>
        <time>2018-01-14T11:27:50Z</time>
      </trkpt>
      <trkpt lat="45.97884" lon="4.78726">
        <ele>236</ele>
        <time>2018-01-14T11:27:51Z</time>
      </trkpt>
      <trkpt lat="45.97878" lon="4.78721">
        <ele>236</ele>
        <time>2018-01-14T11:27:52Z</time>
      </trkpt>
      <trkpt lat="45.97874" lon="4.78716">
        <ele>236</ele>
        <time>2018-01-14T11:27:53Z</time>
      </trkpt>
      <trkpt lat="45.97868" lon="4.78711">
        <ele>236</ele>
        <time>2018-01-14T11:27:54Z</time>
      </trkpt>
      <trkpt lat="45.97862" lon="4.78709">
        <ele>236</ele>
        <time>2018-01-14T11:27:55Z</time>
      </trkpt>
      <trkpt lat="45.97856" lon="4.78703">
        <ele>236</ele>
        <time>2018-01-14T11:27:56Z</time>
      </trkpt>
      <trkpt lat="45.9785" lon="4.78701">
        <ele>236</ele>
        <time>2018-01-14T11:27:57Z</time>
      </trkpt>
      <trkpt lat="45.97844" lon="4.78696">
        <ele>236</ele>
        <time>2018-01-14T11:27:58Z</time>
      </trkpt>
      <trkpt lat="45.97838" lon="4.78693">
        <ele>236</ele>
        <time>2018-01-14T11:27:59Z</time>
      </trkpt>
      <trkpt lat="45.97833" lon="4.7869">
        <ele>235</ele>
        <time>2018-01-14T11:28:00Z</time>
      </trkpt>
      <trkpt lat="45.97827" lon="4.78686">
        <ele>235</ele>
        <time>2018-01-14T11:28:01Z</time>
      </trkpt>
      <trkpt lat="45.97821" lon="4.78683">
        <ele>235</ele>
        <time>2018-01-14T11:28:02Z</time>
      </trkpt>
      <trkpt lat="45.97815" lon="4.78681">
        <ele>235</ele>
        <time>2018-01-14T11:28:03Z</time>
      </trkpt>
      <trkpt lat="45.97809" lon="4.78677">
        <ele>235</ele>
        <time>2018-01-14T11:28:04Z</time>
      </trkpt>
      <trkpt lat="45.97802" lon="4.78674">
        <ele>235</ele>
        <time>2018-01-14T11:28:05Z</time>
      </trkpt>
      <trkpt lat="45.97796" lon="4.78673">
        <ele>235</ele>
        <time>2018-01-14T11:28:06Z</time>
      </trkpt>
      <trkpt lat="45.9779" lon="4.78671">
        <ele>235</ele>
        <time>2018-01-14T11:28:07Z</time>
      </trkpt>
      <trkpt lat="45.97785" lon="4.78667">
        <ele>235</ele>
        <time>2018-01-14T11:28:08Z</time>
      </trkpt>
      <trkpt lat="45.9778" lon="4.78664">
        <ele>235</ele>
        <time>2018-01-14T11:28:09Z</time>
      </trkpt>
      <trkpt lat="45.97775" lon="4.78661">
        <ele>235</ele>
        <time>2018-01-14T11:28:10Z</time>
      </trkpt>
      <trkpt lat="45.97769" lon="4.78659">
        <ele>235</ele>
        <time>2018-01-14T11:28:11Z</time>
      </trkpt>
      <trkpt lat="45.97763" lon="4.78657">
        <ele>235</ele>
        <time>2018-01-14T11:28:12Z</time>
      </trkpt>
      <trkpt lat="45.97758" lon="4.78655">
        <ele>235</ele>
        <time>2018-01-14T11:28:13Z</time>
      </trkpt>
      <trkpt lat="45.97752" lon="4.78652">
        <ele>235</ele>
        <time>2018-01-14T11:28:14Z</time>
      </trkpt>
      <trkpt lat="45.97747" lon="4.78651">
        <ele>234</ele>
        <time>2018-01-14T11:28:15Z</time>
      </trkpt>
      <trkpt lat="45.97741" lon="4.78649">
        <ele>234</ele>
        <time>2018-01-14T11:28:16Z</time>
      </trkpt>
      <trkpt lat="45.97735" lon="4.78646">
        <ele>234</ele>
        <time>2018-01-14T11:28:17Z</time>
      </trkpt>
      <trkpt lat="45.97731" lon="4.78642">
        <ele>234</ele>
        <time>2018-01-14T11:28:18Z</time>
      </trkpt>
      <trkpt lat="45.97726" lon="4.78639">
        <ele>234</ele>
        <time>2018-01-14T11:28:19Z</time>
      </trkpt>
      <trkpt lat="45.9772" lon="4.78637">
        <ele>234</ele>
        <time>2018-01-14T11:28:20Z</time>
      </trkpt>
      <trkpt lat="45.97714" lon="4.78634">
        <ele>234</ele>
        <time>2018-01-14T11:28:21Z</time>
      </trkpt>
      <trkpt lat="45.97707" lon="4.7863">
        <ele>234</ele>
        <time>2018-01-14T11:28:22Z</time>
      </trkpt>
      <trkpt lat="45.97702" lon="4.78628">
        <ele>234</ele>
        <time>2018-01-14T11:28:23Z</time>
      </trkpt>
      <trkpt lat="45.97696" lon="4.78627">
        <ele>234</ele>
        <time>2018-01-14T11:28:24Z</time>
      </trkpt>
      <trkpt lat="45.9769" lon="4.78623">
        <ele>234</ele>
        <time>2018-01-14T11:28:25Z</time>
      </trkpt>
      <trkpt lat="45.97685" lon="4.78621">
        <ele>234</ele>
        <time>2018-01-14T11:28:26Z</time>
      </trkpt>
      <trkpt lat="45.97679" lon="4.78619">
        <ele>234</ele>
        <time>2018-01-14T11:28:27Z</time>
      </trkpt>
      <trkpt lat="45.97673" lon="4.78617">
        <ele>234</ele>
        <time>2018-01-14T11:28:28Z</time>
      </trkpt>
      <trkpt lat="45.97668" lon="4.78615">
        <ele>234</ele>
        <time>2018-01-14T11:28:29Z</time>
      </trkpt>
      <trkpt lat="45.97662" lon="4.78612">
        <ele>233</ele>
        <time>2018-01-14T11:28:30Z</time>
      </trkpt>
      <trkpt lat="45.97656" lon="4.78606">
        <ele>233</ele>
        <time>2018-01-14T11:28:31Z</time>
      </trkpt>
      <trkpt lat="45.97652" lon="4.78602">
        <ele>233</ele>
        <time>2018-01-14T11:28:32Z</time>
      </trkpt>
      <trkpt lat="45.97647" lon="4.78599">
        <ele>233</ele>
        <time>2018-01-14T11:28:33Z</time>
      </trkpt>
      <trkpt lat="45.97642" lon="4.78597">
        <ele>233</ele>
        <time>2018-01-14T11:28:34Z</time>
      </trkpt>
      <trkpt lat="45.97637" lon="4.78594">
        <ele>233</ele>
        <time>2018-01-14T11:28:35Z</time>
      </trkpt>
      <trkpt lat="45.97632" lon="4.78591">
        <ele>233</ele>
        <time>2018-01-14T11:28:36Z</time>
      </trkpt>
      <trkpt lat="45.97625" lon="4.78591">
        <ele>233</ele>
        <time>2018-01-14T11:28:37Z</time>
      </trkpt>
      <trkpt lat="45.9762" lon="4.78589">
        <ele>233</ele>
        <time>2018-01-14T11:28:38Z</time>
      </trkpt>
      <trkpt lat="45.97614" lon="4.78587">
        <ele>233</ele>
        <time>2018-01-14T11:28:39Z</time>
      </trkpt>
      <trkpt lat="45.9761" lon="4.78584">
        <ele>233</ele>
        <time>2018-01-14T11:28:40Z</time>
      </trkpt>
      <trkpt lat="45.97604" lon="4.7858">
        <ele>234</ele>
        <time>2018-01-14T11:28:41Z</time>
      </trkpt>
      <trkpt lat="45.97599" lon="4.78581">
        <ele>234</ele>
        <time>2018-01-14T11:28:42Z</time>
      </trkpt>
      <trkpt lat="45.97594" lon="4.78578">
        <ele>233</ele>
        <time>2018-01-14T11:28:43Z</time>
      </trkpt>
      <trkpt lat="45.97589" lon="4.78576">
        <ele>233</ele>
        <time>2018-01-14T11:28:44Z</time>
      </trkpt>
      <trkpt lat="45.97585" lon="4.78574">
        <ele>233</ele>
        <time>2018-01-14T11:28:45Z</time>
      </trkpt>
      <trkpt lat="45.97579" lon="4.78572">
        <ele>233</ele>
        <time>2018-01-14T11:28:46Z</time>
      </trkpt>
      <trkpt lat="45.97574" lon="4.7857">
        <ele>233</ele>
        <time>2018-01-14T11:28:47Z</time>
      </trkpt>
      <trkpt lat="45.97569" lon="4.78568">
        <ele>233</ele>
        <time>2018-01-14T11:28:48Z</time>
      </trkpt>
      <trkpt lat="45.97565" lon="4.78566">
        <ele>234</ele>
        <time>2018-01-14T11:28:49Z</time>
      </trkpt>
      <trkpt lat="45.97559" lon="4.78565">
        <ele>234</ele>
        <time>2018-01-14T11:28:50Z</time>
      </trkpt>
      <trkpt lat="45.97554" lon="4.78563">
        <ele>234</ele>
        <time>2018-01-14T11:28:51Z</time>
      </trkpt>
      <trkpt lat="45.97548" lon="4.78562">
        <ele>234</ele>
        <time>2018-01-14T11:28:52Z</time>
      </trkpt>
      <trkpt lat="45.97543" lon="4.7856">
        <ele>234</ele>
        <time>2018-01-14T11:28:53Z</time>
      </trkpt>
      <trkpt lat="45.97538" lon="4.78559">
        <ele>234</ele>
        <time>2018-01-14T11:28:54Z</time>
      </trkpt>
      <trkpt lat="45.97533" lon="4.78556">
        <ele>234</ele>
        <time>2018-01-14T11:28:55Z</time>
      </trkpt>
      <trkpt lat="45.97529" lon="4.78554">
        <ele>234</ele>
        <time>2018-01-14T11:28:56Z</time>
      </trkpt>
      <trkpt lat="45.97524" lon="4.78552">
        <ele>234</ele>
        <time>2018-01-14T11:28:57Z</time>
      </trkpt>
      <trkpt lat="45.97519" lon="4.78549">
        <ele>234</ele>
        <time>2018-01-14T11:28:58Z</time>
      </trkpt>
      <trkpt lat="45.97514" lon="4.78545">
        <ele>234</ele>
        <time>2018-01-14T11:28:59Z</time>
      </trkpt>
      <trkpt lat="45.9751" lon="4.78542">
        <ele>234</ele>
        <time>2018-01-14T11:29:00Z</time>
      </trkpt>
      <trkpt lat="45.97505" lon="4.78539">
        <ele>234</ele>
        <time>2018-01-14T11:29:01Z</time>
      </trkpt>
      <trkpt lat="45.975" lon="4.78536">
        <ele>234</ele>
        <time>2018-01-14T11:29:02Z</time>
      </trkpt>
      <trkpt lat="45.97496" lon="4.78533">
        <ele>233</ele>
        <time>2018-01-14T11:29:03Z</time>
      </trkpt>
      <trkpt lat="45.97492" lon="4.78531">
        <ele>233</ele>
        <time>2018-01-14T11:29:04Z</time>
      </trkpt>
      <trkpt lat="45.97487" lon="4.78527">
        <ele>233</ele>
        <time>2018-01-14T11:29:05Z</time>
      </trkpt>
      <trkpt lat="45.97482" lon="4.78524">
        <ele>233</ele>
        <time>2018-01-14T11:29:06Z</time>
      </trkpt>
      <trkpt lat="45.97476" lon="4.7852">
        <ele>233</ele>
        <time>2018-01-14T11:29:07Z</time>
      </trkpt>
      <trkpt lat="45.9747" lon="4.78516">
        <ele>233</ele>
        <time>2018-01-14T11:29:08Z</time>
      </trkpt>
      <trkpt lat="45.97465" lon="4.78512">
        <ele>233</ele>
        <time>2018-01-14T11:29:09Z</time>
      </trkpt>
      <trkpt lat="45.9746" lon="4.78508">
        <ele>234</ele>
        <time>2018-01-14T11:29:10Z</time>
      </trkpt>
      <trkpt lat="45.97455" lon="4.78504">
        <ele>234</ele>
        <time>2018-01-14T11:29:11Z</time>
      </trkpt>
      <trkpt lat="45.9745" lon="4.78499">
        <ele>234</ele>
        <time>2018-01-14T11:29:12Z</time>
      </trkpt>
      <trkpt lat="45.97444" lon="4.78494">
        <ele>234</ele>
        <time>2018-01-14T11:29:13Z</time>
      </trkpt>
      <trkpt lat="45.9744" lon="4.7849">
        <ele>234</ele>
        <time>2018-01-14T11:29:14Z</time>
      </trkpt>
      <trkpt lat="45.97435" lon="4.78486">
        <ele>234</ele>
        <time>2018-01-14T11:29:15Z</time>
      </trkpt>
      <trkpt lat="45.97429" lon="4.78481">
        <ele>234</ele>
        <time>2018-01-14T11:29:16Z</time>
      </trkpt>
      <trkpt lat="45.97425" lon="4.78478">
        <ele>234</ele>
        <time>2018-01-14T11:29:17Z</time>
      </trkpt>
      <trkpt lat="45.9742" lon="4.78473">
        <ele>234</ele>
        <time>2018-01-14T11:29:18Z</time>
      </trkpt>
      <trkpt lat="45.97415" lon="4.78469">
        <ele>233</ele>
        <time>2018-01-14T11:29:19Z</time>
      </trkpt>
      <trkpt lat="45.97409" lon="4.78464">
        <ele>233</ele>
        <time>2018-01-14T11:29:20Z</time>
      </trkpt>
      <trkpt lat="45.97405" lon="4.7846">
        <ele>233</ele>
        <time>2018-01-14T11:29:21Z</time>
      </trkpt>
      <trkpt lat="45.97399" lon="4.78455">
        <ele>233</ele>
        <time>2018-01-14T11:29:22Z</time>
      </trkpt>
      <trkpt lat="45.97394" lon="4.78451">
        <ele>233</ele>
        <time>2018-01-14T11:29:23Z</time>
      </trkpt>
      <trkpt lat="45.97389" lon="4.78446">
        <ele>233</ele>
        <time>2018-01-14T11:29:24Z</time>
      </trkpt>
      <trkpt lat="45.97384" lon="4.78441">
        <ele>233</ele>
        <time>2018-01-14T11:29:25Z</time>
      </trkpt>
      <trkpt lat="45.9738" lon="4.78437">
        <ele>233</ele>
        <time>2018-01-14T11:29:26Z</time>
      </trkpt>
      <trkpt lat="45.97376" lon="4.78431">
        <ele>233</ele>
        <time>2018-01-14T11:29:27Z</time>
      </trkpt>
      <trkpt lat="45.97371" lon="4.78427">
        <ele>233</ele>
        <time>2018-01-14T11:29:28Z</time>
      </trkpt>
      <trkpt lat="45.97367" lon="4.78422">
        <ele>233</ele>
        <time>2018-01-14T11:29:29Z</time>
      </trkpt>
      <trkpt lat="45.97363" lon="4.78417">
        <ele>233</ele>
        <time>2018-01-14T11:29:30Z</time>
      </trkpt>
      <trkpt lat="45.97359" lon="4.78413">
        <ele>233</ele>
        <time>2018-01-14T11:29:31Z</time>
      </trkpt>
      <trkpt lat="45.97355" lon="4.78406">
        <ele>232</ele>
        <time>2018-01-14T11:29:32Z</time>
      </trkpt>
      <trkpt lat="45.97351" lon="4.78402">
        <ele>232</ele>
        <time>2018-01-14T11:29:33Z</time>
      </trkpt>
      <trkpt lat="45.97346" lon="4.78398">
        <ele>232</ele>
        <time>2018-01-14T11:29:34Z</time>
      </trkpt>
      <trkpt lat="45.97341" lon="4.78393">
        <ele>232</ele>
        <time>2018-01-14T11:29:35Z</time>
      </trkpt>
      <trkpt lat="45.97337" lon="4.78388">
        <ele>233</ele>
        <time>2018-01-14T11:29:36Z</time>
      </trkpt>
      <trkpt lat="45.97332" lon="4.78384">
        <ele>232</ele>
        <time>2018-01-14T11:29:37Z</time>
      </trkpt>
      <trkpt lat="45.97329" lon="4.78378">
        <ele>232</ele>
        <time>2018-01-14T11:29:38Z</time>
      </trkpt>
      <trkpt lat="45.97325" lon="4.78374">
        <ele>232</ele>
        <time>2018-01-14T11:29:39Z</time>
      </trkpt>
      <trkpt lat="45.97321" lon="4.7837">
        <ele>232</ele>
        <time>2018-01-14T11:29:40Z</time>
      </trkpt>
      <trkpt lat="45.97317" lon="4.78365">
        <ele>232</ele>
        <time>2018-01-14T11:29:41Z</time>
      </trkpt>
      <trkpt lat="45.97313" lon="4.78359">
        <ele>232</ele>
        <time>2018-01-14T11:29:42Z</time>
      </trkpt>
      <trkpt lat="45.97309" lon="4.78354">
        <ele>232</ele>
        <time>2018-01-14T11:29:43Z</time>
      </trkpt>
      <trkpt lat="45.97306" lon="4.7835">
        <ele>232</ele>
        <time>2018-01-14T11:29:44Z</time>
      </trkpt>
      <trkpt lat="45.97302" lon="4.78346">
        <ele>232</ele>
        <time>2018-01-14T11:29:45Z</time>
      </trkpt>
      <trkpt lat="45.97298" lon="4.78341">
        <ele>232</ele>
        <time>2018-01-14T11:29:46Z</time>
      </trkpt>
      <trkpt lat="45.97294" lon="4.78336">
        <ele>232</ele>
        <time>2018-01-14T11:29:47Z</time>
      </trkpt>
      <trkpt lat="45.97291" lon="4.78332">
        <ele>232</ele>
        <time>2018-01-14T11:29:48Z</time>
      </trkpt>
      <trkpt lat="45.97286" lon="4.78327">
        <ele>232</ele>
        <time>2018-01-14T11:29:49Z</time>
      </trkpt>
      <trkpt lat="45.97282" lon="4.78322">
        <ele>232</ele>
        <time>2018-01-14T11:29:50Z</time>
      </trkpt>
      <trkpt lat="45.97278" lon="4.78316">
        <ele>232</ele>
        <time>2018-01-14T11:29:51Z</time>
      </trkpt>
      <trkpt lat="45.97274" lon="4.7831">
        <ele>232</ele>
        <time>2018-01-14T11:29:52Z</time>
      </trkpt>
      <trkpt lat="45.97271" lon="4.78304">
        <ele>232</ele>
        <time>2018-01-14T11:29:53Z</time>
      </trkpt>
      <trkpt lat="45.97267" lon="4.78298">
        <ele>232</ele>
        <time>2018-01-14T11:29:54Z</time>
      </trkpt>
      <trkpt lat="45.97264" lon="4.78293">
        <ele>232</ele>
        <time>2018-01-14T11:29:55Z</time>
      </trkpt>
      <trkpt lat="45.9726" lon="4.78287">
        <ele>232</ele>
        <time>2018-01-14T11:29:56Z</time>
      </trkpt>
      <trkpt lat="45.97255" lon="4.78283">
        <ele>232</ele>
        <time>2018-01-14T11:29:57Z</time>
      </trkpt>
      <trkpt lat="45.97252" lon="4.78277">
        <ele>232</ele>
        <time>2018-01-14T11:29:58Z</time>
      </trkpt>
      <trkpt lat="45.97248" lon="4.78272">
        <ele>231</ele>
        <time>2018-01-14T11:29:59Z</time>
      </trkpt>
      <trkpt lat="45.97244" lon="4.78264">
        <ele>231</ele>
        <time>2018-01-14T11:30:00Z</time>
      </trkpt>
      <trkpt lat="45.9724" lon="4.78258">
        <ele>231</ele>
        <time>2018-01-14T11:30:01Z</time>
      </trkpt>
      <trkpt lat="45.97236" lon="4.78252">
        <ele>231</ele>
        <time>2018-01-14T11:30:02Z</time>
      </trkpt>
      <trkpt lat="45.97233" lon="4.78246">
        <ele>231</ele>
        <time>2018-01-14T11:30:03Z</time>
      </trkpt>
      <trkpt lat="45.97229" lon="4.78239">
        <ele>231</ele>
        <time>2018-01-14T11:30:04Z</time>
      </trkpt>
      <trkpt lat="45.97225" lon="4.78233">
        <ele>231</ele>
        <time>2018-01-14T11:30:05Z</time>
      </trkpt>
      <trkpt lat="45.97221" lon="4.78226">
        <ele>231</ele>
        <time>2018-01-14T11:30:06Z</time>
      </trkpt>
      <trkpt lat="45.97216" lon="4.78219">
        <ele>231</ele>
        <time>2018-01-14T11:30:07Z</time>
      </trkpt>
      <trkpt lat="45.97212" lon="4.78213">
        <ele>231</ele>
        <time>2018-01-14T11:30:08Z</time>
      </trkpt>
      <trkpt lat="45.97208" lon="4.78205">
        <ele>231</ele>
        <time>2018-01-14T11:30:09Z</time>
      </trkpt>
      <trkpt lat="45.97203" lon="4.78198">
        <ele>231</ele>
        <time>2018-01-14T11:30:10Z</time>
      </trkpt>
      <trkpt lat="45.97199" lon="4.78191">
        <ele>231</ele>
        <time>2018-01-14T11:30:11Z</time>
      </trkpt>
      <trkpt lat="45.97196" lon="4.78184">
        <ele>231</ele>
        <time>2018-01-14T11:30:12Z</time>
      </trkpt>
      <trkpt lat="45.97192" lon="4.78177">
        <ele>231</ele>
        <time>2018-01-14T11:30:13Z</time>
      </trkpt>
      <trkpt lat="45.97188" lon="4.7817">
        <ele>231</ele>
        <time>2018-01-14T11:30:14Z</time>
      </trkpt>
      <trkpt lat="45.97184" lon="4.78162">
        <ele>231</ele>
        <time>2018-01-14T11:30:15Z</time>
      </trkpt>
      <trkpt lat="45.97181" lon="4.78156">
        <ele>231</ele>
        <time>2018-01-14T11:30:16Z</time>
      </trkpt>
      <trkpt lat="45.97179" lon="4.7815">
        <ele>231</ele>
        <time>2018-01-14T11:30:17Z</time>
      </trkpt>
      <trkpt lat="45.97174" lon="4.78142">
        <ele>231</ele>
        <time>2018-01-14T11:30:18Z</time>
      </trkpt>
      <trkpt lat="45.9717" lon="4.78136">
        <ele>231</ele>
        <time>2018-01-14T11:30:19Z</time>
      </trkpt>
      <trkpt lat="45.97167" lon="4.78129">
        <ele>230</ele>
        <time>2018-01-14T11:30:20Z</time>
      </trkpt>
      <trkpt lat="45.97163" lon="4.78122">
        <ele>230</ele>
        <time>2018-01-14T11:30:21Z</time>
      </trkpt>
      <trkpt lat="45.9716" lon="4.78115">
        <ele>230</ele>
        <time>2018-01-14T11:30:22Z</time>
      </trkpt>
      <trkpt lat="45.97156" lon="4.7811">
        <ele>230</ele>
        <time>2018-01-14T11:30:23Z</time>
      </trkpt>
      <trkpt lat="45.97152" lon="4.78103">
        <ele>230</ele>
        <time>2018-01-14T11:30:24Z</time>
      </trkpt>
      <trkpt lat="45.97149" lon="4.78097">
        <ele>230</ele>
        <time>2018-01-14T11:30:25Z</time>
      </trkpt>
      <trkpt lat="45.97146" lon="4.78091">
        <ele>230</ele>
        <time>2018-01-14T11:30:26Z</time>
      </trkpt>
      <trkpt lat="45.97142" lon="4.78083">
        <ele>230</ele>
        <time>2018-01-14T11:30:27Z</time>
      </trkpt>
      <trkpt lat="45.97139" lon="4.78075">
        <ele>230</ele>
        <time>2018-01-14T11:30:28Z</time>
      </trkpt>
      <trkpt lat="45.97137" lon="4.78067">
        <ele>230</ele>
        <time>2018-01-14T11:30:29Z</time>
      </trkpt>
      <trkpt lat="45.97133" lon="4.78062">
        <ele>230</ele>
        <time>2018-01-14T11:30:30Z</time>
      </trkpt>
      <trkpt lat="45.97129" lon="4.78057">
        <ele>230</ele>
        <time>2018-01-14T11:30:31Z</time>
      </trkpt>
      <trkpt lat="45.97124" lon="4.78052">
        <ele>229</ele>
        <time>2018-01-14T11:30:32Z</time>
      </trkpt>
      <trkpt lat="45.97119" lon="4.78046">
        <ele>229</ele>
        <time>2018-01-14T11:30:33Z</time>
      </trkpt>
      <trkpt lat="45.97114" lon="4.78041">
        <ele>229</ele>
        <time>2018-01-14T11:30:34Z</time>
      </trkpt>
      <trkpt lat="45.97109" lon="4.78034">
        <ele>229</ele>
        <time>2018-01-14T11:30:35Z</time>
      </trkpt>
      <trkpt lat="45.97104" lon="4.7803">
        <ele>229</ele>
        <time>2018-01-14T11:30:36Z</time>
      </trkpt>
      <trkpt lat="45.97099" lon="4.78026">
        <ele>229</ele>
        <time>2018-01-14T11:30:37Z</time>
      </trkpt>
      <trkpt lat="45.97094" lon="4.78022">
        <ele>229</ele>
        <time>2018-01-14T11:30:38Z</time>
      </trkpt>
      <trkpt lat="45.97089" lon="4.78018">
        <ele>229</ele>
        <time>2018-01-14T11:30:39Z</time>
      </trkpt>
      <trkpt lat="45.97085" lon="4.78013">
        <ele>229</ele>
        <time>2018-01-14T11:30:40Z</time>
      </trkpt>
      <trkpt lat="45.9708" lon="4.78009">
        <ele>229</ele>
        <time>2018-01-14T11:30:41Z</time>
      </trkpt>
      <trkpt lat="45.97075" lon="4.78005">
        <ele>229</ele>
        <time>2018-01-14T11:30:42Z</time>
      </trkpt>
      <trkpt lat="45.9707" lon="4.78">
        <ele>229</ele>
        <time>2018-01-14T11:30:43Z</time>
      </trkpt>
      <trkpt lat="45.97065" lon="4.77994">
        <ele>229</ele>
        <time>2018-01-14T11:30:44Z</time>
      </trkpt>
      <trkpt lat="45.9706" lon="4.77989">
        <ele>229</ele>
        <time>2018-01-14T11:30:45Z</time>
      </trkpt>
      <trkpt lat="45.97056" lon="4.77984">
        <ele>229</ele>
        <time>2018-01-14T11:30:46Z</time>
      </trkpt>
      <trkpt lat="45.97051" lon="4.7798">
        <ele>229</ele>
        <time>2018-01-14T11:30:47Z</time>
      </trkpt>
      <trkpt lat="45.97046" lon="4.77975">
        <ele>229</ele>
        <time>2018-01-14T11:30:48Z</time>
      </trkpt>
      <trkpt lat="45.97042" lon="4.7797">
        <ele>229</ele>
        <time>2018-01-14T11:30:49Z</time>
      </trkpt>
      <trkpt lat="45.97037" lon="4.77966">
        <ele>229</ele>
        <time>2018-01-14T11:30:50Z</time>
      </trkpt>
      <trkpt lat="45.97032" lon="4.77961">
        <ele>228</ele>
        <time>2018-01-14T11:30:51Z</time>
      </trkpt>
      <trkpt lat="45.97028" lon="4.77956">
        <ele>228</ele>
        <time>2018-01-14T11:30:52Z</time>
      </trkpt>
      <trkpt lat="45.97024" lon="4.77951">
        <ele>228</ele>
        <time>2018-01-14T11:30:53Z</time>
      </trkpt>
      <trkpt lat="45.9702" lon="4.77947">
        <ele>228</ele>
        <time>2018-01-14T11:30:54Z</time>
      </trkpt>
      <trkpt lat="45.97017" lon="4.7794">
        <ele>228</ele>
        <time>2018-01-14T11:30:55Z</time>
      </trkpt>
      <trkpt lat="45.97013" lon="4.77936">
        <ele>228</ele>
        <time>2018-01-14T11:30:56Z</time>
      </trkpt>
      <trkpt lat="45.97009" lon="4.77932">
        <ele>228</ele>
        <time>2018-01-14T11:30:57Z</time>
      </trkpt>
      <trkpt lat="45.97003" lon="4.77924">
        <ele>227</ele>
        <time>2018-01-14T11:30:59Z</time>
      </trkpt>
      <trkpt lat="45.96997" lon="4.77921">
        <ele>227</ele>
        <time>2018-01-14T11:31:00Z</time>
      </trkpt>
      <trkpt lat="45.96993" lon="4.77916">
        <ele>227</ele>
        <time>2018-01-14T11:31:01Z</time>
      </trkpt>
      <trkpt lat="45.96989" lon="4.77912">
        <ele>227</ele>
        <time>2018-01-14T11:31:02Z</time>
      </trkpt>
      <trkpt lat="45.96984" lon="4.77906">
        <ele>227</ele>
        <time>2018-01-14T11:31:03Z</time>
      </trkpt>
      <trkpt lat="45.9698" lon="4.779">
        <ele>227</ele>
        <time>2018-01-14T11:31:04Z</time>
      </trkpt>
      <trkpt lat="45.96976" lon="4.77893">
        <ele>228</ele>
        <time>2018-01-14T11:31:05Z</time>
      </trkpt>
      <trkpt lat="45.96971" lon="4.77887">
        <ele>228</ele>
        <time>2018-01-14T11:31:06Z</time>
      </trkpt>
      <trkpt lat="45.96967" lon="4.77881">
        <ele>228</ele>
        <time>2018-01-14T11:31:07Z</time>
      </trkpt>
      <trkpt lat="45.96962" lon="4.77876">
        <ele>228</ele>
        <time>2018-01-14T11:31:08Z</time>
      </trkpt>
      <trkpt lat="45.96957" lon="4.77871">
        <ele>228</ele>
        <time>2018-01-14T11:31:09Z</time>
      </trkpt>
      <trkpt lat="45.96952" lon="4.77865">
        <ele>228</ele>
        <time>2018-01-14T11:31:10Z</time>
      </trkpt>
      <trkpt lat="45.96947" lon="4.7786">
        <ele>228</ele>
        <time>2018-01-14T11:31:11Z</time>
      </trkpt>
      <trkpt lat="45.96942" lon="4.77854">
        <ele>228</ele>
        <time>2018-01-14T11:31:12Z</time>
      </trkpt>
      <trkpt lat="45.96937" lon="4.77847">
        <ele>228</ele>
        <time>2018-01-14T11:31:13Z</time>
      </trkpt>
      <trkpt lat="45.96933" lon="4.77841">
        <ele>228</ele>
        <time>2018-01-14T11:31:14Z</time>
      </trkpt>
      <trkpt lat="45.96928" lon="4.77836">
        <ele>228</ele>
        <time>2018-01-14T11:31:15Z</time>
      </trkpt>
      <trkpt lat="45.96923" lon="4.77832">
        <ele>228</ele>
        <time>2018-01-14T11:31:16Z</time>
      </trkpt>
      <trkpt lat="45.96918" lon="4.77828">
        <ele>228</ele>
        <time>2018-01-14T11:31:17Z</time>
      </trkpt>
      <trkpt lat="45.96914" lon="4.77823">
        <ele>228</ele>
        <time>2018-01-14T11:31:18Z</time>
      </trkpt>
      <trkpt lat="45.9691" lon="4.77818">
        <ele>228</ele>
        <time>2018-01-14T11:31:19Z</time>
      </trkpt>
      <trkpt lat="45.96905" lon="4.77812">
        <ele>228</ele>
        <time>2018-01-14T11:31:20Z</time>
      </trkpt>
      <trkpt lat="45.96901" lon="4.77807">
        <ele>228</ele>
        <time>2018-01-14T11:31:21Z</time>
      </trkpt>
      <trkpt lat="45.96896" lon="4.77803">
        <ele>228</ele>
        <time>2018-01-14T11:31:22Z</time>
      </trkpt>
      <trkpt lat="45.96892" lon="4.77799">
        <ele>228</ele>
        <time>2018-01-14T11:31:23Z</time>
      </trkpt>
      <trkpt lat="45.96887" lon="4.77795">
        <ele>228</ele>
        <time>2018-01-14T11:31:24Z</time>
      </trkpt>
      <trkpt lat="45.96882" lon="4.77791">
        <ele>228</ele>
        <time>2018-01-14T11:31:25Z</time>
      </trkpt>
      <trkpt lat="45.96877" lon="4.77787">
        <ele>228</ele>
        <time>2018-01-14T11:31:26Z</time>
      </trkpt>
      <trkpt lat="45.96873" lon="4.77784">
        <ele>228</ele>
        <time>2018-01-14T11:31:27Z</time>
      </trkpt>
      <trkpt lat="45.96869" lon="4.77777">
        <ele>228</ele>
        <time>2018-01-14T11:31:28Z</time>
      </trkpt>
      <trkpt lat="45.96864" lon="4.77772">
        <ele>228</ele>
        <time>2018-01-14T11:31:29Z</time>
      </trkpt>
      <trkpt lat="45.9686" lon="4.77767">
        <ele>228</ele>
        <time>2018-01-14T11:31:30Z</time>
      </trkpt>
      <trkpt lat="45.96856" lon="4.77759">
        <ele>228</ele>
        <time>2018-01-14T11:31:31Z</time>
      </trkpt>
      <trkpt lat="45.96851" lon="4.77754">
        <ele>228</ele>
        <time>2018-01-14T11:31:32Z</time>
      </trkpt>
      <trkpt lat="45.96845" lon="4.77748">
        <ele>228</ele>
        <time>2018-01-14T11:31:33Z</time>
      </trkpt>
      <trkpt lat="45.96841" lon="4.77744">
        <ele>228</ele>
        <time>2018-01-14T11:31:34Z</time>
      </trkpt>
      <trkpt lat="45.96836" lon="4.7774">
        <ele>228</ele>
        <time>2018-01-14T11:31:35Z</time>
      </trkpt>
      <trkpt lat="45.9683" lon="4.77736">
        <ele>228</ele>
        <time>2018-01-14T11:31:36Z</time>
      </trkpt>
      <trkpt lat="45.96825" lon="4.77731">
        <ele>228</ele>
        <time>2018-01-14T11:31:37Z</time>
      </trkpt>
      <trkpt lat="45.96819" lon="4.77726">
        <ele>228</ele>
        <time>2018-01-14T11:31:38Z</time>
      </trkpt>
      <trkpt lat="45.96814" lon="4.7772">
        <ele>228</ele>
        <time>2018-01-14T11:31:39Z</time>
      </trkpt>
      <trkpt lat="45.96809" lon="4.77715">
        <ele>228</ele>
        <time>2018-01-14T11:31:40Z</time>
      </trkpt>
      <trkpt lat="45.96805" lon="4.77709">
        <ele>228</ele>
        <time>2018-01-14T11:31:41Z</time>
      </trkpt>
      <trkpt lat="45.96801" lon="4.77704">
        <ele>228</ele>
        <time>2018-01-14T11:31:42Z</time>
      </trkpt>
      <trkpt lat="45.96796" lon="4.77698">
        <ele>228</ele>
        <time>2018-01-14T11:31:43Z</time>
      </trkpt>
      <trkpt lat="45.96791" lon="4.77693">
        <ele>227</ele>
        <time>2018-01-14T11:31:44Z</time>
      </trkpt>
      <trkpt lat="45.96786" lon="4.77688">
        <ele>227</ele>
        <time>2018-01-14T11:31:45Z</time>
      </trkpt>
      <trkpt lat="45.96782" lon="4.77683">
        <ele>227</ele>
        <time>2018-01-14T11:31:46Z</time>
      </trkpt>
      <trkpt lat="45.96776" lon="4.77677">
        <ele>227</ele>
        <time>2018-01-14T11:31:47Z</time>
      </trkpt>
      <trkpt lat="45.96771" lon="4.77672">
        <ele>227</ele>
        <time>2018-01-14T11:31:48Z</time>
      </trkpt>
      <trkpt lat="45.96767" lon="4.77667">
        <ele>227</ele>
        <time>2018-01-14T11:31:49Z</time>
      </trkpt>
      <trkpt lat="45.96761" lon="4.77662">
        <ele>227</ele>
        <time>2018-01-14T11:31:50Z</time>
      </trkpt>
      <trkpt lat="45.96757" lon="4.77656">
        <ele>227</ele>
        <time>2018-01-14T11:31:51Z</time>
      </trkpt>
      <trkpt lat="45.96752" lon="4.7765">
        <ele>227</ele>
        <time>2018-01-14T11:31:52Z</time>
      </trkpt>
      <trkpt lat="45.96748" lon="4.77644">
        <ele>227</ele>
        <time>2018-01-14T11:31:53Z</time>
      </trkpt>
      <trkpt lat="45.96743" lon="4.77639">
        <ele>227</ele>
        <time>2018-01-14T11:31:54Z</time>
      </trkpt>
      <trkpt lat="45.96739" lon="4.77634">
        <ele>227</ele>
        <time>2018-01-14T11:31:55Z</time>
      </trkpt>
      <trkpt lat="45.96734" lon="4.77629">
        <ele>226</ele>
        <time>2018-01-14T11:31:56Z</time>
      </trkpt>
      <trkpt lat="45.9673" lon="4.77624">
        <ele>226</ele>
        <time>2018-01-14T11:31:57Z</time>
      </trkpt>
      <trkpt lat="45.96726" lon="4.77619">
        <ele>226</ele>
        <time>2018-01-14T11:31:58Z</time>
      </trkpt>
      <trkpt lat="45.96722" lon="4.77613">
        <ele>226</ele>
        <time>2018-01-14T11:31:59Z</time>
      </trkpt>
      <trkpt lat="45.96717" lon="4.77608">
        <ele>226</ele>
        <time>2018-01-14T11:32:00Z</time>
      </trkpt>
      <trkpt lat="45.96713" lon="4.77601">
        <ele>226</ele>
        <time>2018-01-14T11:32:01Z</time>
      </trkpt>
      <trkpt lat="45.96709" lon="4.77596">
        <ele>226</ele>
        <time>2018-01-14T11:32:02Z</time>
      </trkpt>
      <trkpt lat="45.96705" lon="4.77591">
        <ele>226</ele>
        <time>2018-01-14T11:32:03Z</time>
      </trkpt>
      <trkpt lat="45.967" lon="4.77587">
        <ele>226</ele>
        <time>2018-01-14T11:32:04Z</time>
      </trkpt>
      <trkpt lat="45.96696" lon="4.77583">
        <ele>225</ele>
        <time>2018-01-14T11:32:05Z</time>
      </trkpt>
      <trkpt lat="45.96691" lon="4.77578">
        <ele>225</ele>
        <time>2018-01-14T11:32:06Z</time>
      </trkpt>
      <trkpt lat="45.96687" lon="4.77575">
        <ele>225</ele>
        <time>2018-01-14T11:32:07Z</time>
      </trkpt>
      <trkpt lat="45.96682" lon="4.77571">
        <ele>225</ele>
        <time>2018-01-14T11:32:08Z</time>
      </trkpt>
      <trkpt lat="45.96678" lon="4.77567">
        <ele>225</ele>
        <time>2018-01-14T11:32:09Z</time>
      </trkpt>
      <trkpt lat="45.96673" lon="4.77564">
        <ele>225</ele>
        <time>2018-01-14T11:32:10Z</time>
      </trkpt>
      <trkpt lat="45.96669" lon="4.7756">
        <ele>225</ele>
        <time>2018-01-14T11:32:11Z</time>
      </trkpt>
      <trkpt lat="45.96664" lon="4.77557">
        <ele>224</ele>
        <time>2018-01-14T11:32:12Z</time>
      </trkpt>
      <trkpt lat="45.96659" lon="4.77554">
        <ele>224</ele>
        <time>2018-01-14T11:32:13Z</time>
      </trkpt>
      <trkpt lat="45.96654" lon="4.77551">
        <ele>224</ele>
        <time>2018-01-14T11:32:14Z</time>
      </trkpt>
      <trkpt lat="45.96649" lon="4.77547">
        <ele>224</ele>
        <time>2018-01-14T11:32:15Z</time>
      </trkpt>
      <trkpt lat="45.96644" lon="4.77542">
        <ele>224</ele>
        <time>2018-01-14T11:32:16Z</time>
      </trkpt>
      <trkpt lat="45.96639" lon="4.7754">
        <ele>224</ele>
        <time>2018-01-14T11:32:17Z</time>
      </trkpt>
      <trkpt lat="45.96634" lon="4.77538">
        <ele>224</ele>
        <time>2018-01-14T11:32:18Z</time>
      </trkpt>
      <trkpt lat="45.96629" lon="4.77536">
        <ele>224</ele>
        <time>2018-01-14T11:32:19Z</time>
      </trkpt>
      <trkpt lat="45.96622" lon="4.77533">
        <ele>224</ele>
        <time>2018-01-14T11:32:20Z</time>
      </trkpt>
      <trkpt lat="45.96616" lon="4.77529">
        <ele>224</ele>
        <time>2018-01-14T11:32:21Z</time>
      </trkpt>
      <trkpt lat="45.9661" lon="4.77527">
        <ele>224</ele>
        <time>2018-01-14T11:32:22Z</time>
      </trkpt>
      <trkpt lat="45.96605" lon="4.77523">
        <ele>224</ele>
        <time>2018-01-14T11:32:23Z</time>
      </trkpt>
      <trkpt lat="45.96598" lon="4.77519">
        <ele>224</ele>
        <time>2018-01-14T11:32:24Z</time>
      </trkpt>
      <trkpt lat="45.96594" lon="4.77514">
        <ele>224</ele>
        <time>2018-01-14T11:32:25Z</time>
      </trkpt>
      <trkpt lat="45.96589" lon="4.77509">
        <ele>224</ele>
        <time>2018-01-14T11:32:26Z</time>
      </trkpt>
      <trkpt lat="45.96584" lon="4.77505">
        <ele>224</ele>
        <time>2018-01-14T11:32:27Z</time>
      </trkpt>
      <trkpt lat="45.96579" lon="4.77501">
        <ele>224</ele>
        <time>2018-01-14T11:32:28Z</time>
      </trkpt>
      <trkpt lat="45.96574" lon="4.77498">
        <ele>224</ele>
        <time>2018-01-14T11:32:29Z</time>
      </trkpt>
      <trkpt lat="45.96569" lon="4.77495">
        <ele>224</ele>
        <time>2018-01-14T11:32:30Z</time>
      </trkpt>
      <trkpt lat="45.96564" lon="4.77491">
        <ele>224</ele>
        <time>2018-01-14T11:32:31Z</time>
      </trkpt>
      <trkpt lat="45.9656" lon="4.77489">
        <ele>224</ele>
        <time>2018-01-14T11:32:32Z</time>
      </trkpt>
      <trkpt lat="45.96555" lon="4.77486">
        <ele>223</ele>
        <time>2018-01-14T11:32:33Z</time>
      </trkpt>
      <trkpt lat="45.9655" lon="4.77483">
        <ele>223</ele>
        <time>2018-01-14T11:32:34Z</time>
      </trkpt>
      <trkpt lat="45.96546" lon="4.7748">
        <ele>223</ele>
        <time>2018-01-14T11:32:35Z</time>
      </trkpt>
      <trkpt lat="45.96541" lon="4.77475">
        <ele>223</ele>
        <time>2018-01-14T11:32:36Z</time>
      </trkpt>
      <trkpt lat="45.96537" lon="4.77472">
        <ele>223</ele>
        <time>2018-01-14T11:32:37Z</time>
      </trkpt>
      <trkpt lat="45.96532" lon="4.77469">
        <ele>223</ele>
        <time>2018-01-14T11:32:38Z</time>
      </trkpt>
      <trkpt lat="45.96527" lon="4.77465">
        <ele>223</ele>
        <time>2018-01-14T11:32:39Z</time>
      </trkpt>
      <trkpt lat="45.96521" lon="4.77461">
        <ele>223</ele>
        <time>2018-01-14T11:32:40Z</time>
      </trkpt>
      <trkpt lat="45.96514" lon="4.77457">
        <ele>223</ele>
        <time>2018-01-14T11:32:41Z</time>
      </trkpt>
      <trkpt lat="45.96507" lon="4.77453">
        <ele>223</ele>
        <time>2018-01-14T11:32:42Z</time>
      </trkpt>
      <trkpt lat="45.96501" lon="4.77449">
        <ele>223</ele>
        <time>2018-01-14T11:32:43Z</time>
      </trkpt>
      <trkpt lat="45.96495" lon="4.77445">
        <ele>222</ele>
        <time>2018-01-14T11:32:44Z</time>
      </trkpt>
      <trkpt lat="45.96489" lon="4.77441">
        <ele>222</ele>
        <time>2018-01-14T11:32:45Z</time>
      </trkpt>
      <trkpt lat="45.96484" lon="4.77437">
        <ele>222</ele>
        <time>2018-01-14T11:32:46Z</time>
      </trkpt>
      <trkpt lat="45.96478" lon="4.77433">
        <ele>222</ele>
        <time>2018-01-14T11:32:47Z</time>
      </trkpt>
      <trkpt lat="45.96473" lon="4.7743">
        <ele>221</ele>
        <time>2018-01-14T11:32:48Z</time>
      </trkpt>
      <trkpt lat="45.96467" lon="4.77427">
        <ele>221</ele>
        <time>2018-01-14T11:32:49Z</time>
      </trkpt>
      <trkpt lat="45.96462" lon="4.77423">
        <ele>221</ele>
        <time>2018-01-14T11:32:50Z</time>
      </trkpt>
      <trkpt lat="45.96456" lon="4.7742">
        <ele>221</ele>
        <time>2018-01-14T11:32:51Z</time>
      </trkpt>
      <trkpt lat="45.96451" lon="4.77416">
        <ele>222</ele>
        <time>2018-01-14T11:32:52Z</time>
      </trkpt>
      <trkpt lat="45.96445" lon="4.77411">
        <ele>222</ele>
        <time>2018-01-14T11:32:53Z</time>
      </trkpt>
      <trkpt lat="45.96439" lon="4.77408">
        <ele>222</ele>
        <time>2018-01-14T11:32:54Z</time>
      </trkpt>
      <trkpt lat="45.96434" lon="4.77404">
        <ele>222</ele>
        <time>2018-01-14T11:32:55Z</time>
      </trkpt>
      <trkpt lat="45.96428" lon="4.77402">
        <ele>222</ele>
        <time>2018-01-14T11:32:56Z</time>
      </trkpt>
      <trkpt lat="45.96423" lon="4.774">
        <ele>222</ele>
        <time>2018-01-14T11:32:57Z</time>
      </trkpt>
      <trkpt lat="45.96417" lon="4.77397">
        <ele>222</ele>
        <time>2018-01-14T11:32:58Z</time>
      </trkpt>
      <trkpt lat="45.96411" lon="4.77395">
        <ele>220</ele>
        <time>2018-01-14T11:32:59Z</time>
      </trkpt>
      <trkpt lat="45.96405" lon="4.77393">
        <ele>220</ele>
        <time>2018-01-14T11:33:00Z</time>
      </trkpt>
      <trkpt lat="45.96399" lon="4.77388">
        <ele>220</ele>
        <time>2018-01-14T11:33:01Z</time>
      </trkpt>
      <trkpt lat="45.96394" lon="4.77384">
        <ele>220</ele>
        <time>2018-01-14T11:33:02Z</time>
      </trkpt>
      <trkpt lat="45.96389" lon="4.77381">
        <ele>220</ele>
        <time>2018-01-14T11:33:03Z</time>
      </trkpt>
      <trkpt lat="45.96382" lon="4.77377">
        <ele>220</ele>
        <time>2018-01-14T11:33:04Z</time>
      </trkpt>
      <trkpt lat="45.96376" lon="4.77373">
        <ele>220</ele>
        <time>2018-01-14T11:33:05Z</time>
      </trkpt>
      <trkpt lat="45.9637" lon="4.7737">
        <ele>219</ele>
        <time>2018-01-14T11:33:06Z</time>
      </trkpt>
      <trkpt lat="45.96363" lon="4.77366">
        <ele>219</ele>
        <time>2018-01-14T11:33:07Z</time>
      </trkpt>
      <trkpt lat="45.96358" lon="4.77363">
        <ele>219</ele>
        <time>2018-01-14T11:33:08Z</time>
      </trkpt>
      <trkpt lat="45.96351" lon="4.77357">
        <ele>219</ele>
        <time>2018-01-14T11:33:09Z</time>
      </trkpt>
      <trkpt lat="45.96344" lon="4.77354">
        <ele>219</ele>
        <time>2018-01-14T11:33:10Z</time>
      </trkpt>
      <trkpt lat="45.96338" lon="4.7735">
        <ele>220</ele>
        <time>2018-01-14T11:33:11Z</time>
      </trkpt>
      <trkpt lat="45.96332" lon="4.77347">
        <ele>218</ele>
        <time>2018-01-14T11:33:12Z</time>
      </trkpt>
      <trkpt lat="45.96327" lon="4.77344">
        <ele>218</ele>
        <time>2018-01-14T11:33:13Z</time>
      </trkpt>
      <trkpt lat="45.9632" lon="4.77342">
        <ele>218</ele>
        <time>2018-01-14T11:33:14Z</time>
      </trkpt>
      <trkpt lat="45.96315" lon="4.77338">
        <ele>218</ele>
        <time>2018-01-14T11:33:15Z</time>
      </trkpt>
      <trkpt lat="45.9631" lon="4.77334">
        <ele>217</ele>
        <time>2018-01-14T11:33:16Z</time>
      </trkpt>
      <trkpt lat="45.96304" lon="4.77331">
        <ele>219</ele>
        <time>2018-01-14T11:33:17Z</time>
      </trkpt>
      <trkpt lat="45.96298" lon="4.77328">
        <ele>219</ele>
        <time>2018-01-14T11:33:18Z</time>
      </trkpt>
      <trkpt lat="45.96293" lon="4.77326">
        <ele>219</ele>
        <time>2018-01-14T11:33:19Z</time>
      </trkpt>
      <trkpt lat="45.96288" lon="4.77322">
        <ele>219</ele>
        <time>2018-01-14T11:33:20Z</time>
      </trkpt>
      <trkpt lat="45.96282" lon="4.77319">
        <ele>219</ele>
        <time>2018-01-14T11:33:21Z</time>
      </trkpt>
      <trkpt lat="45.96276" lon="4.77315">
        <ele>219</ele>
        <time>2018-01-14T11:33:22Z</time>
      </trkpt>
      <trkpt lat="45.96271" lon="4.77312">
        <ele>219</ele>
        <time>2018-01-14T11:33:23Z</time>
      </trkpt>
      <trkpt lat="45.96265" lon="4.7731">
        <ele>218</ele>
        <time>2018-01-14T11:33:24Z</time>
      </trkpt>
      <trkpt lat="45.96259" lon="4.77307">
        <ele>219</ele>
        <time>2018-01-14T11:33:25Z</time>
      </trkpt>
      <trkpt lat="45.96253" lon="4.77304">
        <ele>219</ele>
        <time>2018-01-14T11:33:26Z</time>
      </trkpt>
      <trkpt lat="45.96247" lon="4.773">
        <ele>217</ele>
        <time>2018-01-14T11:33:27Z</time>
      </trkpt>
      <trkpt lat="45.96242" lon="4.77297">
        <ele>217</ele>
        <time>2018-01-14T11:33:28Z</time>
      </trkpt>
      <trkpt lat="45.96236" lon="4.77294">
        <ele>217</ele>
        <time>2018-01-14T11:33:29Z</time>
      </trkpt>
      <trkpt lat="45.9623" lon="4.7729">
        <ele>217</ele>
        <time>2018-01-14T11:33:30Z</time>
      </trkpt>
      <trkpt lat="45.96225" lon="4.77286">
        <ele>217</ele>
        <time>2018-01-14T11:33:31Z</time>
      </trkpt>
      <trkpt lat="45.96219" lon="4.77283">
        <ele>217</ele>
        <time>2018-01-14T11:33:32Z</time>
      </trkpt>
      <trkpt lat="45.96214" lon="4.77279">
        <ele>217</ele>
        <time>2018-01-14T11:33:33Z</time>
      </trkpt>
      <trkpt lat="45.96208" lon="4.77276">
        <ele>217</ele>
        <time>2018-01-14T11:33:34Z</time>
      </trkpt>
      <trkpt lat="45.96202" lon="4.77274">
        <ele>217</ele>
        <time>2018-01-14T11:33:35Z</time>
      </trkpt>
      <trkpt lat="45.96197" lon="4.77272">
        <ele>216</ele>
        <time>2018-01-14T11:33:36Z</time>
      </trkpt>
      <trkpt lat="45.96191" lon="4.77268">
        <ele>216</ele>
        <time>2018-01-14T11:33:37Z</time>
      </trkpt>
      <trkpt lat="45.96185" lon="4.77267">
        <ele>216</ele>
        <time>2018-01-14T11:33:38Z</time>
      </trkpt>
      <trkpt lat="45.96179" lon="4.77262">
        <ele>216</ele>
        <time>2018-01-14T11:33:39Z</time>
      </trkpt>
      <trkpt lat="45.96174" lon="4.77259">
        <ele>216</ele>
        <time>2018-01-14T11:33:40Z</time>
      </trkpt>
      <trkpt lat="45.96168" lon="4.77256">
        <ele>216</ele>
        <time>2018-01-14T11:33:41Z</time>
      </trkpt>
      <trkpt lat="45.96163" lon="4.77251">
        <ele>215</ele>
        <time>2018-01-14T11:33:42Z</time>
      </trkpt>
      <trkpt lat="45.96159" lon="4.77248">
        <ele>216</ele>
        <time>2018-01-14T11:33:43Z</time>
      </trkpt>
      <trkpt lat="45.96153" lon="4.77247">
        <ele>215</ele>
        <time>2018-01-14T11:33:44Z</time>
      </trkpt>
      <trkpt lat="45.96148" lon="4.77242">
        <ele>215</ele>
        <time>2018-01-14T11:33:45Z</time>
      </trkpt>
      <trkpt lat="45.96142" lon="4.7724">
        <ele>215</ele>
        <time>2018-01-14T11:33:46Z</time>
      </trkpt>
      <trkpt lat="45.96137" lon="4.77239">
        <ele>215</ele>
        <time>2018-01-14T11:33:47Z</time>
      </trkpt>
      <trkpt lat="45.96131" lon="4.77237">
        <ele>215</ele>
        <time>2018-01-14T11:33:48Z</time>
      </trkpt>
      <trkpt lat="45.96126" lon="4.77238">
        <ele>214</ele>
        <time>2018-01-14T11:33:49Z</time>
      </trkpt>
      <trkpt lat="45.9612" lon="4.77238">
        <ele>214</ele>
        <time>2018-01-14T11:33:50Z</time>
      </trkpt>
      <trkpt lat="45.96114" lon="4.77237">
        <ele>214</ele>
        <time>2018-01-14T11:33:51Z</time>
      </trkpt>
      <trkpt lat="45.96109" lon="4.77237">
        <ele>213</ele>
        <time>2018-01-14T11:33:52Z</time>
      </trkpt>
      <trkpt lat="45.96103" lon="4.77237">
        <ele>213</ele>
        <time>2018-01-14T11:33:53Z</time>
      </trkpt>
      <trkpt lat="45.96096" lon="4.77239">
        <ele>213</ele>
        <time>2018-01-14T11:33:54Z</time>
      </trkpt>
      <trkpt lat="45.9609" lon="4.7724">
        <ele>212</ele>
        <time>2018-01-14T11:33:55Z</time>
      </trkpt>
      <trkpt lat="45.96083" lon="4.77242">
        <ele>211</ele>
        <time>2018-01-14T11:33:56Z</time>
      </trkpt>
      <trkpt lat="45.96077" lon="4.77243">
        <ele>210</ele>
        <time>2018-01-14T11:33:57Z</time>
      </trkpt>
      <trkpt lat="45.96072" lon="4.77241">
        <ele>210</ele>
        <time>2018-01-14T11:33:58Z</time>
      </trkpt>
      <trkpt lat="45.96065" lon="4.77241">
        <ele>209</ele>
        <time>2018-01-14T11:33:59Z</time>
      </trkpt>
      <trkpt lat="45.96059" lon="4.77241">
        <ele>209</ele>
        <time>2018-01-14T11:34:00Z</time>
      </trkpt>
      <trkpt lat="45.96052" lon="4.77241">
        <ele>209</ele>
        <time>2018-01-14T11:34:01Z</time>
      </trkpt>
      <trkpt lat="45.96046" lon="4.77242">
        <ele>209</ele>
        <time>2018-01-14T11:34:02Z</time>
      </trkpt>
      <trkpt lat="45.9604" lon="4.77243">
        <ele>208</ele>
        <time>2018-01-14T11:34:03Z</time>
      </trkpt>
      <trkpt lat="45.96031" lon="4.77241">
        <ele>208</ele>
        <time>2018-01-14T11:34:04Z</time>
      </trkpt>
      <trkpt lat="45.96025" lon="4.77241">
        <ele>207</ele>
        <time>2018-01-14T11:34:05Z</time>
      </trkpt>
      <trkpt lat="45.96018" lon="4.77241">
        <ele>206</ele>
        <time>2018-01-14T11:34:06Z</time>
      </trkpt>
      <trkpt lat="45.96011" lon="4.77242">
        <ele>206</ele>
        <time>2018-01-14T11:34:07Z</time>
      </trkpt>
      <trkpt lat="45.96004" lon="4.77239">
        <ele>205</ele>
        <time>2018-01-14T11:34:08Z</time>
      </trkpt>
      <trkpt lat="45.95997" lon="4.77236">
        <ele>203</ele>
        <time>2018-01-14T11:34:09Z</time>
      </trkpt>
      <trkpt lat="45.9599" lon="4.77233">
        <ele>202</ele>
        <time>2018-01-14T11:34:10Z</time>
      </trkpt>
      <trkpt lat="45.95984" lon="4.77229">
        <ele>202</ele>
        <time>2018-01-14T11:34:11Z</time>
      </trkpt>
      <trkpt lat="45.95977" lon="4.77224">
        <ele>202</ele>
        <time>2018-01-14T11:34:12Z</time>
      </trkpt>
      <trkpt lat="45.95972" lon="4.77218">
        <ele>202</ele>
        <time>2018-01-14T11:34:13Z</time>
      </trkpt>
      <trkpt lat="45.95966" lon="4.77211">
        <ele>202</ele>
        <time>2018-01-14T11:34:14Z</time>
      </trkpt>
      <trkpt lat="45.95961" lon="4.77203">
        <ele>202</ele>
        <time>2018-01-14T11:34:15Z</time>
      </trkpt>
      <trkpt lat="45.95957" lon="4.77194">
        <ele>201</ele>
        <time>2018-01-14T11:34:16Z</time>
      </trkpt>
      <trkpt lat="45.95953" lon="4.77185">
        <ele>201</ele>
        <time>2018-01-14T11:34:17Z</time>
      </trkpt>
      <trkpt lat="45.95952" lon="4.77174">
        <ele>201</ele>
        <time>2018-01-14T11:34:18Z</time>
      </trkpt>
      <trkpt lat="45.9595" lon="4.77164">
        <ele>202</ele>
        <time>2018-01-14T11:34:19Z</time>
      </trkpt>
      <trkpt lat="45.95949" lon="4.77153">
        <ele>202</ele>
        <time>2018-01-14T11:34:20Z</time>
      </trkpt>
      <trkpt lat="45.95948" lon="4.77142">
        <ele>202</ele>
        <time>2018-01-14T11:34:21Z</time>
      </trkpt>
      <trkpt lat="45.95947" lon="4.77131">
        <ele>202</ele>
        <time>2018-01-14T11:34:22Z</time>
      </trkpt>
      <trkpt lat="45.95946" lon="4.77121">
        <ele>202</ele>
        <time>2018-01-14T11:34:23Z</time>
      </trkpt>
      <trkpt lat="45.95946" lon="4.7711">
        <ele>202</ele>
        <time>2018-01-14T11:34:24Z</time>
      </trkpt>
      <trkpt lat="45.95946" lon="4.771">
        <ele>201</ele>
        <time>2018-01-14T11:34:25Z</time>
      </trkpt>
      <trkpt lat="45.95949" lon="4.77087">
        <ele>202</ele>
        <time>2018-01-14T11:34:26Z</time>
      </trkpt>
      <trkpt lat="45.95952" lon="4.77076">
        <ele>200</ele>
        <time>2018-01-14T11:34:27Z</time>
      </trkpt>
      <trkpt lat="45.95955" lon="4.77064">
        <ele>200</ele>
        <time>2018-01-14T11:34:28Z</time>
      </trkpt>
      <trkpt lat="45.95958" lon="4.77054">
        <ele>200</ele>
        <time>2018-01-14T11:34:29Z</time>
      </trkpt>
      <trkpt lat="45.95961" lon="4.77044">
        <ele>200</ele>
        <time>2018-01-14T11:34:30Z</time>
      </trkpt>
      <trkpt lat="45.95964" lon="4.77034">
        <ele>200</ele>
        <time>2018-01-14T11:34:31Z</time>
      </trkpt>
      <trkpt lat="45.95968" lon="4.77024">
        <ele>200</ele>
        <time>2018-01-14T11:34:32Z</time>
      </trkpt>
      <trkpt lat="45.95971" lon="4.77015">
        <ele>200</ele>
        <time>2018-01-14T11:34:33Z</time>
      </trkpt>
      <trkpt lat="45.95974" lon="4.77005">
        <ele>200</ele>
        <time>2018-01-14T11:34:34Z</time>
      </trkpt>
      <trkpt lat="45.95978" lon="4.76995">
        <ele>198</ele>
        <time>2018-01-14T11:34:35Z</time>
      </trkpt>
      <trkpt lat="45.95981" lon="4.76985">
        <ele>197</ele>
        <time>2018-01-14T11:34:36Z</time>
      </trkpt>
      <trkpt lat="45.95983" lon="4.76973">
        <ele>197</ele>
        <time>2018-01-14T11:34:37Z</time>
      </trkpt>
      <trkpt lat="45.95983" lon="4.76962">
        <ele>196</ele>
        <time>2018-01-14T11:34:38Z</time>
      </trkpt>
      <trkpt lat="45.95982" lon="4.7695">
        <ele>196</ele>
        <time>2018-01-14T11:34:39Z</time>
      </trkpt>
      <trkpt lat="45.9598" lon="4.76939">
        <ele>196</ele>
        <time>2018-01-14T11:34:40Z</time>
      </trkpt>
      <trkpt lat="45.95974" lon="4.76933">
        <ele>195</ele>
        <time>2018-01-14T11:34:41Z</time>
      </trkpt>
      <trkpt lat="45.95967" lon="4.76924">
        <ele>195</ele>
        <time>2018-01-14T11:34:42Z</time>
      </trkpt>
      <trkpt lat="45.95959" lon="4.76917">
        <ele>193</ele>
        <time>2018-01-14T11:34:43Z</time>
      </trkpt>
      <trkpt lat="45.95953" lon="4.76909">
        <ele>193</ele>
        <time>2018-01-14T11:34:44Z</time>
      </trkpt>
      <trkpt lat="45.95946" lon="4.76901">
        <ele>193</ele>
        <time>2018-01-14T11:34:45Z</time>
      </trkpt>
      <trkpt lat="45.95937" lon="4.76893">
        <ele>192</ele>
        <time>2018-01-14T11:34:46Z</time>
      </trkpt>
      <trkpt lat="45.9593" lon="4.76887">
        <ele>192</ele>
        <time>2018-01-14T11:34:47Z</time>
      </trkpt>
      <trkpt lat="45.95923" lon="4.76879">
        <ele>192</ele>
        <time>2018-01-14T11:34:48Z</time>
      </trkpt>
      <trkpt lat="45.95916" lon="4.76873">
        <ele>191</ele>
        <time>2018-01-14T11:34:49Z</time>
      </trkpt>
      <trkpt lat="45.95909" lon="4.76866">
        <ele>191</ele>
        <time>2018-01-14T11:34:50Z</time>
      </trkpt>
      <trkpt lat="45.95903" lon="4.76859">
        <ele>191</ele>
        <time>2018-01-14T11:34:51Z</time>
      </trkpt>
      <trkpt lat="45.95896" lon="4.76852">
        <ele>191</ele>
        <time>2018-01-14T11:34:52Z</time>
      </trkpt>
      <trkpt lat="45.9589" lon="4.76845">
        <ele>191</ele>
        <time>2018-01-14T11:34:53Z</time>
      </trkpt>
      <trkpt lat="45.95884" lon="4.76838">
        <ele>191</ele>
        <time>2018-01-14T11:34:54Z</time>
      </trkpt>
      <trkpt lat="45.95878" lon="4.7683">
        <ele>191</ele>
        <time>2018-01-14T11:34:55Z</time>
      </trkpt>
      <trkpt lat="45.95872" lon="4.76823">
        <ele>191</ele>
        <time>2018-01-14T11:34:56Z</time>
      </trkpt>
      <trkpt lat="45.95866" lon="4.76817">
        <ele>191</ele>
        <time>2018-01-14T11:34:57Z</time>
      </trkpt>
      <trkpt lat="45.9586" lon="4.7681">
        <ele>191</ele>
        <time>2018-01-14T11:34:58Z</time>
      </trkpt>
      <trkpt lat="45.95854" lon="4.76804">
        <ele>191</ele>
        <time>2018-01-14T11:34:59Z</time>
      </trkpt>
      <trkpt lat="45.95847" lon="4.76798">
        <ele>191</ele>
        <time>2018-01-14T11:35:00Z</time>
      </trkpt>
      <trkpt lat="45.95842" lon="4.76792">
        <ele>191</ele>
        <time>2018-01-14T11:35:01Z</time>
      </trkpt>
      <trkpt lat="45.95837" lon="4.76785">
        <ele>191</ele>
        <time>2018-01-14T11:35:02Z</time>
      </trkpt>
      <trkpt lat="45.95834" lon="4.76778">
        <ele>191</ele>
        <time>2018-01-14T11:35:03Z</time>
      </trkpt>
      <trkpt lat="45.9583" lon="4.76771">
        <ele>190</ele>
        <time>2018-01-14T11:35:04Z</time>
      </trkpt>
      <trkpt lat="45.95828" lon="4.76763">
        <ele>190</ele>
        <time>2018-01-14T11:35:05Z</time>
      </trkpt>
      <trkpt lat="45.95826" lon="4.76754">
        <ele>191</ele>
        <time>2018-01-14T11:35:06Z</time>
      </trkpt>
      <trkpt lat="45.95824" lon="4.76745">
        <ele>190</ele>
        <time>2018-01-14T11:35:07Z</time>
      </trkpt>
      <trkpt lat="45.95822" lon="4.76735">
        <ele>190</ele>
        <time>2018-01-14T11:35:08Z</time>
      </trkpt>
      <trkpt lat="45.95821" lon="4.76726">
        <ele>190</ele>
        <time>2018-01-14T11:35:09Z</time>
      </trkpt>
      <trkpt lat="45.95819" lon="4.76716">
        <ele>189</ele>
        <time>2018-01-14T11:35:10Z</time>
      </trkpt>
      <trkpt lat="45.95818" lon="4.76707">
        <ele>189</ele>
        <time>2018-01-14T11:35:11Z</time>
      </trkpt>
      <trkpt lat="45.95817" lon="4.76696">
        <ele>189</ele>
        <time>2018-01-14T11:35:12Z</time>
      </trkpt>
      <trkpt lat="45.95816" lon="4.76686">
        <ele>189</ele>
        <time>2018-01-14T11:35:13Z</time>
      </trkpt>
      <trkpt lat="45.95814" lon="4.76678">
        <ele>189</ele>
        <time>2018-01-14T11:35:14Z</time>
      </trkpt>
      <trkpt lat="45.95813" lon="4.76669">
        <ele>189</ele>
        <time>2018-01-14T11:35:15Z</time>
      </trkpt>
      <trkpt lat="45.95812" lon="4.7666">
        <ele>188</ele>
        <time>2018-01-14T11:35:16Z</time>
      </trkpt>
      <trkpt lat="45.95812" lon="4.76652">
        <ele>188</ele>
        <time>2018-01-14T11:35:17Z</time>
      </trkpt>
      <trkpt lat="45.95811" lon="4.76643">
        <ele>188</ele>
        <time>2018-01-14T11:35:18Z</time>
      </trkpt>
      <trkpt lat="45.9581" lon="4.76634">
        <ele>188</ele>
        <time>2018-01-14T11:35:19Z</time>
      </trkpt>
      <trkpt lat="45.95808" lon="4.76625">
        <ele>188</ele>
        <time>2018-01-14T11:35:20Z</time>
      </trkpt>
      <trkpt lat="45.95806" lon="4.76617">
        <ele>188</ele>
        <time>2018-01-14T11:35:21Z</time>
      </trkpt>
      <trkpt lat="45.95806" lon="4.76605">
        <ele>188</ele>
        <time>2018-01-14T11:35:22Z</time>
      </trkpt>
      <trkpt lat="45.95805" lon="4.76594">
        <ele>188</ele>
        <time>2018-01-14T11:35:23Z</time>
      </trkpt>
      <trkpt lat="45.95804" lon="4.76585">
        <ele>188</ele>
        <time>2018-01-14T11:35:24Z</time>
      </trkpt>
      <trkpt lat="45.95803" lon="4.76577">
        <ele>187</ele>
        <time>2018-01-14T11:35:25Z</time>
      </trkpt>
      <trkpt lat="45.95801" lon="4.76569">
        <ele>187</ele>
        <time>2018-01-14T11:35:26Z</time>
      </trkpt>
      <trkpt lat="45.958" lon="4.7656">
        <ele>187</ele>
        <time>2018-01-14T11:35:27Z</time>
      </trkpt>
      <trkpt lat="45.95798" lon="4.7655">
        <ele>187</ele>
        <time>2018-01-14T11:35:28Z</time>
      </trkpt>
      <trkpt lat="45.95797" lon="4.76542">
        <ele>187</ele>
        <time>2018-01-14T11:35:29Z</time>
      </trkpt>
      <trkpt lat="45.95793" lon="4.76535">
        <ele>187</ele>
        <time>2018-01-14T11:35:30Z</time>
      </trkpt>
      <trkpt lat="45.95792" lon="4.76526">
        <ele>187</ele>
        <time>2018-01-14T11:35:31Z</time>
      </trkpt>
      <trkpt lat="45.95791" lon="4.76519">
        <ele>187</ele>
        <time>2018-01-14T11:35:32Z</time>
      </trkpt>
      <trkpt lat="45.9579" lon="4.76512">
        <ele>187</ele>
        <time>2018-01-14T11:35:33Z</time>
      </trkpt>
      <trkpt lat="45.95789" lon="4.76505">
        <ele>187</ele>
        <time>2018-01-14T11:35:34Z</time>
      </trkpt>
      <trkpt lat="45.95788" lon="4.76496">
        <ele>186</ele>
        <time>2018-01-14T11:35:35Z</time>
      </trkpt>
      <trkpt lat="45.95787" lon="4.76488">
        <ele>186</ele>
        <time>2018-01-14T11:35:36Z</time>
      </trkpt>
      <trkpt lat="45.95786" lon="4.76479">
        <ele>186</ele>
        <time>2018-01-14T11:35:37Z</time>
      </trkpt>
      <trkpt lat="45.95785" lon="4.76471">
        <ele>186</ele>
        <time>2018-01-14T11:35:38Z</time>
      </trkpt>
      <trkpt lat="45.95784" lon="4.76462">
        <ele>186</ele>
        <time>2018-01-14T11:35:39Z</time>
      </trkpt>
      <trkpt lat="45.95783" lon="4.76455">
        <ele>186</ele>
        <time>2018-01-14T11:35:40Z</time>
      </trkpt>
      <trkpt lat="45.95783" lon="4.76446">
        <ele>186</ele>
        <time>2018-01-14T11:35:41Z</time>
      </trkpt>
      <trkpt lat="45.95781" lon="4.76437">
        <ele>186</ele>
        <time>2018-01-14T11:35:42Z</time>
      </trkpt>
      <trkpt lat="45.95781" lon="4.76428">
        <ele>186</ele>
        <time>2018-01-14T11:35:43Z</time>
      </trkpt>
      <trkpt lat="45.9578" lon="4.7642">
        <ele>186</ele>
        <time>2018-01-14T11:35:44Z</time>
      </trkpt>
      <trkpt lat="45.95779" lon="4.76413">
        <ele>186</ele>
        <time>2018-01-14T11:35:45Z</time>
      </trkpt>
      <trkpt lat="45.95778" lon="4.76406">
        <ele>186</ele>
        <time>2018-01-14T11:35:46Z</time>
      </trkpt>
      <trkpt lat="45.95776" lon="4.76399">
        <ele>186</ele>
        <time>2018-01-14T11:35:47Z</time>
      </trkpt>
      <trkpt lat="45.95775" lon="4.76392">
        <ele>186</ele>
        <time>2018-01-14T11:35:48Z</time>
      </trkpt>
      <trkpt lat="45.95775" lon="4.76385">
        <ele>186</ele>
        <time>2018-01-14T11:35:49Z</time>
      </trkpt>
      <trkpt lat="45.95775" lon="4.76377">
        <ele>186</ele>
        <time>2018-01-14T11:35:50Z</time>
      </trkpt>
      <trkpt lat="45.95775" lon="4.76368">
        <ele>186</ele>
        <time>2018-01-14T11:35:51Z</time>
      </trkpt>
      <trkpt lat="45.95775" lon="4.76361">
        <ele>186</ele>
        <time>2018-01-14T11:35:52Z</time>
      </trkpt>
      <trkpt lat="45.95775" lon="4.76355">
        <ele>186</ele>
        <time>2018-01-14T11:35:53Z</time>
      </trkpt>
      <trkpt lat="45.95775" lon="4.76347">
        <ele>186</ele>
        <time>2018-01-14T11:35:54Z</time>
      </trkpt>
      <trkpt lat="45.95774" lon="4.76339">
        <ele>186</ele>
        <time>2018-01-14T11:35:55Z</time>
      </trkpt>
      <trkpt lat="45.95774" lon="4.76331">
        <ele>185</ele>
        <time>2018-01-14T11:35:56Z</time>
      </trkpt>
      <trkpt lat="45.95774" lon="4.76323">
        <ele>185</ele>
        <time>2018-01-14T11:35:57Z</time>
      </trkpt>
      <trkpt lat="45.95773" lon="4.76314">
        <ele>186</ele>
        <time>2018-01-14T11:35:58Z</time>
      </trkpt>
      <trkpt lat="45.95772" lon="4.76306">
        <ele>186</ele>
        <time>2018-01-14T11:35:59Z</time>
      </trkpt>
      <trkpt lat="45.95772" lon="4.76299">
        <ele>186</ele>
        <time>2018-01-14T11:36:00Z</time>
      </trkpt>
      <trkpt lat="45.95772" lon="4.7629">
        <ele>186</ele>
        <time>2018-01-14T11:36:01Z</time>
      </trkpt>
      <trkpt lat="45.95772" lon="4.76283">
        <ele>186</ele>
        <time>2018-01-14T11:36:02Z</time>
      </trkpt>
      <trkpt lat="45.95772" lon="4.76274">
        <ele>186</ele>
        <time>2018-01-14T11:36:03Z</time>
      </trkpt>
      <trkpt lat="45.95772" lon="4.76266">
        <ele>186</ele>
        <time>2018-01-14T11:36:04Z</time>
      </trkpt>
      <trkpt lat="45.95772" lon="4.76258">
        <ele>186</ele>
        <time>2018-01-14T11:36:05Z</time>
      </trkpt>
      <trkpt lat="45.95771" lon="4.76249">
        <ele>186</ele>
        <time>2018-01-14T11:36:06Z</time>
      </trkpt>
      <trkpt lat="45.95771" lon="4.76241">
        <ele>186</ele>
        <time>2018-01-14T11:36:07Z</time>
      </trkpt>
      <trkpt lat="45.9577" lon="4.76232">
        <ele>186</ele>
        <time>2018-01-14T11:36:08Z</time>
      </trkpt>
      <trkpt lat="45.9577" lon="4.76224">
        <ele>186</ele>
        <time>2018-01-14T11:36:09Z</time>
      </trkpt>
      <trkpt lat="45.95769" lon="4.76215">
        <ele>186</ele>
        <time>2018-01-14T11:36:10Z</time>
      </trkpt>
      <trkpt lat="45.95769" lon="4.76206">
        <ele>186</ele>
        <time>2018-01-14T11:36:11Z</time>
      </trkpt>
      <trkpt lat="45.95768" lon="4.76197">
        <ele>186</ele>
        <time>2018-01-14T11:36:12Z</time>
      </trkpt>
      <trkpt lat="45.95768" lon="4.76188">
        <ele>186</ele>
        <time>2018-01-14T11:36:13Z</time>
      </trkpt>
      <trkpt lat="45.95767" lon="4.7618">
        <ele>186</ele>
        <time>2018-01-14T11:36:14Z</time>
      </trkpt>
      <trkpt lat="45.95767" lon="4.76172">
        <ele>186</ele>
        <time>2018-01-14T11:36:15Z</time>
      </trkpt>
      <trkpt lat="45.95766" lon="4.76164">
        <ele>186</ele>
        <time>2018-01-14T11:36:16Z</time>
      </trkpt>
      <trkpt lat="45.95766" lon="4.76155">
        <ele>186</ele>
        <time>2018-01-14T11:36:17Z</time>
      </trkpt>
      <trkpt lat="45.95765" lon="4.76148">
        <ele>186</ele>
        <time>2018-01-14T11:36:18Z</time>
      </trkpt>
      <trkpt lat="45.95765" lon="4.7614">
        <ele>186</ele>
        <time>2018-01-14T11:36:19Z</time>
      </trkpt>
      <trkpt lat="45.95764" lon="4.76132">
        <ele>186</ele>
        <time>2018-01-14T11:36:20Z</time>
      </trkpt>
      <trkpt lat="45.95762" lon="4.76124">
        <ele>186</ele>
        <time>2018-01-14T11:36:21Z</time>
      </trkpt>
      <trkpt lat="45.95761" lon="4.76116">
        <ele>186</ele>
        <time>2018-01-14T11:36:22Z</time>
      </trkpt>
      <trkpt lat="45.9576" lon="4.76109">
        <ele>186</ele>
        <time>2018-01-14T11:36:23Z</time>
      </trkpt>
      <trkpt lat="45.95758" lon="4.76103">
        <ele>186</ele>
        <time>2018-01-14T11:36:24Z</time>
      </trkpt>
      <trkpt lat="45.95756" lon="4.76097">
        <ele>186</ele>
        <time>2018-01-14T11:36:25Z</time>
      </trkpt>
      <trkpt lat="45.95754" lon="4.76088">
        <ele>185</ele>
        <time>2018-01-14T11:36:26Z</time>
      </trkpt>
      <trkpt lat="45.95752" lon="4.7608">
        <ele>185</ele>
        <time>2018-01-14T11:36:27Z</time>
      </trkpt>
      <trkpt lat="45.95749" lon="4.76073">
        <ele>185</ele>
        <time>2018-01-14T11:36:28Z</time>
      </trkpt>
      <trkpt lat="45.95745" lon="4.76067">
        <ele>185</ele>
        <time>2018-01-14T11:36:29Z</time>
      </trkpt>
      <trkpt lat="45.95742" lon="4.76059">
        <ele>184</ele>
        <time>2018-01-14T11:36:30Z</time>
      </trkpt>
      <trkpt lat="45.95738" lon="4.76052">
        <ele>184</ele>
        <time>2018-01-14T11:36:31Z</time>
      </trkpt>
      <trkpt lat="45.95734" lon="4.76044">
        <ele>184</ele>
        <time>2018-01-14T11:36:32Z</time>
      </trkpt>
      <trkpt lat="45.95731" lon="4.76036">
        <ele>184</ele>
        <time>2018-01-14T11:36:33Z</time>
      </trkpt>
      <trkpt lat="45.95728" lon="4.76029">
        <ele>184</ele>
        <time>2018-01-14T11:36:34Z</time>
      </trkpt>
      <trkpt lat="45.95724" lon="4.76022">
        <ele>184</ele>
        <time>2018-01-14T11:36:35Z</time>
      </trkpt>
      <trkpt lat="45.95722" lon="4.76015">
        <ele>184</ele>
        <time>2018-01-14T11:36:36Z</time>
      </trkpt>
      <trkpt lat="45.95718" lon="4.76009">
        <ele>184</ele>
        <time>2018-01-14T11:36:37Z</time>
      </trkpt>
      <trkpt lat="45.95714" lon="4.76002">
        <ele>184</ele>
        <time>2018-01-14T11:36:38Z</time>
      </trkpt>
      <trkpt lat="45.95711" lon="4.75995">
        <ele>185</ele>
        <time>2018-01-14T11:36:39Z</time>
      </trkpt>
      <trkpt lat="45.95707" lon="4.75989">
        <ele>185</ele>
        <time>2018-01-14T11:36:40Z</time>
      </trkpt>
      <trkpt lat="45.95703" lon="4.75982">
        <ele>185</ele>
        <time>2018-01-14T11:36:41Z</time>
      </trkpt>
      <trkpt lat="45.957" lon="4.75973">
        <ele>185</ele>
        <time>2018-01-14T11:36:42Z</time>
      </trkpt>
      <trkpt lat="45.95697" lon="4.75966">
        <ele>185</ele>
        <time>2018-01-14T11:36:43Z</time>
      </trkpt>
      <trkpt lat="45.95694" lon="4.75959">
        <ele>185</ele>
        <time>2018-01-14T11:36:44Z</time>
      </trkpt>
      <trkpt lat="45.9569" lon="4.75952">
        <ele>185</ele>
        <time>2018-01-14T11:36:45Z</time>
      </trkpt>
      <trkpt lat="45.95687" lon="4.75945">
        <ele>185</ele>
        <time>2018-01-14T11:36:46Z</time>
      </trkpt>
      <trkpt lat="45.95684" lon="4.75939">
        <ele>185</ele>
        <time>2018-01-14T11:36:47Z</time>
      </trkpt>
      <trkpt lat="45.95682" lon="4.75932">
        <ele>185</ele>
        <time>2018-01-14T11:36:48Z</time>
      </trkpt>
      <trkpt lat="45.95679" lon="4.75924">
        <ele>185</ele>
        <time>2018-01-14T11:36:49Z</time>
      </trkpt>
      <trkpt lat="45.95676" lon="4.75917">
        <ele>184</ele>
        <time>2018-01-14T11:36:50Z</time>
      </trkpt>
      <trkpt lat="45.95673" lon="4.7591">
        <ele>185</ele>
        <time>2018-01-14T11:36:51Z</time>
      </trkpt>
      <trkpt lat="45.9567" lon="4.75903">
        <ele>185</ele>
        <time>2018-01-14T11:36:52Z</time>
      </trkpt>
      <trkpt lat="45.95668" lon="4.75895">
        <ele>186</ele>
        <time>2018-01-14T11:36:53Z</time>
      </trkpt>
      <trkpt lat="45.95665" lon="4.75888">
        <ele>184</ele>
        <time>2018-01-14T11:36:54Z</time>
      </trkpt>
      <trkpt lat="45.95664" lon="4.75881">
        <ele>184</ele>
        <time>2018-01-14T11:36:55Z</time>
      </trkpt>
      <trkpt lat="45.95662" lon="4.75874">
        <ele>184</ele>
        <time>2018-01-14T11:36:56Z</time>
      </trkpt>
      <trkpt lat="45.9566" lon="4.75867">
        <ele>184</ele>
        <time>2018-01-14T11:36:57Z</time>
      </trkpt>
      <trkpt lat="45.95657" lon="4.75859">
        <ele>184</ele>
        <time>2018-01-14T11:36:58Z</time>
      </trkpt>
      <trkpt lat="45.95656" lon="4.75851">
        <ele>185</ele>
        <time>2018-01-14T11:36:59Z</time>
      </trkpt>
      <trkpt lat="45.95653" lon="4.75843">
        <ele>185</ele>
        <time>2018-01-14T11:37:00Z</time>
      </trkpt>
      <trkpt lat="45.95651" lon="4.75836">
        <ele>185</ele>
        <time>2018-01-14T11:37:01Z</time>
      </trkpt>
      <trkpt lat="45.9565" lon="4.75828">
        <ele>185</ele>
        <time>2018-01-14T11:37:02Z</time>
      </trkpt>
      <trkpt lat="45.95649" lon="4.75822">
        <ele>185</ele>
        <time>2018-01-14T11:37:03Z</time>
      </trkpt>
      <trkpt lat="45.95647" lon="4.75814">
        <ele>185</ele>
        <time>2018-01-14T11:37:04Z</time>
      </trkpt>
      <trkpt lat="45.95645" lon="4.75807">
        <ele>185</ele>
        <time>2018-01-14T11:37:05Z</time>
      </trkpt>
      <trkpt lat="45.95645" lon="4.75798">
        <ele>185</ele>
        <time>2018-01-14T11:37:06Z</time>
      </trkpt>
      <trkpt lat="45.95643" lon="4.75792">
        <ele>185</ele>
        <time>2018-01-14T11:37:07Z</time>
      </trkpt>
      <trkpt lat="45.95644" lon="4.7578">
        <ele>186</ele>
        <time>2018-01-14T11:37:08Z</time>
      </trkpt>
      <trkpt lat="45.95643" lon="4.75772">
        <ele>186</ele>
        <time>2018-01-14T11:37:09Z</time>
      </trkpt>
      <trkpt lat="45.95643" lon="4.75767">
        <ele>186</ele>
        <time>2018-01-14T11:37:10Z</time>
      </trkpt>
      <trkpt lat="45.95642" lon="4.75758">
        <ele>186</ele>
        <time>2018-01-14T11:37:11Z</time>
      </trkpt>
      <trkpt lat="45.95641" lon="4.75751">
        <ele>186</ele>
        <time>2018-01-14T11:37:12Z</time>
      </trkpt>
      <trkpt lat="45.95641" lon="4.75742">
        <ele>187</ele>
        <time>2018-01-14T11:37:13Z</time>
      </trkpt>
      <trkpt lat="45.9564" lon="4.75736">
        <ele>187</ele>
        <time>2018-01-14T11:37:14Z</time>
      </trkpt>
      <trkpt lat="45.95638" lon="4.75724">
        <ele>187</ele>
        <time>2018-01-14T11:37:16Z</time>
      </trkpt>
      <trkpt lat="45.95636" lon="4.75718">
        <ele>187</ele>
        <time>2018-01-14T11:37:17Z</time>
      </trkpt>
      <trkpt lat="45.95635" lon="4.75711">
        <ele>187</ele>
        <time>2018-01-14T11:37:18Z</time>
      </trkpt>
      <trkpt lat="45.95634" lon="4.75704">
        <ele>187</ele>
        <time>2018-01-14T11:37:19Z</time>
      </trkpt>
      <trkpt lat="45.95633" lon="4.75696">
        <ele>187</ele>
        <time>2018-01-14T11:37:20Z</time>
      </trkpt>
      <trkpt lat="45.95632" lon="4.75689">
        <ele>187</ele>
        <time>2018-01-14T11:37:21Z</time>
      </trkpt>
      <trkpt lat="45.9563" lon="4.75681">
        <ele>187</ele>
        <time>2018-01-14T11:37:22Z</time>
      </trkpt>
      <trkpt lat="45.95631" lon="4.75674">
        <ele>188</ele>
        <time>2018-01-14T11:37:23Z</time>
      </trkpt>
      <trkpt lat="45.9563" lon="4.75667">
        <ele>188</ele>
        <time>2018-01-14T11:37:24Z</time>
      </trkpt>
      <trkpt lat="45.95628" lon="4.7566">
        <ele>188</ele>
        <time>2018-01-14T11:37:25Z</time>
      </trkpt>
      <trkpt lat="45.95627" lon="4.75654">
        <ele>188</ele>
        <time>2018-01-14T11:37:26Z</time>
      </trkpt>
      <trkpt lat="45.95625" lon="4.75648">
        <ele>188</ele>
        <time>2018-01-14T11:37:27Z</time>
      </trkpt>
      <trkpt lat="45.95623" lon="4.75641">
        <ele>188</ele>
        <time>2018-01-14T11:37:28Z</time>
      </trkpt>
      <trkpt lat="45.95622" lon="4.75635">
        <ele>188</ele>
        <time>2018-01-14T11:37:29Z</time>
      </trkpt>
      <trkpt lat="45.9562" lon="4.75629">
        <ele>188</ele>
        <time>2018-01-14T11:37:30Z</time>
      </trkpt>
      <trkpt lat="45.95618" lon="4.75623">
        <ele>188</ele>
        <time>2018-01-14T11:37:31Z</time>
      </trkpt>
      <trkpt lat="45.95616" lon="4.75617">
        <ele>188</ele>
        <time>2018-01-14T11:37:32Z</time>
      </trkpt>
      <trkpt lat="45.95614" lon="4.7561">
        <ele>188</ele>
        <time>2018-01-14T11:37:33Z</time>
      </trkpt>
      <trkpt lat="45.95611" lon="4.75603">
        <ele>188</ele>
        <time>2018-01-14T11:37:34Z</time>
      </trkpt>
      <trkpt lat="45.95609" lon="4.75597">
        <ele>187</ele>
        <time>2018-01-14T11:37:35Z</time>
      </trkpt>
      <trkpt lat="45.95606" lon="4.75589">
        <ele>187</ele>
        <time>2018-01-14T11:37:36Z</time>
      </trkpt>
      <trkpt lat="45.95603" lon="4.75584">
        <ele>187</ele>
        <time>2018-01-14T11:37:37Z</time>
      </trkpt>
      <trkpt lat="45.956" lon="4.75578">
        <ele>188</ele>
        <time>2018-01-14T11:37:38Z</time>
      </trkpt>
      <trkpt lat="45.95598" lon="4.75571">
        <ele>188</ele>
        <time>2018-01-14T11:37:39Z</time>
      </trkpt>
      <trkpt lat="45.95594" lon="4.75565">
        <ele>188</ele>
        <time>2018-01-14T11:37:40Z</time>
      </trkpt>
      <trkpt lat="45.95591" lon="4.7556">
        <ele>188</ele>
        <time>2018-01-14T11:37:41Z</time>
      </trkpt>
      <trkpt lat="45.95588" lon="4.75555">
        <ele>188</ele>
        <time>2018-01-14T11:37:42Z</time>
      </trkpt>
      <trkpt lat="45.95582" lon="4.75551">
        <ele>186</ele>
        <time>2018-01-14T11:37:43Z</time>
      </trkpt>
      <trkpt lat="45.95577" lon="4.75547">
        <ele>186</ele>
        <time>2018-01-14T11:37:44Z</time>
      </trkpt>
      <trkpt lat="45.95572" lon="4.75542">
        <ele>186</ele>
        <time>2018-01-14T11:37:45Z</time>
      </trkpt>
      <trkpt lat="45.95566" lon="4.75536">
        <ele>186</ele>
        <time>2018-01-14T11:37:46Z</time>
      </trkpt>
      <trkpt lat="45.95562" lon="4.7553">
        <ele>186</ele>
        <time>2018-01-14T11:37:47Z</time>
      </trkpt>
      <trkpt lat="45.95558" lon="4.75522">
        <ele>186</ele>
        <time>2018-01-14T11:37:48Z</time>
      </trkpt>
      <trkpt lat="45.95553" lon="4.75516">
        <ele>186</ele>
        <time>2018-01-14T11:37:49Z</time>
      </trkpt>
      <trkpt lat="45.95549" lon="4.7551">
        <ele>186</ele>
        <time>2018-01-14T11:37:50Z</time>
      </trkpt>
      <trkpt lat="45.95546" lon="4.75505">
        <ele>186</ele>
        <time>2018-01-14T11:37:51Z</time>
      </trkpt>
      <trkpt lat="45.95543" lon="4.75499">
        <ele>187</ele>
        <time>2018-01-14T11:37:52Z</time>
      </trkpt>
      <trkpt lat="45.95541" lon="4.75492">
        <ele>187</ele>
        <time>2018-01-14T11:37:53Z</time>
      </trkpt>
      <trkpt lat="45.95541" lon="4.75485">
        <ele>187</ele>
        <time>2018-01-14T11:37:54Z</time>
      </trkpt>
      <trkpt lat="45.95541" lon="4.75477">
        <ele>187</ele>
        <time>2018-01-14T11:37:55Z</time>
      </trkpt>
      <trkpt lat="45.9554" lon="4.7547">
        <ele>187</ele>
        <time>2018-01-14T11:37:56Z</time>
      </trkpt>
      <trkpt lat="45.95538" lon="4.75463">
        <ele>187</ele>
        <time>2018-01-14T11:37:57Z</time>
      </trkpt>
      <trkpt lat="45.95536" lon="4.75457">
        <ele>187</ele>
        <time>2018-01-14T11:37:58Z</time>
      </trkpt>
      <trkpt lat="45.95533" lon="4.75449">
        <ele>187</ele>
        <time>2018-01-14T11:37:59Z</time>
      </trkpt>
      <trkpt lat="45.95529" lon="4.75445">
        <ele>187</ele>
        <time>2018-01-14T11:38:00Z</time>
      </trkpt>
      <trkpt lat="45.95525" lon="4.75441">
        <ele>187</ele>
        <time>2018-01-14T11:38:01Z</time>
      </trkpt>
      <trkpt lat="45.95522" lon="4.75436">
        <ele>187</ele>
        <time>2018-01-14T11:38:02Z</time>
      </trkpt>
      <trkpt lat="45.95519" lon="4.75431">
        <ele>187</ele>
        <time>2018-01-14T11:38:03Z</time>
      </trkpt>
      <trkpt lat="45.95517" lon="4.75424">
        <ele>186</ele>
        <time>2018-01-14T11:38:04Z</time>
      </trkpt>
      <trkpt lat="45.95515" lon="4.75417">
        <ele>186</ele>
        <time>2018-01-14T11:38:05Z</time>
      </trkpt>
      <trkpt lat="45.95514" lon="4.7541">
        <ele>187</ele>
        <time>2018-01-14T11:38:06Z</time>
      </trkpt>
      <trkpt lat="45.95511" lon="4.75404">
        <ele>187</ele>
        <time>2018-01-14T11:38:07Z</time>
      </trkpt>
      <trkpt lat="45.95508" lon="4.75398">
        <ele>188</ele>
        <time>2018-01-14T11:38:08Z</time>
      </trkpt>
      <trkpt lat="45.95506" lon="4.75393">
        <ele>188</ele>
        <time>2018-01-14T11:38:09Z</time>
      </trkpt>
      <trkpt lat="45.95504" lon="4.75386">
        <ele>188</ele>
        <time>2018-01-14T11:38:10Z</time>
      </trkpt>
      <trkpt lat="45.95501" lon="4.75381">
        <ele>188</ele>
        <time>2018-01-14T11:38:11Z</time>
      </trkpt>
      <trkpt lat="45.95499" lon="4.75375">
        <ele>185</ele>
        <time>2018-01-14T11:38:12Z</time>
      </trkpt>
      <trkpt lat="45.95497" lon="4.75368">
        <ele>186</ele>
        <time>2018-01-14T11:38:13Z</time>
      </trkpt>
      <trkpt lat="45.95494" lon="4.75362">
        <ele>186</ele>
        <time>2018-01-14T11:38:14Z</time>
      </trkpt>
      <trkpt lat="45.95492" lon="4.75357">
        <ele>186</ele>
        <time>2018-01-14T11:38:15Z</time>
      </trkpt>
      <trkpt lat="45.95489" lon="4.75352">
        <ele>186</ele>
        <time>2018-01-14T11:38:16Z</time>
      </trkpt>
      <trkpt lat="45.95485" lon="4.75346">
        <ele>187</ele>
        <time>2018-01-14T11:38:17Z</time>
      </trkpt>
      <trkpt lat="45.95481" lon="4.7534">
        <ele>186</ele>
        <time>2018-01-14T11:38:18Z</time>
      </trkpt>
      <trkpt lat="45.95479" lon="4.75334">
        <ele>186</ele>
        <time>2018-01-14T11:38:19Z</time>
      </trkpt>
      <trkpt lat="45.95476" lon="4.75329">
        <ele>188</ele>
        <time>2018-01-14T11:38:20Z</time>
      </trkpt>
      <trkpt lat="45.95472" lon="4.75323">
        <ele>188</ele>
        <time>2018-01-14T11:38:21Z</time>
      </trkpt>
      <trkpt lat="45.95469" lon="4.75317">
        <ele>188</ele>
        <time>2018-01-14T11:38:22Z</time>
      </trkpt>
      <trkpt lat="45.95466" lon="4.75312">
        <ele>188</ele>
        <time>2018-01-14T11:38:23Z</time>
      </trkpt>
      <trkpt lat="45.95463" lon="4.75307">
        <ele>188</ele>
        <time>2018-01-14T11:38:24Z</time>
      </trkpt>
      <trkpt lat="45.9546" lon="4.75303">
        <ele>188</ele>
        <time>2018-01-14T11:38:25Z</time>
      </trkpt>
      <trkpt lat="45.95457" lon="4.75297">
        <ele>188</ele>
        <time>2018-01-14T11:38:26Z</time>
      </trkpt>
      <trkpt lat="45.95454" lon="4.75292">
        <ele>188</ele>
        <time>2018-01-14T11:38:27Z</time>
      </trkpt>
      <trkpt lat="45.95451" lon="4.75286">
        <ele>188</ele>
        <time>2018-01-14T11:38:28Z</time>
      </trkpt>
      <trkpt lat="45.95448" lon="4.75281">
        <ele>189</ele>
        <time>2018-01-14T11:38:29Z</time>
      </trkpt>
      <trkpt lat="45.95444" lon="4.75277">
        <ele>189</ele>
        <time>2018-01-14T11:38:30Z</time>
      </trkpt>
      <trkpt lat="45.95441" lon="4.75269">
        <ele>189</ele>
        <time>2018-01-14T11:38:31Z</time>
      </trkpt>
      <trkpt lat="45.95435" lon="4.75261">
        <ele>189</ele>
        <time>2018-01-14T11:38:33Z</time>
      </trkpt>
      <trkpt lat="45.95432" lon="4.75256">
        <ele>189</ele>
        <time>2018-01-14T11:38:34Z</time>
      </trkpt>
      <trkpt lat="45.95429" lon="4.7525">
        <ele>189</ele>
        <time>2018-01-14T11:38:35Z</time>
      </trkpt>
      <trkpt lat="45.95427" lon="4.75245">
        <ele>190</ele>
        <time>2018-01-14T11:38:36Z</time>
      </trkpt>
      <trkpt lat="45.95424" lon="4.75239">
        <ele>190</ele>
        <time>2018-01-14T11:38:37Z</time>
      </trkpt>
      <trkpt lat="45.95422" lon="4.75233">
        <ele>190</ele>
        <time>2018-01-14T11:38:38Z</time>
      </trkpt>
      <trkpt lat="45.95418" lon="4.75228">
        <ele>191</ele>
        <time>2018-01-14T11:38:39Z</time>
      </trkpt>
      <trkpt lat="45.95414" lon="4.75222">
        <ele>189</ele>
        <time>2018-01-14T11:38:40Z</time>
      </trkpt>
      <trkpt lat="45.9541" lon="4.75217">
        <ele>189</ele>
        <time>2018-01-14T11:38:41Z</time>
      </trkpt>
      <trkpt lat="45.95407" lon="4.75212">
        <ele>189</ele>
        <time>2018-01-14T11:38:42Z</time>
      </trkpt>
      <trkpt lat="45.95404" lon="4.75207">
        <ele>189</ele>
        <time>2018-01-14T11:38:43Z</time>
      </trkpt>
      <trkpt lat="45.95402" lon="4.752">
        <ele>189</ele>
        <time>2018-01-14T11:38:44Z</time>
      </trkpt>
      <trkpt lat="45.95398" lon="4.75195">
        <ele>189</ele>
        <time>2018-01-14T11:38:45Z</time>
      </trkpt>
      <trkpt lat="45.95395" lon="4.75189">
        <ele>189</ele>
        <time>2018-01-14T11:38:46Z</time>
      </trkpt>
      <trkpt lat="45.9539" lon="4.75181">
        <ele>189</ele>
        <time>2018-01-14T11:38:48Z</time>
      </trkpt>
      <trkpt lat="45.95387" lon="4.75175">
        <ele>189</ele>
        <time>2018-01-14T11:38:49Z</time>
      </trkpt>
      <trkpt lat="45.95384" lon="4.7517">
        <ele>189</ele>
        <time>2018-01-14T11:38:50Z</time>
      </trkpt>
      <trkpt lat="45.95381" lon="4.75165">
        <ele>191</ele>
        <time>2018-01-14T11:38:51Z</time>
      </trkpt>
      <trkpt lat="45.95377" lon="4.7516">
        <ele>191</ele>
        <time>2018-01-14T11:38:52Z</time>
      </trkpt>
      <trkpt lat="45.95375" lon="4.75154">
        <ele>191</ele>
        <time>2018-01-14T11:38:53Z</time>
      </trkpt>
      <trkpt lat="45.95371" lon="4.75149">
        <ele>191</ele>
        <time>2018-01-14T11:38:54Z</time>
      </trkpt>
      <trkpt lat="45.95368" lon="4.75144">
        <ele>191</ele>
        <time>2018-01-14T11:38:55Z</time>
      </trkpt>
      <trkpt lat="45.95365" lon="4.75139">
        <ele>191</ele>
        <time>2018-01-14T11:38:56Z</time>
      </trkpt>
      <trkpt lat="45.95361" lon="4.75135">
        <ele>191</ele>
        <time>2018-01-14T11:38:57Z</time>
      </trkpt>
      <trkpt lat="45.95356" lon="4.75124">
        <ele>191</ele>
        <time>2018-01-14T11:38:59Z</time>
      </trkpt>
      <trkpt lat="45.95354" lon="4.7512">
        <ele>191</ele>
        <time>2018-01-14T11:39:00Z</time>
      </trkpt>
      <trkpt lat="45.9535" lon="4.75115">
        <ele>192</ele>
        <time>2018-01-14T11:39:01Z</time>
      </trkpt>
      <trkpt lat="45.95347" lon="4.7511">
        <ele>192</ele>
        <time>2018-01-14T11:39:02Z</time>
      </trkpt>
      <trkpt lat="45.95343" lon="4.75101">
        <ele>192</ele>
        <time>2018-01-14T11:39:04Z</time>
      </trkpt>
      <trkpt lat="45.95339" lon="4.75096">
        <ele>192</ele>
        <time>2018-01-14T11:39:05Z</time>
      </trkpt>
      <trkpt lat="45.95336" lon="4.75091">
        <ele>193</ele>
        <time>2018-01-14T11:39:06Z</time>
      </trkpt>
      <trkpt lat="45.95332" lon="4.75085">
        <ele>193</ele>
        <time>2018-01-14T11:39:07Z</time>
      </trkpt>
      <trkpt lat="45.95328" lon="4.7508">
        <ele>193</ele>
        <time>2018-01-14T11:39:08Z</time>
      </trkpt>
      <trkpt lat="45.95325" lon="4.75076">
        <ele>192</ele>
        <time>2018-01-14T11:39:09Z</time>
      </trkpt>
      <trkpt lat="45.95322" lon="4.75069">
        <ele>192</ele>
        <time>2018-01-14T11:39:10Z</time>
      </trkpt>
      <trkpt lat="45.95319" lon="4.7506">
        <ele>192</ele>
        <time>2018-01-14T11:39:11Z</time>
      </trkpt>
      <trkpt lat="45.95313" lon="4.75051">
        <ele>192</ele>
        <time>2018-01-14T11:39:13Z</time>
      </trkpt>
      <trkpt lat="45.9531" lon="4.75046">
        <ele>192</ele>
        <time>2018-01-14T11:39:14Z</time>
      </trkpt>
      <trkpt lat="45.95307" lon="4.75041">
        <ele>192</ele>
        <time>2018-01-14T11:39:15Z</time>
      </trkpt>
      <trkpt lat="45.95305" lon="4.75035">
        <ele>192</ele>
        <time>2018-01-14T11:39:16Z</time>
      </trkpt>
      <trkpt lat="45.95301" lon="4.75031">
        <ele>192</ele>
        <time>2018-01-14T11:39:17Z</time>
      </trkpt>
      <trkpt lat="45.95298" lon="4.75026">
        <ele>191</ele>
        <time>2018-01-14T11:39:18Z</time>
      </trkpt>
      <trkpt lat="45.95294" lon="4.75021">
        <ele>191</ele>
        <time>2018-01-14T11:39:19Z</time>
      </trkpt>
      <trkpt lat="45.95291" lon="4.75016">
        <ele>191</ele>
        <time>2018-01-14T11:39:20Z</time>
      </trkpt>
      <trkpt lat="45.95288" lon="4.75011">
        <ele>191</ele>
        <time>2018-01-14T11:39:21Z</time>
      </trkpt>
      <trkpt lat="45.95286" lon="4.75003">
        <ele>191</ele>
        <time>2018-01-14T11:39:22Z</time>
      </trkpt>
      <trkpt lat="45.9528" lon="4.74996">
        <ele>192</ele>
        <time>2018-01-14T11:39:24Z</time>
      </trkpt>
      <trkpt lat="45.95276" lon="4.74989">
        <ele>192</ele>
        <time>2018-01-14T11:39:25Z</time>
      </trkpt>
      <trkpt lat="45.95273" lon="4.74984">
        <ele>192</ele>
        <time>2018-01-14T11:39:26Z</time>
      </trkpt>
      <trkpt lat="45.95269" lon="4.74978">
        <ele>192</ele>
        <time>2018-01-14T11:39:27Z</time>
      </trkpt>
      <trkpt lat="45.95265" lon="4.74973">
        <ele>192</ele>
        <time>2018-01-14T11:39:28Z</time>
      </trkpt>
      <trkpt lat="45.95261" lon="4.74968">
        <ele>192</ele>
        <time>2018-01-14T11:39:29Z</time>
      </trkpt>
      <trkpt lat="45.95257" lon="4.74962">
        <ele>192</ele>
        <time>2018-01-14T11:39:30Z</time>
      </trkpt>
      <trkpt lat="45.95254" lon="4.74957">
        <ele>192</ele>
        <time>2018-01-14T11:39:31Z</time>
      </trkpt>
      <trkpt lat="45.95251" lon="4.74951">
        <ele>192</ele>
        <time>2018-01-14T11:39:32Z</time>
      </trkpt>
      <trkpt lat="45.95247" lon="4.74945">
        <ele>192</ele>
        <time>2018-01-14T11:39:33Z</time>
      </trkpt>
      <trkpt lat="45.95242" lon="4.7494">
        <ele>192</ele>
        <time>2018-01-14T11:39:34Z</time>
      </trkpt>
      <trkpt lat="45.95239" lon="4.74935">
        <ele>192</ele>
        <time>2018-01-14T11:39:35Z</time>
      </trkpt>
      <trkpt lat="45.95236" lon="4.7493">
        <ele>192</ele>
        <time>2018-01-14T11:39:36Z</time>
      </trkpt>
      <trkpt lat="45.95231" lon="4.74925">
        <ele>192</ele>
        <time>2018-01-14T11:39:37Z</time>
      </trkpt>
      <trkpt lat="45.95228" lon="4.74919">
        <ele>192</ele>
        <time>2018-01-14T11:39:38Z</time>
      </trkpt>
      <trkpt lat="45.95224" lon="4.74914">
        <ele>193</ele>
        <time>2018-01-14T11:39:39Z</time>
      </trkpt>
      <trkpt lat="45.95221" lon="4.74909">
        <ele>193</ele>
        <time>2018-01-14T11:39:40Z</time>
      </trkpt>
      <trkpt lat="45.95218" lon="4.74903">
        <ele>193</ele>
        <time>2018-01-14T11:39:41Z</time>
      </trkpt>
      <trkpt lat="45.95214" lon="4.74897">
        <ele>193</ele>
        <time>2018-01-14T11:39:42Z</time>
      </trkpt>
      <trkpt lat="45.95211" lon="4.74892">
        <ele>193</ele>
        <time>2018-01-14T11:39:43Z</time>
      </trkpt>
      <trkpt lat="45.95207" lon="4.74887">
        <ele>194</ele>
        <time>2018-01-14T11:39:44Z</time>
      </trkpt>
      <trkpt lat="45.95204" lon="4.74882">
        <ele>194</ele>
        <time>2018-01-14T11:39:45Z</time>
      </trkpt>
      <trkpt lat="45.952" lon="4.74877">
        <ele>194</ele>
        <time>2018-01-14T11:39:46Z</time>
      </trkpt>
      <trkpt lat="45.95197" lon="4.74871">
        <ele>194</ele>
        <time>2018-01-14T11:39:47Z</time>
      </trkpt>
      <trkpt lat="45.95194" lon="4.74866">
        <ele>194</ele>
        <time>2018-01-14T11:39:48Z</time>
      </trkpt>
      <trkpt lat="45.9519" lon="4.74862">
        <ele>194</ele>
        <time>2018-01-14T11:39:49Z</time>
      </trkpt>
      <trkpt lat="45.95187" lon="4.74856">
        <ele>194</ele>
        <time>2018-01-14T11:39:50Z</time>
      </trkpt>
      <trkpt lat="45.95183" lon="4.7485">
        <ele>194</ele>
        <time>2018-01-14T11:39:51Z</time>
      </trkpt>
      <trkpt lat="45.9518" lon="4.74844">
        <ele>194</ele>
        <time>2018-01-14T11:39:52Z</time>
      </trkpt>
      <trkpt lat="45.95174" lon="4.74838">
        <ele>194</ele>
        <time>2018-01-14T11:39:53Z</time>
      </trkpt>
      <trkpt lat="45.95171" lon="4.74832">
        <ele>194</ele>
        <time>2018-01-14T11:39:54Z</time>
      </trkpt>
      <trkpt lat="45.95167" lon="4.74826">
        <ele>194</ele>
        <time>2018-01-14T11:39:55Z</time>
      </trkpt>
      <trkpt lat="45.95164" lon="4.7482">
        <ele>194</ele>
        <time>2018-01-14T11:39:56Z</time>
      </trkpt>
      <trkpt lat="45.95161" lon="4.74814">
        <ele>194</ele>
        <time>2018-01-14T11:39:57Z</time>
      </trkpt>
      <trkpt lat="45.95158" lon="4.74806">
        <ele>194</ele>
        <time>2018-01-14T11:39:58Z</time>
      </trkpt>
      <trkpt lat="45.95154" lon="4.74801">
        <ele>194</ele>
        <time>2018-01-14T11:39:59Z</time>
      </trkpt>
      <trkpt lat="45.95151" lon="4.74796">
        <ele>194</ele>
        <time>2018-01-14T11:40:00Z</time>
      </trkpt>
      <trkpt lat="45.95148" lon="4.74791">
        <ele>194</ele>
        <time>2018-01-14T11:40:01Z</time>
      </trkpt>
      <trkpt lat="45.95145" lon="4.74787">
        <ele>194</ele>
        <time>2018-01-14T11:40:02Z</time>
      </trkpt>
      <trkpt lat="45.95141" lon="4.74782">
        <ele>194</ele>
        <time>2018-01-14T11:40:03Z</time>
      </trkpt>
      <trkpt lat="45.95139" lon="4.74777">
        <ele>194</ele>
        <time>2018-01-14T11:40:04Z</time>
      </trkpt>
      <trkpt lat="45.95135" lon="4.74771">
        <ele>194</ele>
        <time>2018-01-14T11:40:05Z</time>
      </trkpt>
      <trkpt lat="45.95133" lon="4.74764">
        <ele>194</ele>
        <time>2018-01-14T11:40:06Z</time>
      </trkpt>
      <trkpt lat="45.95129" lon="4.74759">
        <ele>194</ele>
        <time>2018-01-14T11:40:07Z</time>
      </trkpt>
      <trkpt lat="45.95125" lon="4.74752">
        <ele>194</ele>
        <time>2018-01-14T11:40:08Z</time>
      </trkpt>
      <trkpt lat="45.95121" lon="4.74745">
        <ele>194</ele>
        <time>2018-01-14T11:40:09Z</time>
      </trkpt>
      <trkpt lat="45.95118" lon="4.74738">
        <ele>194</ele>
        <time>2018-01-14T11:40:10Z</time>
      </trkpt>
      <trkpt lat="45.95116" lon="4.74731">
        <ele>194</ele>
        <time>2018-01-14T11:40:11Z</time>
      </trkpt>
      <trkpt lat="45.95112" lon="4.74725">
        <ele>194</ele>
        <time>2018-01-14T11:40:12Z</time>
      </trkpt>
      <trkpt lat="45.95108" lon="4.74718">
        <ele>194</ele>
        <time>2018-01-14T11:40:13Z</time>
      </trkpt>
      <trkpt lat="45.95106" lon="4.74711">
        <ele>194</ele>
        <time>2018-01-14T11:40:14Z</time>
      </trkpt>
      <trkpt lat="45.95103" lon="4.74706">
        <ele>194</ele>
        <time>2018-01-14T11:40:15Z</time>
      </trkpt>
      <trkpt lat="45.95099" lon="4.74701">
        <ele>194</ele>
        <time>2018-01-14T11:40:16Z</time>
      </trkpt>
      <trkpt lat="45.95096" lon="4.74697">
        <ele>194</ele>
        <time>2018-01-14T11:40:17Z</time>
      </trkpt>
      <trkpt lat="45.95092" lon="4.74693">
        <ele>194</ele>
        <time>2018-01-14T11:40:18Z</time>
      </trkpt>
      <trkpt lat="45.95088" lon="4.74689">
        <ele>195</ele>
        <time>2018-01-14T11:40:19Z</time>
      </trkpt>
      <trkpt lat="45.95083" lon="4.74678">
        <ele>194</ele>
        <time>2018-01-14T11:40:21Z</time>
      </trkpt>
      <trkpt lat="45.95079" lon="4.74672">
        <ele>195</ele>
        <time>2018-01-14T11:40:22Z</time>
      </trkpt>
      <trkpt lat="45.95075" lon="4.74664">
        <ele>195</ele>
        <time>2018-01-14T11:40:23Z</time>
      </trkpt>
      <trkpt lat="45.95071" lon="4.74657">
        <ele>195</ele>
        <time>2018-01-14T11:40:24Z</time>
      </trkpt>
      <trkpt lat="45.95068" lon="4.74652">
        <ele>195</ele>
        <time>2018-01-14T11:40:25Z</time>
      </trkpt>
      <trkpt lat="45.95064" lon="4.74646">
        <ele>195</ele>
        <time>2018-01-14T11:40:26Z</time>
      </trkpt>
      <trkpt lat="45.9506" lon="4.7464">
        <ele>194</ele>
        <time>2018-01-14T11:40:27Z</time>
      </trkpt>
      <trkpt lat="45.95057" lon="4.74633">
        <ele>194</ele>
        <time>2018-01-14T11:40:28Z</time>
      </trkpt>
      <trkpt lat="45.95053" lon="4.74625">
        <ele>194</ele>
        <time>2018-01-14T11:40:29Z</time>
      </trkpt>
      <trkpt lat="45.9505" lon="4.74619">
        <ele>194</ele>
        <time>2018-01-14T11:40:30Z</time>
      </trkpt>
      <trkpt lat="45.95046" lon="4.74613">
        <ele>194</ele>
        <time>2018-01-14T11:40:31Z</time>
      </trkpt>
      <trkpt lat="45.95042" lon="4.74605">
        <ele>194</ele>
        <time>2018-01-14T11:40:32Z</time>
      </trkpt>
      <trkpt lat="45.95039" lon="4.74599">
        <ele>194</ele>
        <time>2018-01-14T11:40:33Z</time>
      </trkpt>
      <trkpt lat="45.95035" lon="4.74593">
        <ele>194</ele>
        <time>2018-01-14T11:40:34Z</time>
      </trkpt>
      <trkpt lat="45.95031" lon="4.74588">
        <ele>194</ele>
        <time>2018-01-14T11:40:35Z</time>
      </trkpt>
      <trkpt lat="45.95026" lon="4.74581">
        <ele>194</ele>
        <time>2018-01-14T11:40:36Z</time>
      </trkpt>
      <trkpt lat="45.95023" lon="4.74573">
        <ele>194</ele>
        <time>2018-01-14T11:40:37Z</time>
      </trkpt>
      <trkpt lat="45.95019" lon="4.74566">
        <ele>194</ele>
        <time>2018-01-14T11:40:38Z</time>
      </trkpt>
      <trkpt lat="45.95015" lon="4.74559">
        <ele>194</ele>
        <time>2018-01-14T11:40:39Z</time>
      </trkpt>
      <trkpt lat="45.9501" lon="4.74552">
        <ele>194</ele>
        <time>2018-01-14T11:40:40Z</time>
      </trkpt>
      <trkpt lat="45.95008" lon="4.74546">
        <ele>194</ele>
        <time>2018-01-14T11:40:41Z</time>
      </trkpt>
      <trkpt lat="45.95005" lon="4.74538">
        <ele>194</ele>
        <time>2018-01-14T11:40:42Z</time>
      </trkpt>
      <trkpt lat="45.95002" lon="4.74532">
        <ele>194</ele>
        <time>2018-01-14T11:40:43Z</time>
      </trkpt>
      <trkpt lat="45.94999" lon="4.74526">
        <ele>193</ele>
        <time>2018-01-14T11:40:44Z</time>
      </trkpt>
      <trkpt lat="45.94994" lon="4.74519">
        <ele>193</ele>
        <time>2018-01-14T11:40:45Z</time>
      </trkpt>
      <trkpt lat="45.94991" lon="4.74513">
        <ele>193</ele>
        <time>2018-01-14T11:40:46Z</time>
      </trkpt>
      <trkpt lat="45.94987" lon="4.74507">
        <ele>193</ele>
        <time>2018-01-14T11:40:47Z</time>
      </trkpt>
      <trkpt lat="45.94982" lon="4.745">
        <ele>193</ele>
        <time>2018-01-14T11:40:48Z</time>
      </trkpt>
      <trkpt lat="45.94978" lon="4.74492">
        <ele>193</ele>
        <time>2018-01-14T11:40:49Z</time>
      </trkpt>
      <trkpt lat="45.94974" lon="4.74486">
        <ele>193</ele>
        <time>2018-01-14T11:40:50Z</time>
      </trkpt>
      <trkpt lat="45.9497" lon="4.74478">
        <ele>193</ele>
        <time>2018-01-14T11:40:51Z</time>
      </trkpt>
      <trkpt lat="45.94967" lon="4.74472">
        <ele>193</ele>
        <time>2018-01-14T11:40:52Z</time>
      </trkpt>
      <trkpt lat="45.94963" lon="4.74465">
        <ele>193</ele>
        <time>2018-01-14T11:40:53Z</time>
      </trkpt>
      <trkpt lat="45.94957" lon="4.74458">
        <ele>192</ele>
        <time>2018-01-14T11:40:54Z</time>
      </trkpt>
      <trkpt lat="45.94954" lon="4.74451">
        <ele>192</ele>
        <time>2018-01-14T11:40:55Z</time>
      </trkpt>
      <trkpt lat="45.94952" lon="4.74444">
        <ele>192</ele>
        <time>2018-01-14T11:40:56Z</time>
      </trkpt>
      <trkpt lat="45.94948" lon="4.74437">
        <ele>192</ele>
        <time>2018-01-14T11:40:57Z</time>
      </trkpt>
      <trkpt lat="45.94944" lon="4.74429">
        <ele>192</ele>
        <time>2018-01-14T11:40:58Z</time>
      </trkpt>
      <trkpt lat="45.9494" lon="4.7442">
        <ele>192</ele>
        <time>2018-01-14T11:40:59Z</time>
      </trkpt>
      <trkpt lat="45.94937" lon="4.74413">
        <ele>192</ele>
        <time>2018-01-14T11:41:00Z</time>
      </trkpt>
      <trkpt lat="45.94934" lon="4.74406">
        <ele>192</ele>
        <time>2018-01-14T11:41:01Z</time>
      </trkpt>
      <trkpt lat="45.9493" lon="4.744">
        <ele>192</ele>
        <time>2018-01-14T11:41:02Z</time>
      </trkpt>
      <trkpt lat="45.94927" lon="4.74393">
        <ele>192</ele>
        <time>2018-01-14T11:41:03Z</time>
      </trkpt>
      <trkpt lat="45.94923" lon="4.74386">
        <ele>192</ele>
        <time>2018-01-14T11:41:04Z</time>
      </trkpt>
      <trkpt lat="45.94919" lon="4.7438">
        <ele>192</ele>
        <time>2018-01-14T11:41:05Z</time>
      </trkpt>
      <trkpt lat="45.94914" lon="4.7437">
        <ele>191</ele>
        <time>2018-01-14T11:41:06Z</time>
      </trkpt>
      <trkpt lat="45.94912" lon="4.74363">
        <ele>191</ele>
        <time>2018-01-14T11:41:07Z</time>
      </trkpt>
      <trkpt lat="45.94909" lon="4.74356">
        <ele>191</ele>
        <time>2018-01-14T11:41:08Z</time>
      </trkpt>
      <trkpt lat="45.94907" lon="4.74348">
        <ele>191</ele>
        <time>2018-01-14T11:41:09Z</time>
      </trkpt>
      <trkpt lat="45.94904" lon="4.74343">
        <ele>191</ele>
        <time>2018-01-14T11:41:10Z</time>
      </trkpt>
      <trkpt lat="45.949" lon="4.74336">
        <ele>191</ele>
        <time>2018-01-14T11:41:11Z</time>
      </trkpt>
      <trkpt lat="45.94896" lon="4.74329">
        <ele>191</ele>
        <time>2018-01-14T11:41:12Z</time>
      </trkpt>
      <trkpt lat="45.94892" lon="4.74322">
        <ele>191</ele>
        <time>2018-01-14T11:41:13Z</time>
      </trkpt>
      <trkpt lat="45.94889" lon="4.74315">
        <ele>191</ele>
        <time>2018-01-14T11:41:14Z</time>
      </trkpt>
      <trkpt lat="45.94885" lon="4.74308">
        <ele>191</ele>
        <time>2018-01-14T11:41:15Z</time>
      </trkpt>
      <trkpt lat="45.94882" lon="4.74301">
        <ele>191</ele>
        <time>2018-01-14T11:41:16Z</time>
      </trkpt>
      <trkpt lat="45.94878" lon="4.74294">
        <ele>191</ele>
        <time>2018-01-14T11:41:17Z</time>
      </trkpt>
      <trkpt lat="45.94873" lon="4.74285">
        <ele>191</ele>
        <time>2018-01-14T11:41:18Z</time>
      </trkpt>
      <trkpt lat="45.9487" lon="4.74277">
        <ele>191</ele>
        <time>2018-01-14T11:41:19Z</time>
      </trkpt>
      <trkpt lat="45.94867" lon="4.74271">
        <ele>191</ele>
        <time>2018-01-14T11:41:20Z</time>
      </trkpt>
      <trkpt lat="45.94863" lon="4.74265">
        <ele>190</ele>
        <time>2018-01-14T11:41:21Z</time>
      </trkpt>
      <trkpt lat="45.94859" lon="4.7426">
        <ele>190</ele>
        <time>2018-01-14T11:41:22Z</time>
      </trkpt>
      <trkpt lat="45.94855" lon="4.74253">
        <ele>190</ele>
        <time>2018-01-14T11:41:23Z</time>
      </trkpt>
      <trkpt lat="45.94853" lon="4.74245">
        <ele>190</ele>
        <time>2018-01-14T11:41:24Z</time>
      </trkpt>
      <trkpt lat="45.9485" lon="4.74238">
        <ele>190</ele>
        <time>2018-01-14T11:41:25Z</time>
      </trkpt>
      <trkpt lat="45.94849" lon="4.7423">
        <ele>190</ele>
        <time>2018-01-14T11:41:26Z</time>
      </trkpt>
      <trkpt lat="45.94845" lon="4.74222">
        <ele>190</ele>
        <time>2018-01-14T11:41:27Z</time>
      </trkpt>
      <trkpt lat="45.94842" lon="4.74216">
        <ele>190</ele>
        <time>2018-01-14T11:41:28Z</time>
      </trkpt>
      <trkpt lat="45.94837" lon="4.7421">
        <ele>190</ele>
        <time>2018-01-14T11:41:29Z</time>
      </trkpt>
      <trkpt lat="45.94832" lon="4.74204">
        <ele>189</ele>
        <time>2018-01-14T11:41:30Z</time>
      </trkpt>
      <trkpt lat="45.94828" lon="4.74198">
        <ele>189</ele>
        <time>2018-01-14T11:41:31Z</time>
      </trkpt>
      <trkpt lat="45.94824" lon="4.74193">
        <ele>189</ele>
        <time>2018-01-14T11:41:32Z</time>
      </trkpt>
      <trkpt lat="45.94821" lon="4.74187">
        <ele>189</ele>
        <time>2018-01-14T11:41:33Z</time>
      </trkpt>
      <trkpt lat="45.94817" lon="4.74181">
        <ele>189</ele>
        <time>2018-01-14T11:41:34Z</time>
      </trkpt>
      <trkpt lat="45.94814" lon="4.74176">
        <ele>189</ele>
        <time>2018-01-14T11:41:35Z</time>
      </trkpt>
      <trkpt lat="45.9481" lon="4.7417">
        <ele>189</ele>
        <time>2018-01-14T11:41:36Z</time>
      </trkpt>
      <trkpt lat="45.94806" lon="4.74164">
        <ele>189</ele>
        <time>2018-01-14T11:41:37Z</time>
      </trkpt>
      <trkpt lat="45.94803" lon="4.74159">
        <ele>189</ele>
        <time>2018-01-14T11:41:38Z</time>
      </trkpt>
      <trkpt lat="45.948" lon="4.74152">
        <ele>189</ele>
        <time>2018-01-14T11:41:39Z</time>
      </trkpt>
      <trkpt lat="45.94796" lon="4.74145">
        <ele>189</ele>
        <time>2018-01-14T11:41:40Z</time>
      </trkpt>
      <trkpt lat="45.94792" lon="4.74139">
        <ele>189</ele>
        <time>2018-01-14T11:41:41Z</time>
      </trkpt>
      <trkpt lat="45.94788" lon="4.74132">
        <ele>189</ele>
        <time>2018-01-14T11:41:42Z</time>
      </trkpt>
      <trkpt lat="45.94785" lon="4.74127">
        <ele>189</ele>
        <time>2018-01-14T11:41:43Z</time>
      </trkpt>
      <trkpt lat="45.94781" lon="4.74122">
        <ele>189</ele>
        <time>2018-01-14T11:41:44Z</time>
      </trkpt>
      <trkpt lat="45.94777" lon="4.74116">
        <ele>189</ele>
        <time>2018-01-14T11:41:45Z</time>
      </trkpt>
      <trkpt lat="45.94772" lon="4.74111">
        <ele>189</ele>
        <time>2018-01-14T11:41:46Z</time>
      </trkpt>
      <trkpt lat="45.94768" lon="4.74105">
        <ele>189</ele>
        <time>2018-01-14T11:41:47Z</time>
      </trkpt>
      <trkpt lat="45.94763" lon="4.741">
        <ele>189</ele>
        <time>2018-01-14T11:41:48Z</time>
      </trkpt>
      <trkpt lat="45.94759" lon="4.74095">
        <ele>189</ele>
        <time>2018-01-14T11:41:49Z</time>
      </trkpt>
      <trkpt lat="45.94755" lon="4.74089">
        <ele>189</ele>
        <time>2018-01-14T11:41:50Z</time>
      </trkpt>
      <trkpt lat="45.94751" lon="4.74083">
        <ele>189</ele>
        <time>2018-01-14T11:41:51Z</time>
      </trkpt>
      <trkpt lat="45.94748" lon="4.74079">
        <ele>189</ele>
        <time>2018-01-14T11:41:52Z</time>
      </trkpt>
      <trkpt lat="45.94744" lon="4.74075">
        <ele>188</ele>
        <time>2018-01-14T11:41:53Z</time>
      </trkpt>
      <trkpt lat="45.9474" lon="4.7407">
        <ele>188</ele>
        <time>2018-01-14T11:41:54Z</time>
      </trkpt>
      <trkpt lat="45.94736" lon="4.74065">
        <ele>188</ele>
        <time>2018-01-14T11:41:55Z</time>
      </trkpt>
      <trkpt lat="45.94733" lon="4.74059">
        <ele>188</ele>
        <time>2018-01-14T11:41:56Z</time>
      </trkpt>
      <trkpt lat="45.94729" lon="4.74053">
        <ele>188</ele>
        <time>2018-01-14T11:41:57Z</time>
      </trkpt>
      <trkpt lat="45.94724" lon="4.74048">
        <ele>187</ele>
        <time>2018-01-14T11:41:58Z</time>
      </trkpt>
      <trkpt lat="45.9472" lon="4.74042">
        <ele>187</ele>
        <time>2018-01-14T11:41:59Z</time>
      </trkpt>
      <trkpt lat="45.94717" lon="4.74038">
        <ele>187</ele>
        <time>2018-01-14T11:42:00Z</time>
      </trkpt>
      <trkpt lat="45.94711" lon="4.7403">
        <ele>187</ele>
        <time>2018-01-14T11:42:02Z</time>
      </trkpt>
      <trkpt lat="45.94707" lon="4.74026">
        <ele>187</ele>
        <time>2018-01-14T11:42:03Z</time>
      </trkpt>
      <trkpt lat="45.94703" lon="4.74022">
        <ele>187</ele>
        <time>2018-01-14T11:42:04Z</time>
      </trkpt>
      <trkpt lat="45.947" lon="4.74017">
        <ele>187</ele>
        <time>2018-01-14T11:42:05Z</time>
      </trkpt>
      <trkpt lat="45.94697" lon="4.74012">
        <ele>187</ele>
        <time>2018-01-14T11:42:06Z</time>
      </trkpt>
      <trkpt lat="45.94693" lon="4.74007">
        <ele>187</ele>
        <time>2018-01-14T11:42:07Z</time>
      </trkpt>
      <trkpt lat="45.94691" lon="4.74002">
        <ele>187</ele>
        <time>2018-01-14T11:42:08Z</time>
      </trkpt>
      <trkpt lat="45.94686" lon="4.73999">
        <ele>187</ele>
        <time>2018-01-14T11:42:09Z</time>
      </trkpt>
      <trkpt lat="45.94682" lon="4.73993">
        <ele>187</ele>
        <time>2018-01-14T11:42:10Z</time>
      </trkpt>
      <trkpt lat="45.94678" lon="4.73989">
        <ele>187</ele>
        <time>2018-01-14T11:42:11Z</time>
      </trkpt>
      <trkpt lat="45.94674" lon="4.73983">
        <ele>187</ele>
        <time>2018-01-14T11:42:12Z</time>
      </trkpt>
      <trkpt lat="45.9467" lon="4.73979">
        <ele>187</ele>
        <time>2018-01-14T11:42:13Z</time>
      </trkpt>
      <trkpt lat="45.94667" lon="4.73974">
        <ele>187</ele>
        <time>2018-01-14T11:42:14Z</time>
      </trkpt>
      <trkpt lat="45.94663" lon="4.73969">
        <ele>187</ele>
        <time>2018-01-14T11:42:15Z</time>
      </trkpt>
      <trkpt lat="45.94659" lon="4.73963">
        <ele>187</ele>
        <time>2018-01-14T11:42:16Z</time>
      </trkpt>
      <trkpt lat="45.94655" lon="4.73959">
        <ele>187</ele>
        <time>2018-01-14T11:42:17Z</time>
      </trkpt>
      <trkpt lat="45.94651" lon="4.73952">
        <ele>187</ele>
        <time>2018-01-14T11:42:18Z</time>
      </trkpt>
      <trkpt lat="45.94648" lon="4.73947">
        <ele>187</ele>
        <time>2018-01-14T11:42:19Z</time>
      </trkpt>
      <trkpt lat="45.94644" lon="4.73943">
        <ele>187</ele>
        <time>2018-01-14T11:42:20Z</time>
      </trkpt>
      <trkpt lat="45.9464" lon="4.73938">
        <ele>187</ele>
        <time>2018-01-14T11:42:21Z</time>
      </trkpt>
      <trkpt lat="45.94636" lon="4.73933">
        <ele>187</ele>
        <time>2018-01-14T11:42:22Z</time>
      </trkpt>
      <trkpt lat="45.94631" lon="4.73927">
        <ele>187</ele>
        <time>2018-01-14T11:42:23Z</time>
      </trkpt>
      <trkpt lat="45.94627" lon="4.73922">
        <ele>187</ele>
        <time>2018-01-14T11:42:24Z</time>
      </trkpt>
      <trkpt lat="45.94623" lon="4.73917">
        <ele>187</ele>
        <time>2018-01-14T11:42:25Z</time>
      </trkpt>
      <trkpt lat="45.94619" lon="4.73911">
        <ele>187</ele>
        <time>2018-01-14T11:42:26Z</time>
      </trkpt>
      <trkpt lat="45.94614" lon="4.73906">
        <ele>187</ele>
        <time>2018-01-14T11:42:27Z</time>
      </trkpt>
      <trkpt lat="45.94609" lon="4.739">
        <ele>187</ele>
        <time>2018-01-14T11:42:28Z</time>
      </trkpt>
      <trkpt lat="45.94604" lon="4.73895">
        <ele>187</ele>
        <time>2018-01-14T11:42:29Z</time>
      </trkpt>
      <trkpt lat="45.946" lon="4.73889">
        <ele>187</ele>
        <time>2018-01-14T11:42:30Z</time>
      </trkpt>
      <trkpt lat="45.94595" lon="4.73885">
        <ele>187</ele>
        <time>2018-01-14T11:42:31Z</time>
      </trkpt>
      <trkpt lat="45.94591" lon="4.73879">
        <ele>187</ele>
        <time>2018-01-14T11:42:32Z</time>
      </trkpt>
      <trkpt lat="45.94586" lon="4.73873">
        <ele>187</ele>
        <time>2018-01-14T11:42:33Z</time>
      </trkpt>
      <trkpt lat="45.94582" lon="4.73868">
        <ele>186</ele>
        <time>2018-01-14T11:42:34Z</time>
      </trkpt>
      <trkpt lat="45.94578" lon="4.73863">
        <ele>186</ele>
        <time>2018-01-14T11:42:35Z</time>
      </trkpt>
      <trkpt lat="45.94574" lon="4.73858">
        <ele>186</ele>
        <time>2018-01-14T11:42:36Z</time>
      </trkpt>
      <trkpt lat="45.9457" lon="4.73853">
        <ele>186</ele>
        <time>2018-01-14T11:42:37Z</time>
      </trkpt>
      <trkpt lat="45.94566" lon="4.73849">
        <ele>186</ele>
        <time>2018-01-14T11:42:38Z</time>
      </trkpt>
      <trkpt lat="45.94562" lon="4.73845">
        <ele>186</ele>
        <time>2018-01-14T11:42:39Z</time>
      </trkpt>
      <trkpt lat="45.94558" lon="4.7384">
        <ele>186</ele>
        <time>2018-01-14T11:42:40Z</time>
      </trkpt>
      <trkpt lat="45.94553" lon="4.73837">
        <ele>186</ele>
        <time>2018-01-14T11:42:41Z</time>
      </trkpt>
      <trkpt lat="45.94547" lon="4.73833">
        <ele>186</ele>
        <time>2018-01-14T11:42:42Z</time>
      </trkpt>
      <trkpt lat="45.94542" lon="4.73828">
        <ele>186</ele>
        <time>2018-01-14T11:42:43Z</time>
      </trkpt>
      <trkpt lat="45.94538" lon="4.73822">
        <ele>186</ele>
        <time>2018-01-14T11:42:44Z</time>
      </trkpt>
      <trkpt lat="45.94533" lon="4.73818">
        <ele>186</ele>
        <time>2018-01-14T11:42:45Z</time>
      </trkpt>
      <trkpt lat="45.94529" lon="4.73814">
        <ele>186</ele>
        <time>2018-01-14T11:42:46Z</time>
      </trkpt>
      <trkpt lat="45.94525" lon="4.73809">
        <ele>186</ele>
        <time>2018-01-14T11:42:47Z</time>
      </trkpt>
      <trkpt lat="45.94521" lon="4.73804">
        <ele>186</ele>
        <time>2018-01-14T11:42:48Z</time>
      </trkpt>
      <trkpt lat="45.94518" lon="4.738">
        <ele>186</ele>
        <time>2018-01-14T11:42:49Z</time>
      </trkpt>
      <trkpt lat="45.94513" lon="4.73796">
        <ele>186</ele>
        <time>2018-01-14T11:42:50Z</time>
      </trkpt>
      <trkpt lat="45.94508" lon="4.73792">
        <ele>186</ele>
        <time>2018-01-14T11:42:51Z</time>
      </trkpt>
      <trkpt lat="45.94503" lon="4.73786">
        <ele>186</ele>
        <time>2018-01-14T11:42:52Z</time>
      </trkpt>
      <trkpt lat="45.94499" lon="4.73781">
        <ele>186</ele>
        <time>2018-01-14T11:42:53Z</time>
      </trkpt>
      <trkpt lat="45.94495" lon="4.73776">
        <ele>186</ele>
        <time>2018-01-14T11:42:54Z</time>
      </trkpt>
      <trkpt lat="45.94493" lon="4.73768">
        <ele>186</ele>
        <time>2018-01-14T11:42:55Z</time>
      </trkpt>
      <trkpt lat="45.94488" lon="4.73762">
        <ele>186</ele>
        <time>2018-01-14T11:42:56Z</time>
      </trkpt>
      <trkpt lat="45.94488" lon="4.73756">
        <ele>186</ele>
        <time>2018-01-14T11:42:57Z</time>
      </trkpt>
      <trkpt lat="45.94487" lon="4.73748">
        <ele>186</ele>
        <time>2018-01-14T11:42:58Z</time>
      </trkpt>
      <trkpt lat="45.94486" lon="4.73741">
        <ele>186</ele>
        <time>2018-01-14T11:42:59Z</time>
      </trkpt>
      <trkpt lat="45.94487" lon="4.73734">
        <ele>186</ele>
        <time>2018-01-14T11:43:00Z</time>
      </trkpt>
      <trkpt lat="45.94488" lon="4.73727">
        <ele>186</ele>
        <time>2018-01-14T11:43:01Z</time>
      </trkpt>
      <trkpt lat="45.94487" lon="4.73719">
        <ele>186</ele>
        <time>2018-01-14T11:43:02Z</time>
      </trkpt>
      <trkpt lat="45.94488" lon="4.73713">
        <ele>186</ele>
        <time>2018-01-14T11:43:03Z</time>
      </trkpt>
      <trkpt lat="45.9449" lon="4.73705">
        <ele>186</ele>
        <time>2018-01-14T11:43:04Z</time>
      </trkpt>
      <trkpt lat="45.9449" lon="4.73698">
        <ele>186</ele>
        <time>2018-01-14T11:43:05Z</time>
      </trkpt>
      <trkpt lat="45.94491" lon="4.7369">
        <ele>186</ele>
        <time>2018-01-14T11:43:06Z</time>
      </trkpt>
      <trkpt lat="45.94491" lon="4.73683">
        <ele>186</ele>
        <time>2018-01-14T11:43:07Z</time>
      </trkpt>
      <trkpt lat="45.94493" lon="4.73674">
        <ele>185</ele>
        <time>2018-01-14T11:43:08Z</time>
      </trkpt>
      <trkpt lat="45.94495" lon="4.73666">
        <ele>185</ele>
        <time>2018-01-14T11:43:09Z</time>
      </trkpt>
      <trkpt lat="45.94496" lon="4.7366">
        <ele>185</ele>
        <time>2018-01-14T11:43:10Z</time>
      </trkpt>
      <trkpt lat="45.94497" lon="4.73651">
        <ele>185</ele>
        <time>2018-01-14T11:43:11Z</time>
      </trkpt>
      <trkpt lat="45.94498" lon="4.73644">
        <ele>186</ele>
        <time>2018-01-14T11:43:12Z</time>
      </trkpt>
      <trkpt lat="45.94499" lon="4.73635">
        <ele>186</ele>
        <time>2018-01-14T11:43:13Z</time>
      </trkpt>
      <trkpt lat="45.94499" lon="4.73627">
        <ele>186</ele>
        <time>2018-01-14T11:43:14Z</time>
      </trkpt>
      <trkpt lat="45.94499" lon="4.73619">
        <ele>186</ele>
        <time>2018-01-14T11:43:15Z</time>
      </trkpt>
      <trkpt lat="45.94501" lon="4.73609">
        <ele>184</ele>
        <time>2018-01-14T11:43:16Z</time>
      </trkpt>
      <trkpt lat="45.94501" lon="4.73602">
        <ele>184</ele>
        <time>2018-01-14T11:43:17Z</time>
      </trkpt>
      <trkpt lat="45.94503" lon="4.73593">
        <ele>185</ele>
        <time>2018-01-14T11:43:18Z</time>
      </trkpt>
      <trkpt lat="45.94503" lon="4.73584">
        <ele>185</ele>
        <time>2018-01-14T11:43:19Z</time>
      </trkpt>
      <trkpt lat="45.94502" lon="4.73577">
        <ele>184</ele>
        <time>2018-01-14T11:43:20Z</time>
      </trkpt>
      <trkpt lat="45.94503" lon="4.73568">
        <ele>184</ele>
        <time>2018-01-14T11:43:21Z</time>
      </trkpt>
      <trkpt lat="45.94505" lon="4.73556">
        <ele>183</ele>
        <time>2018-01-14T11:43:22Z</time>
      </trkpt>
      <trkpt lat="45.94505" lon="4.73548">
        <ele>183</ele>
        <time>2018-01-14T11:43:23Z</time>
      </trkpt>
      <trkpt lat="45.94506" lon="4.73539">
        <ele>183</ele>
        <time>2018-01-14T11:43:24Z</time>
      </trkpt>
      <trkpt lat="45.94506" lon="4.73531">
        <ele>183</ele>
        <time>2018-01-14T11:43:25Z</time>
      </trkpt>
      <trkpt lat="45.94506" lon="4.73522">
        <ele>183</ele>
        <time>2018-01-14T11:43:26Z</time>
      </trkpt>
      <trkpt lat="45.94506" lon="4.73513">
        <ele>183</ele>
        <time>2018-01-14T11:43:27Z</time>
      </trkpt>
      <trkpt lat="45.94507" lon="4.73503">
        <ele>183</ele>
        <time>2018-01-14T11:43:28Z</time>
      </trkpt>
      <trkpt lat="45.94506" lon="4.73494">
        <ele>182</ele>
        <time>2018-01-14T11:43:29Z</time>
      </trkpt>
      <trkpt lat="45.94506" lon="4.73484">
        <ele>182</ele>
        <time>2018-01-14T11:43:30Z</time>
      </trkpt>
      <trkpt lat="45.94507" lon="4.73475">
        <ele>182</ele>
        <time>2018-01-14T11:43:31Z</time>
      </trkpt>
      <trkpt lat="45.94505" lon="4.73467">
        <ele>181</ele>
        <time>2018-01-14T11:43:32Z</time>
      </trkpt>
      <trkpt lat="45.94505" lon="4.73459">
        <ele>181</ele>
        <time>2018-01-14T11:43:33Z</time>
      </trkpt>
      <trkpt lat="45.94505" lon="4.73448">
        <ele>181</ele>
        <time>2018-01-14T11:43:34Z</time>
      </trkpt>
      <trkpt lat="45.94505" lon="4.73441">
        <ele>181</ele>
        <time>2018-01-14T11:43:35Z</time>
      </trkpt>
      <trkpt lat="45.94505" lon="4.7343">
        <ele>180</ele>
        <time>2018-01-14T11:43:36Z</time>
      </trkpt>
      <trkpt lat="45.94504" lon="4.73421">
        <ele>180</ele>
        <time>2018-01-14T11:43:37Z</time>
      </trkpt>
      <trkpt lat="45.94504" lon="4.7341">
        <ele>180</ele>
        <time>2018-01-14T11:43:38Z</time>
      </trkpt>
      <trkpt lat="45.94503" lon="4.734">
        <ele>179</ele>
        <time>2018-01-14T11:43:39Z</time>
      </trkpt>
      <trkpt lat="45.94503" lon="4.7339">
        <ele>179</ele>
        <time>2018-01-14T11:43:40Z</time>
      </trkpt>
      <trkpt lat="45.94502" lon="4.7338">
        <ele>178</ele>
        <time>2018-01-14T11:43:41Z</time>
      </trkpt>
      <trkpt lat="45.94501" lon="4.73369">
        <ele>178</ele>
        <time>2018-01-14T11:43:42Z</time>
      </trkpt>
      <trkpt lat="45.945" lon="4.73359">
        <ele>178</ele>
        <time>2018-01-14T11:43:43Z</time>
      </trkpt>
      <trkpt lat="45.94499" lon="4.73348">
        <ele>178</ele>
        <time>2018-01-14T11:43:44Z</time>
      </trkpt>
      <trkpt lat="45.94499" lon="4.73338">
        <ele>177</ele>
        <time>2018-01-14T11:43:45Z</time>
      </trkpt>
      <trkpt lat="45.94498" lon="4.73328">
        <ele>177</ele>
        <time>2018-01-14T11:43:46Z</time>
      </trkpt>
      <trkpt lat="45.94496" lon="4.73317">
        <ele>177</ele>
        <time>2018-01-14T11:43:47Z</time>
      </trkpt>
      <trkpt lat="45.94495" lon="4.73307">
        <ele>177</ele>
        <time>2018-01-14T11:43:48Z</time>
      </trkpt>
      <trkpt lat="45.94494" lon="4.73297">
        <ele>177</ele>
        <time>2018-01-14T11:43:49Z</time>
      </trkpt>
      <trkpt lat="45.94492" lon="4.73287">
        <ele>177</ele>
        <time>2018-01-14T11:43:50Z</time>
      </trkpt>
      <trkpt lat="45.94491" lon="4.73277">
        <ele>177</ele>
        <time>2018-01-14T11:43:51Z</time>
      </trkpt>
      <trkpt lat="45.94489" lon="4.73266">
        <ele>176</ele>
        <time>2018-01-14T11:43:52Z</time>
      </trkpt>
      <trkpt lat="45.94487" lon="4.73255">
        <ele>176</ele>
        <time>2018-01-14T11:43:53Z</time>
      </trkpt>
      <trkpt lat="45.94486" lon="4.73243">
        <ele>175</ele>
        <time>2018-01-14T11:43:54Z</time>
      </trkpt>
      <trkpt lat="45.94484" lon="4.73234">
        <ele>175</ele>
        <time>2018-01-14T11:43:55Z</time>
      </trkpt>
      <trkpt lat="45.94483" lon="4.73225">
        <ele>175</ele>
        <time>2018-01-14T11:43:56Z</time>
      </trkpt>
      <trkpt lat="45.9448" lon="4.73215">
        <ele>175</ele>
        <time>2018-01-14T11:43:57Z</time>
      </trkpt>
      <trkpt lat="45.94479" lon="4.73205">
        <ele>175</ele>
        <time>2018-01-14T11:43:58Z</time>
      </trkpt>
      <trkpt lat="45.94477" lon="4.73195">
        <ele>174</ele>
        <time>2018-01-14T11:43:59Z</time>
      </trkpt>
      <trkpt lat="45.94478" lon="4.73183">
        <ele>174</ele>
        <time>2018-01-14T11:44:00Z</time>
      </trkpt>
      <trkpt lat="45.94477" lon="4.73172">
        <ele>174</ele>
        <time>2018-01-14T11:44:01Z</time>
      </trkpt>
      <trkpt lat="45.94475" lon="4.73163">
        <ele>173</ele>
        <time>2018-01-14T11:44:02Z</time>
      </trkpt>
      <trkpt lat="45.94472" lon="4.73151">
        <ele>172</ele>
        <time>2018-01-14T11:44:03Z</time>
      </trkpt>
      <trkpt lat="45.94471" lon="4.73141">
        <ele>172</ele>
        <time>2018-01-14T11:44:04Z</time>
      </trkpt>
      <trkpt lat="45.9447" lon="4.73131">
        <ele>172</ele>
        <time>2018-01-14T11:44:05Z</time>
      </trkpt>
      <trkpt lat="45.94469" lon="4.73123">
        <ele>172</ele>
        <time>2018-01-14T11:44:06Z</time>
      </trkpt>
      <trkpt lat="45.94468" lon="4.73115">
        <ele>172</ele>
        <time>2018-01-14T11:44:07Z</time>
      </trkpt>
      <trkpt lat="45.94467" lon="4.73107">
        <ele>172</ele>
        <time>2018-01-14T11:44:08Z</time>
      </trkpt>
      <trkpt lat="45.94465" lon="4.731">
        <ele>172</ele>
        <time>2018-01-14T11:44:09Z</time>
      </trkpt>
      <trkpt lat="45.94464" lon="4.73093">
        <ele>171</ele>
        <time>2018-01-14T11:44:10Z</time>
      </trkpt>
      <trkpt lat="45.94462" lon="4.73085">
        <ele>171</ele>
        <time>2018-01-14T11:44:11Z</time>
      </trkpt>
      <trkpt lat="45.9446" lon="4.73077">
        <ele>170</ele>
        <time>2018-01-14T11:44:12Z</time>
      </trkpt>
      <trkpt lat="45.94459" lon="4.73069">
        <ele>170</ele>
        <time>2018-01-14T11:44:13Z</time>
      </trkpt>
      <trkpt lat="45.94459" lon="4.73061">
        <ele>170</ele>
        <time>2018-01-14T11:44:14Z</time>
      </trkpt>
      <trkpt lat="45.94458" lon="4.73053">
        <ele>170</ele>
        <time>2018-01-14T11:44:15Z</time>
      </trkpt>
      <trkpt lat="45.94458" lon="4.73046">
        <ele>170</ele>
        <time>2018-01-14T11:44:16Z</time>
      </trkpt>
      <trkpt lat="45.94456" lon="4.7304">
        <ele>169</ele>
        <time>2018-01-14T11:44:17Z</time>
      </trkpt>
      <trkpt lat="45.94454" lon="4.73028">
        <ele>169</ele>
        <time>2018-01-14T11:44:19Z</time>
      </trkpt>
      <trkpt lat="45.94454" lon="4.73023">
        <ele>169</ele>
        <time>2018-01-14T11:44:20Z</time>
      </trkpt>
      <trkpt lat="45.94453" lon="4.73013">
        <ele>169</ele>
        <time>2018-01-14T11:44:22Z</time>
      </trkpt>
      <trkpt lat="45.94451" lon="4.73008">
        <ele>169</ele>
        <time>2018-01-14T11:44:23Z</time>
      </trkpt>
      <trkpt lat="45.94449" lon="4.72998">
        <ele>167</ele>
        <time>2018-01-14T11:44:25Z</time>
      </trkpt>
      <trkpt lat="45.94449" lon="4.72993">
        <ele>167</ele>
        <time>2018-01-14T11:44:26Z</time>
      </trkpt>
      <trkpt lat="45.94447" lon="4.72983">
        <ele>167</ele>
        <time>2018-01-14T11:44:28Z</time>
      </trkpt>
      <trkpt lat="45.94447" lon="4.72978">
        <ele>167</ele>
        <time>2018-01-14T11:44:29Z</time>
      </trkpt>
      <trkpt lat="45.94445" lon="4.72968">
        <ele>167</ele>
        <time>2018-01-14T11:44:31Z</time>
      </trkpt>
      <trkpt lat="45.94445" lon="4.72963">
        <ele>167</ele>
        <time>2018-01-14T11:44:32Z</time>
      </trkpt>
      <trkpt lat="45.94443" lon="4.72953">
        <ele>167</ele>
        <time>2018-01-14T11:44:34Z</time>
      </trkpt>
      <trkpt lat="45.94442" lon="4.72948">
        <ele>167</ele>
        <time>2018-01-14T11:44:35Z</time>
      </trkpt>
      <trkpt lat="45.94441" lon="4.72938">
        <ele>167</ele>
        <time>2018-01-14T11:44:37Z</time>
      </trkpt>
      <trkpt lat="45.9444" lon="4.72933">
        <ele>167</ele>
        <time>2018-01-14T11:44:38Z</time>
      </trkpt>
      <trkpt lat="45.9444" lon="4.72922">
        <ele>167</ele>
        <time>2018-01-14T11:44:40Z</time>
      </trkpt>
      <trkpt lat="45.94439" lon="4.72917">
        <ele>167</ele>
        <time>2018-01-14T11:44:41Z</time>
      </trkpt>
      <trkpt lat="45.94437" lon="4.72907">
        <ele>166</ele>
        <time>2018-01-14T11:44:43Z</time>
      </trkpt>
      <trkpt lat="45.94436" lon="4.72901">
        <ele>166</ele>
        <time>2018-01-14T11:44:44Z</time>
      </trkpt>
      <trkpt lat="45.94435" lon="4.7289">
        <ele>166</ele>
        <time>2018-01-14T11:44:46Z</time>
      </trkpt>
      <trkpt lat="45.94435" lon="4.72884">
        <ele>166</ele>
        <time>2018-01-14T11:44:47Z</time>
      </trkpt>
      <trkpt lat="45.94435" lon="4.72872">
        <ele>166</ele>
        <time>2018-01-14T11:44:49Z</time>
      </trkpt>
      <trkpt lat="45.94433" lon="4.72866">
        <ele>166</ele>
        <time>2018-01-14T11:44:50Z</time>
      </trkpt>
      <trkpt lat="45.94431" lon="4.7286">
        <ele>166</ele>
        <time>2018-01-14T11:44:51Z</time>
      </trkpt>
      <trkpt lat="45.9443" lon="4.72853">
        <ele>166</ele>
        <time>2018-01-14T11:44:52Z</time>
      </trkpt>
      <trkpt lat="45.94428" lon="4.72846">
        <ele>166</ele>
        <time>2018-01-14T11:44:53Z</time>
      </trkpt>
      <trkpt lat="45.94427" lon="4.72838">
        <ele>166</ele>
        <time>2018-01-14T11:44:54Z</time>
      </trkpt>
      <trkpt lat="45.94426" lon="4.72829">
        <ele>166</ele>
        <time>2018-01-14T11:44:55Z</time>
      </trkpt>
      <trkpt lat="45.94426" lon="4.7282">
        <ele>167</ele>
        <time>2018-01-14T11:44:56Z</time>
      </trkpt>
      <trkpt lat="45.94424" lon="4.72812">
        <ele>167</ele>
        <time>2018-01-14T11:44:57Z</time>
      </trkpt>
      <trkpt lat="45.94423" lon="4.72803">
        <ele>167</ele>
        <time>2018-01-14T11:44:58Z</time>
      </trkpt>
      <trkpt lat="45.94422" lon="4.72793">
        <ele>168</ele>
        <time>2018-01-14T11:44:59Z</time>
      </trkpt>
      <trkpt lat="45.94421" lon="4.72782">
        <ele>168</ele>
        <time>2018-01-14T11:45:00Z</time>
      </trkpt>
      <trkpt lat="45.9442" lon="4.72774">
        <ele>169</ele>
        <time>2018-01-14T11:45:01Z</time>
      </trkpt>
      <trkpt lat="45.94419" lon="4.72764">
        <ele>169</ele>
        <time>2018-01-14T11:45:02Z</time>
      </trkpt>
      <trkpt lat="45.94419" lon="4.72754">
        <ele>170</ele>
        <time>2018-01-14T11:45:03Z</time>
      </trkpt>
      <trkpt lat="45.94418" lon="4.72745">
        <ele>171</ele>
        <time>2018-01-14T11:45:04Z</time>
      </trkpt>
      <trkpt lat="45.94418" lon="4.72736">
        <ele>171</ele>
        <time>2018-01-14T11:45:05Z</time>
      </trkpt>
      <trkpt lat="45.94416" lon="4.72726">
        <ele>172</ele>
        <time>2018-01-14T11:45:06Z</time>
      </trkpt>
      <trkpt lat="45.94416" lon="4.72716">
        <ele>172</ele>
        <time>2018-01-14T11:45:07Z</time>
      </trkpt>
      <trkpt lat="45.94414" lon="4.72706">
        <ele>172</ele>
        <time>2018-01-14T11:45:08Z</time>
      </trkpt>
      <trkpt lat="45.94413" lon="4.72698">
        <ele>172</ele>
        <time>2018-01-14T11:45:09Z</time>
      </trkpt>
      <trkpt lat="45.94412" lon="4.72689">
        <ele>173</ele>
        <time>2018-01-14T11:45:10Z</time>
      </trkpt>
      <trkpt lat="45.9441" lon="4.72681">
        <ele>173</ele>
        <time>2018-01-14T11:45:11Z</time>
      </trkpt>
      <trkpt lat="45.94409" lon="4.72671">
        <ele>173</ele>
        <time>2018-01-14T11:45:12Z</time>
      </trkpt>
      <trkpt lat="45.94409" lon="4.72661">
        <ele>174</ele>
        <time>2018-01-14T11:45:13Z</time>
      </trkpt>
      <trkpt lat="45.94408" lon="4.72653">
        <ele>174</ele>
        <time>2018-01-14T11:45:14Z</time>
      </trkpt>
      <trkpt lat="45.94408" lon="4.72645">
        <ele>174</ele>
        <time>2018-01-14T11:45:15Z</time>
      </trkpt>
      <trkpt lat="45.94407" lon="4.72636">
        <ele>174</ele>
        <time>2018-01-14T11:45:16Z</time>
      </trkpt>
      <trkpt lat="45.94406" lon="4.72628">
        <ele>174</ele>
        <time>2018-01-14T11:45:17Z</time>
      </trkpt>
      <trkpt lat="45.94406" lon="4.72619">
        <ele>173</ele>
        <time>2018-01-14T11:45:18Z</time>
      </trkpt>
      <trkpt lat="45.94406" lon="4.72612">
        <ele>173</ele>
        <time>2018-01-14T11:45:19Z</time>
      </trkpt>
      <trkpt lat="45.94406" lon="4.72605">
        <ele>173</ele>
        <time>2018-01-14T11:45:20Z</time>
      </trkpt>
      <trkpt lat="45.94405" lon="4.72597">
        <ele>173</ele>
        <time>2018-01-14T11:45:21Z</time>
      </trkpt>
      <trkpt lat="45.94403" lon="4.72589">
        <ele>173</ele>
        <time>2018-01-14T11:45:22Z</time>
      </trkpt>
      <trkpt lat="45.94402" lon="4.7258">
        <ele>173</ele>
        <time>2018-01-14T11:45:23Z</time>
      </trkpt>
      <trkpt lat="45.944" lon="4.72571">
        <ele>173</ele>
        <time>2018-01-14T11:45:24Z</time>
      </trkpt>
      <trkpt lat="45.94398" lon="4.72563">
        <ele>173</ele>
        <time>2018-01-14T11:45:25Z</time>
      </trkpt>
      <trkpt lat="45.94397" lon="4.72554">
        <ele>173</ele>
        <time>2018-01-14T11:45:26Z</time>
      </trkpt>
      <trkpt lat="45.94394" lon="4.72547">
        <ele>173</ele>
        <time>2018-01-14T11:45:27Z</time>
      </trkpt>
      <trkpt lat="45.94391" lon="4.7254">
        <ele>174</ele>
        <time>2018-01-14T11:45:28Z</time>
      </trkpt>
      <trkpt lat="45.94388" lon="4.72532">
        <ele>174</ele>
        <time>2018-01-14T11:45:29Z</time>
      </trkpt>
      <trkpt lat="45.94385" lon="4.72526">
        <ele>174</ele>
        <time>2018-01-14T11:45:30Z</time>
      </trkpt>
      <trkpt lat="45.94382" lon="4.72519">
        <ele>174</ele>
        <time>2018-01-14T11:45:31Z</time>
      </trkpt>
      <trkpt lat="45.94381" lon="4.72508">
        <ele>174</ele>
        <time>2018-01-14T11:45:32Z</time>
      </trkpt>
      <trkpt lat="45.94378" lon="4.72501">
        <ele>174</ele>
        <time>2018-01-14T11:45:33Z</time>
      </trkpt>
      <trkpt lat="45.94375" lon="4.72495">
        <ele>173</ele>
        <time>2018-01-14T11:45:34Z</time>
      </trkpt>
      <trkpt lat="45.94372" lon="4.72488">
        <ele>173</ele>
        <time>2018-01-14T11:45:35Z</time>
      </trkpt>
      <trkpt lat="45.94369" lon="4.72482">
        <ele>173</ele>
        <time>2018-01-14T11:45:36Z</time>
      </trkpt>
      <trkpt lat="45.94366" lon="4.72477">
        <ele>173</ele>
        <time>2018-01-14T11:45:37Z</time>
      </trkpt>
      <trkpt lat="45.94362" lon="4.72472">
        <ele>173</ele>
        <time>2018-01-14T11:45:38Z</time>
      </trkpt>
      <trkpt lat="45.94359" lon="4.72466">
        <ele>173</ele>
        <time>2018-01-14T11:45:39Z</time>
      </trkpt>
      <trkpt lat="45.94357" lon="4.72459">
        <ele>173</ele>
        <time>2018-01-14T11:45:40Z</time>
      </trkpt>
      <trkpt lat="45.94359" lon="4.72449">
        <ele>173</ele>
        <time>2018-01-14T11:45:41Z</time>
      </trkpt>
      <trkpt lat="45.94357" lon="4.72442">
        <ele>173</ele>
        <time>2018-01-14T11:45:42Z</time>
      </trkpt>
      <trkpt lat="45.94353" lon="4.72436">
        <ele>173</ele>
        <time>2018-01-14T11:45:43Z</time>
      </trkpt>
      <trkpt lat="45.9435" lon="4.7243">
        <ele>173</ele>
        <time>2018-01-14T11:45:44Z</time>
      </trkpt>
      <trkpt lat="45.94344" lon="4.72425">
        <ele>173</ele>
        <time>2018-01-14T11:45:45Z</time>
      </trkpt>
      <trkpt lat="45.94344" lon="4.72414">
        <ele>173</ele>
        <time>2018-01-14T11:45:46Z</time>
      </trkpt>
      <trkpt lat="45.94341" lon="4.72407">
        <ele>173</ele>
        <time>2018-01-14T11:45:47Z</time>
      </trkpt>
      <trkpt lat="45.94337" lon="4.72401">
        <ele>173</ele>
        <time>2018-01-14T11:45:48Z</time>
      </trkpt>
      <trkpt lat="45.94334" lon="4.72397">
        <ele>172</ele>
        <time>2018-01-14T11:45:49Z</time>
      </trkpt>
      <trkpt lat="45.94331" lon="4.72389">
        <ele>172</ele>
        <time>2018-01-14T11:45:50Z</time>
      </trkpt>
      <trkpt lat="45.94326" lon="4.72384">
        <ele>172</ele>
        <time>2018-01-14T11:45:51Z</time>
      </trkpt>
      <trkpt lat="45.94323" lon="4.72378">
        <ele>172</ele>
        <time>2018-01-14T11:45:52Z</time>
      </trkpt>
      <trkpt lat="45.9432" lon="4.72373">
        <ele>172</ele>
        <time>2018-01-14T11:45:53Z</time>
      </trkpt>
      <trkpt lat="45.94316" lon="4.72367">
        <ele>172</ele>
        <time>2018-01-14T11:45:54Z</time>
      </trkpt>
      <trkpt lat="45.94317" lon="4.72354">
        <ele>172</ele>
        <time>2018-01-14T11:45:55Z</time>
      </trkpt>
      <trkpt lat="45.94313" lon="4.72347">
        <ele>172</ele>
        <time>2018-01-14T11:45:56Z</time>
      </trkpt>
      <trkpt lat="45.94306" lon="4.72343">
        <ele>172</ele>
        <time>2018-01-14T11:45:57Z</time>
      </trkpt>
      <trkpt lat="45.94304" lon="4.72334">
        <ele>172</ele>
        <time>2018-01-14T11:45:58Z</time>
      </trkpt>
      <trkpt lat="45.94303" lon="4.72328">
        <ele>171</ele>
        <time>2018-01-14T11:45:59Z</time>
      </trkpt>
      <trkpt lat="45.94298" lon="4.72319">
        <ele>171</ele>
        <time>2018-01-14T11:46:01Z</time>
      </trkpt>
      <trkpt lat="45.94295" lon="4.7231">
        <ele>171</ele>
        <time>2018-01-14T11:46:02Z</time>
      </trkpt>
      <trkpt lat="45.94293" lon="4.72304">
        <ele>171</ele>
        <time>2018-01-14T11:46:03Z</time>
      </trkpt>
      <trkpt lat="45.9429" lon="4.72298">
        <ele>171</ele>
        <time>2018-01-14T11:46:04Z</time>
      </trkpt>
      <trkpt lat="45.94288" lon="4.72292">
        <ele>171</ele>
        <time>2018-01-14T11:46:05Z</time>
      </trkpt>
      <trkpt lat="45.94285" lon="4.72286">
        <ele>171</ele>
        <time>2018-01-14T11:46:06Z</time>
      </trkpt>
      <trkpt lat="45.9428" lon="4.72283">
        <ele>171</ele>
        <time>2018-01-14T11:46:07Z</time>
      </trkpt>
      <trkpt lat="45.94276" lon="4.72281">
        <ele>171</ele>
        <time>2018-01-14T11:46:08Z</time>
      </trkpt>
      <trkpt lat="45.94271" lon="4.72279">
        <ele>171</ele>
        <time>2018-01-14T11:46:09Z</time>
      </trkpt>
      <trkpt lat="45.94265" lon="4.72278">
        <ele>171</ele>
        <time>2018-01-14T11:46:10Z</time>
      </trkpt>
      <trkpt lat="45.9426" lon="4.7228">
        <ele>171</ele>
        <time>2018-01-14T11:46:11Z</time>
      </trkpt>
      <trkpt lat="45.94255" lon="4.72281">
        <ele>171</ele>
        <time>2018-01-14T11:46:12Z</time>
      </trkpt>
      <trkpt lat="45.9425" lon="4.72281">
        <ele>171</ele>
        <time>2018-01-14T11:46:13Z</time>
      </trkpt>
      <trkpt lat="45.94244" lon="4.72282">
        <ele>171</ele>
        <time>2018-01-14T11:46:14Z</time>
      </trkpt>
      <trkpt lat="45.94239" lon="4.72283">
        <ele>171</ele>
        <time>2018-01-14T11:46:15Z</time>
      </trkpt>
      <trkpt lat="45.94233" lon="4.72284">
        <ele>171</ele>
        <time>2018-01-14T11:46:16Z</time>
      </trkpt>
      <trkpt lat="45.94226" lon="4.72286">
        <ele>171</ele>
        <time>2018-01-14T11:46:17Z</time>
      </trkpt>
      <trkpt lat="45.9422" lon="4.72286">
        <ele>171</ele>
        <time>2018-01-14T11:46:18Z</time>
      </trkpt>
      <trkpt lat="45.94215" lon="4.72287">
        <ele>171</ele>
        <time>2018-01-14T11:46:19Z</time>
      </trkpt>
      <trkpt lat="45.94209" lon="4.72288">
        <ele>171</ele>
        <time>2018-01-14T11:46:20Z</time>
      </trkpt>
      <trkpt lat="45.94204" lon="4.72288">
        <ele>171</ele>
        <time>2018-01-14T11:46:21Z</time>
      </trkpt>
      <trkpt lat="45.94199" lon="4.72289">
        <ele>171</ele>
        <time>2018-01-14T11:46:22Z</time>
      </trkpt>
      <trkpt lat="45.94193" lon="4.7229">
        <ele>171</ele>
        <time>2018-01-14T11:46:23Z</time>
      </trkpt>
      <trkpt lat="45.94187" lon="4.72289">
        <ele>171</ele>
        <time>2018-01-14T11:46:24Z</time>
      </trkpt>
      <trkpt lat="45.94182" lon="4.72289">
        <ele>171</ele>
        <time>2018-01-14T11:46:25Z</time>
      </trkpt>
      <trkpt lat="45.94175" lon="4.72289">
        <ele>171</ele>
        <time>2018-01-14T11:46:26Z</time>
      </trkpt>
      <trkpt lat="45.94169" lon="4.72287">
        <ele>171</ele>
        <time>2018-01-14T11:46:27Z</time>
      </trkpt>
      <trkpt lat="45.94164" lon="4.72286">
        <ele>171</ele>
        <time>2018-01-14T11:46:28Z</time>
      </trkpt>
      <trkpt lat="45.94159" lon="4.72286">
        <ele>171</ele>
        <time>2018-01-14T11:46:29Z</time>
      </trkpt>
      <trkpt lat="45.94154" lon="4.72283">
        <ele>171</ele>
        <time>2018-01-14T11:46:30Z</time>
      </trkpt>
      <trkpt lat="45.9415" lon="4.72282">
        <ele>171</ele>
        <time>2018-01-14T11:46:31Z</time>
      </trkpt>
      <trkpt lat="45.94145" lon="4.7228">
        <ele>171</ele>
        <time>2018-01-14T11:46:32Z</time>
      </trkpt>
      <trkpt lat="45.9414" lon="4.72278">
        <ele>171</ele>
        <time>2018-01-14T11:46:33Z</time>
      </trkpt>
      <trkpt lat="45.94135" lon="4.72276">
        <ele>171</ele>
        <time>2018-01-14T11:46:34Z</time>
      </trkpt>
      <trkpt lat="45.9413" lon="4.72273">
        <ele>171</ele>
        <time>2018-01-14T11:46:35Z</time>
      </trkpt>
      <trkpt lat="45.94125" lon="4.7227">
        <ele>171</ele>
        <time>2018-01-14T11:46:36Z</time>
      </trkpt>
      <trkpt lat="45.9412" lon="4.72268">
        <ele>171</ele>
        <time>2018-01-14T11:46:37Z</time>
      </trkpt>
      <trkpt lat="45.94116" lon="4.72265">
        <ele>171</ele>
        <time>2018-01-14T11:46:38Z</time>
      </trkpt>
      <trkpt lat="45.9411" lon="4.72262">
        <ele>171</ele>
        <time>2018-01-14T11:46:39Z</time>
      </trkpt>
      <trkpt lat="45.94106" lon="4.72259">
        <ele>171</ele>
        <time>2018-01-14T11:46:40Z</time>
      </trkpt>
      <trkpt lat="45.94102" lon="4.72258">
        <ele>171</ele>
        <time>2018-01-14T11:46:41Z</time>
      </trkpt>
      <trkpt lat="45.94097" lon="4.72259">
        <ele>171</ele>
        <time>2018-01-14T11:46:42Z</time>
      </trkpt>
      <trkpt lat="45.94091" lon="4.72258">
        <ele>171</ele>
        <time>2018-01-14T11:46:43Z</time>
      </trkpt>
      <trkpt lat="45.94086" lon="4.72259">
        <ele>171</ele>
        <time>2018-01-14T11:46:44Z</time>
      </trkpt>
      <trkpt lat="45.94082" lon="4.72263">
        <ele>171</ele>
        <time>2018-01-14T11:46:45Z</time>
      </trkpt>
      <trkpt lat="45.94077" lon="4.72267">
        <ele>171</ele>
        <time>2018-01-14T11:46:46Z</time>
      </trkpt>
      <trkpt lat="45.94072" lon="4.72271">
        <ele>171</ele>
        <time>2018-01-14T11:46:47Z</time>
      </trkpt>
      <trkpt lat="45.94067" lon="4.72277">
        <ele>171</ele>
        <time>2018-01-14T11:46:48Z</time>
      </trkpt>
      <trkpt lat="45.94063" lon="4.72281">
        <ele>171</ele>
        <time>2018-01-14T11:46:49Z</time>
      </trkpt>
      <trkpt lat="45.94059" lon="4.72287">
        <ele>171</ele>
        <time>2018-01-14T11:46:50Z</time>
      </trkpt>
      <trkpt lat="45.94054" lon="4.72292">
        <ele>171</ele>
        <time>2018-01-14T11:46:51Z</time>
      </trkpt>
      <trkpt lat="45.9405" lon="4.72297">
        <ele>171</ele>
        <time>2018-01-14T11:46:52Z</time>
      </trkpt>
      <trkpt lat="45.94046" lon="4.72302">
        <ele>171</ele>
        <time>2018-01-14T11:46:53Z</time>
      </trkpt>
      <trkpt lat="45.94042" lon="4.72309">
        <ele>171</ele>
        <time>2018-01-14T11:46:54Z</time>
      </trkpt>
      <trkpt lat="45.94038" lon="4.72313">
        <ele>171</ele>
        <time>2018-01-14T11:46:55Z</time>
      </trkpt>
      <trkpt lat="45.94034" lon="4.72318">
        <ele>171</ele>
        <time>2018-01-14T11:46:56Z</time>
      </trkpt>
      <trkpt lat="45.9403" lon="4.72323">
        <ele>171</ele>
        <time>2018-01-14T11:46:57Z</time>
      </trkpt>
      <trkpt lat="45.94026" lon="4.72329">
        <ele>171</ele>
        <time>2018-01-14T11:46:58Z</time>
      </trkpt>
      <trkpt lat="45.94022" lon="4.72334">
        <ele>171</ele>
        <time>2018-01-14T11:46:59Z</time>
      </trkpt>
      <trkpt lat="45.94018" lon="4.72339">
        <ele>171</ele>
        <time>2018-01-14T11:47:00Z</time>
      </trkpt>
      <trkpt lat="45.94014" lon="4.72345">
        <ele>171</ele>
        <time>2018-01-14T11:47:01Z</time>
      </trkpt>
      <trkpt lat="45.94009" lon="4.72351">
        <ele>171</ele>
        <time>2018-01-14T11:47:02Z</time>
      </trkpt>
      <trkpt lat="45.94004" lon="4.72355">
        <ele>171</ele>
        <time>2018-01-14T11:47:03Z</time>
      </trkpt>
      <trkpt lat="45.93999" lon="4.72361">
        <ele>171</ele>
        <time>2018-01-14T11:47:04Z</time>
      </trkpt>
      <trkpt lat="45.93995" lon="4.72365">
        <ele>171</ele>
        <time>2018-01-14T11:47:05Z</time>
      </trkpt>
      <trkpt lat="45.93991" lon="4.72371">
        <ele>171</ele>
        <time>2018-01-14T11:47:06Z</time>
      </trkpt>
      <trkpt lat="45.93988" lon="4.72377">
        <ele>171</ele>
        <time>2018-01-14T11:47:07Z</time>
      </trkpt>
      <trkpt lat="45.93984" lon="4.72382">
        <ele>171</ele>
        <time>2018-01-14T11:47:08Z</time>
      </trkpt>
      <trkpt lat="45.9398" lon="4.72387">
        <ele>171</ele>
        <time>2018-01-14T11:47:09Z</time>
      </trkpt>
      <trkpt lat="45.93976" lon="4.72391">
        <ele>171</ele>
        <time>2018-01-14T11:47:10Z</time>
      </trkpt>
      <trkpt lat="45.93972" lon="4.72397">
        <ele>171</ele>
        <time>2018-01-14T11:47:11Z</time>
      </trkpt>
      <trkpt lat="45.93968" lon="4.72402">
        <ele>171</ele>
        <time>2018-01-14T11:47:12Z</time>
      </trkpt>
      <trkpt lat="45.93964" lon="4.72407">
        <ele>171</ele>
        <time>2018-01-14T11:47:13Z</time>
      </trkpt>
      <trkpt lat="45.9396" lon="4.72412">
        <ele>171</ele>
        <time>2018-01-14T11:47:14Z</time>
      </trkpt>
      <trkpt lat="45.93956" lon="4.72417">
        <ele>171</ele>
        <time>2018-01-14T11:47:15Z</time>
      </trkpt>
      <trkpt lat="45.93952" lon="4.72421">
        <ele>171</ele>
        <time>2018-01-14T11:47:16Z</time>
      </trkpt>
      <trkpt lat="45.93947" lon="4.72426">
        <ele>171</ele>
        <time>2018-01-14T11:47:17Z</time>
      </trkpt>
      <trkpt lat="45.93944" lon="4.72431">
        <ele>171</ele>
        <time>2018-01-14T11:47:18Z</time>
      </trkpt>
      <trkpt lat="45.9394" lon="4.72436">
        <ele>171</ele>
        <time>2018-01-14T11:47:19Z</time>
      </trkpt>
      <trkpt lat="45.93934" lon="4.72441">
        <ele>171</ele>
        <time>2018-01-14T11:47:20Z</time>
      </trkpt>
      <trkpt lat="45.9393" lon="4.72446">
        <ele>171</ele>
        <time>2018-01-14T11:47:21Z</time>
      </trkpt>
      <trkpt lat="45.93925" lon="4.72451">
        <ele>171</ele>
        <time>2018-01-14T11:47:22Z</time>
      </trkpt>
      <trkpt lat="45.93921" lon="4.72456">
        <ele>171</ele>
        <time>2018-01-14T11:47:23Z</time>
      </trkpt>
      <trkpt lat="45.93916" lon="4.72461">
        <ele>172</ele>
        <time>2018-01-14T11:47:24Z</time>
      </trkpt>
      <trkpt lat="45.93912" lon="4.72466">
        <ele>172</ele>
        <time>2018-01-14T11:47:25Z</time>
      </trkpt>
      <trkpt lat="45.93908" lon="4.72471">
        <ele>172</ele>
        <time>2018-01-14T11:47:26Z</time>
      </trkpt>
      <trkpt lat="45.93904" lon="4.72476">
        <ele>172</ele>
        <time>2018-01-14T11:47:27Z</time>
      </trkpt>
      <trkpt lat="45.93901" lon="4.72481">
        <ele>172</ele>
        <time>2018-01-14T11:47:28Z</time>
      </trkpt>
      <trkpt lat="45.93897" lon="4.72486">
        <ele>172</ele>
        <time>2018-01-14T11:47:29Z</time>
      </trkpt>
      <trkpt lat="45.93893" lon="4.72491">
        <ele>172</ele>
        <time>2018-01-14T11:47:30Z</time>
      </trkpt>
      <trkpt lat="45.93889" lon="4.72496">
        <ele>172</ele>
        <time>2018-01-14T11:47:31Z</time>
      </trkpt>
      <trkpt lat="45.93885" lon="4.72501">
        <ele>173</ele>
        <time>2018-01-14T11:47:32Z</time>
      </trkpt>
      <trkpt lat="45.9388" lon="4.72505">
        <ele>173</ele>
        <time>2018-01-14T11:47:33Z</time>
      </trkpt>
      <trkpt lat="45.93875" lon="4.72509">
        <ele>173</ele>
        <time>2018-01-14T11:47:34Z</time>
      </trkpt>
      <trkpt lat="45.9387" lon="4.72511">
        <ele>173</ele>
        <time>2018-01-14T11:47:35Z</time>
      </trkpt>
      <trkpt lat="45.93865" lon="4.72511">
        <ele>173</ele>
        <time>2018-01-14T11:47:36Z</time>
      </trkpt>
      <trkpt lat="45.93859" lon="4.72509">
        <ele>173</ele>
        <time>2018-01-14T11:47:37Z</time>
      </trkpt>
      <trkpt lat="45.93857" lon="4.72504">
        <ele>173</ele>
        <time>2018-01-14T11:47:38Z</time>
      </trkpt>
      <trkpt lat="45.93852" lon="4.72502">
        <ele>173</ele>
        <time>2018-01-14T11:47:39Z</time>
      </trkpt>
      <trkpt lat="45.93846" lon="4.72498">
        <ele>173</ele>
        <time>2018-01-14T11:47:41Z</time>
      </trkpt>
      <trkpt lat="45.93846" lon="4.72498">
        <ele>173</ele>
        <time>2018-01-14T11:47:43Z</time>
      </trkpt>
      <trkpt lat="45.93832" lon="4.7247">
        <ele>172</ele>
        <time>2018-01-14T11:47:44Z</time>
      </trkpt>
      <trkpt lat="45.93827" lon="4.72468">
        <ele>172</ele>
        <time>2018-01-14T11:47:45Z</time>
      </trkpt>
      <trkpt lat="45.93822" lon="4.72467">
        <ele>172</ele>
        <time>2018-01-14T11:47:46Z</time>
      </trkpt>
      <trkpt lat="45.93816" lon="4.72465">
        <ele>172</ele>
        <time>2018-01-14T11:47:47Z</time>
      </trkpt>
      <trkpt lat="45.93809" lon="4.72463">
        <ele>172</ele>
        <time>2018-01-14T11:47:48Z</time>
      </trkpt>
      <trkpt lat="45.93803" lon="4.72455">
        <ele>172</ele>
        <time>2018-01-14T11:47:50Z</time>
      </trkpt>
      <trkpt lat="45.93799" lon="4.72452">
        <ele>172</ele>
        <time>2018-01-14T11:47:51Z</time>
      </trkpt>
      <trkpt lat="45.93791" lon="4.72448">
        <ele>172</ele>
        <time>2018-01-14T11:47:53Z</time>
      </trkpt>
      <trkpt lat="45.93789" lon="4.72445">
        <ele>172</ele>
        <time>2018-01-14T11:47:54Z</time>
      </trkpt>
      <trkpt lat="45.93782" lon="4.72439">
        <ele>172</ele>
        <time>2018-01-14T11:47:56Z</time>
      </trkpt>
      <trkpt lat="45.93777" lon="4.72434">
        <ele>172</ele>
        <time>2018-01-14T11:47:57Z</time>
      </trkpt>
      <trkpt lat="45.93772" lon="4.72424">
        <ele>171</ele>
        <time>2018-01-14T11:47:59Z</time>
      </trkpt>
      <trkpt lat="45.93768" lon="4.72421">
        <ele>171</ele>
        <time>2018-01-14T11:48:00Z</time>
      </trkpt>
      <trkpt lat="45.93764" lon="4.72415">
        <ele>171</ele>
        <time>2018-01-14T11:48:01Z</time>
      </trkpt>
      <trkpt lat="45.9376" lon="4.72412">
        <ele>171</ele>
        <time>2018-01-14T11:48:02Z</time>
      </trkpt>
      <trkpt lat="45.93757" lon="4.72409">
        <ele>171</ele>
        <time>2018-01-14T11:48:03Z</time>
      </trkpt>
      <trkpt lat="45.93753" lon="4.72404">
        <ele>171</ele>
        <time>2018-01-14T11:48:04Z</time>
      </trkpt>
      <trkpt lat="45.93749" lon="4.724">
        <ele>171</ele>
        <time>2018-01-14T11:48:05Z</time>
      </trkpt>
      <trkpt lat="45.93744" lon="4.72397">
        <ele>171</ele>
        <time>2018-01-14T11:48:06Z</time>
      </trkpt>
      <trkpt lat="45.93739" lon="4.72393">
        <ele>171</ele>
        <time>2018-01-14T11:48:07Z</time>
      </trkpt>
      <trkpt lat="45.93734" lon="4.7239">
        <ele>171</ele>
        <time>2018-01-14T11:48:08Z</time>
      </trkpt>
      <trkpt lat="45.9373" lon="4.72388">
        <ele>171</ele>
        <time>2018-01-14T11:48:09Z</time>
      </trkpt>
      <trkpt lat="45.93725" lon="4.72384">
        <ele>171</ele>
        <time>2018-01-14T11:48:10Z</time>
      </trkpt>
      <trkpt lat="45.93721" lon="4.72381">
        <ele>171</ele>
        <time>2018-01-14T11:48:11Z</time>
      </trkpt>
      <trkpt lat="45.93717" lon="4.72373">
        <ele>172</ele>
        <time>2018-01-14T11:48:12Z</time>
      </trkpt>
      <trkpt lat="45.9371" lon="4.72365">
        <ele>172</ele>
        <time>2018-01-14T11:48:14Z</time>
      </trkpt>
      <trkpt lat="45.93707" lon="4.72362">
        <ele>171</ele>
        <time>2018-01-14T11:48:15Z</time>
      </trkpt>
      <trkpt lat="45.93703" lon="4.72357">
        <ele>171</ele>
        <time>2018-01-14T11:48:16Z</time>
      </trkpt>
      <trkpt lat="45.93699" lon="4.72354">
        <ele>171</ele>
        <time>2018-01-14T11:48:17Z</time>
      </trkpt>
      <trkpt lat="45.93696" lon="4.72352">
        <ele>171</ele>
        <time>2018-01-14T11:48:18Z</time>
      </trkpt>
      <trkpt lat="45.93691" lon="4.72346">
        <ele>171</ele>
        <time>2018-01-14T11:48:20Z</time>
      </trkpt>
      <trkpt lat="45.93687" lon="4.72343">
        <ele>171</ele>
        <time>2018-01-14T11:48:21Z</time>
      </trkpt>
      <trkpt lat="45.93683" lon="4.7234">
        <ele>171</ele>
        <time>2018-01-14T11:48:22Z</time>
      </trkpt>
      <trkpt lat="45.93679" lon="4.72336">
        <ele>171</ele>
        <time>2018-01-14T11:48:23Z</time>
      </trkpt>
      <trkpt lat="45.93675" lon="4.72331">
        <ele>171</ele>
        <time>2018-01-14T11:48:24Z</time>
      </trkpt>
      <trkpt lat="45.93669" lon="4.72323">
        <ele>171</ele>
        <time>2018-01-14T11:48:26Z</time>
      </trkpt>
      <trkpt lat="45.93665" lon="4.72319">
        <ele>172</ele>
        <time>2018-01-14T11:48:27Z</time>
      </trkpt>
      <trkpt lat="45.93661" lon="4.72316">
        <ele>172</ele>
        <time>2018-01-14T11:48:28Z</time>
      </trkpt>
      <trkpt lat="45.93656" lon="4.72312">
        <ele>172</ele>
        <time>2018-01-14T11:48:29Z</time>
      </trkpt>
      <trkpt lat="45.93652" lon="4.72307">
        <ele>172</ele>
        <time>2018-01-14T11:48:30Z</time>
      </trkpt>
      <trkpt lat="45.93648" lon="4.72304">
        <ele>172</ele>
        <time>2018-01-14T11:48:31Z</time>
      </trkpt>
      <trkpt lat="45.93643" lon="4.72301">
        <ele>172</ele>
        <time>2018-01-14T11:48:32Z</time>
      </trkpt>
      <trkpt lat="45.93638" lon="4.72298">
        <ele>172</ele>
        <time>2018-01-14T11:48:33Z</time>
      </trkpt>
      <trkpt lat="45.93634" lon="4.72294">
        <ele>172</ele>
        <time>2018-01-14T11:48:34Z</time>
      </trkpt>
      <trkpt lat="45.93629" lon="4.7229">
        <ele>172</ele>
        <time>2018-01-14T11:48:35Z</time>
      </trkpt>
      <trkpt lat="45.93625" lon="4.72288">
        <ele>172</ele>
        <time>2018-01-14T11:48:36Z</time>
      </trkpt>
      <trkpt lat="45.93622" lon="4.72284">
        <ele>172</ele>
        <time>2018-01-14T11:48:37Z</time>
      </trkpt>
      <trkpt lat="45.93614" lon="4.72276">
        <ele>172</ele>
        <time>2018-01-14T11:48:39Z</time>
      </trkpt>
      <trkpt lat="45.93611" lon="4.7227">
        <ele>172</ele>
        <time>2018-01-14T11:48:40Z</time>
      </trkpt>
      <trkpt lat="45.93608" lon="4.72265">
        <ele>172</ele>
        <time>2018-01-14T11:48:41Z</time>
      </trkpt>
      <trkpt lat="45.93603" lon="4.72263">
        <ele>173</ele>
        <time>2018-01-14T11:48:42Z</time>
      </trkpt>
      <trkpt lat="45.93596" lon="4.72257">
        <ele>173</ele>
        <time>2018-01-14T11:48:44Z</time>
      </trkpt>
      <trkpt lat="45.93593" lon="4.72253">
        <ele>173</ele>
        <time>2018-01-14T11:48:45Z</time>
      </trkpt>
      <trkpt lat="45.93587" lon="4.72247">
        <ele>173</ele>
        <time>2018-01-14T11:48:47Z</time>
      </trkpt>
      <trkpt lat="45.93583" lon="4.72244">
        <ele>173</ele>
        <time>2018-01-14T11:48:48Z</time>
      </trkpt>
      <trkpt lat="45.93578" lon="4.72235">
        <ele>173</ele>
        <time>2018-01-14T11:48:50Z</time>
      </trkpt>
      <trkpt lat="45.93575" lon="4.72231">
        <ele>173</ele>
        <time>2018-01-14T11:48:51Z</time>
      </trkpt>
      <trkpt lat="45.9357" lon="4.72223">
        <ele>173</ele>
        <time>2018-01-14T11:48:53Z</time>
      </trkpt>
      <trkpt lat="45.93567" lon="4.72222">
        <ele>173</ele>
        <time>2018-01-14T11:48:54Z</time>
      </trkpt>
      <trkpt lat="45.9356" lon="4.72218">
        <ele>173</ele>
        <time>2018-01-14T11:48:57Z</time>
      </trkpt>
      <trkpt lat="45.93559" lon="4.72216">
        <ele>173</ele>
        <time>2018-01-14T11:48:58Z</time>
      </trkpt>
      <trkpt lat="45.9355" lon="4.72216">
        <ele>173</ele>
        <time>2018-01-14T11:49:01Z</time>
      </trkpt>
      <trkpt lat="45.93548" lon="4.7222">
        <ele>172</ele>
        <time>2018-01-14T11:49:02Z</time>
      </trkpt>
      <trkpt lat="45.93545" lon="4.72227">
        <ele>172</ele>
        <time>2018-01-14T11:49:04Z</time>
      </trkpt>
      <trkpt lat="45.93543" lon="4.72231">
        <ele>172</ele>
        <time>2018-01-14T11:49:05Z</time>
      </trkpt>
      <trkpt lat="45.93539" lon="4.72242">
        <ele>172</ele>
        <time>2018-01-14T11:49:07Z</time>
      </trkpt>
      <trkpt lat="45.93537" lon="4.72248">
        <ele>172</ele>
        <time>2018-01-14T11:49:08Z</time>
      </trkpt>
      <trkpt lat="45.93531" lon="4.72259">
        <ele>172</ele>
        <time>2018-01-14T11:49:10Z</time>
      </trkpt>
      <trkpt lat="45.93529" lon="4.72264">
        <ele>172</ele>
        <time>2018-01-14T11:49:11Z</time>
      </trkpt>
      <trkpt lat="45.93524" lon="4.72275">
        <ele>172</ele>
        <time>2018-01-14T11:49:13Z</time>
      </trkpt>
      <trkpt lat="45.93522" lon="4.72282">
        <ele>172</ele>
        <time>2018-01-14T11:49:14Z</time>
      </trkpt>
      <trkpt lat="45.93519" lon="4.7229">
        <ele>172</ele>
        <time>2018-01-14T11:49:15Z</time>
      </trkpt>
      <trkpt lat="45.93514" lon="4.72295">
        <ele>172</ele>
        <time>2018-01-14T11:49:16Z</time>
      </trkpt>
      <trkpt lat="45.93511" lon="4.72301">
        <ele>172</ele>
        <time>2018-01-14T11:49:17Z</time>
      </trkpt>
      <trkpt lat="45.93507" lon="4.72309">
        <ele>173</ele>
        <time>2018-01-14T11:49:18Z</time>
      </trkpt>
      <trkpt lat="45.93502" lon="4.72315">
        <ele>173</ele>
        <time>2018-01-14T11:49:19Z</time>
      </trkpt>
      <trkpt lat="45.93498" lon="4.72321">
        <ele>173</ele>
        <time>2018-01-14T11:49:20Z</time>
      </trkpt>
      <trkpt lat="45.93494" lon="4.72327">
        <ele>173</ele>
        <time>2018-01-14T11:49:21Z</time>
      </trkpt>
      <trkpt lat="45.9349" lon="4.72332">
        <ele>173</ele>
        <time>2018-01-14T11:49:22Z</time>
      </trkpt>
      <trkpt lat="45.93486" lon="4.72337">
        <ele>173</ele>
        <time>2018-01-14T11:49:23Z</time>
      </trkpt>
      <trkpt lat="45.93482" lon="4.72343">
        <ele>173</ele>
        <time>2018-01-14T11:49:24Z</time>
      </trkpt>
      <trkpt lat="45.93478" lon="4.72347">
        <ele>173</ele>
        <time>2018-01-14T11:49:25Z</time>
      </trkpt>
      <trkpt lat="45.93473" lon="4.72352">
        <ele>173</ele>
        <time>2018-01-14T11:49:26Z</time>
      </trkpt>
      <trkpt lat="45.93469" lon="4.72356">
        <ele>173</ele>
        <time>2018-01-14T11:49:27Z</time>
      </trkpt>
      <trkpt lat="45.93466" lon="4.72363">
        <ele>173</ele>
        <time>2018-01-14T11:49:28Z</time>
      </trkpt>
      <trkpt lat="45.93462" lon="4.72367">
        <ele>173</ele>
        <time>2018-01-14T11:49:29Z</time>
      </trkpt>
      <trkpt lat="45.93458" lon="4.72372">
        <ele>173</ele>
        <time>2018-01-14T11:49:30Z</time>
      </trkpt>
      <trkpt lat="45.93454" lon="4.72376">
        <ele>173</ele>
        <time>2018-01-14T11:49:31Z</time>
      </trkpt>
      <trkpt lat="45.93451" lon="4.72381">
        <ele>173</ele>
        <time>2018-01-14T11:49:32Z</time>
      </trkpt>
      <trkpt lat="45.93446" lon="4.72384">
        <ele>173</ele>
        <time>2018-01-14T11:49:33Z</time>
      </trkpt>
      <trkpt lat="45.93442" lon="4.72387">
        <ele>173</ele>
        <time>2018-01-14T11:49:34Z</time>
      </trkpt>
      <trkpt lat="45.93437" lon="4.72391">
        <ele>173</ele>
        <time>2018-01-14T11:49:35Z</time>
      </trkpt>
      <trkpt lat="45.93433" lon="4.72394">
        <ele>173</ele>
        <time>2018-01-14T11:49:36Z</time>
      </trkpt>
      <trkpt lat="45.93428" lon="4.72397">
        <ele>174</ele>
        <time>2018-01-14T11:49:37Z</time>
      </trkpt>
      <trkpt lat="45.93422" lon="4.72399">
        <ele>174</ele>
        <time>2018-01-14T11:49:38Z</time>
      </trkpt>
      <trkpt lat="45.93418" lon="4.72402">
        <ele>174</ele>
        <time>2018-01-14T11:49:39Z</time>
      </trkpt>
      <trkpt lat="45.93413" lon="4.72403">
        <ele>174</ele>
        <time>2018-01-14T11:49:40Z</time>
      </trkpt>
      <trkpt lat="45.93408" lon="4.72404">
        <ele>174</ele>
        <time>2018-01-14T11:49:41Z</time>
      </trkpt>
      <trkpt lat="45.93403" lon="4.72405">
        <ele>174</ele>
        <time>2018-01-14T11:49:42Z</time>
      </trkpt>
      <trkpt lat="45.93394" lon="4.72405">
        <ele>174</ele>
        <time>2018-01-14T11:49:44Z</time>
      </trkpt>
      <trkpt lat="45.93389" lon="4.72409">
        <ele>174</ele>
        <time>2018-01-14T11:49:45Z</time>
      </trkpt>
      <trkpt lat="45.93384" lon="4.72418">
        <ele>173</ele>
        <time>2018-01-14T11:49:47Z</time>
      </trkpt>
      <trkpt lat="45.93384" lon="4.72424">
        <ele>173</ele>
        <time>2018-01-14T11:49:48Z</time>
      </trkpt>
      <trkpt lat="45.93386" lon="4.72431">
        <ele>173</ele>
        <time>2018-01-14T11:49:49Z</time>
      </trkpt>
      <trkpt lat="45.93389" lon="4.72439">
        <ele>173</ele>
        <time>2018-01-14T11:49:50Z</time>
      </trkpt>
      <trkpt lat="45.9339" lon="4.72446">
        <ele>173</ele>
        <time>2018-01-14T11:49:51Z</time>
      </trkpt>
      <trkpt lat="45.93391" lon="4.72453">
        <ele>173</ele>
        <time>2018-01-14T11:49:52Z</time>
      </trkpt>
      <trkpt lat="45.9339" lon="4.7246">
        <ele>173</ele>
        <time>2018-01-14T11:49:53Z</time>
      </trkpt>
      <trkpt lat="45.93388" lon="4.72466">
        <ele>173</ele>
        <time>2018-01-14T11:49:54Z</time>
      </trkpt>
      <trkpt lat="45.93384" lon="4.7247">
        <ele>173</ele>
        <time>2018-01-14T11:49:55Z</time>
      </trkpt>
      <trkpt lat="45.9338" lon="4.72474">
        <ele>173</ele>
        <time>2018-01-14T11:49:56Z</time>
      </trkpt>
      <trkpt lat="45.93376" lon="4.72481">
        <ele>173</ele>
        <time>2018-01-14T11:49:57Z</time>
      </trkpt>
      <trkpt lat="45.93372" lon="4.72486">
        <ele>173</ele>
        <time>2018-01-14T11:49:58Z</time>
      </trkpt>
      <trkpt lat="45.93367" lon="4.7249">
        <ele>173</ele>
        <time>2018-01-14T11:49:59Z</time>
      </trkpt>
      <trkpt lat="45.93363" lon="4.72495">
        <ele>173</ele>
        <time>2018-01-14T11:50:00Z</time>
      </trkpt>
      <trkpt lat="45.93359" lon="4.725">
        <ele>172</ele>
        <time>2018-01-14T11:50:01Z</time>
      </trkpt>
      <trkpt lat="45.93354" lon="4.72505">
        <ele>172</ele>
        <time>2018-01-14T11:50:02Z</time>
      </trkpt>
      <trkpt lat="45.9335" lon="4.72509">
        <ele>172</ele>
        <time>2018-01-14T11:50:03Z</time>
      </trkpt>
      <trkpt lat="45.93346" lon="4.72513">
        <ele>172</ele>
        <time>2018-01-14T11:50:04Z</time>
      </trkpt>
      <trkpt lat="45.93343" lon="4.72517">
        <ele>172</ele>
        <time>2018-01-14T11:50:05Z</time>
      </trkpt>
      <trkpt lat="45.93339" lon="4.72522">
        <ele>172</ele>
        <time>2018-01-14T11:50:06Z</time>
      </trkpt>
      <trkpt lat="45.93335" lon="4.72527">
        <ele>172</ele>
        <time>2018-01-14T11:50:07Z</time>
      </trkpt>
      <trkpt lat="45.93331" lon="4.72531">
        <ele>172</ele>
        <time>2018-01-14T11:50:08Z</time>
      </trkpt>
      <trkpt lat="45.93326" lon="4.72535">
        <ele>172</ele>
        <time>2018-01-14T11:50:09Z</time>
      </trkpt>
      <trkpt lat="45.93321" lon="4.72538">
        <ele>172</ele>
        <time>2018-01-14T11:50:10Z</time>
      </trkpt>
      <trkpt lat="45.93317" lon="4.72542">
        <ele>172</ele>
        <time>2018-01-14T11:50:11Z</time>
      </trkpt>
      <trkpt lat="45.93313" lon="4.72546">
        <ele>172</ele>
        <time>2018-01-14T11:50:12Z</time>
      </trkpt>
      <trkpt lat="45.93307" lon="4.72555">
        <ele>172</ele>
        <time>2018-01-14T11:50:14Z</time>
      </trkpt>
      <trkpt lat="45.93303" lon="4.72559">
        <ele>172</ele>
        <time>2018-01-14T11:50:15Z</time>
      </trkpt>
      <trkpt lat="45.93299" lon="4.72564">
        <ele>172</ele>
        <time>2018-01-14T11:50:16Z</time>
      </trkpt>
      <trkpt lat="45.93294" lon="4.72569">
        <ele>172</ele>
        <time>2018-01-14T11:50:17Z</time>
      </trkpt>
      <trkpt lat="45.9329" lon="4.72574">
        <ele>172</ele>
        <time>2018-01-14T11:50:18Z</time>
      </trkpt>
      <trkpt lat="45.93285" lon="4.72578">
        <ele>172</ele>
        <time>2018-01-14T11:50:19Z</time>
      </trkpt>
      <trkpt lat="45.93281" lon="4.72585">
        <ele>170</ele>
        <time>2018-01-14T11:50:20Z</time>
      </trkpt>
      <trkpt lat="45.93276" lon="4.72589">
        <ele>170</ele>
        <time>2018-01-14T11:50:21Z</time>
      </trkpt>
      <trkpt lat="45.93271" lon="4.72594">
        <ele>170</ele>
        <time>2018-01-14T11:50:22Z</time>
      </trkpt>
      <trkpt lat="45.93267" lon="4.72599">
        <ele>170</ele>
        <time>2018-01-14T11:50:23Z</time>
      </trkpt>
      <trkpt lat="45.93263" lon="4.72604">
        <ele>170</ele>
        <time>2018-01-14T11:50:24Z</time>
      </trkpt>
      <trkpt lat="45.93258" lon="4.72609">
        <ele>170</ele>
        <time>2018-01-14T11:50:25Z</time>
      </trkpt>
      <trkpt lat="45.93254" lon="4.72614">
        <ele>170</ele>
        <time>2018-01-14T11:50:26Z</time>
      </trkpt>
      <trkpt lat="45.9325" lon="4.72618">
        <ele>170</ele>
        <time>2018-01-14T11:50:27Z</time>
      </trkpt>
      <trkpt lat="45.93246" lon="4.72621">
        <ele>170</ele>
        <time>2018-01-14T11:50:28Z</time>
      </trkpt>
      <trkpt lat="45.93242" lon="4.72628">
        <ele>170</ele>
        <time>2018-01-14T11:50:29Z</time>
      </trkpt>
      <trkpt lat="45.93239" lon="4.72633">
        <ele>170</ele>
        <time>2018-01-14T11:50:30Z</time>
      </trkpt>
      <trkpt lat="45.93235" lon="4.72639">
        <ele>170</ele>
        <time>2018-01-14T11:50:31Z</time>
      </trkpt>
      <trkpt lat="45.93228" lon="4.72646">
        <ele>170</ele>
        <time>2018-01-14T11:50:33Z</time>
      </trkpt>
      <trkpt lat="45.93224" lon="4.72651">
        <ele>170</ele>
        <time>2018-01-14T11:50:34Z</time>
      </trkpt>
      <trkpt lat="45.93221" lon="4.72655">
        <ele>170</ele>
        <time>2018-01-14T11:50:35Z</time>
      </trkpt>
      <trkpt lat="45.93216" lon="4.7266">
        <ele>170</ele>
        <time>2018-01-14T11:50:36Z</time>
      </trkpt>
      <trkpt lat="45.93211" lon="4.72663">
        <ele>170</ele>
        <time>2018-01-14T11:50:37Z</time>
      </trkpt>
      <trkpt lat="45.93207" lon="4.72669">
        <ele>169</ele>
        <time>2018-01-14T11:50:38Z</time>
      </trkpt>
      <trkpt lat="45.93203" lon="4.72675">
        <ele>169</ele>
        <time>2018-01-14T11:50:39Z</time>
      </trkpt>
      <trkpt lat="45.93198" lon="4.72681">
        <ele>169</ele>
        <time>2018-01-14T11:50:40Z</time>
      </trkpt>
      <trkpt lat="45.93193" lon="4.72685">
        <ele>169</ele>
        <time>2018-01-14T11:50:41Z</time>
      </trkpt>
      <trkpt lat="45.93188" lon="4.72691">
        <ele>169</ele>
        <time>2018-01-14T11:50:42Z</time>
      </trkpt>
      <trkpt lat="45.93184" lon="4.72697">
        <ele>169</ele>
        <time>2018-01-14T11:50:43Z</time>
      </trkpt>
      <trkpt lat="45.9318" lon="4.72702">
        <ele>169</ele>
        <time>2018-01-14T11:50:44Z</time>
      </trkpt>
      <trkpt lat="45.93176" lon="4.72708">
        <ele>169</ele>
        <time>2018-01-14T11:50:45Z</time>
      </trkpt>
      <trkpt lat="45.93172" lon="4.72714">
        <ele>170</ele>
        <time>2018-01-14T11:50:46Z</time>
      </trkpt>
      <trkpt lat="45.93167" lon="4.72719">
        <ele>170</ele>
        <time>2018-01-14T11:50:47Z</time>
      </trkpt>
      <trkpt lat="45.93163" lon="4.72725">
        <ele>170</ele>
        <time>2018-01-14T11:50:48Z</time>
      </trkpt>
      <trkpt lat="45.93158" lon="4.7273">
        <ele>170</ele>
        <time>2018-01-14T11:50:49Z</time>
      </trkpt>
      <trkpt lat="45.93153" lon="4.72735">
        <ele>170</ele>
        <time>2018-01-14T11:50:50Z</time>
      </trkpt>
      <trkpt lat="45.93149" lon="4.7274">
        <ele>170</ele>
        <time>2018-01-14T11:50:51Z</time>
      </trkpt>
      <trkpt lat="45.93144" lon="4.72744">
        <ele>170</ele>
        <time>2018-01-14T11:50:52Z</time>
      </trkpt>
      <trkpt lat="45.9314" lon="4.72749">
        <ele>170</ele>
        <time>2018-01-14T11:50:53Z</time>
      </trkpt>
      <trkpt lat="45.93136" lon="4.72754">
        <ele>171</ele>
        <time>2018-01-14T11:50:54Z</time>
      </trkpt>
      <trkpt lat="45.93133" lon="4.72759">
        <ele>171</ele>
        <time>2018-01-14T11:50:55Z</time>
      </trkpt>
      <trkpt lat="45.93129" lon="4.72764">
        <ele>171</ele>
        <time>2018-01-14T11:50:56Z</time>
      </trkpt>
      <trkpt lat="45.93125" lon="4.72769">
        <ele>171</ele>
        <time>2018-01-14T11:50:57Z</time>
      </trkpt>
      <trkpt lat="45.93121" lon="4.72775">
        <ele>171</ele>
        <time>2018-01-14T11:50:58Z</time>
      </trkpt>
      <trkpt lat="45.93117" lon="4.7278">
        <ele>171</ele>
        <time>2018-01-14T11:50:59Z</time>
      </trkpt>
      <trkpt lat="45.93113" lon="4.72786">
        <ele>171</ele>
        <time>2018-01-14T11:51:00Z</time>
      </trkpt>
      <trkpt lat="45.93109" lon="4.72791">
        <ele>171</ele>
        <time>2018-01-14T11:51:01Z</time>
      </trkpt>
      <trkpt lat="45.93104" lon="4.72796">
        <ele>171</ele>
        <time>2018-01-14T11:51:02Z</time>
      </trkpt>
      <trkpt lat="45.931" lon="4.72801">
        <ele>171</ele>
        <time>2018-01-14T11:51:03Z</time>
      </trkpt>
      <trkpt lat="45.93094" lon="4.72806">
        <ele>172</ele>
        <time>2018-01-14T11:51:04Z</time>
      </trkpt>
      <trkpt lat="45.9309" lon="4.72812">
        <ele>172</ele>
        <time>2018-01-14T11:51:05Z</time>
      </trkpt>
      <trkpt lat="45.93085" lon="4.72817">
        <ele>172</ele>
        <time>2018-01-14T11:51:06Z</time>
      </trkpt>
      <trkpt lat="45.93077" lon="4.72821">
        <ele>173</ele>
        <time>2018-01-14T11:51:10Z</time>
      </trkpt>
      <trkpt lat="45.93075" lon="4.72823">
        <ele>173</ele>
        <time>2018-01-14T11:51:11Z</time>
      </trkpt>
      <trkpt lat="45.93076" lon="4.72842">
        <ele>173</ele>
        <time>2018-01-14T11:51:12Z</time>
      </trkpt>
      <trkpt lat="45.93075" lon="4.7285">
        <ele>172</ele>
        <time>2018-01-14T11:51:13Z</time>
      </trkpt>
      <trkpt lat="45.93064" lon="4.72849">
        <ele>172</ele>
        <time>2018-01-14T11:51:14Z</time>
      </trkpt>
      <trkpt lat="45.93055" lon="4.72855">
        <ele>172</ele>
        <time>2018-01-14T11:51:15Z</time>
      </trkpt>
      <trkpt lat="45.9305" lon="4.72861">
        <ele>172</ele>
        <time>2018-01-14T11:51:16Z</time>
      </trkpt>
      <trkpt lat="45.93045" lon="4.72867">
        <ele>172</ele>
        <time>2018-01-14T11:51:17Z</time>
      </trkpt>
      <trkpt lat="45.9304" lon="4.72873">
        <ele>172</ele>
        <time>2018-01-14T11:51:18Z</time>
      </trkpt>
      <trkpt lat="45.93036" lon="4.72878">
        <ele>172</ele>
        <time>2018-01-14T11:51:19Z</time>
      </trkpt>
      <trkpt lat="45.93032" lon="4.72883">
        <ele>172</ele>
        <time>2018-01-14T11:51:20Z</time>
      </trkpt>
      <trkpt lat="45.93027" lon="4.72887">
        <ele>172</ele>
        <time>2018-01-14T11:51:21Z</time>
      </trkpt>
      <trkpt lat="45.93022" lon="4.72893">
        <ele>172</ele>
        <time>2018-01-14T11:51:22Z</time>
      </trkpt>
      <trkpt lat="45.93018" lon="4.72898">
        <ele>172</ele>
        <time>2018-01-14T11:51:23Z</time>
      </trkpt>
      <trkpt lat="45.93013" lon="4.72901">
        <ele>172</ele>
        <time>2018-01-14T11:51:24Z</time>
      </trkpt>
      <trkpt lat="45.93009" lon="4.72906">
        <ele>171</ele>
        <time>2018-01-14T11:51:25Z</time>
      </trkpt>
      <trkpt lat="45.93005" lon="4.72911">
        <ele>171</ele>
        <time>2018-01-14T11:51:26Z</time>
      </trkpt>
      <trkpt lat="45.93001" lon="4.72915">
        <ele>171</ele>
        <time>2018-01-14T11:51:27Z</time>
      </trkpt>
      <trkpt lat="45.92997" lon="4.7292">
        <ele>171</ele>
        <time>2018-01-14T11:51:28Z</time>
      </trkpt>
      <trkpt lat="45.92991" lon="4.72922">
        <ele>171</ele>
        <time>2018-01-14T11:51:29Z</time>
      </trkpt>
      <trkpt lat="45.92987" lon="4.72928">
        <ele>171</ele>
        <time>2018-01-14T11:51:30Z</time>
      </trkpt>
      <trkpt lat="45.92985" lon="4.72933">
        <ele>171</ele>
        <time>2018-01-14T11:51:31Z</time>
      </trkpt>
      <trkpt lat="45.9298" lon="4.72937">
        <ele>171</ele>
        <time>2018-01-14T11:51:32Z</time>
      </trkpt>
      <trkpt lat="45.92976" lon="4.72941">
        <ele>171</ele>
        <time>2018-01-14T11:51:33Z</time>
      </trkpt>
      <trkpt lat="45.92972" lon="4.72946">
        <ele>171</ele>
        <time>2018-01-14T11:51:34Z</time>
      </trkpt>
      <trkpt lat="45.92968" lon="4.72951">
        <ele>171</ele>
        <time>2018-01-14T11:51:35Z</time>
      </trkpt>
      <trkpt lat="45.92964" lon="4.72956">
        <ele>171</ele>
        <time>2018-01-14T11:51:36Z</time>
      </trkpt>
      <trkpt lat="45.9296" lon="4.72959">
        <ele>171</ele>
        <time>2018-01-14T11:51:37Z</time>
      </trkpt>
      <trkpt lat="45.92957" lon="4.72964">
        <ele>171</ele>
        <time>2018-01-14T11:51:38Z</time>
      </trkpt>
      <trkpt lat="45.92953" lon="4.72969">
        <ele>171</ele>
        <time>2018-01-14T11:51:39Z</time>
      </trkpt>
      <trkpt lat="45.92949" lon="4.72973">
        <ele>171</ele>
        <time>2018-01-14T11:51:40Z</time>
      </trkpt>
      <trkpt lat="45.92946" lon="4.72978">
        <ele>171</ele>
        <time>2018-01-14T11:51:41Z</time>
      </trkpt>
      <trkpt lat="45.92942" lon="4.72983">
        <ele>171</ele>
        <time>2018-01-14T11:51:42Z</time>
      </trkpt>
      <trkpt lat="45.92939" lon="4.72988">
        <ele>171</ele>
        <time>2018-01-14T11:51:43Z</time>
      </trkpt>
      <trkpt lat="45.92934" lon="4.72992">
        <ele>172</ele>
        <time>2018-01-14T11:51:44Z</time>
      </trkpt>
      <trkpt lat="45.92931" lon="4.72997">
        <ele>172</ele>
        <time>2018-01-14T11:51:45Z</time>
      </trkpt>
      <trkpt lat="45.92927" lon="4.73001">
        <ele>172</ele>
        <time>2018-01-14T11:51:46Z</time>
      </trkpt>
      <trkpt lat="45.92924" lon="4.73006">
        <ele>172</ele>
        <time>2018-01-14T11:51:47Z</time>
      </trkpt>
      <trkpt lat="45.92916" lon="4.73013">
        <ele>172</ele>
        <time>2018-01-14T11:51:49Z</time>
      </trkpt>
      <trkpt lat="45.92914" lon="4.73018">
        <ele>172</ele>
        <time>2018-01-14T11:51:50Z</time>
      </trkpt>
      <trkpt lat="45.9291" lon="4.73023">
        <ele>172</ele>
        <time>2018-01-14T11:51:51Z</time>
      </trkpt>
      <trkpt lat="45.92907" lon="4.73027">
        <ele>172</ele>
        <time>2018-01-14T11:51:52Z</time>
      </trkpt>
      <trkpt lat="45.92903" lon="4.73031">
        <ele>172</ele>
        <time>2018-01-14T11:51:53Z</time>
      </trkpt>
      <trkpt lat="45.929" lon="4.73035">
        <ele>172</ele>
        <time>2018-01-14T11:51:54Z</time>
      </trkpt>
      <trkpt lat="45.92897" lon="4.7304">
        <ele>172</ele>
        <time>2018-01-14T11:51:55Z</time>
      </trkpt>
      <trkpt lat="45.92894" lon="4.73046">
        <ele>172</ele>
        <time>2018-01-14T11:51:56Z</time>
      </trkpt>
      <trkpt lat="45.9289" lon="4.7305">
        <ele>172</ele>
        <time>2018-01-14T11:51:57Z</time>
      </trkpt>
      <trkpt lat="45.92887" lon="4.73055">
        <ele>172</ele>
        <time>2018-01-14T11:51:58Z</time>
      </trkpt>
      <trkpt lat="45.92882" lon="4.73064">
        <ele>172</ele>
        <time>2018-01-14T11:52:00Z</time>
      </trkpt>
      <trkpt lat="45.92879" lon="4.73068">
        <ele>172</ele>
        <time>2018-01-14T11:52:01Z</time>
      </trkpt>
      <trkpt lat="45.92875" lon="4.73073">
        <ele>172</ele>
        <time>2018-01-14T11:52:02Z</time>
      </trkpt>
      <trkpt lat="45.92872" lon="4.73077">
        <ele>172</ele>
        <time>2018-01-14T11:52:03Z</time>
      </trkpt>
      <trkpt lat="45.92866" lon="4.73086">
        <ele>172</ele>
        <time>2018-01-14T11:52:05Z</time>
      </trkpt>
      <trkpt lat="45.92862" lon="4.73092">
        <ele>171</ele>
        <time>2018-01-14T11:52:06Z</time>
      </trkpt>
      <trkpt lat="45.92859" lon="4.73095">
        <ele>171</ele>
        <time>2018-01-14T11:52:07Z</time>
      </trkpt>
      <trkpt lat="45.92856" lon="4.731">
        <ele>171</ele>
        <time>2018-01-14T11:52:08Z</time>
      </trkpt>
      <trkpt lat="45.92847" lon="4.73097">
        <ele>171</ele>
        <time>2018-01-14T11:52:10Z</time>
      </trkpt>
      <trkpt lat="45.92845" lon="4.73091">
        <ele>171</ele>
        <time>2018-01-14T11:52:11Z</time>
      </trkpt>
      <trkpt lat="45.92844" lon="4.73084">
        <ele>171</ele>
        <time>2018-01-14T11:52:12Z</time>
      </trkpt>
      <trkpt lat="45.92844" lon="4.73078">
        <ele>171</ele>
        <time>2018-01-14T11:52:13Z</time>
      </trkpt>
      <trkpt lat="45.92843" lon="4.73065">
        <ele>171</ele>
        <time>2018-01-14T11:52:15Z</time>
      </trkpt>
      <trkpt lat="45.92843" lon="4.73059">
        <ele>171</ele>
        <time>2018-01-14T11:52:16Z</time>
      </trkpt>
      <trkpt lat="45.92841" lon="4.73052">
        <ele>171</ele>
        <time>2018-01-14T11:52:17Z</time>
      </trkpt>
      <trkpt lat="45.92839" lon="4.73045">
        <ele>171</ele>
        <time>2018-01-14T11:52:18Z</time>
      </trkpt>
      <trkpt lat="45.92838" lon="4.73039">
        <ele>171</ele>
        <time>2018-01-14T11:52:19Z</time>
      </trkpt>
      <trkpt lat="45.92836" lon="4.73032">
        <ele>171</ele>
        <time>2018-01-14T11:52:20Z</time>
      </trkpt>
      <trkpt lat="45.92836" lon="4.73025">
        <ele>171</ele>
        <time>2018-01-14T11:52:21Z</time>
      </trkpt>
      <trkpt lat="45.92834" lon="4.73019">
        <ele>171</ele>
        <time>2018-01-14T11:52:22Z</time>
      </trkpt>
      <trkpt lat="45.92833" lon="4.73006">
        <ele>170</ele>
        <time>2018-01-14T11:52:24Z</time>
      </trkpt>
      <trkpt lat="45.92831" lon="4.72999">
        <ele>170</ele>
        <time>2018-01-14T11:52:25Z</time>
      </trkpt>
      <trkpt lat="45.92831" lon="4.72991">
        <ele>170</ele>
        <time>2018-01-14T11:52:26Z</time>
      </trkpt>
      <trkpt lat="45.92832" lon="4.72982">
        <ele>170</ele>
        <time>2018-01-14T11:52:27Z</time>
      </trkpt>
      <trkpt lat="45.92833" lon="4.72974">
        <ele>170</ele>
        <time>2018-01-14T11:52:28Z</time>
      </trkpt>
      <trkpt lat="45.92832" lon="4.72967">
        <ele>170</ele>
        <time>2018-01-14T11:52:29Z</time>
      </trkpt>
      <trkpt lat="45.9283" lon="4.72956">
        <ele>170</ele>
        <time>2018-01-14T11:52:31Z</time>
      </trkpt>
      <trkpt lat="45.9283" lon="4.7295">
        <ele>170</ele>
        <time>2018-01-14T11:52:32Z</time>
      </trkpt>
      <trkpt lat="45.92828" lon="4.72938">
        <ele>170</ele>
        <time>2018-01-14T11:52:34Z</time>
      </trkpt>
      <trkpt lat="45.92827" lon="4.72933">
        <ele>170</ele>
        <time>2018-01-14T11:52:35Z</time>
      </trkpt>
      <trkpt lat="45.92826" lon="4.72921">
        <ele>170</ele>
        <time>2018-01-14T11:52:37Z</time>
      </trkpt>
      <trkpt lat="45.92825" lon="4.72915">
        <ele>170</ele>
        <time>2018-01-14T11:52:38Z</time>
      </trkpt>
      <trkpt lat="45.92824" lon="4.72904">
        <ele>170</ele>
        <time>2018-01-14T11:52:40Z</time>
      </trkpt>
      <trkpt lat="45.92821" lon="4.72897">
        <ele>170</ele>
        <time>2018-01-14T11:52:41Z</time>
      </trkpt>
      <trkpt lat="45.9282" lon="4.72891">
        <ele>170</ele>
        <time>2018-01-14T11:52:42Z</time>
      </trkpt>
      <trkpt lat="45.92819" lon="4.72885">
        <ele>170</ele>
        <time>2018-01-14T11:52:43Z</time>
      </trkpt>
      <trkpt lat="45.92817" lon="4.72879">
        <ele>170</ele>
        <time>2018-01-14T11:52:44Z</time>
      </trkpt>
      <trkpt lat="45.92816" lon="4.72872">
        <ele>170</ele>
        <time>2018-01-14T11:52:45Z</time>
      </trkpt>
      <trkpt lat="45.92814" lon="4.7286">
        <ele>170</ele>
        <time>2018-01-14T11:52:47Z</time>
      </trkpt>
      <trkpt lat="45.92813" lon="4.72853">
        <ele>170</ele>
        <time>2018-01-14T11:52:48Z</time>
      </trkpt>
      <trkpt lat="45.92811" lon="4.72846">
        <ele>170</ele>
        <time>2018-01-14T11:52:49Z</time>
      </trkpt>
      <trkpt lat="45.9281" lon="4.72838">
        <ele>170</ele>
        <time>2018-01-14T11:52:50Z</time>
      </trkpt>
      <trkpt lat="45.92808" lon="4.72832">
        <ele>171</ele>
        <time>2018-01-14T11:52:51Z</time>
      </trkpt>
      <trkpt lat="45.92806" lon="4.72826">
        <ele>171</ele>
        <time>2018-01-14T11:52:52Z</time>
      </trkpt>
      <trkpt lat="45.92806" lon="4.72818">
        <ele>171</ele>
        <time>2018-01-14T11:52:53Z</time>
      </trkpt>
      <trkpt lat="45.92805" lon="4.72812">
        <ele>171</ele>
        <time>2018-01-14T11:52:54Z</time>
      </trkpt>
      <trkpt lat="45.92804" lon="4.72805">
        <ele>171</ele>
        <time>2018-01-14T11:52:55Z</time>
      </trkpt>
      <trkpt lat="45.92803" lon="4.72799">
        <ele>171</ele>
        <time>2018-01-14T11:52:56Z</time>
      </trkpt>
      <trkpt lat="45.92799" lon="4.72789">
        <ele>171</ele>
        <time>2018-01-14T11:52:58Z</time>
      </trkpt>
      <trkpt lat="45.92794" lon="4.72788">
        <ele>171</ele>
        <time>2018-01-14T11:52:59Z</time>
      </trkpt>
      <trkpt lat="45.92786" lon="4.7279">
        <ele>170</ele>
        <time>2018-01-14T11:53:01Z</time>
      </trkpt>
      <trkpt lat="45.92781" lon="4.7279">
        <ele>170</ele>
        <time>2018-01-14T11:53:02Z</time>
      </trkpt>
      <trkpt lat="45.92776" lon="4.72792">
        <ele>170</ele>
        <time>2018-01-14T11:53:03Z</time>
      </trkpt>
      <trkpt lat="45.92772" lon="4.72795">
        <ele>170</ele>
        <time>2018-01-14T11:53:04Z</time>
      </trkpt>
      <trkpt lat="45.92768" lon="4.72799">
        <ele>170</ele>
        <time>2018-01-14T11:53:05Z</time>
      </trkpt>
      <trkpt lat="45.92764" lon="4.72802">
        <ele>170</ele>
        <time>2018-01-14T11:53:06Z</time>
      </trkpt>
      <trkpt lat="45.92757" lon="4.72808">
        <ele>170</ele>
        <time>2018-01-14T11:53:08Z</time>
      </trkpt>
      <trkpt lat="45.92753" lon="4.7281">
        <ele>170</ele>
        <time>2018-01-14T11:53:09Z</time>
      </trkpt>
      <trkpt lat="45.92749" lon="4.72814">
        <ele>170</ele>
        <time>2018-01-14T11:53:10Z</time>
      </trkpt>
      <trkpt lat="45.92745" lon="4.72817">
        <ele>170</ele>
        <time>2018-01-14T11:53:11Z</time>
      </trkpt>
      <trkpt lat="45.92741" lon="4.72821">
        <ele>169</ele>
        <time>2018-01-14T11:53:12Z</time>
      </trkpt>
      <trkpt lat="45.92736" lon="4.72824">
        <ele>169</ele>
        <time>2018-01-14T11:53:13Z</time>
      </trkpt>
      <trkpt lat="45.92731" lon="4.72829">
        <ele>169</ele>
        <time>2018-01-14T11:53:14Z</time>
      </trkpt>
      <trkpt lat="45.92727" lon="4.72833">
        <ele>170</ele>
        <time>2018-01-14T11:53:15Z</time>
      </trkpt>
      <trkpt lat="45.92722" lon="4.72836">
        <ele>169</ele>
        <time>2018-01-14T11:53:16Z</time>
      </trkpt>
      <trkpt lat="45.92717" lon="4.72839">
        <ele>169</ele>
        <time>2018-01-14T11:53:17Z</time>
      </trkpt>
      <trkpt lat="45.92713" lon="4.72843">
        <ele>169</ele>
        <time>2018-01-14T11:53:18Z</time>
      </trkpt>
      <trkpt lat="45.92709" lon="4.72846">
        <ele>169</ele>
        <time>2018-01-14T11:53:19Z</time>
      </trkpt>
      <trkpt lat="45.92705" lon="4.7285">
        <ele>169</ele>
        <time>2018-01-14T11:53:20Z</time>
      </trkpt>
      <trkpt lat="45.927" lon="4.72853">
        <ele>169</ele>
        <time>2018-01-14T11:53:21Z</time>
      </trkpt>
      <trkpt lat="45.92693" lon="4.72857">
        <ele>169</ele>
        <time>2018-01-14T11:53:23Z</time>
      </trkpt>
      <trkpt lat="45.92689" lon="4.72862">
        <ele>169</ele>
        <time>2018-01-14T11:53:24Z</time>
      </trkpt>
      <trkpt lat="45.92684" lon="4.72867">
        <ele>169</ele>
        <time>2018-01-14T11:53:25Z</time>
      </trkpt>
      <trkpt lat="45.9268" lon="4.72869">
        <ele>169</ele>
        <time>2018-01-14T11:53:26Z</time>
      </trkpt>
      <trkpt lat="45.92675" lon="4.72873">
        <ele>169</ele>
        <time>2018-01-14T11:53:27Z</time>
      </trkpt>
      <trkpt lat="45.92671" lon="4.72877">
        <ele>170</ele>
        <time>2018-01-14T11:53:28Z</time>
      </trkpt>
      <trkpt lat="45.92667" lon="4.7288">
        <ele>170</ele>
        <time>2018-01-14T11:53:29Z</time>
      </trkpt>
      <trkpt lat="45.92662" lon="4.72883">
        <ele>169</ele>
        <time>2018-01-14T11:53:30Z</time>
      </trkpt>
      <trkpt lat="45.92658" lon="4.72886">
        <ele>169</ele>
        <time>2018-01-14T11:53:31Z</time>
      </trkpt>
      <trkpt lat="45.92653" lon="4.72888">
        <ele>169</ele>
        <time>2018-01-14T11:53:32Z</time>
      </trkpt>
      <trkpt lat="45.92649" lon="4.72892">
        <ele>169</ele>
        <time>2018-01-14T11:53:33Z</time>
      </trkpt>
      <trkpt lat="45.92645" lon="4.72896">
        <ele>169</ele>
        <time>2018-01-14T11:53:34Z</time>
      </trkpt>
      <trkpt lat="45.9264" lon="4.72902">
        <ele>169</ele>
        <time>2018-01-14T11:53:35Z</time>
      </trkpt>
      <trkpt lat="45.92634" lon="4.72904">
        <ele>169</ele>
        <time>2018-01-14T11:53:36Z</time>
      </trkpt>
      <trkpt lat="45.92629" lon="4.72907">
        <ele>169</ele>
        <time>2018-01-14T11:53:37Z</time>
      </trkpt>
      <trkpt lat="45.92625" lon="4.72911">
        <ele>169</ele>
        <time>2018-01-14T11:53:38Z</time>
      </trkpt>
      <trkpt lat="45.9262" lon="4.72915">
        <ele>169</ele>
        <time>2018-01-14T11:53:39Z</time>
      </trkpt>
      <trkpt lat="45.92615" lon="4.7292">
        <ele>169</ele>
        <time>2018-01-14T11:53:40Z</time>
      </trkpt>
      <trkpt lat="45.92609" lon="4.72923">
        <ele>169</ele>
        <time>2018-01-14T11:53:41Z</time>
      </trkpt>
      <trkpt lat="45.92604" lon="4.72928">
        <ele>169</ele>
        <time>2018-01-14T11:53:42Z</time>
      </trkpt>
      <trkpt lat="45.92599" lon="4.72933">
        <ele>169</ele>
        <time>2018-01-14T11:53:43Z</time>
      </trkpt>
      <trkpt lat="45.92594" lon="4.7294">
        <ele>169</ele>
        <time>2018-01-14T11:53:44Z</time>
      </trkpt>
      <trkpt lat="45.92589" lon="4.72945">
        <ele>169</ele>
        <time>2018-01-14T11:53:45Z</time>
      </trkpt>
      <trkpt lat="45.92583" lon="4.72951">
        <ele>169</ele>
        <time>2018-01-14T11:53:46Z</time>
      </trkpt>
      <trkpt lat="45.92579" lon="4.72957">
        <ele>169</ele>
        <time>2018-01-14T11:53:47Z</time>
      </trkpt>
      <trkpt lat="45.92575" lon="4.72964">
        <ele>169</ele>
        <time>2018-01-14T11:53:48Z</time>
      </trkpt>
      <trkpt lat="45.9257" lon="4.72969">
        <ele>169</ele>
        <time>2018-01-14T11:53:49Z</time>
      </trkpt>
      <trkpt lat="45.92565" lon="4.72973">
        <ele>169</ele>
        <time>2018-01-14T11:53:50Z</time>
      </trkpt>
      <trkpt lat="45.9256" lon="4.72979">
        <ele>169</ele>
        <time>2018-01-14T11:53:51Z</time>
      </trkpt>
      <trkpt lat="45.92555" lon="4.72984">
        <ele>169</ele>
        <time>2018-01-14T11:53:52Z</time>
      </trkpt>
      <trkpt lat="45.9255" lon="4.72989">
        <ele>169</ele>
        <time>2018-01-14T11:53:53Z</time>
      </trkpt>
      <trkpt lat="45.92545" lon="4.72995">
        <ele>169</ele>
        <time>2018-01-14T11:53:54Z</time>
      </trkpt>
      <trkpt lat="45.9254" lon="4.73">
        <ele>169</ele>
        <time>2018-01-14T11:53:55Z</time>
      </trkpt>
      <trkpt lat="45.92533" lon="4.73004">
        <ele>169</ele>
        <time>2018-01-14T11:53:56Z</time>
      </trkpt>
      <trkpt lat="45.92528" lon="4.73008">
        <ele>169</ele>
        <time>2018-01-14T11:53:57Z</time>
      </trkpt>
      <trkpt lat="45.92523" lon="4.73013">
        <ele>169</ele>
        <time>2018-01-14T11:53:58Z</time>
      </trkpt>
      <trkpt lat="45.92517" lon="4.73018">
        <ele>169</ele>
        <time>2018-01-14T11:53:59Z</time>
      </trkpt>
      <trkpt lat="45.92512" lon="4.73022">
        <ele>169</ele>
        <time>2018-01-14T11:54:00Z</time>
      </trkpt>
      <trkpt lat="45.92507" lon="4.73026">
        <ele>169</ele>
        <time>2018-01-14T11:54:01Z</time>
      </trkpt>
      <trkpt lat="45.92502" lon="4.73031">
        <ele>169</ele>
        <time>2018-01-14T11:54:02Z</time>
      </trkpt>
      <trkpt lat="45.92497" lon="4.73036">
        <ele>170</ele>
        <time>2018-01-14T11:54:03Z</time>
      </trkpt>
      <trkpt lat="45.92492" lon="4.7304">
        <ele>170</ele>
        <time>2018-01-14T11:54:04Z</time>
      </trkpt>
      <trkpt lat="45.92487" lon="4.73046">
        <ele>170</ele>
        <time>2018-01-14T11:54:05Z</time>
      </trkpt>
      <trkpt lat="45.92482" lon="4.73051">
        <ele>170</ele>
        <time>2018-01-14T11:54:06Z</time>
      </trkpt>
      <trkpt lat="45.92478" lon="4.73055">
        <ele>170</ele>
        <time>2018-01-14T11:54:07Z</time>
      </trkpt>
      <trkpt lat="45.92473" lon="4.7306">
        <ele>170</ele>
        <time>2018-01-14T11:54:08Z</time>
      </trkpt>
      <trkpt lat="45.92468" lon="4.73064">
        <ele>170</ele>
        <time>2018-01-14T11:54:09Z</time>
      </trkpt>
      <trkpt lat="45.92463" lon="4.73068">
        <ele>170</ele>
        <time>2018-01-14T11:54:10Z</time>
      </trkpt>
      <trkpt lat="45.92459" lon="4.73072">
        <ele>170</ele>
        <time>2018-01-14T11:54:11Z</time>
      </trkpt>
      <trkpt lat="45.92454" lon="4.73076">
        <ele>170</ele>
        <time>2018-01-14T11:54:12Z</time>
      </trkpt>
      <trkpt lat="45.92449" lon="4.73081">
        <ele>170</ele>
        <time>2018-01-14T11:54:13Z</time>
      </trkpt>
      <trkpt lat="45.92445" lon="4.73083">
        <ele>170</ele>
        <time>2018-01-14T11:54:14Z</time>
      </trkpt>
      <trkpt lat="45.9244" lon="4.73088">
        <ele>171</ele>
        <time>2018-01-14T11:54:15Z</time>
      </trkpt>
      <trkpt lat="45.92436" lon="4.73092">
        <ele>171</ele>
        <time>2018-01-14T11:54:16Z</time>
      </trkpt>
      <trkpt lat="45.92432" lon="4.73096">
        <ele>171</ele>
        <time>2018-01-14T11:54:17Z</time>
      </trkpt>
      <trkpt lat="45.92427" lon="4.73099">
        <ele>171</ele>
        <time>2018-01-14T11:54:18Z</time>
      </trkpt>
      <trkpt lat="45.92422" lon="4.73102">
        <ele>171</ele>
        <time>2018-01-14T11:54:19Z</time>
      </trkpt>
      <trkpt lat="45.92417" lon="4.73105">
        <ele>171</ele>
        <time>2018-01-14T11:54:20Z</time>
      </trkpt>
      <trkpt lat="45.92413" lon="4.73108">
        <ele>171</ele>
        <time>2018-01-14T11:54:21Z</time>
      </trkpt>
      <trkpt lat="45.92409" lon="4.73112">
        <ele>171</ele>
        <time>2018-01-14T11:54:22Z</time>
      </trkpt>
      <trkpt lat="45.92406" lon="4.73118">
        <ele>171</ele>
        <time>2018-01-14T11:54:23Z</time>
      </trkpt>
      <trkpt lat="45.92404" lon="4.73124">
        <ele>171</ele>
        <time>2018-01-14T11:54:24Z</time>
      </trkpt>
      <trkpt lat="45.92403" lon="4.73133">
        <ele>171</ele>
        <time>2018-01-14T11:54:25Z</time>
      </trkpt>
      <trkpt lat="45.92404" lon="4.7314">
        <ele>171</ele>
        <time>2018-01-14T11:54:26Z</time>
      </trkpt>
      <trkpt lat="45.92404" lon="4.73148">
        <ele>171</ele>
        <time>2018-01-14T11:54:27Z</time>
      </trkpt>
      <trkpt lat="45.92404" lon="4.73156">
        <ele>171</ele>
        <time>2018-01-14T11:54:28Z</time>
      </trkpt>
      <trkpt lat="45.92405" lon="4.73164">
        <ele>170</ele>
        <time>2018-01-14T11:54:29Z</time>
      </trkpt>
      <trkpt lat="45.92405" lon="4.73172">
        <ele>171</ele>
        <time>2018-01-14T11:54:30Z</time>
      </trkpt>
      <trkpt lat="45.92405" lon="4.7318">
        <ele>171</ele>
        <time>2018-01-14T11:54:31Z</time>
      </trkpt>
      <trkpt lat="45.92405" lon="4.73189">
        <ele>171</ele>
        <time>2018-01-14T11:54:32Z</time>
      </trkpt>
      <trkpt lat="45.92406" lon="4.73195">
        <ele>171</ele>
        <time>2018-01-14T11:54:33Z</time>
      </trkpt>
      <trkpt lat="45.92406" lon="4.73203">
        <ele>171</ele>
        <time>2018-01-14T11:54:34Z</time>
      </trkpt>
      <trkpt lat="45.92407" lon="4.73211">
        <ele>171</ele>
        <time>2018-01-14T11:54:35Z</time>
      </trkpt>
      <trkpt lat="45.92407" lon="4.7322">
        <ele>171</ele>
        <time>2018-01-14T11:54:36Z</time>
      </trkpt>
      <trkpt lat="45.92408" lon="4.73227">
        <ele>171</ele>
        <time>2018-01-14T11:54:37Z</time>
      </trkpt>
      <trkpt lat="45.92408" lon="4.73234">
        <ele>171</ele>
        <time>2018-01-14T11:54:38Z</time>
      </trkpt>
      <trkpt lat="45.92409" lon="4.73241">
        <ele>171</ele>
        <time>2018-01-14T11:54:39Z</time>
      </trkpt>
      <trkpt lat="45.92409" lon="4.73248">
        <ele>171</ele>
        <time>2018-01-14T11:54:40Z</time>
      </trkpt>
      <trkpt lat="45.9241" lon="4.73256">
        <ele>171</ele>
        <time>2018-01-14T11:54:41Z</time>
      </trkpt>
      <trkpt lat="45.9241" lon="4.73264">
        <ele>171</ele>
        <time>2018-01-14T11:54:42Z</time>
      </trkpt>
      <trkpt lat="45.92412" lon="4.73276">
        <ele>171</ele>
        <time>2018-01-14T11:54:44Z</time>
      </trkpt>
      <trkpt lat="45.92413" lon="4.73283">
        <ele>171</ele>
        <time>2018-01-14T11:54:45Z</time>
      </trkpt>
      <trkpt lat="45.92415" lon="4.73296">
        <ele>171</ele>
        <time>2018-01-14T11:54:47Z</time>
      </trkpt>
      <trkpt lat="45.92416" lon="4.73303">
        <ele>171</ele>
        <time>2018-01-14T11:54:48Z</time>
      </trkpt>
      <trkpt lat="45.92416" lon="4.73312">
        <ele>171</ele>
        <time>2018-01-14T11:54:49Z</time>
      </trkpt>
      <trkpt lat="45.92417" lon="4.73319">
        <ele>171</ele>
        <time>2018-01-14T11:54:50Z</time>
      </trkpt>
      <trkpt lat="45.9242" lon="4.73327">
        <ele>171</ele>
        <time>2018-01-14T11:54:51Z</time>
      </trkpt>
      <trkpt lat="45.92421" lon="4.73334">
        <ele>171</ele>
        <time>2018-01-14T11:54:52Z</time>
      </trkpt>
      <trkpt lat="45.92421" lon="4.73342">
        <ele>171</ele>
        <time>2018-01-14T11:54:53Z</time>
      </trkpt>
      <trkpt lat="45.92422" lon="4.73349">
        <ele>171</ele>
        <time>2018-01-14T11:54:54Z</time>
      </trkpt>
      <trkpt lat="45.92422" lon="4.73356">
        <ele>171</ele>
        <time>2018-01-14T11:54:55Z</time>
      </trkpt>
      <trkpt lat="45.92423" lon="4.73362">
        <ele>172</ele>
        <time>2018-01-14T11:54:56Z</time>
      </trkpt>
      <trkpt lat="45.92424" lon="4.73369">
        <ele>172</ele>
        <time>2018-01-14T11:54:57Z</time>
      </trkpt>
      <trkpt lat="45.92426" lon="4.73376">
        <ele>172</ele>
        <time>2018-01-14T11:54:58Z</time>
      </trkpt>
      <trkpt lat="45.92426" lon="4.73382">
        <ele>172</ele>
        <time>2018-01-14T11:54:59Z</time>
      </trkpt>
      <trkpt lat="45.92427" lon="4.73389">
        <ele>172</ele>
        <time>2018-01-14T11:55:00Z</time>
      </trkpt>
      <trkpt lat="45.92428" lon="4.73395">
        <ele>172</ele>
        <time>2018-01-14T11:55:01Z</time>
      </trkpt>
      <trkpt lat="45.9243" lon="4.73403">
        <ele>172</ele>
        <time>2018-01-14T11:55:02Z</time>
      </trkpt>
      <trkpt lat="45.92432" lon="4.73408">
        <ele>172</ele>
        <time>2018-01-14T11:55:03Z</time>
      </trkpt>
      <trkpt lat="45.92434" lon="4.73414">
        <ele>172</ele>
        <time>2018-01-14T11:55:04Z</time>
      </trkpt>
      <trkpt lat="45.92438" lon="4.73418">
        <ele>173</ele>
        <time>2018-01-14T11:55:05Z</time>
      </trkpt>
      <trkpt lat="45.92443" lon="4.73421">
        <ele>173</ele>
        <time>2018-01-14T11:55:06Z</time>
      </trkpt>
      <trkpt lat="45.92447" lon="4.73423">
        <ele>173</ele>
        <time>2018-01-14T11:55:07Z</time>
      </trkpt>
      <trkpt lat="45.92451" lon="4.73427">
        <ele>173</ele>
        <time>2018-01-14T11:55:08Z</time>
      </trkpt>
      <trkpt lat="45.92456" lon="4.73432">
        <ele>173</ele>
        <time>2018-01-14T11:55:09Z</time>
      </trkpt>
      <trkpt lat="45.92459" lon="4.73436">
        <ele>173</ele>
        <time>2018-01-14T11:55:10Z</time>
      </trkpt>
      <trkpt lat="45.92462" lon="4.73442">
        <ele>173</ele>
        <time>2018-01-14T11:55:11Z</time>
      </trkpt>
      <trkpt lat="45.92465" lon="4.73449">
        <ele>173</ele>
        <time>2018-01-14T11:55:12Z</time>
      </trkpt>
      <trkpt lat="45.92467" lon="4.73457">
        <ele>173</ele>
        <time>2018-01-14T11:55:13Z</time>
      </trkpt>
      <trkpt lat="45.92468" lon="4.73464">
        <ele>173</ele>
        <time>2018-01-14T11:55:14Z</time>
      </trkpt>
      <trkpt lat="45.92469" lon="4.73471">
        <ele>173</ele>
        <time>2018-01-14T11:55:15Z</time>
      </trkpt>
      <trkpt lat="45.92469" lon="4.73478">
        <ele>173</ele>
        <time>2018-01-14T11:55:16Z</time>
      </trkpt>
      <trkpt lat="45.92469" lon="4.73485">
        <ele>173</ele>
        <time>2018-01-14T11:55:17Z</time>
      </trkpt>
      <trkpt lat="45.92468" lon="4.73492">
        <ele>173</ele>
        <time>2018-01-14T11:55:18Z</time>
      </trkpt>
      <trkpt lat="45.92467" lon="4.735">
        <ele>173</ele>
        <time>2018-01-14T11:55:19Z</time>
      </trkpt>
      <trkpt lat="45.92467" lon="4.73508">
        <ele>174</ele>
        <time>2018-01-14T11:55:20Z</time>
      </trkpt>
      <trkpt lat="45.92467" lon="4.73516">
        <ele>174</ele>
        <time>2018-01-14T11:55:21Z</time>
      </trkpt>
      <trkpt lat="45.92467" lon="4.73523">
        <ele>174</ele>
        <time>2018-01-14T11:55:22Z</time>
      </trkpt>
      <trkpt lat="45.92467" lon="4.73535">
        <ele>174</ele>
        <time>2018-01-14T11:55:24Z</time>
      </trkpt>
      <trkpt lat="45.92467" lon="4.7354">
        <ele>174</ele>
        <time>2018-01-14T11:55:25Z</time>
      </trkpt>
      <trkpt lat="45.92466" lon="4.7355">
        <ele>173</ele>
        <time>2018-01-14T11:55:27Z</time>
      </trkpt>
      <trkpt lat="45.92466" lon="4.73556">
        <ele>173</ele>
        <time>2018-01-14T11:55:28Z</time>
      </trkpt>
      <trkpt lat="45.92466" lon="4.73562">
        <ele>173</ele>
        <time>2018-01-14T11:55:29Z</time>
      </trkpt>
      <trkpt lat="45.92465" lon="4.73569">
        <ele>173</ele>
        <time>2018-01-14T11:55:30Z</time>
      </trkpt>
      <trkpt lat="45.92466" lon="4.73576">
        <ele>173</ele>
        <time>2018-01-14T11:55:31Z</time>
      </trkpt>
      <trkpt lat="45.92467" lon="4.73585">
        <ele>174</ele>
        <time>2018-01-14T11:55:32Z</time>
      </trkpt>
      <trkpt lat="45.92467" lon="4.73594">
        <ele>174</ele>
        <time>2018-01-14T11:55:33Z</time>
      </trkpt>
      <trkpt lat="45.92467" lon="4.73602">
        <ele>174</ele>
        <time>2018-01-14T11:55:34Z</time>
      </trkpt>
      <trkpt lat="45.92468" lon="4.73611">
        <ele>174</ele>
        <time>2018-01-14T11:55:35Z</time>
      </trkpt>
      <trkpt lat="45.92469" lon="4.7362">
        <ele>174</ele>
        <time>2018-01-14T11:55:36Z</time>
      </trkpt>
      <trkpt lat="45.92469" lon="4.73629">
        <ele>174</ele>
        <time>2018-01-14T11:55:37Z</time>
      </trkpt>
      <trkpt lat="45.9247" lon="4.73638">
        <ele>174</ele>
        <time>2018-01-14T11:55:38Z</time>
      </trkpt>
      <trkpt lat="45.9247" lon="4.73646">
        <ele>174</ele>
        <time>2018-01-14T11:55:39Z</time>
      </trkpt>
      <trkpt lat="45.9247" lon="4.73653">
        <ele>174</ele>
        <time>2018-01-14T11:55:40Z</time>
      </trkpt>
      <trkpt lat="45.92469" lon="4.7366">
        <ele>174</ele>
        <time>2018-01-14T11:55:41Z</time>
      </trkpt>
      <trkpt lat="45.92468" lon="4.73668">
        <ele>174</ele>
        <time>2018-01-14T11:55:42Z</time>
      </trkpt>
      <trkpt lat="45.92467" lon="4.73675">
        <ele>174</ele>
        <time>2018-01-14T11:55:43Z</time>
      </trkpt>
      <trkpt lat="45.92467" lon="4.73681">
        <ele>174</ele>
        <time>2018-01-14T11:55:44Z</time>
      </trkpt>
      <trkpt lat="45.92466" lon="4.73694">
        <ele>174</ele>
        <time>2018-01-14T11:55:46Z</time>
      </trkpt>
      <trkpt lat="45.92466" lon="4.73699">
        <ele>174</ele>
        <time>2018-01-14T11:55:47Z</time>
      </trkpt>
      <trkpt lat="45.92465" lon="4.73712">
        <ele>174</ele>
        <time>2018-01-14T11:56:12Z</time>
      </trkpt>
      <trkpt lat="45.92465" lon="4.73712">
        <ele>174</ele>
        <time>2018-01-14T11:56:13Z</time>
      </trkpt>
      <trkpt lat="45.92463" lon="4.73711">
        <ele>174</ele>
        <time>2018-01-14T11:56:31.401Z</time>
      </trkpt>
    </trkseg>
  </trk>
</gpx>